<?xml version="1.0" encoding="UTF-8" standalone="no" ?>
<gpx xmlns="http://www.topografix.com/GPX/1/1" xmlns:xsi="http://www.w3.org/2001/XMLSchema-instance" xsi:schemaLocation="http://www.topografix.com/GPX/1/1 http://www.topografix.com/GPX/1/1/gpx.xsd" version="1.1" creator="VisuGPX - https://www.visugpx.com">
  <metadata>
    <name>Us Bréançon</name>
  </metadata>
  <trk>
    <name><![CDATA[Us Bréançon_1]]></name>
    <extensions>
      <line xmlns="http://www.topografix.com/GPX/gpx_style/0/2">
        <color>0000FF</color>
        <width>4</width>
      </line>
    </extensions>
    <trkseg>
      <trkpt lat="49.09965" lon="1.97092">
        <ele>50</ele>
        <time>2022-09-11T07:31:33Z</time>
      </trkpt>
      <trkpt lat="49.09968" lon="1.97091">
        <ele>50</ele>
        <time>2022-09-11T07:31:39Z</time>
      </trkpt>
      <trkpt lat="49.09972" lon="1.97088">
        <ele>50</ele>
        <time>2022-09-11T07:31:44Z</time>
      </trkpt>
      <trkpt lat="49.09977" lon="1.97085">
        <ele>50.2</ele>
        <time>2022-09-11T07:31:49Z</time>
      </trkpt>
      <trkpt lat="49.0998" lon="1.97081">
        <ele>50.3</ele>
        <time>2022-09-11T07:31:54Z</time>
      </trkpt>
      <trkpt lat="49.09985" lon="1.97078">
        <ele>50.4</ele>
        <time>2022-09-11T07:32:00Z</time>
      </trkpt>
      <trkpt lat="49.09992" lon="1.97074">
        <ele>50.5</ele>
        <time>2022-09-11T07:32:06Z</time>
      </trkpt>
      <trkpt lat="49.10001" lon="1.97067">
        <ele>50.4</ele>
        <time>2022-09-11T07:32:12Z</time>
      </trkpt>
      <trkpt lat="49.10007" lon="1.97065">
        <ele>50.3</ele>
        <time>2022-09-11T07:32:17Z</time>
      </trkpt>
      <trkpt lat="49.10014" lon="1.97064">
        <ele>50.1</ele>
        <time>2022-09-11T07:32:23Z</time>
      </trkpt>
      <trkpt lat="49.10023" lon="1.9706">
        <ele>50</ele>
        <time>2022-09-11T07:32:29Z</time>
      </trkpt>
      <trkpt lat="49.10033" lon="1.97058">
        <ele>50</ele>
        <time>2022-09-11T07:32:35Z</time>
      </trkpt>
      <trkpt lat="49.10039" lon="1.97054">
        <ele>50</ele>
        <time>2022-09-11T07:32:41Z</time>
      </trkpt>
      <trkpt lat="49.10048" lon="1.97051">
        <ele>50</ele>
        <time>2022-09-11T07:32:47Z</time>
      </trkpt>
      <trkpt lat="49.10056" lon="1.97047">
        <ele>50</ele>
        <time>2022-09-11T07:32:52Z</time>
      </trkpt>
      <trkpt lat="49.10062" lon="1.9704">
        <ele>49.8</ele>
        <time>2022-09-11T07:32:58Z</time>
      </trkpt>
      <trkpt lat="49.1007" lon="1.97037">
        <ele>49.7</ele>
        <time>2022-09-11T07:33:04Z</time>
      </trkpt>
      <trkpt lat="49.10071" lon="1.97037">
        <ele>49.6</ele>
        <time>2022-09-11T07:33:10Z</time>
      </trkpt>
      <trkpt lat="49.10072" lon="1.97037">
        <ele>49.6</ele>
        <time>2022-09-11T07:33:15Z</time>
      </trkpt>
      <trkpt lat="49.10073" lon="1.97035">
        <ele>49.7</ele>
        <time>2022-09-11T07:33:21Z</time>
      </trkpt>
      <trkpt lat="49.10077" lon="1.97035">
        <ele>49.6</ele>
        <time>2022-09-11T07:33:27Z</time>
      </trkpt>
      <trkpt lat="49.10081" lon="1.97034">
        <ele>49.6</ele>
        <time>2022-09-11T07:33:32Z</time>
      </trkpt>
      <trkpt lat="49.10083" lon="1.97033">
        <ele>49.6</ele>
        <time>2022-09-11T07:33:37Z</time>
      </trkpt>
      <trkpt lat="49.10087" lon="1.97032">
        <ele>49.6</ele>
        <time>2022-09-11T07:33:43Z</time>
      </trkpt>
      <trkpt lat="49.10089" lon="1.97032">
        <ele>49.5</ele>
        <time>2022-09-11T07:33:49Z</time>
      </trkpt>
      <trkpt lat="49.1009" lon="1.97031">
        <ele>49.5</ele>
        <time>2022-09-11T07:33:55Z</time>
      </trkpt>
      <trkpt lat="49.1009" lon="1.97032">
        <ele>49.5</ele>
        <time>2022-09-11T07:34:01Z</time>
      </trkpt>
      <trkpt lat="49.10091" lon="1.97032">
        <ele>49.5</ele>
        <time>2022-09-11T07:34:06Z</time>
      </trkpt>
      <trkpt lat="49.10093" lon="1.97033">
        <ele>49.4</ele>
        <time>2022-09-11T07:34:12Z</time>
      </trkpt>
      <trkpt lat="49.10093" lon="1.97032">
        <ele>49.4</ele>
        <time>2022-09-11T07:34:17Z</time>
      </trkpt>
      <trkpt lat="49.10093" lon="1.97031">
        <ele>49.4</ele>
        <time>2022-09-11T07:34:23Z</time>
      </trkpt>
      <trkpt lat="49.10093" lon="1.9703">
        <ele>49.5</ele>
        <time>2022-09-11T07:34:28Z</time>
      </trkpt>
      <trkpt lat="49.10092" lon="1.9703">
        <ele>49.5</ele>
        <time>2022-09-11T07:34:39Z</time>
      </trkpt>
      <trkpt lat="49.10095" lon="1.97032">
        <ele>49.3</ele>
        <time>2022-09-11T07:34:51Z</time>
      </trkpt>
      <trkpt lat="49.10104" lon="1.97041">
        <ele>48.7</ele>
        <time>2022-09-11T07:34:57Z</time>
      </trkpt>
      <trkpt lat="49.10111" lon="1.97053">
        <ele>48.1</ele>
        <time>2022-09-11T07:35:03Z</time>
      </trkpt>
      <trkpt lat="49.10118" lon="1.97061">
        <ele>48.1</ele>
        <time>2022-09-11T07:35:08Z</time>
      </trkpt>
      <trkpt lat="49.10122" lon="1.97071">
        <ele>47.9</ele>
        <time>2022-09-11T07:35:14Z</time>
      </trkpt>
      <trkpt lat="49.10123" lon="1.97078">
        <ele>47.6</ele>
        <time>2022-09-11T07:35:20Z</time>
      </trkpt>
      <trkpt lat="49.10122" lon="1.97086">
        <ele>47.4</ele>
        <time>2022-09-11T07:35:26Z</time>
      </trkpt>
      <trkpt lat="49.10123" lon="1.97093">
        <ele>47.3</ele>
        <time>2022-09-11T07:35:32Z</time>
      </trkpt>
      <trkpt lat="49.10123" lon="1.97097">
        <ele>47.2</ele>
        <time>2022-09-11T07:35:37Z</time>
      </trkpt>
      <trkpt lat="49.10122" lon="1.97102">
        <ele>47.1</ele>
        <time>2022-09-11T07:35:42Z</time>
      </trkpt>
      <trkpt lat="49.10122" lon="1.97108">
        <ele>47</ele>
        <time>2022-09-11T07:35:47Z</time>
      </trkpt>
      <trkpt lat="49.10119" lon="1.97114">
        <ele>47</ele>
        <time>2022-09-11T07:35:53Z</time>
      </trkpt>
      <trkpt lat="49.10116" lon="1.97121">
        <ele>47</ele>
        <time>2022-09-11T07:35:58Z</time>
      </trkpt>
      <trkpt lat="49.10113" lon="1.97128">
        <ele>47</ele>
        <time>2022-09-11T07:36:04Z</time>
      </trkpt>
      <trkpt lat="49.10111" lon="1.97135">
        <ele>47</ele>
        <time>2022-09-11T07:36:10Z</time>
      </trkpt>
      <trkpt lat="49.10107" lon="1.9714">
        <ele>47</ele>
        <time>2022-09-11T07:36:15Z</time>
      </trkpt>
      <trkpt lat="49.10104" lon="1.97143">
        <ele>47</ele>
        <time>2022-09-11T07:36:21Z</time>
      </trkpt>
      <trkpt lat="49.10102" lon="1.97144">
        <ele>47</ele>
        <time>2022-09-11T07:36:27Z</time>
      </trkpt>
      <trkpt lat="49.10101" lon="1.97149">
        <ele>47</ele>
        <time>2022-09-11T07:36:32Z</time>
      </trkpt>
      <trkpt lat="49.101" lon="1.97158">
        <ele>47</ele>
        <time>2022-09-11T07:36:38Z</time>
      </trkpt>
      <trkpt lat="49.10098" lon="1.97167">
        <ele>47</ele>
        <time>2022-09-11T07:36:44Z</time>
      </trkpt>
      <trkpt lat="49.10095" lon="1.97175">
        <ele>47</ele>
        <time>2022-09-11T07:36:50Z</time>
      </trkpt>
      <trkpt lat="49.10093" lon="1.97182">
        <ele>47</ele>
        <time>2022-09-11T07:36:56Z</time>
      </trkpt>
      <trkpt lat="49.1009" lon="1.9719">
        <ele>47</ele>
        <time>2022-09-11T07:37:02Z</time>
      </trkpt>
      <trkpt lat="49.10087" lon="1.97202">
        <ele>47</ele>
        <time>2022-09-11T07:37:07Z</time>
      </trkpt>
      <trkpt lat="49.10082" lon="1.97213">
        <ele>47</ele>
        <time>2022-09-11T07:37:13Z</time>
      </trkpt>
      <trkpt lat="49.1008" lon="1.97219">
        <ele>47.1</ele>
        <time>2022-09-11T07:37:18Z</time>
      </trkpt>
      <trkpt lat="49.10075" lon="1.97225">
        <ele>47.3</ele>
        <time>2022-09-11T07:37:24Z</time>
      </trkpt>
      <trkpt lat="49.10073" lon="1.97231">
        <ele>47.4</ele>
        <time>2022-09-11T07:37:29Z</time>
      </trkpt>
      <trkpt lat="49.10075" lon="1.97246">
        <ele>47.3</ele>
        <time>2022-09-11T07:37:35Z</time>
      </trkpt>
      <trkpt lat="49.10075" lon="1.97262">
        <ele>47.3</ele>
        <time>2022-09-11T07:37:41Z</time>
      </trkpt>
      <trkpt lat="49.10074" lon="1.97275">
        <ele>47.3</ele>
        <time>2022-09-11T07:37:47Z</time>
      </trkpt>
      <trkpt lat="49.10073" lon="1.97284">
        <ele>47.5</ele>
        <time>2022-09-11T07:37:52Z</time>
      </trkpt>
      <trkpt lat="49.1007" lon="1.97296">
        <ele>47.8</ele>
        <time>2022-09-11T07:37:58Z</time>
      </trkpt>
      <trkpt lat="49.10068" lon="1.97304">
        <ele>48</ele>
        <time>2022-09-11T07:38:03Z</time>
      </trkpt>
      <trkpt lat="49.10067" lon="1.97313">
        <ele>48</ele>
        <time>2022-09-11T07:38:09Z</time>
      </trkpt>
      <trkpt lat="49.10064" lon="1.97324">
        <ele>48</ele>
        <time>2022-09-11T07:38:14Z</time>
      </trkpt>
      <trkpt lat="49.10061" lon="1.97336">
        <ele>47.9</ele>
        <time>2022-09-11T07:38:20Z</time>
      </trkpt>
      <trkpt lat="49.10058" lon="1.97346">
        <ele>47.6</ele>
        <time>2022-09-11T07:38:26Z</time>
      </trkpt>
      <trkpt lat="49.10056" lon="1.97359">
        <ele>47.1</ele>
        <time>2022-09-11T07:38:32Z</time>
      </trkpt>
      <trkpt lat="49.10052" lon="1.97372">
        <ele>47</ele>
        <time>2022-09-11T07:38:37Z</time>
      </trkpt>
      <trkpt lat="49.10049" lon="1.97382">
        <ele>47</ele>
        <time>2022-09-11T07:38:43Z</time>
      </trkpt>
      <trkpt lat="49.10047" lon="1.97389">
        <ele>47</ele>
        <time>2022-09-11T07:38:48Z</time>
      </trkpt>
      <trkpt lat="49.10045" lon="1.97397">
        <ele>47</ele>
        <time>2022-09-11T07:38:54Z</time>
      </trkpt>
      <trkpt lat="49.10042" lon="1.9741">
        <ele>47</ele>
        <time>2022-09-11T07:39:00Z</time>
      </trkpt>
      <trkpt lat="49.10037" lon="1.97429">
        <ele>46.9</ele>
        <time>2022-09-11T07:39:06Z</time>
      </trkpt>
      <trkpt lat="49.10034" lon="1.97439">
        <ele>46.8</ele>
        <time>2022-09-11T07:39:11Z</time>
      </trkpt>
      <trkpt lat="49.10031" lon="1.97451">
        <ele>46.9</ele>
        <time>2022-09-11T07:39:17Z</time>
      </trkpt>
      <trkpt lat="49.10029" lon="1.97462">
        <ele>47</ele>
        <time>2022-09-11T07:39:22Z</time>
      </trkpt>
      <trkpt lat="49.10025" lon="1.97478">
        <ele>47.3</ele>
        <time>2022-09-11T07:39:28Z</time>
      </trkpt>
      <trkpt lat="49.10023" lon="1.97495">
        <ele>47.9</ele>
        <time>2022-09-11T07:39:33Z</time>
      </trkpt>
      <trkpt lat="49.10019" lon="1.97519">
        <ele>48</ele>
        <time>2022-09-11T07:39:39Z</time>
      </trkpt>
      <trkpt lat="49.10016" lon="1.97534">
        <ele>48.4</ele>
        <time>2022-09-11T07:39:44Z</time>
      </trkpt>
      <trkpt lat="49.10011" lon="1.97547">
        <ele>49</ele>
        <time>2022-09-11T07:39:50Z</time>
      </trkpt>
      <trkpt lat="49.10003" lon="1.97559">
        <ele>49.4</ele>
        <time>2022-09-11T07:39:56Z</time>
      </trkpt>
      <trkpt lat="49.09997" lon="1.97567">
        <ele>49.7</ele>
        <time>2022-09-11T07:40:01Z</time>
      </trkpt>
      <trkpt lat="49.0999" lon="1.97572">
        <ele>50.1</ele>
        <time>2022-09-11T07:40:07Z</time>
      </trkpt>
      <trkpt lat="49.09983" lon="1.97582">
        <ele>50.9</ele>
        <time>2022-09-11T07:40:13Z</time>
      </trkpt>
      <trkpt lat="49.09976" lon="1.97591">
        <ele>51.5</ele>
        <time>2022-09-11T07:40:18Z</time>
      </trkpt>
      <trkpt lat="49.09969" lon="1.97601">
        <ele>52.2</ele>
        <time>2022-09-11T07:40:23Z</time>
      </trkpt>
      <trkpt lat="49.09961" lon="1.97609">
        <ele>52.8</ele>
        <time>2022-09-11T07:40:29Z</time>
      </trkpt>
      <trkpt lat="49.09953" lon="1.97615">
        <ele>53.3</ele>
        <time>2022-09-11T07:40:35Z</time>
      </trkpt>
      <trkpt lat="49.09945" lon="1.97622">
        <ele>53.8</ele>
        <time>2022-09-11T07:40:41Z</time>
      </trkpt>
      <trkpt lat="49.09936" lon="1.97628">
        <ele>54.1</ele>
        <time>2022-09-11T07:40:47Z</time>
      </trkpt>
      <trkpt lat="49.09927" lon="1.97635">
        <ele>54.7</ele>
        <time>2022-09-11T07:40:53Z</time>
      </trkpt>
      <trkpt lat="49.09918" lon="1.97643">
        <ele>55.3</ele>
        <time>2022-09-11T07:40:59Z</time>
      </trkpt>
      <trkpt lat="49.09911" lon="1.9765">
        <ele>55.8</ele>
        <time>2022-09-11T07:41:05Z</time>
      </trkpt>
      <trkpt lat="49.09902" lon="1.97656">
        <ele>56.2</ele>
        <time>2022-09-11T07:41:11Z</time>
      </trkpt>
      <trkpt lat="49.09895" lon="1.97662">
        <ele>56.6</ele>
        <time>2022-09-11T07:41:17Z</time>
      </trkpt>
      <trkpt lat="49.09888" lon="1.97665">
        <ele>56.9</ele>
        <time>2022-09-11T07:41:22Z</time>
      </trkpt>
      <trkpt lat="49.09881" lon="1.97667">
        <ele>57.1</ele>
        <time>2022-09-11T07:41:27Z</time>
      </trkpt>
      <trkpt lat="49.09874" lon="1.97672">
        <ele>57.4</ele>
        <time>2022-09-11T07:41:33Z</time>
      </trkpt>
      <trkpt lat="49.09866" lon="1.97679">
        <ele>57.9</ele>
        <time>2022-09-11T07:41:39Z</time>
      </trkpt>
      <trkpt lat="49.09859" lon="1.97684">
        <ele>58.2</ele>
        <time>2022-09-11T07:41:44Z</time>
      </trkpt>
      <trkpt lat="49.09852" lon="1.97691">
        <ele>58.4</ele>
        <time>2022-09-11T07:41:50Z</time>
      </trkpt>
      <trkpt lat="49.09846" lon="1.97697">
        <ele>58.7</ele>
        <time>2022-09-11T07:41:56Z</time>
      </trkpt>
      <trkpt lat="49.0984" lon="1.97702">
        <ele>58.8</ele>
        <time>2022-09-11T07:42:01Z</time>
      </trkpt>
      <trkpt lat="49.09832" lon="1.97708">
        <ele>58.9</ele>
        <time>2022-09-11T07:42:07Z</time>
      </trkpt>
      <trkpt lat="49.09826" lon="1.97713">
        <ele>59.2</ele>
        <time>2022-09-11T07:42:12Z</time>
      </trkpt>
      <trkpt lat="49.09818" lon="1.97719">
        <ele>59.7</ele>
        <time>2022-09-11T07:42:18Z</time>
      </trkpt>
      <trkpt lat="49.09812" lon="1.97724">
        <ele>60.1</ele>
        <time>2022-09-11T07:42:23Z</time>
      </trkpt>
      <trkpt lat="49.09804" lon="1.97729">
        <ele>60.5</ele>
        <time>2022-09-11T07:42:29Z</time>
      </trkpt>
      <trkpt lat="49.09798" lon="1.97733">
        <ele>60.8</ele>
        <time>2022-09-11T07:42:34Z</time>
      </trkpt>
      <trkpt lat="49.09791" lon="1.97736">
        <ele>61</ele>
        <time>2022-09-11T07:42:39Z</time>
      </trkpt>
      <trkpt lat="49.09785" lon="1.9774">
        <ele>61.3</ele>
        <time>2022-09-11T07:42:44Z</time>
      </trkpt>
      <trkpt lat="49.09777" lon="1.97744">
        <ele>61.6</ele>
        <time>2022-09-11T07:42:49Z</time>
      </trkpt>
      <trkpt lat="49.09768" lon="1.97747">
        <ele>61.8</ele>
        <time>2022-09-11T07:42:55Z</time>
      </trkpt>
      <trkpt lat="49.09761" lon="1.97749">
        <ele>61.9</ele>
        <time>2022-09-11T07:43:00Z</time>
      </trkpt>
      <trkpt lat="49.09753" lon="1.97748">
        <ele>61.9</ele>
        <time>2022-09-11T07:43:05Z</time>
      </trkpt>
      <trkpt lat="49.09744" lon="1.97746">
        <ele>61.7</ele>
        <time>2022-09-11T07:43:11Z</time>
      </trkpt>
      <trkpt lat="49.09738" lon="1.97744">
        <ele>61.6</ele>
        <time>2022-09-11T07:43:16Z</time>
      </trkpt>
      <trkpt lat="49.0973" lon="1.97744">
        <ele>61.6</ele>
        <time>2022-09-11T07:43:22Z</time>
      </trkpt>
      <trkpt lat="49.09728" lon="1.97753">
        <ele>62.2</ele>
        <time>2022-09-11T07:43:27Z</time>
      </trkpt>
      <trkpt lat="49.0973" lon="1.97767">
        <ele>63.1</ele>
        <time>2022-09-11T07:43:32Z</time>
      </trkpt>
      <trkpt lat="49.09734" lon="1.9778">
        <ele>63.7</ele>
        <time>2022-09-11T07:43:38Z</time>
      </trkpt>
      <trkpt lat="49.09738" lon="1.97788">
        <ele>64.2</ele>
        <time>2022-09-11T07:43:43Z</time>
      </trkpt>
      <trkpt lat="49.09743" lon="1.97797">
        <ele>64.6</ele>
        <time>2022-09-11T07:43:49Z</time>
      </trkpt>
      <trkpt lat="49.09747" lon="1.97807">
        <ele>65.3</ele>
        <time>2022-09-11T07:43:55Z</time>
      </trkpt>
      <trkpt lat="49.0975" lon="1.97816">
        <ele>66.5</ele>
        <time>2022-09-11T07:44:00Z</time>
      </trkpt>
      <trkpt lat="49.09753" lon="1.97827">
        <ele>67.8</ele>
        <time>2022-09-11T07:44:06Z</time>
      </trkpt>
      <trkpt lat="49.09759" lon="1.97837">
        <ele>68.6</ele>
        <time>2022-09-11T07:44:12Z</time>
      </trkpt>
      <trkpt lat="49.09763" lon="1.97845">
        <ele>69.3</ele>
        <time>2022-09-11T07:44:17Z</time>
      </trkpt>
      <trkpt lat="49.0977" lon="1.97854">
        <ele>70.1</ele>
        <time>2022-09-11T07:44:23Z</time>
      </trkpt>
      <trkpt lat="49.09773" lon="1.97859">
        <ele>70.9</ele>
        <time>2022-09-11T07:44:28Z</time>
      </trkpt>
      <trkpt lat="49.0978" lon="1.97869">
        <ele>71.5</ele>
        <time>2022-09-11T07:44:34Z</time>
      </trkpt>
      <trkpt lat="49.09786" lon="1.97878">
        <ele>72.1</ele>
        <time>2022-09-11T07:44:39Z</time>
      </trkpt>
      <trkpt lat="49.09792" lon="1.97886">
        <ele>72.8</ele>
        <time>2022-09-11T07:44:45Z</time>
      </trkpt>
      <trkpt lat="49.09797" lon="1.97892">
        <ele>73.2</ele>
        <time>2022-09-11T07:44:50Z</time>
      </trkpt>
      <trkpt lat="49.09804" lon="1.97901">
        <ele>73.9</ele>
        <time>2022-09-11T07:44:56Z</time>
      </trkpt>
      <trkpt lat="49.0981" lon="1.9791">
        <ele>74.5</ele>
        <time>2022-09-11T07:45:02Z</time>
      </trkpt>
      <trkpt lat="49.09817" lon="1.97918">
        <ele>75.1</ele>
        <time>2022-09-11T07:45:07Z</time>
      </trkpt>
      <trkpt lat="49.09824" lon="1.97926">
        <ele>76</ele>
        <time>2022-09-11T07:45:13Z</time>
      </trkpt>
      <trkpt lat="49.09831" lon="1.97931">
        <ele>76.5</ele>
        <time>2022-09-11T07:45:19Z</time>
      </trkpt>
      <trkpt lat="49.09838" lon="1.97935">
        <ele>77.2</ele>
        <time>2022-09-11T07:45:24Z</time>
      </trkpt>
      <trkpt lat="49.09844" lon="1.9794">
        <ele>77.9</ele>
        <time>2022-09-11T07:45:30Z</time>
      </trkpt>
      <trkpt lat="49.09853" lon="1.97944">
        <ele>78.7</ele>
        <time>2022-09-11T07:45:36Z</time>
      </trkpt>
      <trkpt lat="49.09861" lon="1.97947">
        <ele>79.2</ele>
        <time>2022-09-11T07:45:41Z</time>
      </trkpt>
      <trkpt lat="49.09869" lon="1.97947">
        <ele>79.5</ele>
        <time>2022-09-11T07:45:47Z</time>
      </trkpt>
      <trkpt lat="49.09876" lon="1.97948">
        <ele>79.8</ele>
        <time>2022-09-11T07:45:52Z</time>
      </trkpt>
      <trkpt lat="49.09885" lon="1.97947">
        <ele>80</ele>
        <time>2022-09-11T07:45:58Z</time>
      </trkpt>
      <trkpt lat="49.09895" lon="1.97943">
        <ele>80.1</ele>
        <time>2022-09-11T07:46:04Z</time>
      </trkpt>
      <trkpt lat="49.09902" lon="1.97942">
        <ele>80.1</ele>
        <time>2022-09-11T07:46:09Z</time>
      </trkpt>
      <trkpt lat="49.09911" lon="1.9794">
        <ele>80.3</ele>
        <time>2022-09-11T07:46:15Z</time>
      </trkpt>
      <trkpt lat="49.09919" lon="1.97937">
        <ele>80.2</ele>
        <time>2022-09-11T07:46:20Z</time>
      </trkpt>
      <trkpt lat="49.09927" lon="1.97936">
        <ele>80.2</ele>
        <time>2022-09-11T07:46:26Z</time>
      </trkpt>
      <trkpt lat="49.09933" lon="1.97936">
        <ele>80.2</ele>
        <time>2022-09-11T07:46:31Z</time>
      </trkpt>
      <trkpt lat="49.09943" lon="1.97934">
        <ele>80.2</ele>
        <time>2022-09-11T07:46:37Z</time>
      </trkpt>
      <trkpt lat="49.09952" lon="1.97931">
        <ele>80.4</ele>
        <time>2022-09-11T07:46:43Z</time>
      </trkpt>
      <trkpt lat="49.0996" lon="1.9793">
        <ele>80.8</ele>
        <time>2022-09-11T07:46:48Z</time>
      </trkpt>
      <trkpt lat="49.09968" lon="1.97926">
        <ele>81.1</ele>
        <time>2022-09-11T07:46:53Z</time>
      </trkpt>
      <trkpt lat="49.09977" lon="1.97922">
        <ele>81.3</ele>
        <time>2022-09-11T07:46:59Z</time>
      </trkpt>
      <trkpt lat="49.09985" lon="1.9792">
        <ele>81.2</ele>
        <time>2022-09-11T07:47:05Z</time>
      </trkpt>
      <trkpt lat="49.09991" lon="1.97917">
        <ele>81</ele>
        <time>2022-09-11T07:47:10Z</time>
      </trkpt>
      <trkpt lat="49.10001" lon="1.97913">
        <ele>80.7</ele>
        <time>2022-09-11T07:47:16Z</time>
      </trkpt>
      <trkpt lat="49.10009" lon="1.97911">
        <ele>81.1</ele>
        <time>2022-09-11T07:47:21Z</time>
      </trkpt>
      <trkpt lat="49.10016" lon="1.97906">
        <ele>81.2</ele>
        <time>2022-09-11T07:47:26Z</time>
      </trkpt>
      <trkpt lat="49.10024" lon="1.97902">
        <ele>81.6</ele>
        <time>2022-09-11T07:47:32Z</time>
      </trkpt>
      <trkpt lat="49.10031" lon="1.97899">
        <ele>81.9</ele>
        <time>2022-09-11T07:47:37Z</time>
      </trkpt>
      <trkpt lat="49.10038" lon="1.97894">
        <ele>82.1</ele>
        <time>2022-09-11T07:47:42Z</time>
      </trkpt>
      <trkpt lat="49.10048" lon="1.97889">
        <ele>82.5</ele>
        <time>2022-09-11T07:47:48Z</time>
      </trkpt>
      <trkpt lat="49.10056" lon="1.97884">
        <ele>82.5</ele>
        <time>2022-09-11T07:47:53Z</time>
      </trkpt>
      <trkpt lat="49.10064" lon="1.97881">
        <ele>82.7</ele>
        <time>2022-09-11T07:47:58Z</time>
      </trkpt>
      <trkpt lat="49.10071" lon="1.97876">
        <ele>82.8</ele>
        <time>2022-09-11T07:48:04Z</time>
      </trkpt>
      <trkpt lat="49.1008" lon="1.97871">
        <ele>82.9</ele>
        <time>2022-09-11T07:48:10Z</time>
      </trkpt>
      <trkpt lat="49.10089" lon="1.97869">
        <ele>83.2</ele>
        <time>2022-09-11T07:48:15Z</time>
      </trkpt>
      <trkpt lat="49.10096" lon="1.97867">
        <ele>83.4</ele>
        <time>2022-09-11T07:48:21Z</time>
      </trkpt>
      <trkpt lat="49.10103" lon="1.97864">
        <ele>83.7</ele>
        <time>2022-09-11T07:48:26Z</time>
      </trkpt>
      <trkpt lat="49.10111" lon="1.97863">
        <ele>84.1</ele>
        <time>2022-09-11T07:48:31Z</time>
      </trkpt>
      <trkpt lat="49.10119" lon="1.97861">
        <ele>84.3</ele>
        <time>2022-09-11T07:48:36Z</time>
      </trkpt>
      <trkpt lat="49.10127" lon="1.97861">
        <ele>84.6</ele>
        <time>2022-09-11T07:48:42Z</time>
      </trkpt>
      <trkpt lat="49.10134" lon="1.97863">
        <ele>84.9</ele>
        <time>2022-09-11T07:48:47Z</time>
      </trkpt>
      <trkpt lat="49.10144" lon="1.97863">
        <ele>85.4</ele>
        <time>2022-09-11T07:48:53Z</time>
      </trkpt>
      <trkpt lat="49.10151" lon="1.97864">
        <ele>86</ele>
        <time>2022-09-11T07:48:58Z</time>
      </trkpt>
      <trkpt lat="49.1016" lon="1.97868">
        <ele>86.7</ele>
        <time>2022-09-11T07:49:04Z</time>
      </trkpt>
      <trkpt lat="49.10168" lon="1.97872">
        <ele>87.4</ele>
        <time>2022-09-11T07:49:10Z</time>
      </trkpt>
      <trkpt lat="49.10174" lon="1.97875">
        <ele>87.6</ele>
        <time>2022-09-11T07:49:15Z</time>
      </trkpt>
      <trkpt lat="49.10182" lon="1.97881">
        <ele>88.1</ele>
        <time>2022-09-11T07:49:21Z</time>
      </trkpt>
      <trkpt lat="49.1019" lon="1.97886">
        <ele>88.6</ele>
        <time>2022-09-11T07:49:26Z</time>
      </trkpt>
      <trkpt lat="49.10197" lon="1.97891">
        <ele>89</ele>
        <time>2022-09-11T07:49:32Z</time>
      </trkpt>
      <trkpt lat="49.10204" lon="1.97896">
        <ele>89.1</ele>
        <time>2022-09-11T07:49:37Z</time>
      </trkpt>
      <trkpt lat="49.10212" lon="1.97901">
        <ele>89.3</ele>
        <time>2022-09-11T07:49:42Z</time>
      </trkpt>
      <trkpt lat="49.1022" lon="1.97907">
        <ele>89.6</ele>
        <time>2022-09-11T07:49:48Z</time>
      </trkpt>
      <trkpt lat="49.10226" lon="1.97912">
        <ele>89.8</ele>
        <time>2022-09-11T07:49:53Z</time>
      </trkpt>
      <trkpt lat="49.10235" lon="1.97919">
        <ele>90.1</ele>
        <time>2022-09-11T07:49:59Z</time>
      </trkpt>
      <trkpt lat="49.10242" lon="1.97924">
        <ele>90.4</ele>
        <time>2022-09-11T07:50:04Z</time>
      </trkpt>
      <trkpt lat="49.10249" lon="1.97929">
        <ele>90.9</ele>
        <time>2022-09-11T07:50:10Z</time>
      </trkpt>
      <trkpt lat="49.10258" lon="1.97932">
        <ele>91.2</ele>
        <time>2022-09-11T07:50:16Z</time>
      </trkpt>
      <trkpt lat="49.10263" lon="1.97937">
        <ele>91.6</ele>
        <time>2022-09-11T07:50:21Z</time>
      </trkpt>
      <trkpt lat="49.1027" lon="1.97942">
        <ele>91.9</ele>
        <time>2022-09-11T07:50:27Z</time>
      </trkpt>
      <trkpt lat="49.10276" lon="1.97945">
        <ele>92</ele>
        <time>2022-09-11T07:50:32Z</time>
      </trkpt>
      <trkpt lat="49.10283" lon="1.97949">
        <ele>92.3</ele>
        <time>2022-09-11T07:50:37Z</time>
      </trkpt>
      <trkpt lat="49.10291" lon="1.97953">
        <ele>92.5</ele>
        <time>2022-09-11T07:50:43Z</time>
      </trkpt>
      <trkpt lat="49.10298" lon="1.97959">
        <ele>92.7</ele>
        <time>2022-09-11T07:50:49Z</time>
      </trkpt>
      <trkpt lat="49.10301" lon="1.9797">
        <ele>93.1</ele>
        <time>2022-09-11T07:50:55Z</time>
      </trkpt>
      <trkpt lat="49.10305" lon="1.97987">
        <ele>93.6</ele>
        <time>2022-09-11T07:51:01Z</time>
      </trkpt>
      <trkpt lat="49.10306" lon="1.97995">
        <ele>93.8</ele>
        <time>2022-09-11T07:51:06Z</time>
      </trkpt>
      <trkpt lat="49.10309" lon="1.98006">
        <ele>94.1</ele>
        <time>2022-09-11T07:51:12Z</time>
      </trkpt>
      <trkpt lat="49.10312" lon="1.98019">
        <ele>94.5</ele>
        <time>2022-09-11T07:51:18Z</time>
      </trkpt>
      <trkpt lat="49.10317" lon="1.98028">
        <ele>94.6</ele>
        <time>2022-09-11T07:51:24Z</time>
      </trkpt>
      <trkpt lat="49.10321" lon="1.9804">
        <ele>94.9</ele>
        <time>2022-09-11T07:51:30Z</time>
      </trkpt>
      <trkpt lat="49.10325" lon="1.98047">
        <ele>95</ele>
        <time>2022-09-11T07:51:35Z</time>
      </trkpt>
      <trkpt lat="49.10327" lon="1.9806">
        <ele>95.4</ele>
        <time>2022-09-11T07:51:41Z</time>
      </trkpt>
      <trkpt lat="49.10329" lon="1.9807">
        <ele>95.6</ele>
        <time>2022-09-11T07:51:46Z</time>
      </trkpt>
      <trkpt lat="49.10327" lon="1.98081">
        <ele>95.9</ele>
        <time>2022-09-11T07:51:52Z</time>
      </trkpt>
      <trkpt lat="49.1033" lon="1.98087">
        <ele>96.1</ele>
        <time>2022-09-11T07:51:58Z</time>
      </trkpt>
      <trkpt lat="49.10333" lon="1.98094">
        <ele>96.4</ele>
        <time>2022-09-11T07:52:03Z</time>
      </trkpt>
      <trkpt lat="49.10337" lon="1.98106">
        <ele>96.7</ele>
        <time>2022-09-11T07:52:09Z</time>
      </trkpt>
      <trkpt lat="49.10339" lon="1.98114">
        <ele>96.9</ele>
        <time>2022-09-11T07:52:14Z</time>
      </trkpt>
      <trkpt lat="49.10342" lon="1.98122">
        <ele>97.2</ele>
        <time>2022-09-11T07:52:19Z</time>
      </trkpt>
      <trkpt lat="49.10346" lon="1.98132">
        <ele>97.6</ele>
        <time>2022-09-11T07:52:25Z</time>
      </trkpt>
      <trkpt lat="49.10349" lon="1.98142">
        <ele>98.1</ele>
        <time>2022-09-11T07:52:31Z</time>
      </trkpt>
      <trkpt lat="49.10352" lon="1.9815">
        <ele>98.4</ele>
        <time>2022-09-11T07:52:36Z</time>
      </trkpt>
      <trkpt lat="49.10355" lon="1.9816">
        <ele>98.8</ele>
        <time>2022-09-11T07:52:42Z</time>
      </trkpt>
      <trkpt lat="49.10356" lon="1.98171">
        <ele>99.2</ele>
        <time>2022-09-11T07:52:48Z</time>
      </trkpt>
      <trkpt lat="49.10359" lon="1.98185">
        <ele>99.7</ele>
        <time>2022-09-11T07:52:54Z</time>
      </trkpt>
      <trkpt lat="49.1036" lon="1.98198">
        <ele>100.1</ele>
        <time>2022-09-11T07:53:00Z</time>
      </trkpt>
      <trkpt lat="49.10361" lon="1.98207">
        <ele>100.4</ele>
        <time>2022-09-11T07:53:05Z</time>
      </trkpt>
      <trkpt lat="49.10364" lon="1.98217">
        <ele>100.8</ele>
        <time>2022-09-11T07:53:10Z</time>
      </trkpt>
      <trkpt lat="49.10365" lon="1.98229">
        <ele>101.2</ele>
        <time>2022-09-11T07:53:16Z</time>
      </trkpt>
      <trkpt lat="49.10368" lon="1.98238">
        <ele>101.6</ele>
        <time>2022-09-11T07:53:21Z</time>
      </trkpt>
      <trkpt lat="49.1037" lon="1.98249">
        <ele>102</ele>
        <time>2022-09-11T07:53:27Z</time>
      </trkpt>
      <trkpt lat="49.10373" lon="1.9826">
        <ele>102</ele>
        <time>2022-09-11T07:53:32Z</time>
      </trkpt>
      <trkpt lat="49.10372" lon="1.98273">
        <ele>102</ele>
        <time>2022-09-11T07:53:38Z</time>
      </trkpt>
      <trkpt lat="49.10372" lon="1.98283">
        <ele>102.2</ele>
        <time>2022-09-11T07:53:44Z</time>
      </trkpt>
      <trkpt lat="49.10377" lon="1.98295">
        <ele>102.6</ele>
        <time>2022-09-11T07:53:50Z</time>
      </trkpt>
      <trkpt lat="49.10379" lon="1.98307">
        <ele>103</ele>
        <time>2022-09-11T07:53:56Z</time>
      </trkpt>
      <trkpt lat="49.1038" lon="1.98319">
        <ele>103</ele>
        <time>2022-09-11T07:54:01Z</time>
      </trkpt>
      <trkpt lat="49.1038" lon="1.98331">
        <ele>103</ele>
        <time>2022-09-11T07:54:07Z</time>
      </trkpt>
      <trkpt lat="49.10381" lon="1.98341">
        <ele>103.2</ele>
        <time>2022-09-11T07:54:13Z</time>
      </trkpt>
      <trkpt lat="49.10386" lon="1.98354">
        <ele>103.6</ele>
        <time>2022-09-11T07:54:19Z</time>
      </trkpt>
      <trkpt lat="49.10387" lon="1.98361">
        <ele>103.9</ele>
        <time>2022-09-11T07:54:24Z</time>
      </trkpt>
      <trkpt lat="49.10389" lon="1.9837">
        <ele>104</ele>
        <time>2022-09-11T07:54:30Z</time>
      </trkpt>
      <trkpt lat="49.10392" lon="1.98378">
        <ele>104</ele>
        <time>2022-09-11T07:54:35Z</time>
      </trkpt>
      <trkpt lat="49.10393" lon="1.98384">
        <ele>104</ele>
        <time>2022-09-11T07:54:40Z</time>
      </trkpt>
      <trkpt lat="49.10392" lon="1.98397">
        <ele>104</ele>
        <time>2022-09-11T07:54:46Z</time>
      </trkpt>
      <trkpt lat="49.10392" lon="1.98407">
        <ele>104</ele>
        <time>2022-09-11T07:54:52Z</time>
      </trkpt>
      <trkpt lat="49.10395" lon="1.98418">
        <ele>104</ele>
        <time>2022-09-11T07:54:58Z</time>
      </trkpt>
      <trkpt lat="49.10396" lon="1.9843">
        <ele>104</ele>
        <time>2022-09-11T07:55:03Z</time>
      </trkpt>
      <trkpt lat="49.10399" lon="1.98438">
        <ele>104</ele>
        <time>2022-09-11T07:55:08Z</time>
      </trkpt>
      <trkpt lat="49.10404" lon="1.98449">
        <ele>104.2</ele>
        <time>2022-09-11T07:55:15Z</time>
      </trkpt>
      <trkpt lat="49.10411" lon="1.98456">
        <ele>104.4</ele>
        <time>2022-09-11T07:55:21Z</time>
      </trkpt>
      <trkpt lat="49.10415" lon="1.98467">
        <ele>104.8</ele>
        <time>2022-09-11T07:55:27Z</time>
      </trkpt>
      <trkpt lat="49.1042" lon="1.98475">
        <ele>105</ele>
        <time>2022-09-11T07:55:32Z</time>
      </trkpt>
      <trkpt lat="49.10424" lon="1.98482">
        <ele>105</ele>
        <time>2022-09-11T07:55:38Z</time>
      </trkpt>
      <trkpt lat="49.10429" lon="1.98492">
        <ele>105</ele>
        <time>2022-09-11T07:55:43Z</time>
      </trkpt>
      <trkpt lat="49.10434" lon="1.98498">
        <ele>105</ele>
        <time>2022-09-11T07:55:48Z</time>
      </trkpt>
      <trkpt lat="49.10439" lon="1.98505">
        <ele>105</ele>
        <time>2022-09-11T07:55:54Z</time>
      </trkpt>
      <trkpt lat="49.10439" lon="1.98504">
        <ele>105</ele>
        <time>2022-09-11T07:56:05Z</time>
      </trkpt>
      <trkpt lat="49.10444" lon="1.98509">
        <ele>105</ele>
        <time>2022-09-11T07:56:23Z</time>
      </trkpt>
      <trkpt lat="49.10449" lon="1.98515">
        <ele>105</ele>
        <time>2022-09-11T07:56:29Z</time>
      </trkpt>
      <trkpt lat="49.10458" lon="1.98522">
        <ele>105</ele>
        <time>2022-09-11T07:56:35Z</time>
      </trkpt>
      <trkpt lat="49.10463" lon="1.98527">
        <ele>105</ele>
        <time>2022-09-11T07:56:40Z</time>
      </trkpt>
      <trkpt lat="49.10469" lon="1.98536">
        <ele>105</ele>
        <time>2022-09-11T07:56:46Z</time>
      </trkpt>
      <trkpt lat="49.10475" lon="1.98543">
        <ele>105.1</ele>
        <time>2022-09-11T07:56:51Z</time>
      </trkpt>
      <trkpt lat="49.1048" lon="1.98549">
        <ele>105.3</ele>
        <time>2022-09-11T07:56:56Z</time>
      </trkpt>
      <trkpt lat="49.10486" lon="1.98556">
        <ele>105.5</ele>
        <time>2022-09-11T07:57:01Z</time>
      </trkpt>
      <trkpt lat="49.10494" lon="1.98562">
        <ele>105.8</ele>
        <time>2022-09-11T07:57:07Z</time>
      </trkpt>
      <trkpt lat="49.10502" lon="1.9857">
        <ele>106</ele>
        <time>2022-09-11T07:57:13Z</time>
      </trkpt>
      <trkpt lat="49.10507" lon="1.98577">
        <ele>106</ele>
        <time>2022-09-11T07:57:18Z</time>
      </trkpt>
      <trkpt lat="49.10514" lon="1.98584">
        <ele>106</ele>
        <time>2022-09-11T07:57:24Z</time>
      </trkpt>
      <trkpt lat="49.10522" lon="1.98591">
        <ele>106</ele>
        <time>2022-09-11T07:57:30Z</time>
      </trkpt>
      <trkpt lat="49.10529" lon="1.98599">
        <ele>106</ele>
        <time>2022-09-11T07:57:36Z</time>
      </trkpt>
      <trkpt lat="49.10535" lon="1.98605">
        <ele>106</ele>
        <time>2022-09-11T07:57:41Z</time>
      </trkpt>
      <trkpt lat="49.10541" lon="1.98611">
        <ele>106</ele>
        <time>2022-09-11T07:57:46Z</time>
      </trkpt>
      <trkpt lat="49.10547" lon="1.98618">
        <ele>106</ele>
        <time>2022-09-11T07:57:52Z</time>
      </trkpt>
      <trkpt lat="49.10553" lon="1.98626">
        <ele>106</ele>
        <time>2022-09-11T07:57:58Z</time>
      </trkpt>
      <trkpt lat="49.1056" lon="1.98635">
        <ele>106.1</ele>
        <time>2022-09-11T07:58:04Z</time>
      </trkpt>
      <trkpt lat="49.10565" lon="1.98642">
        <ele>106.4</ele>
        <time>2022-09-11T07:58:09Z</time>
      </trkpt>
      <trkpt lat="49.10572" lon="1.9865">
        <ele>106.6</ele>
        <time>2022-09-11T07:58:15Z</time>
      </trkpt>
      <trkpt lat="49.1058" lon="1.98658">
        <ele>106.9</ele>
        <time>2022-09-11T07:58:21Z</time>
      </trkpt>
      <trkpt lat="49.10586" lon="1.98666">
        <ele>107</ele>
        <time>2022-09-11T07:58:27Z</time>
      </trkpt>
      <trkpt lat="49.10593" lon="1.98672">
        <ele>107</ele>
        <time>2022-09-11T07:58:33Z</time>
      </trkpt>
      <trkpt lat="49.10601" lon="1.98679">
        <ele>107</ele>
        <time>2022-09-11T07:58:39Z</time>
      </trkpt>
      <trkpt lat="49.10608" lon="1.98686">
        <ele>107</ele>
        <time>2022-09-11T07:58:44Z</time>
      </trkpt>
      <trkpt lat="49.10614" lon="1.98694">
        <ele>107</ele>
        <time>2022-09-11T07:58:50Z</time>
      </trkpt>
      <trkpt lat="49.10621" lon="1.987">
        <ele>107</ele>
        <time>2022-09-11T07:58:56Z</time>
      </trkpt>
      <trkpt lat="49.10628" lon="1.98708">
        <ele>107</ele>
        <time>2022-09-11T07:59:01Z</time>
      </trkpt>
      <trkpt lat="49.10634" lon="1.98716">
        <ele>107</ele>
        <time>2022-09-11T07:59:07Z</time>
      </trkpt>
      <trkpt lat="49.10639" lon="1.98722">
        <ele>107</ele>
        <time>2022-09-11T07:59:12Z</time>
      </trkpt>
      <trkpt lat="49.10646" lon="1.9873">
        <ele>107.3</ele>
        <time>2022-09-11T07:59:18Z</time>
      </trkpt>
      <trkpt lat="49.10653" lon="1.98739">
        <ele>107.5</ele>
        <time>2022-09-11T07:59:23Z</time>
      </trkpt>
      <trkpt lat="49.1066" lon="1.98747">
        <ele>107.8</ele>
        <time>2022-09-11T07:59:29Z</time>
      </trkpt>
      <trkpt lat="49.10666" lon="1.98753">
        <ele>108</ele>
        <time>2022-09-11T07:59:34Z</time>
      </trkpt>
      <trkpt lat="49.10671" lon="1.98759">
        <ele>108</ele>
        <time>2022-09-11T07:59:39Z</time>
      </trkpt>
      <trkpt lat="49.10677" lon="1.98769">
        <ele>108</ele>
        <time>2022-09-11T07:59:45Z</time>
      </trkpt>
      <trkpt lat="49.10685" lon="1.98776">
        <ele>108</ele>
        <time>2022-09-11T07:59:51Z</time>
      </trkpt>
      <trkpt lat="49.10692" lon="1.98783">
        <ele>108</ele>
        <time>2022-09-11T07:59:57Z</time>
      </trkpt>
      <trkpt lat="49.10698" lon="1.98787">
        <ele>108.1</ele>
        <time>2022-09-11T08:00:02Z</time>
      </trkpt>
      <trkpt lat="49.10704" lon="1.98791">
        <ele>108.4</ele>
        <time>2022-09-11T08:00:07Z</time>
      </trkpt>
      <trkpt lat="49.10711" lon="1.98795">
        <ele>108.6</ele>
        <time>2022-09-11T08:00:13Z</time>
      </trkpt>
      <trkpt lat="49.1072" lon="1.98798">
        <ele>108.9</ele>
        <time>2022-09-11T08:00:19Z</time>
      </trkpt>
      <trkpt lat="49.10727" lon="1.98801">
        <ele>109</ele>
        <time>2022-09-11T08:00:24Z</time>
      </trkpt>
      <trkpt lat="49.10737" lon="1.988">
        <ele>108.9</ele>
        <time>2022-09-11T08:00:31Z</time>
      </trkpt>
      <trkpt lat="49.10748" lon="1.988">
        <ele>108.8</ele>
        <time>2022-09-11T08:00:37Z</time>
      </trkpt>
      <trkpt lat="49.10756" lon="1.98798">
        <ele>108.6</ele>
        <time>2022-09-11T08:00:42Z</time>
      </trkpt>
      <trkpt lat="49.10763" lon="1.98792">
        <ele>108.3</ele>
        <time>2022-09-11T08:00:47Z</time>
      </trkpt>
      <trkpt lat="49.10773" lon="1.98785">
        <ele>108.1</ele>
        <time>2022-09-11T08:00:53Z</time>
      </trkpt>
      <trkpt lat="49.10781" lon="1.98774">
        <ele>107.7</ele>
        <time>2022-09-11T08:00:59Z</time>
      </trkpt>
      <trkpt lat="49.10789" lon="1.98768">
        <ele>107.2</ele>
        <time>2022-09-11T08:01:05Z</time>
      </trkpt>
      <trkpt lat="49.10797" lon="1.98762">
        <ele>106.7</ele>
        <time>2022-09-11T08:01:11Z</time>
      </trkpt>
      <trkpt lat="49.10806" lon="1.98754">
        <ele>106.1</ele>
        <time>2022-09-11T08:01:17Z</time>
      </trkpt>
      <trkpt lat="49.10813" lon="1.98746">
        <ele>105.6</ele>
        <time>2022-09-11T08:01:23Z</time>
      </trkpt>
      <trkpt lat="49.10818" lon="1.98739">
        <ele>105.1</ele>
        <time>2022-09-11T08:01:28Z</time>
      </trkpt>
      <trkpt lat="49.10822" lon="1.98729">
        <ele>104.6</ele>
        <time>2022-09-11T08:01:34Z</time>
      </trkpt>
      <trkpt lat="49.10828" lon="1.98723">
        <ele>104.2</ele>
        <time>2022-09-11T08:01:39Z</time>
      </trkpt>
      <trkpt lat="49.10832" lon="1.98718">
        <ele>104.1</ele>
        <time>2022-09-11T08:01:45Z</time>
      </trkpt>
      <trkpt lat="49.10831" lon="1.98719">
        <ele>104.1</ele>
        <time>2022-09-11T08:01:51Z</time>
      </trkpt>
      <trkpt lat="49.10832" lon="1.98719">
        <ele>104.1</ele>
        <time>2022-09-11T08:01:57Z</time>
      </trkpt>
      <trkpt lat="49.10831" lon="1.9872">
        <ele>104.1</ele>
        <time>2022-09-11T08:02:02Z</time>
      </trkpt>
      <trkpt lat="49.10833" lon="1.9873">
        <ele>104.3</ele>
        <time>2022-09-11T08:02:07Z</time>
      </trkpt>
      <trkpt lat="49.10837" lon="1.98742">
        <ele>104.7</ele>
        <time>2022-09-11T08:02:13Z</time>
      </trkpt>
      <trkpt lat="49.10844" lon="1.98748">
        <ele>105</ele>
        <time>2022-09-11T08:02:19Z</time>
      </trkpt>
      <trkpt lat="49.10848" lon="1.98756">
        <ele>105.1</ele>
        <time>2022-09-11T08:02:24Z</time>
      </trkpt>
      <trkpt lat="49.10853" lon="1.98765">
        <ele>105.2</ele>
        <time>2022-09-11T08:02:29Z</time>
      </trkpt>
      <trkpt lat="49.10855" lon="1.98775">
        <ele>105.2</ele>
        <time>2022-09-11T08:02:35Z</time>
      </trkpt>
      <trkpt lat="49.10859" lon="1.98784">
        <ele>105.3</ele>
        <time>2022-09-11T08:02:40Z</time>
      </trkpt>
      <trkpt lat="49.10865" lon="1.98795">
        <ele>105.7</ele>
        <time>2022-09-11T08:02:46Z</time>
      </trkpt>
      <trkpt lat="49.1087" lon="1.98806">
        <ele>106</ele>
        <time>2022-09-11T08:02:52Z</time>
      </trkpt>
      <trkpt lat="49.10875" lon="1.98815">
        <ele>106.2</ele>
        <time>2022-09-11T08:02:57Z</time>
      </trkpt>
      <trkpt lat="49.10881" lon="1.98825">
        <ele>106.2</ele>
        <time>2022-09-11T08:03:03Z</time>
      </trkpt>
      <trkpt lat="49.10884" lon="1.98832">
        <ele>106.1</ele>
        <time>2022-09-11T08:03:08Z</time>
      </trkpt>
      <trkpt lat="49.10889" lon="1.98845">
        <ele>106.4</ele>
        <time>2022-09-11T08:03:14Z</time>
      </trkpt>
      <trkpt lat="49.10893" lon="1.98854">
        <ele>106.8</ele>
        <time>2022-09-11T08:03:20Z</time>
      </trkpt>
      <trkpt lat="49.10897" lon="1.98862">
        <ele>107</ele>
        <time>2022-09-11T08:03:25Z</time>
      </trkpt>
      <trkpt lat="49.10905" lon="1.98874">
        <ele>107.5</ele>
        <time>2022-09-11T08:03:31Z</time>
      </trkpt>
      <trkpt lat="49.10908" lon="1.9888">
        <ele>107.7</ele>
        <time>2022-09-11T08:03:36Z</time>
      </trkpt>
      <trkpt lat="49.10913" lon="1.9889">
        <ele>108</ele>
        <time>2022-09-11T08:03:42Z</time>
      </trkpt>
      <trkpt lat="49.10918" lon="1.989">
        <ele>108</ele>
        <time>2022-09-11T08:03:47Z</time>
      </trkpt>
      <trkpt lat="49.10924" lon="1.98911">
        <ele>108</ele>
        <time>2022-09-11T08:03:53Z</time>
      </trkpt>
      <trkpt lat="49.10927" lon="1.98918">
        <ele>108.1</ele>
        <time>2022-09-11T08:03:58Z</time>
      </trkpt>
      <trkpt lat="49.10933" lon="1.98929">
        <ele>108.4</ele>
        <time>2022-09-11T08:04:04Z</time>
      </trkpt>
      <trkpt lat="49.10935" lon="1.98935">
        <ele>108.7</ele>
        <time>2022-09-11T08:04:09Z</time>
      </trkpt>
      <trkpt lat="49.10939" lon="1.98944">
        <ele>109</ele>
        <time>2022-09-11T08:04:15Z</time>
      </trkpt>
      <trkpt lat="49.10943" lon="1.98953">
        <ele>109.3</ele>
        <time>2022-09-11T08:04:21Z</time>
      </trkpt>
      <trkpt lat="49.10946" lon="1.98961">
        <ele>109.6</ele>
        <time>2022-09-11T08:04:26Z</time>
      </trkpt>
      <trkpt lat="49.1095" lon="1.9897">
        <ele>109.7</ele>
        <time>2022-09-11T08:04:32Z</time>
      </trkpt>
      <trkpt lat="49.10953" lon="1.98977">
        <ele>109.7</ele>
        <time>2022-09-11T08:04:37Z</time>
      </trkpt>
      <trkpt lat="49.10959" lon="1.98988">
        <ele>109.8</ele>
        <time>2022-09-11T08:04:43Z</time>
      </trkpt>
      <trkpt lat="49.10965" lon="1.98998">
        <ele>109.9</ele>
        <time>2022-09-11T08:04:48Z</time>
      </trkpt>
      <trkpt lat="49.10966" lon="1.99006">
        <ele>110</ele>
        <time>2022-09-11T08:04:53Z</time>
      </trkpt>
      <trkpt lat="49.10971" lon="1.99016">
        <ele>110</ele>
        <time>2022-09-11T08:04:59Z</time>
      </trkpt>
      <trkpt lat="49.10978" lon="1.99029">
        <ele>110</ele>
        <time>2022-09-11T08:05:05Z</time>
      </trkpt>
      <trkpt lat="49.10982" lon="1.99039">
        <ele>110.3</ele>
        <time>2022-09-11T08:05:11Z</time>
      </trkpt>
      <trkpt lat="49.10987" lon="1.99047">
        <ele>110.3</ele>
        <time>2022-09-11T08:05:17Z</time>
      </trkpt>
      <trkpt lat="49.10995" lon="1.99053">
        <ele>110.2</ele>
        <time>2022-09-11T08:05:23Z</time>
      </trkpt>
      <trkpt lat="49.11" lon="1.99061">
        <ele>110.2</ele>
        <time>2022-09-11T08:05:29Z</time>
      </trkpt>
      <trkpt lat="49.11004" lon="1.99068">
        <ele>110.4</ele>
        <time>2022-09-11T08:05:34Z</time>
      </trkpt>
      <trkpt lat="49.11011" lon="1.99078">
        <ele>110.5</ele>
        <time>2022-09-11T08:05:40Z</time>
      </trkpt>
      <trkpt lat="49.11019" lon="1.99088">
        <ele>110.4</ele>
        <time>2022-09-11T08:05:46Z</time>
      </trkpt>
      <trkpt lat="49.11024" lon="1.99095">
        <ele>110.5</ele>
        <time>2022-09-11T08:05:51Z</time>
      </trkpt>
      <trkpt lat="49.1103" lon="1.99101">
        <ele>110.6</ele>
        <time>2022-09-11T08:05:57Z</time>
      </trkpt>
      <trkpt lat="49.11036" lon="1.9911">
        <ele>110.7</ele>
        <time>2022-09-11T08:06:03Z</time>
      </trkpt>
      <trkpt lat="49.11043" lon="1.99117">
        <ele>110.6</ele>
        <time>2022-09-11T08:06:08Z</time>
      </trkpt>
      <trkpt lat="49.11049" lon="1.99127">
        <ele>110.7</ele>
        <time>2022-09-11T08:06:14Z</time>
      </trkpt>
      <trkpt lat="49.11054" lon="1.99135">
        <ele>110.9</ele>
        <time>2022-09-11T08:06:20Z</time>
      </trkpt>
      <trkpt lat="49.11059" lon="1.99146">
        <ele>110.9</ele>
        <time>2022-09-11T08:06:26Z</time>
      </trkpt>
      <trkpt lat="49.11064" lon="1.99156">
        <ele>110.9</ele>
        <time>2022-09-11T08:06:32Z</time>
      </trkpt>
      <trkpt lat="49.11069" lon="1.99166">
        <ele>111</ele>
        <time>2022-09-11T08:06:38Z</time>
      </trkpt>
      <trkpt lat="49.11073" lon="1.99173">
        <ele>111.1</ele>
        <time>2022-09-11T08:06:43Z</time>
      </trkpt>
      <trkpt lat="49.11078" lon="1.99183">
        <ele>111.1</ele>
        <time>2022-09-11T08:06:49Z</time>
      </trkpt>
      <trkpt lat="49.11083" lon="1.99191">
        <ele>111</ele>
        <time>2022-09-11T08:06:54Z</time>
      </trkpt>
      <trkpt lat="49.1109" lon="1.99202">
        <ele>111</ele>
        <time>2022-09-11T08:07:00Z</time>
      </trkpt>
      <trkpt lat="49.11095" lon="1.99211">
        <ele>111.2</ele>
        <time>2022-09-11T08:07:05Z</time>
      </trkpt>
      <trkpt lat="49.11099" lon="1.9922">
        <ele>111.3</ele>
        <time>2022-09-11T08:07:10Z</time>
      </trkpt>
      <trkpt lat="49.11105" lon="1.99226">
        <ele>111.3</ele>
        <time>2022-09-11T08:07:16Z</time>
      </trkpt>
      <trkpt lat="49.11109" lon="1.99232">
        <ele>111.5</ele>
        <time>2022-09-11T08:07:21Z</time>
      </trkpt>
      <trkpt lat="49.11115" lon="1.99242">
        <ele>111.6</ele>
        <time>2022-09-11T08:07:27Z</time>
      </trkpt>
      <trkpt lat="49.1112" lon="1.9925">
        <ele>111.7</ele>
        <time>2022-09-11T08:07:32Z</time>
      </trkpt>
      <trkpt lat="49.11124" lon="1.99256">
        <ele>111.9</ele>
        <time>2022-09-11T08:07:37Z</time>
      </trkpt>
      <trkpt lat="49.1113" lon="1.99264">
        <ele>112.2</ele>
        <time>2022-09-11T08:07:43Z</time>
      </trkpt>
      <trkpt lat="49.11138" lon="1.99273">
        <ele>112.7</ele>
        <time>2022-09-11T08:07:49Z</time>
      </trkpt>
      <trkpt lat="49.11143" lon="1.9928">
        <ele>112.7</ele>
        <time>2022-09-11T08:07:54Z</time>
      </trkpt>
      <trkpt lat="49.11148" lon="1.99286">
        <ele>112.5</ele>
        <time>2022-09-11T08:08:00Z</time>
      </trkpt>
      <trkpt lat="49.11155" lon="1.99294">
        <ele>112.5</ele>
        <time>2022-09-11T08:08:05Z</time>
      </trkpt>
      <trkpt lat="49.11163" lon="1.99302">
        <ele>112.8</ele>
        <time>2022-09-11T08:08:11Z</time>
      </trkpt>
      <trkpt lat="49.11168" lon="1.99308">
        <ele>112.9</ele>
        <time>2022-09-11T08:08:16Z</time>
      </trkpt>
      <trkpt lat="49.11175" lon="1.99316">
        <ele>112.6</ele>
        <time>2022-09-11T08:08:22Z</time>
      </trkpt>
      <trkpt lat="49.11181" lon="1.99323">
        <ele>112.6</ele>
        <time>2022-09-11T08:08:27Z</time>
      </trkpt>
      <trkpt lat="49.11187" lon="1.9933">
        <ele>112.8</ele>
        <time>2022-09-11T08:08:33Z</time>
      </trkpt>
      <trkpt lat="49.11195" lon="1.99339">
        <ele>113</ele>
        <time>2022-09-11T08:08:39Z</time>
      </trkpt>
      <trkpt lat="49.11201" lon="1.99346">
        <ele>112.6</ele>
        <time>2022-09-11T08:08:44Z</time>
      </trkpt>
      <trkpt lat="49.11207" lon="1.99353">
        <ele>112.4</ele>
        <time>2022-09-11T08:08:50Z</time>
      </trkpt>
      <trkpt lat="49.11212" lon="1.99359">
        <ele>112.3</ele>
        <time>2022-09-11T08:08:55Z</time>
      </trkpt>
      <trkpt lat="49.1122" lon="1.99368">
        <ele>112.3</ele>
        <time>2022-09-11T08:09:01Z</time>
      </trkpt>
      <trkpt lat="49.11226" lon="1.99375">
        <ele>112.4</ele>
        <time>2022-09-11T08:09:06Z</time>
      </trkpt>
      <trkpt lat="49.11231" lon="1.99381">
        <ele>112.4</ele>
        <time>2022-09-11T08:09:11Z</time>
      </trkpt>
      <trkpt lat="49.11236" lon="1.99389">
        <ele>112.5</ele>
        <time>2022-09-11T08:09:17Z</time>
      </trkpt>
      <trkpt lat="49.11244" lon="1.99398">
        <ele>112.5</ele>
        <time>2022-09-11T08:09:23Z</time>
      </trkpt>
      <trkpt lat="49.11247" lon="1.99404">
        <ele>112.6</ele>
        <time>2022-09-11T08:09:28Z</time>
      </trkpt>
      <trkpt lat="49.11255" lon="1.99413">
        <ele>112.7</ele>
        <time>2022-09-11T08:09:34Z</time>
      </trkpt>
      <trkpt lat="49.11259" lon="1.99419">
        <ele>112.7</ele>
        <time>2022-09-11T08:09:39Z</time>
      </trkpt>
      <trkpt lat="49.11263" lon="1.99426">
        <ele>112.9</ele>
        <time>2022-09-11T08:09:44Z</time>
      </trkpt>
      <trkpt lat="49.11269" lon="1.99434">
        <ele>112.9</ele>
        <time>2022-09-11T08:09:49Z</time>
      </trkpt>
      <trkpt lat="49.11275" lon="1.99443">
        <ele>113</ele>
        <time>2022-09-11T08:09:55Z</time>
      </trkpt>
      <trkpt lat="49.11282" lon="1.99453">
        <ele>113.2</ele>
        <time>2022-09-11T08:10:01Z</time>
      </trkpt>
      <trkpt lat="49.11286" lon="1.99462">
        <ele>113.3</ele>
        <time>2022-09-11T08:10:07Z</time>
      </trkpt>
      <trkpt lat="49.11291" lon="1.99469">
        <ele>113.4</ele>
        <time>2022-09-11T08:10:13Z</time>
      </trkpt>
      <trkpt lat="49.11296" lon="1.99478">
        <ele>113.5</ele>
        <time>2022-09-11T08:10:19Z</time>
      </trkpt>
      <trkpt lat="49.11301" lon="1.99486">
        <ele>113.6</ele>
        <time>2022-09-11T08:10:24Z</time>
      </trkpt>
      <trkpt lat="49.11306" lon="1.99495">
        <ele>113.8</ele>
        <time>2022-09-11T08:10:30Z</time>
      </trkpt>
      <trkpt lat="49.1131" lon="1.99501">
        <ele>113.9</ele>
        <time>2022-09-11T08:10:35Z</time>
      </trkpt>
      <trkpt lat="49.11314" lon="1.99508">
        <ele>114</ele>
        <time>2022-09-11T08:10:41Z</time>
      </trkpt>
      <trkpt lat="49.11319" lon="1.99519">
        <ele>114.2</ele>
        <time>2022-09-11T08:10:47Z</time>
      </trkpt>
      <trkpt lat="49.11324" lon="1.99528">
        <ele>114.4</ele>
        <time>2022-09-11T08:10:53Z</time>
      </trkpt>
      <trkpt lat="49.11327" lon="1.99535">
        <ele>114.4</ele>
        <time>2022-09-11T08:10:58Z</time>
      </trkpt>
      <trkpt lat="49.11331" lon="1.99545">
        <ele>114.6</ele>
        <time>2022-09-11T08:11:04Z</time>
      </trkpt>
      <trkpt lat="49.11336" lon="1.99551">
        <ele>114.8</ele>
        <time>2022-09-11T08:11:09Z</time>
      </trkpt>
      <trkpt lat="49.11341" lon="1.9956">
        <ele>114.8</ele>
        <time>2022-09-11T08:11:15Z</time>
      </trkpt>
      <trkpt lat="49.11346" lon="1.99572">
        <ele>114.8</ele>
        <time>2022-09-11T08:11:21Z</time>
      </trkpt>
      <trkpt lat="49.11351" lon="1.99581">
        <ele>115</ele>
        <time>2022-09-11T08:11:27Z</time>
      </trkpt>
      <trkpt lat="49.11357" lon="1.99589">
        <ele>115.2</ele>
        <time>2022-09-11T08:11:33Z</time>
      </trkpt>
      <trkpt lat="49.11361" lon="1.99597">
        <ele>115.5</ele>
        <time>2022-09-11T08:11:38Z</time>
      </trkpt>
      <trkpt lat="49.11365" lon="1.99606">
        <ele>115.7</ele>
        <time>2022-09-11T08:11:44Z</time>
      </trkpt>
      <trkpt lat="49.11369" lon="1.99614">
        <ele>115.7</ele>
        <time>2022-09-11T08:11:49Z</time>
      </trkpt>
      <trkpt lat="49.11375" lon="1.99624">
        <ele>115.7</ele>
        <time>2022-09-11T08:11:55Z</time>
      </trkpt>
      <trkpt lat="49.11379" lon="1.99633">
        <ele>115.9</ele>
        <time>2022-09-11T08:12:00Z</time>
      </trkpt>
      <trkpt lat="49.11384" lon="1.99643">
        <ele>116.1</ele>
        <time>2022-09-11T08:12:06Z</time>
      </trkpt>
      <trkpt lat="49.11388" lon="1.99651">
        <ele>116.4</ele>
        <time>2022-09-11T08:12:11Z</time>
      </trkpt>
      <trkpt lat="49.11395" lon="1.99659">
        <ele>116.5</ele>
        <time>2022-09-11T08:12:17Z</time>
      </trkpt>
      <trkpt lat="49.11399" lon="1.99667">
        <ele>116.7</ele>
        <time>2022-09-11T08:12:22Z</time>
      </trkpt>
      <trkpt lat="49.11403" lon="1.99675">
        <ele>116.6</ele>
        <time>2022-09-11T08:12:28Z</time>
      </trkpt>
      <trkpt lat="49.11409" lon="1.99683">
        <ele>116.7</ele>
        <time>2022-09-11T08:12:34Z</time>
      </trkpt>
      <trkpt lat="49.11414" lon="1.99693">
        <ele>116.9</ele>
        <time>2022-09-11T08:12:40Z</time>
      </trkpt>
      <trkpt lat="49.11419" lon="1.99702">
        <ele>117.3</ele>
        <time>2022-09-11T08:12:46Z</time>
      </trkpt>
      <trkpt lat="49.11423" lon="1.9971">
        <ele>117.4</ele>
        <time>2022-09-11T08:12:52Z</time>
      </trkpt>
      <trkpt lat="49.11426" lon="1.99717">
        <ele>117.5</ele>
        <time>2022-09-11T08:12:57Z</time>
      </trkpt>
      <trkpt lat="49.11431" lon="1.99726">
        <ele>117.5</ele>
        <time>2022-09-11T08:13:03Z</time>
      </trkpt>
      <trkpt lat="49.11432" lon="1.99733">
        <ele>117.7</ele>
        <time>2022-09-11T08:13:08Z</time>
      </trkpt>
      <trkpt lat="49.11436" lon="1.99743">
        <ele>117.8</ele>
        <time>2022-09-11T08:13:14Z</time>
      </trkpt>
      <trkpt lat="49.11441" lon="1.99752">
        <ele>118.1</ele>
        <time>2022-09-11T08:13:20Z</time>
      </trkpt>
      <trkpt lat="49.11444" lon="1.99759">
        <ele>118.3</ele>
        <time>2022-09-11T08:13:25Z</time>
      </trkpt>
      <trkpt lat="49.11448" lon="1.99769">
        <ele>118.6</ele>
        <time>2022-09-11T08:13:31Z</time>
      </trkpt>
      <trkpt lat="49.11453" lon="1.99781">
        <ele>118.7</ele>
        <time>2022-09-11T08:13:37Z</time>
      </trkpt>
      <trkpt lat="49.11457" lon="1.9979">
        <ele>118.7</ele>
        <time>2022-09-11T08:13:42Z</time>
      </trkpt>
      <trkpt lat="49.11461" lon="1.99797">
        <ele>118.8</ele>
        <time>2022-09-11T08:13:47Z</time>
      </trkpt>
      <trkpt lat="49.11466" lon="1.99807">
        <ele>119.1</ele>
        <time>2022-09-11T08:13:53Z</time>
      </trkpt>
      <trkpt lat="49.1147" lon="1.99815">
        <ele>119.3</ele>
        <time>2022-09-11T08:13:59Z</time>
      </trkpt>
      <trkpt lat="49.11475" lon="1.99824">
        <ele>119.7</ele>
        <time>2022-09-11T08:14:04Z</time>
      </trkpt>
      <trkpt lat="49.11478" lon="1.99831">
        <ele>120.1</ele>
        <time>2022-09-11T08:14:09Z</time>
      </trkpt>
      <trkpt lat="49.11485" lon="1.99838">
        <ele>120.5</ele>
        <time>2022-09-11T08:14:15Z</time>
      </trkpt>
      <trkpt lat="49.11488" lon="1.99843">
        <ele>120.7</ele>
        <time>2022-09-11T08:14:21Z</time>
      </trkpt>
      <trkpt lat="49.11485" lon="1.99848">
        <ele>120.8</ele>
        <time>2022-09-11T08:14:26Z</time>
      </trkpt>
      <trkpt lat="49.11479" lon="1.99859">
        <ele>120.9</ele>
        <time>2022-09-11T08:14:32Z</time>
      </trkpt>
      <trkpt lat="49.11474" lon="1.99865">
        <ele>121</ele>
        <time>2022-09-11T08:14:37Z</time>
      </trkpt>
      <trkpt lat="49.11469" lon="1.99876">
        <ele>121</ele>
        <time>2022-09-11T08:14:43Z</time>
      </trkpt>
      <trkpt lat="49.11465" lon="1.99884">
        <ele>121</ele>
        <time>2022-09-11T08:14:48Z</time>
      </trkpt>
      <trkpt lat="49.11458" lon="1.99895">
        <ele>121.2</ele>
        <time>2022-09-11T08:14:54Z</time>
      </trkpt>
      <trkpt lat="49.11452" lon="1.99904">
        <ele>121.5</ele>
        <time>2022-09-11T08:15:00Z</time>
      </trkpt>
      <trkpt lat="49.11449" lon="1.99912">
        <ele>121.8</ele>
        <time>2022-09-11T08:15:05Z</time>
      </trkpt>
      <trkpt lat="49.11445" lon="1.99919">
        <ele>122</ele>
        <time>2022-09-11T08:15:10Z</time>
      </trkpt>
      <trkpt lat="49.11441" lon="1.99931">
        <ele>121.9</ele>
        <time>2022-09-11T08:15:16Z</time>
      </trkpt>
      <trkpt lat="49.11436" lon="1.99941">
        <ele>122</ele>
        <time>2022-09-11T08:15:22Z</time>
      </trkpt>
      <trkpt lat="49.11431" lon="1.99949">
        <ele>122.1</ele>
        <time>2022-09-11T08:15:28Z</time>
      </trkpt>
      <trkpt lat="49.11424" lon="1.99956">
        <ele>122.1</ele>
        <time>2022-09-11T08:15:34Z</time>
      </trkpt>
      <trkpt lat="49.11419" lon="1.99962">
        <ele>122.1</ele>
        <time>2022-09-11T08:15:39Z</time>
      </trkpt>
      <trkpt lat="49.11414" lon="1.99969">
        <ele>121.9</ele>
        <time>2022-09-11T08:15:44Z</time>
      </trkpt>
      <trkpt lat="49.11409" lon="1.99977">
        <ele>121.8</ele>
        <time>2022-09-11T08:15:49Z</time>
      </trkpt>
      <trkpt lat="49.11403" lon="1.99986">
        <ele>121.8</ele>
        <time>2022-09-11T08:15:55Z</time>
      </trkpt>
      <trkpt lat="49.11398" lon="1.99997">
        <ele>121.7</ele>
        <time>2022-09-11T08:16:01Z</time>
      </trkpt>
      <trkpt lat="49.11393" lon="2.00008">
        <ele>121.8</ele>
        <time>2022-09-11T08:16:07Z</time>
      </trkpt>
      <trkpt lat="49.11391" lon="2.00017">
        <ele>122.3</ele>
        <time>2022-09-11T08:16:12Z</time>
      </trkpt>
      <trkpt lat="49.11388" lon="2.00027">
        <ele>122.9</ele>
        <time>2022-09-11T08:16:17Z</time>
      </trkpt>
      <trkpt lat="49.11386" lon="2.00035">
        <ele>122.9</ele>
        <time>2022-09-11T08:16:22Z</time>
      </trkpt>
      <trkpt lat="49.11383" lon="2.00049">
        <ele>122.8</ele>
        <time>2022-09-11T08:16:28Z</time>
      </trkpt>
      <trkpt lat="49.11379" lon="2.0006">
        <ele>122.6</ele>
        <time>2022-09-11T08:16:34Z</time>
      </trkpt>
      <trkpt lat="49.11373" lon="2.00068">
        <ele>122.4</ele>
        <time>2022-09-11T08:16:40Z</time>
      </trkpt>
      <trkpt lat="49.11366" lon="2.00077">
        <ele>122.2</ele>
        <time>2022-09-11T08:16:46Z</time>
      </trkpt>
      <trkpt lat="49.1136" lon="2.00088">
        <ele>121.9</ele>
        <time>2022-09-11T08:16:52Z</time>
      </trkpt>
      <trkpt lat="49.11355" lon="2.00095">
        <ele>121.8</ele>
        <time>2022-09-11T08:16:57Z</time>
      </trkpt>
      <trkpt lat="49.11349" lon="2.00103">
        <ele>121.6</ele>
        <time>2022-09-11T08:17:03Z</time>
      </trkpt>
      <trkpt lat="49.11344" lon="2.00113">
        <ele>121.4</ele>
        <time>2022-09-11T08:17:08Z</time>
      </trkpt>
      <trkpt lat="49.11339" lon="2.00125">
        <ele>120.8</ele>
        <time>2022-09-11T08:17:14Z</time>
      </trkpt>
      <trkpt lat="49.11335" lon="2.00135">
        <ele>120.2</ele>
        <time>2022-09-11T08:17:20Z</time>
      </trkpt>
      <trkpt lat="49.1133" lon="2.00145">
        <ele>119.9</ele>
        <time>2022-09-11T08:17:26Z</time>
      </trkpt>
      <trkpt lat="49.11327" lon="2.00157">
        <ele>119.6</ele>
        <time>2022-09-11T08:17:32Z</time>
      </trkpt>
      <trkpt lat="49.11324" lon="2.00169">
        <ele>119.3</ele>
        <time>2022-09-11T08:17:37Z</time>
      </trkpt>
      <trkpt lat="49.1132" lon="2.00182">
        <ele>119.1</ele>
        <time>2022-09-11T08:17:43Z</time>
      </trkpt>
      <trkpt lat="49.11316" lon="2.0019">
        <ele>118.8</ele>
        <time>2022-09-11T08:17:48Z</time>
      </trkpt>
      <trkpt lat="49.11313" lon="2.002">
        <ele>118.4</ele>
        <time>2022-09-11T08:17:53Z</time>
      </trkpt>
      <trkpt lat="49.11312" lon="2.00209">
        <ele>118</ele>
        <time>2022-09-11T08:17:58Z</time>
      </trkpt>
      <trkpt lat="49.11307" lon="2.00224">
        <ele>117.2</ele>
        <time>2022-09-11T08:18:04Z</time>
      </trkpt>
      <trkpt lat="49.11306" lon="2.00235">
        <ele>117</ele>
        <time>2022-09-11T08:18:09Z</time>
      </trkpt>
      <trkpt lat="49.11304" lon="2.00248">
        <ele>117</ele>
        <time>2022-09-11T08:18:15Z</time>
      </trkpt>
      <trkpt lat="49.11302" lon="2.00262">
        <ele>116.9</ele>
        <time>2022-09-11T08:18:21Z</time>
      </trkpt>
      <trkpt lat="49.11302" lon="2.00269">
        <ele>116.9</ele>
        <time>2022-09-11T08:18:26Z</time>
      </trkpt>
      <trkpt lat="49.11302" lon="2.00281">
        <ele>116.9</ele>
        <time>2022-09-11T08:18:31Z</time>
      </trkpt>
      <trkpt lat="49.11299" lon="2.00295">
        <ele>116.6</ele>
        <time>2022-09-11T08:18:37Z</time>
      </trkpt>
      <trkpt lat="49.11296" lon="2.00308">
        <ele>116.3</ele>
        <time>2022-09-11T08:18:42Z</time>
      </trkpt>
      <trkpt lat="49.11292" lon="2.00322">
        <ele>115.8</ele>
        <time>2022-09-11T08:18:47Z</time>
      </trkpt>
      <trkpt lat="49.11292" lon="2.00333">
        <ele>115.6</ele>
        <time>2022-09-11T08:18:52Z</time>
      </trkpt>
      <trkpt lat="49.11291" lon="2.00345">
        <ele>115</ele>
        <time>2022-09-11T08:18:58Z</time>
      </trkpt>
      <trkpt lat="49.11289" lon="2.00356">
        <ele>114.4</ele>
        <time>2022-09-11T08:19:03Z</time>
      </trkpt>
      <trkpt lat="49.11287" lon="2.00369">
        <ele>113.8</ele>
        <time>2022-09-11T08:19:09Z</time>
      </trkpt>
      <trkpt lat="49.11287" lon="2.00378">
        <ele>113.4</ele>
        <time>2022-09-11T08:19:14Z</time>
      </trkpt>
      <trkpt lat="49.11286" lon="2.00392">
        <ele>112.9</ele>
        <time>2022-09-11T08:19:20Z</time>
      </trkpt>
      <trkpt lat="49.11286" lon="2.00404">
        <ele>112.9</ele>
        <time>2022-09-11T08:19:25Z</time>
      </trkpt>
      <trkpt lat="49.11285" lon="2.00417">
        <ele>112.8</ele>
        <time>2022-09-11T08:19:30Z</time>
      </trkpt>
      <trkpt lat="49.11284" lon="2.00429">
        <ele>112.6</ele>
        <time>2022-09-11T08:19:35Z</time>
      </trkpt>
      <trkpt lat="49.11283" lon="2.0044">
        <ele>112.4</ele>
        <time>2022-09-11T08:19:41Z</time>
      </trkpt>
      <trkpt lat="49.11283" lon="2.0045">
        <ele>112.4</ele>
        <time>2022-09-11T08:19:46Z</time>
      </trkpt>
      <trkpt lat="49.11281" lon="2.00462">
        <ele>112.2</ele>
        <time>2022-09-11T08:19:52Z</time>
      </trkpt>
      <trkpt lat="49.1128" lon="2.00476">
        <ele>112.1</ele>
        <time>2022-09-11T08:19:57Z</time>
      </trkpt>
      <trkpt lat="49.11279" lon="2.00489">
        <ele>111.6</ele>
        <time>2022-09-11T08:20:03Z</time>
      </trkpt>
      <trkpt lat="49.1128" lon="2.005">
        <ele>111.2</ele>
        <time>2022-09-11T08:20:09Z</time>
      </trkpt>
      <trkpt lat="49.11279" lon="2.00509">
        <ele>111.1</ele>
        <time>2022-09-11T08:20:14Z</time>
      </trkpt>
      <trkpt lat="49.11277" lon="2.00521">
        <ele>111</ele>
        <time>2022-09-11T08:20:20Z</time>
      </trkpt>
      <trkpt lat="49.11277" lon="2.00533">
        <ele>111</ele>
        <time>2022-09-11T08:20:25Z</time>
      </trkpt>
      <trkpt lat="49.11276" lon="2.00548">
        <ele>110.9</ele>
        <time>2022-09-11T08:20:31Z</time>
      </trkpt>
      <trkpt lat="49.11274" lon="2.00559">
        <ele>110.7</ele>
        <time>2022-09-11T08:20:36Z</time>
      </trkpt>
      <trkpt lat="49.11271" lon="2.0057">
        <ele>110.5</ele>
        <time>2022-09-11T08:20:42Z</time>
      </trkpt>
      <trkpt lat="49.11267" lon="2.00582">
        <ele>110.2</ele>
        <time>2022-09-11T08:20:48Z</time>
      </trkpt>
      <trkpt lat="49.11265" lon="2.00595">
        <ele>110.1</ele>
        <time>2022-09-11T08:20:53Z</time>
      </trkpt>
      <trkpt lat="49.11263" lon="2.00609">
        <ele>109.9</ele>
        <time>2022-09-11T08:20:59Z</time>
      </trkpt>
      <trkpt lat="49.11261" lon="2.00619">
        <ele>109.8</ele>
        <time>2022-09-11T08:21:05Z</time>
      </trkpt>
      <trkpt lat="49.11257" lon="2.0063">
        <ele>109.5</ele>
        <time>2022-09-11T08:21:10Z</time>
      </trkpt>
      <trkpt lat="49.11255" lon="2.00645">
        <ele>109.4</ele>
        <time>2022-09-11T08:21:16Z</time>
      </trkpt>
      <trkpt lat="49.11254" lon="2.00655">
        <ele>109.3</ele>
        <time>2022-09-11T08:21:21Z</time>
      </trkpt>
      <trkpt lat="49.11251" lon="2.00667">
        <ele>109.1</ele>
        <time>2022-09-11T08:21:26Z</time>
      </trkpt>
      <trkpt lat="49.1125" lon="2.00676">
        <ele>109</ele>
        <time>2022-09-11T08:21:31Z</time>
      </trkpt>
      <trkpt lat="49.11247" lon="2.00688">
        <ele>108.9</ele>
        <time>2022-09-11T08:21:37Z</time>
      </trkpt>
      <trkpt lat="49.11244" lon="2.00702">
        <ele>108.8</ele>
        <time>2022-09-11T08:21:43Z</time>
      </trkpt>
      <trkpt lat="49.11242" lon="2.00715">
        <ele>108.7</ele>
        <time>2022-09-11T08:21:48Z</time>
      </trkpt>
      <trkpt lat="49.1124" lon="2.00725">
        <ele>108.6</ele>
        <time>2022-09-11T08:21:53Z</time>
      </trkpt>
      <trkpt lat="49.11239" lon="2.00735">
        <ele>108.6</ele>
        <time>2022-09-11T08:21:58Z</time>
      </trkpt>
      <trkpt lat="49.11236" lon="2.00748">
        <ele>108.5</ele>
        <time>2022-09-11T08:22:04Z</time>
      </trkpt>
      <trkpt lat="49.11234" lon="2.0076">
        <ele>108.4</ele>
        <time>2022-09-11T08:22:09Z</time>
      </trkpt>
      <trkpt lat="49.11231" lon="2.00772">
        <ele>108.3</ele>
        <time>2022-09-11T08:22:15Z</time>
      </trkpt>
      <trkpt lat="49.11228" lon="2.00783">
        <ele>108.2</ele>
        <time>2022-09-11T08:22:21Z</time>
      </trkpt>
      <trkpt lat="49.11224" lon="2.00795">
        <ele>108</ele>
        <time>2022-09-11T08:22:27Z</time>
      </trkpt>
      <trkpt lat="49.11221" lon="2.00808">
        <ele>107.9</ele>
        <time>2022-09-11T08:22:33Z</time>
      </trkpt>
      <trkpt lat="49.11216" lon="2.00818">
        <ele>107.8</ele>
        <time>2022-09-11T08:22:38Z</time>
      </trkpt>
      <trkpt lat="49.11212" lon="2.00828">
        <ele>107.6</ele>
        <time>2022-09-11T08:22:44Z</time>
      </trkpt>
      <trkpt lat="49.11209" lon="2.00837">
        <ele>107.6</ele>
        <time>2022-09-11T08:22:49Z</time>
      </trkpt>
      <trkpt lat="49.11204" lon="2.00845">
        <ele>107.6</ele>
        <time>2022-09-11T08:22:54Z</time>
      </trkpt>
      <trkpt lat="49.11198" lon="2.00857">
        <ele>107.9</ele>
        <time>2022-09-11T08:23:00Z</time>
      </trkpt>
      <trkpt lat="49.11194" lon="2.00867">
        <ele>108.2</ele>
        <time>2022-09-11T08:23:05Z</time>
      </trkpt>
      <trkpt lat="49.1119" lon="2.00876">
        <ele>108.6</ele>
        <time>2022-09-11T08:23:10Z</time>
      </trkpt>
      <trkpt lat="49.11184" lon="2.00887">
        <ele>109.3</ele>
        <time>2022-09-11T08:23:16Z</time>
      </trkpt>
      <trkpt lat="49.11187" lon="2.00896">
        <ele>109.2</ele>
        <time>2022-09-11T08:23:22Z</time>
      </trkpt>
      <trkpt lat="49.11195" lon="2.00903">
        <ele>109</ele>
        <time>2022-09-11T08:23:28Z</time>
      </trkpt>
      <trkpt lat="49.112" lon="2.00911">
        <ele>109</ele>
        <time>2022-09-11T08:23:34Z</time>
      </trkpt>
      <trkpt lat="49.11204" lon="2.0092">
        <ele>109.2</ele>
        <time>2022-09-11T08:23:40Z</time>
      </trkpt>
      <trkpt lat="49.1121" lon="2.0093">
        <ele>109.7</ele>
        <time>2022-09-11T08:23:45Z</time>
      </trkpt>
      <trkpt lat="49.11216" lon="2.00941">
        <ele>110.1</ele>
        <time>2022-09-11T08:23:51Z</time>
      </trkpt>
      <trkpt lat="49.11218" lon="2.00947">
        <ele>110.1</ele>
        <time>2022-09-11T08:23:56Z</time>
      </trkpt>
      <trkpt lat="49.11222" lon="2.00957">
        <ele>110</ele>
        <time>2022-09-11T08:24:01Z</time>
      </trkpt>
      <trkpt lat="49.11226" lon="2.0097">
        <ele>110.1</ele>
        <time>2022-09-11T08:24:07Z</time>
      </trkpt>
      <trkpt lat="49.11229" lon="2.00977">
        <ele>110.6</ele>
        <time>2022-09-11T08:24:12Z</time>
      </trkpt>
      <trkpt lat="49.11232" lon="2.0099">
        <ele>111.4</ele>
        <time>2022-09-11T08:24:18Z</time>
      </trkpt>
      <trkpt lat="49.11235" lon="2.00997">
        <ele>111.9</ele>
        <time>2022-09-11T08:24:23Z</time>
      </trkpt>
      <trkpt lat="49.11241" lon="2.01011">
        <ele>112.4</ele>
        <time>2022-09-11T08:24:29Z</time>
      </trkpt>
      <trkpt lat="49.11244" lon="2.01022">
        <ele>112.8</ele>
        <time>2022-09-11T08:24:35Z</time>
      </trkpt>
      <trkpt lat="49.11246" lon="2.01033">
        <ele>113</ele>
        <time>2022-09-11T08:24:41Z</time>
      </trkpt>
      <trkpt lat="49.11248" lon="2.01046">
        <ele>113</ele>
        <time>2022-09-11T08:24:47Z</time>
      </trkpt>
      <trkpt lat="49.11249" lon="2.01054">
        <ele>113</ele>
        <time>2022-09-11T08:24:52Z</time>
      </trkpt>
      <trkpt lat="49.11254" lon="2.01068">
        <ele>113.6</ele>
        <time>2022-09-11T08:24:58Z</time>
      </trkpt>
      <trkpt lat="49.11258" lon="2.01079">
        <ele>114.1</ele>
        <time>2022-09-11T08:25:04Z</time>
      </trkpt>
      <trkpt lat="49.11262" lon="2.01092">
        <ele>114.6</ele>
        <time>2022-09-11T08:25:10Z</time>
      </trkpt>
      <trkpt lat="49.11267" lon="2.01102">
        <ele>114.9</ele>
        <time>2022-09-11T08:25:16Z</time>
      </trkpt>
      <trkpt lat="49.1127" lon="2.01111">
        <ele>115</ele>
        <time>2022-09-11T08:25:22Z</time>
      </trkpt>
      <trkpt lat="49.11274" lon="2.01124">
        <ele>115.4</ele>
        <time>2022-09-11T08:25:28Z</time>
      </trkpt>
      <trkpt lat="49.11277" lon="2.01134">
        <ele>115.8</ele>
        <time>2022-09-11T08:25:34Z</time>
      </trkpt>
      <trkpt lat="49.1128" lon="2.01146">
        <ele>116.5</ele>
        <time>2022-09-11T08:25:39Z</time>
      </trkpt>
      <trkpt lat="49.11283" lon="2.01156">
        <ele>117.2</ele>
        <time>2022-09-11T08:25:44Z</time>
      </trkpt>
      <trkpt lat="49.11288" lon="2.01166">
        <ele>117.6</ele>
        <time>2022-09-11T08:25:50Z</time>
      </trkpt>
      <trkpt lat="49.1129" lon="2.01175">
        <ele>118</ele>
        <time>2022-09-11T08:25:56Z</time>
      </trkpt>
      <trkpt lat="49.11293" lon="2.01186">
        <ele>118.5</ele>
        <time>2022-09-11T08:26:02Z</time>
      </trkpt>
      <trkpt lat="49.11297" lon="2.01197">
        <ele>119.2</ele>
        <time>2022-09-11T08:26:07Z</time>
      </trkpt>
      <trkpt lat="49.11298" lon="2.01208">
        <ele>119.8</ele>
        <time>2022-09-11T08:26:13Z</time>
      </trkpt>
      <trkpt lat="49.11299" lon="2.01222">
        <ele>120.7</ele>
        <time>2022-09-11T08:26:19Z</time>
      </trkpt>
      <trkpt lat="49.11297" lon="2.01231">
        <ele>121</ele>
        <time>2022-09-11T08:26:24Z</time>
      </trkpt>
      <trkpt lat="49.11292" lon="2.01243">
        <ele>121.2</ele>
        <time>2022-09-11T08:26:30Z</time>
      </trkpt>
      <trkpt lat="49.11288" lon="2.01252">
        <ele>121.5</ele>
        <time>2022-09-11T08:26:35Z</time>
      </trkpt>
      <trkpt lat="49.11286" lon="2.01261">
        <ele>121.7</ele>
        <time>2022-09-11T08:26:41Z</time>
      </trkpt>
      <trkpt lat="49.11283" lon="2.01271">
        <ele>121.9</ele>
        <time>2022-09-11T08:26:46Z</time>
      </trkpt>
      <trkpt lat="49.11283" lon="2.01284">
        <ele>122.4</ele>
        <time>2022-09-11T08:26:52Z</time>
      </trkpt>
      <trkpt lat="49.11286" lon="2.01295">
        <ele>122.9</ele>
        <time>2022-09-11T08:26:58Z</time>
      </trkpt>
      <trkpt lat="49.11291" lon="2.01304">
        <ele>123.4</ele>
        <time>2022-09-11T08:27:03Z</time>
      </trkpt>
      <trkpt lat="49.11297" lon="2.01311">
        <ele>123.9</ele>
        <time>2022-09-11T08:27:09Z</time>
      </trkpt>
      <trkpt lat="49.11302" lon="2.01318">
        <ele>124.3</ele>
        <time>2022-09-11T08:27:14Z</time>
      </trkpt>
      <trkpt lat="49.11307" lon="2.0132">
        <ele>124.6</ele>
        <time>2022-09-11T08:27:19Z</time>
      </trkpt>
      <trkpt lat="49.11312" lon="2.01328">
        <ele>125</ele>
        <time>2022-09-11T08:27:24Z</time>
      </trkpt>
      <trkpt lat="49.11318" lon="2.01337">
        <ele>125.6</ele>
        <time>2022-09-11T08:27:30Z</time>
      </trkpt>
      <trkpt lat="49.11322" lon="2.01346">
        <ele>126.1</ele>
        <time>2022-09-11T08:27:36Z</time>
      </trkpt>
      <trkpt lat="49.11326" lon="2.01355">
        <ele>126.5</ele>
        <time>2022-09-11T08:27:42Z</time>
      </trkpt>
      <trkpt lat="49.11331" lon="2.01362">
        <ele>126.9</ele>
        <time>2022-09-11T08:27:47Z</time>
      </trkpt>
      <trkpt lat="49.11337" lon="2.01369">
        <ele>127.4</ele>
        <time>2022-09-11T08:27:52Z</time>
      </trkpt>
      <trkpt lat="49.11342" lon="2.01375">
        <ele>127.8</ele>
        <time>2022-09-11T08:27:57Z</time>
      </trkpt>
      <trkpt lat="49.11348" lon="2.01383">
        <ele>128.3</ele>
        <time>2022-09-11T08:28:03Z</time>
      </trkpt>
      <trkpt lat="49.11353" lon="2.0139">
        <ele>128.7</ele>
        <time>2022-09-11T08:28:08Z</time>
      </trkpt>
      <trkpt lat="49.11359" lon="2.01398">
        <ele>129.3</ele>
        <time>2022-09-11T08:28:14Z</time>
      </trkpt>
      <trkpt lat="49.11364" lon="2.01406">
        <ele>129.6</ele>
        <time>2022-09-11T08:28:19Z</time>
      </trkpt>
      <trkpt lat="49.11368" lon="2.01414">
        <ele>129.9</ele>
        <time>2022-09-11T08:28:25Z</time>
      </trkpt>
      <trkpt lat="49.11375" lon="2.01421">
        <ele>130.2</ele>
        <time>2022-09-11T08:28:31Z</time>
      </trkpt>
      <trkpt lat="49.11381" lon="2.0143">
        <ele>130.5</ele>
        <time>2022-09-11T08:28:37Z</time>
      </trkpt>
      <trkpt lat="49.11385" lon="2.01438">
        <ele>130.8</ele>
        <time>2022-09-11T08:28:42Z</time>
      </trkpt>
      <trkpt lat="49.11391" lon="2.01447">
        <ele>131.2</ele>
        <time>2022-09-11T08:28:48Z</time>
      </trkpt>
      <trkpt lat="49.11395" lon="2.01456">
        <ele>131.7</ele>
        <time>2022-09-11T08:28:54Z</time>
      </trkpt>
      <trkpt lat="49.114" lon="2.01464">
        <ele>132.4</ele>
        <time>2022-09-11T08:29:00Z</time>
      </trkpt>
      <trkpt lat="49.11403" lon="2.0147">
        <ele>132.9</ele>
        <time>2022-09-11T08:29:05Z</time>
      </trkpt>
      <trkpt lat="49.11407" lon="2.0148">
        <ele>133.6</ele>
        <time>2022-09-11T08:29:11Z</time>
      </trkpt>
      <trkpt lat="49.11412" lon="2.0149">
        <ele>134.3</ele>
        <time>2022-09-11T08:29:17Z</time>
      </trkpt>
      <trkpt lat="49.11416" lon="2.01499">
        <ele>134.9</ele>
        <time>2022-09-11T08:29:22Z</time>
      </trkpt>
      <trkpt lat="49.11418" lon="2.01509">
        <ele>135.5</ele>
        <time>2022-09-11T08:29:27Z</time>
      </trkpt>
      <trkpt lat="49.11422" lon="2.01518">
        <ele>136</ele>
        <time>2022-09-11T08:29:32Z</time>
      </trkpt>
      <trkpt lat="49.11425" lon="2.0153">
        <ele>136.6</ele>
        <time>2022-09-11T08:29:38Z</time>
      </trkpt>
      <trkpt lat="49.11429" lon="2.01536">
        <ele>137</ele>
        <time>2022-09-11T08:29:43Z</time>
      </trkpt>
      <trkpt lat="49.11433" lon="2.01545">
        <ele>137.6</ele>
        <time>2022-09-11T08:29:49Z</time>
      </trkpt>
      <trkpt lat="49.11437" lon="2.01554">
        <ele>138.2</ele>
        <time>2022-09-11T08:29:54Z</time>
      </trkpt>
      <trkpt lat="49.11441" lon="2.01563">
        <ele>138.7</ele>
        <time>2022-09-11T08:29:59Z</time>
      </trkpt>
      <trkpt lat="49.11446" lon="2.01572">
        <ele>139.1</ele>
        <time>2022-09-11T08:30:05Z</time>
      </trkpt>
      <trkpt lat="49.11452" lon="2.01566">
        <ele>139.6</ele>
        <time>2022-09-11T08:30:11Z</time>
      </trkpt>
      <trkpt lat="49.11456" lon="2.01559">
        <ele>139.8</ele>
        <time>2022-09-11T08:30:16Z</time>
      </trkpt>
      <trkpt lat="49.11457" lon="2.01554">
        <ele>139.9</ele>
        <time>2022-09-11T08:30:22Z</time>
      </trkpt>
      <trkpt lat="49.11457" lon="2.01552">
        <ele>139.8</ele>
        <time>2022-09-11T08:30:27Z</time>
      </trkpt>
      <trkpt lat="49.11461" lon="2.01545">
        <ele>140.1</ele>
        <time>2022-09-11T08:30:33Z</time>
      </trkpt>
      <trkpt lat="49.11466" lon="2.01536">
        <ele>140.4</ele>
        <time>2022-09-11T08:30:39Z</time>
      </trkpt>
      <trkpt lat="49.11471" lon="2.0153">
        <ele>140.9</ele>
        <time>2022-09-11T08:30:44Z</time>
      </trkpt>
      <trkpt lat="49.11477" lon="2.0152">
        <ele>140.9</ele>
        <time>2022-09-11T08:30:50Z</time>
      </trkpt>
      <trkpt lat="49.11481" lon="2.01511">
        <ele>140.6</ele>
        <time>2022-09-11T08:30:55Z</time>
      </trkpt>
      <trkpt lat="49.11486" lon="2.01502">
        <ele>140.2</ele>
        <time>2022-09-11T08:31:00Z</time>
      </trkpt>
      <trkpt lat="49.11491" lon="2.01493">
        <ele>139.8</ele>
        <time>2022-09-11T08:31:06Z</time>
      </trkpt>
      <trkpt lat="49.11495" lon="2.01486">
        <ele>139.6</ele>
        <time>2022-09-11T08:31:12Z</time>
      </trkpt>
      <trkpt lat="49.11499" lon="2.01478">
        <ele>139.4</ele>
        <time>2022-09-11T08:31:17Z</time>
      </trkpt>
      <trkpt lat="49.11503" lon="2.01469">
        <ele>138.8</ele>
        <time>2022-09-11T08:31:23Z</time>
      </trkpt>
      <trkpt lat="49.11509" lon="2.0146">
        <ele>138</ele>
        <time>2022-09-11T08:31:29Z</time>
      </trkpt>
      <trkpt lat="49.11515" lon="2.01455">
        <ele>137.7</ele>
        <time>2022-09-11T08:31:35Z</time>
      </trkpt>
      <trkpt lat="49.11525" lon="2.01456">
        <ele>138.1</ele>
        <time>2022-09-11T08:31:40Z</time>
      </trkpt>
      <trkpt lat="49.11532" lon="2.01461">
        <ele>138.8</ele>
        <time>2022-09-11T08:31:46Z</time>
      </trkpt>
      <trkpt lat="49.11538" lon="2.01466">
        <ele>139.3</ele>
        <time>2022-09-11T08:31:52Z</time>
      </trkpt>
      <trkpt lat="49.11544" lon="2.01471">
        <ele>139.9</ele>
        <time>2022-09-11T08:31:57Z</time>
      </trkpt>
      <trkpt lat="49.11552" lon="2.01475">
        <ele>140.3</ele>
        <time>2022-09-11T08:32:03Z</time>
      </trkpt>
      <trkpt lat="49.11559" lon="2.01478">
        <ele>140.5</ele>
        <time>2022-09-11T08:32:09Z</time>
      </trkpt>
      <trkpt lat="49.11565" lon="2.01478">
        <ele>140.2</ele>
        <time>2022-09-11T08:32:14Z</time>
      </trkpt>
      <trkpt lat="49.1157" lon="2.01481">
        <ele>140.4</ele>
        <time>2022-09-11T08:32:20Z</time>
      </trkpt>
      <trkpt lat="49.1158" lon="2.0149">
        <ele>141</ele>
        <time>2022-09-11T08:32:26Z</time>
      </trkpt>
      <trkpt lat="49.11586" lon="2.01495">
        <ele>141.3</ele>
        <time>2022-09-11T08:32:32Z</time>
      </trkpt>
      <trkpt lat="49.11588" lon="2.01499">
        <ele>141.4</ele>
        <time>2022-09-11T08:32:38Z</time>
      </trkpt>
      <trkpt lat="49.11591" lon="2.01504">
        <ele>141.6</ele>
        <time>2022-09-11T08:32:44Z</time>
      </trkpt>
      <trkpt lat="49.11591" lon="2.01506">
        <ele>141.8</ele>
        <time>2022-09-11T08:32:49Z</time>
      </trkpt>
      <trkpt lat="49.11591" lon="2.01507">
        <ele>141.9</ele>
        <time>2022-09-11T08:32:55Z</time>
      </trkpt>
      <trkpt lat="49.11591" lon="2.01511">
        <ele>142.3</ele>
        <time>2022-09-11T08:33:00Z</time>
      </trkpt>
      <trkpt lat="49.11593" lon="2.01519">
        <ele>143.1</ele>
        <time>2022-09-11T08:33:05Z</time>
      </trkpt>
      <trkpt lat="49.11594" lon="2.0153">
        <ele>144</ele>
        <time>2022-09-11T08:33:11Z</time>
      </trkpt>
      <trkpt lat="49.11594" lon="2.01538">
        <ele>144.7</ele>
        <time>2022-09-11T08:33:16Z</time>
      </trkpt>
      <trkpt lat="49.11592" lon="2.01544">
        <ele>145.4</ele>
        <time>2022-09-11T08:33:22Z</time>
      </trkpt>
      <trkpt lat="49.1159" lon="2.01552">
        <ele>146.3</ele>
        <time>2022-09-11T08:33:27Z</time>
      </trkpt>
      <trkpt lat="49.11586" lon="2.01567">
        <ele>147.3</ele>
        <time>2022-09-11T08:33:33Z</time>
      </trkpt>
      <trkpt lat="49.11583" lon="2.01579">
        <ele>147.8</ele>
        <time>2022-09-11T08:33:39Z</time>
      </trkpt>
      <trkpt lat="49.11583" lon="2.01587">
        <ele>148</ele>
        <time>2022-09-11T08:33:44Z</time>
      </trkpt>
      <trkpt lat="49.11579" lon="2.01598">
        <ele>148</ele>
        <time>2022-09-11T08:33:49Z</time>
      </trkpt>
      <trkpt lat="49.11575" lon="2.01608">
        <ele>148</ele>
        <time>2022-09-11T08:33:54Z</time>
      </trkpt>
      <trkpt lat="49.11571" lon="2.01618">
        <ele>148.1</ele>
        <time>2022-09-11T08:34:00Z</time>
      </trkpt>
      <trkpt lat="49.11569" lon="2.01625">
        <ele>148.2</ele>
        <time>2022-09-11T08:34:05Z</time>
      </trkpt>
      <trkpt lat="49.11565" lon="2.01634">
        <ele>148.3</ele>
        <time>2022-09-11T08:34:11Z</time>
      </trkpt>
      <trkpt lat="49.11561" lon="2.01642">
        <ele>148.2</ele>
        <time>2022-09-11T08:34:16Z</time>
      </trkpt>
      <trkpt lat="49.11556" lon="2.01652">
        <ele>148</ele>
        <time>2022-09-11T08:34:22Z</time>
      </trkpt>
      <trkpt lat="49.11553" lon="2.0166">
        <ele>147.7</ele>
        <time>2022-09-11T08:34:27Z</time>
      </trkpt>
      <trkpt lat="49.11549" lon="2.01666">
        <ele>147.3</ele>
        <time>2022-09-11T08:34:32Z</time>
      </trkpt>
      <trkpt lat="49.11546" lon="2.01673">
        <ele>146.9</ele>
        <time>2022-09-11T08:34:37Z</time>
      </trkpt>
      <trkpt lat="49.11542" lon="2.01681">
        <ele>146.5</ele>
        <time>2022-09-11T08:34:42Z</time>
      </trkpt>
      <trkpt lat="49.1154" lon="2.0169">
        <ele>146.4</ele>
        <time>2022-09-11T08:34:48Z</time>
      </trkpt>
      <trkpt lat="49.11543" lon="2.01693">
        <ele>146.6</ele>
        <time>2022-09-11T08:34:54Z</time>
      </trkpt>
      <trkpt lat="49.11547" lon="2.01702">
        <ele>146.8</ele>
        <time>2022-09-11T08:34:59Z</time>
      </trkpt>
      <trkpt lat="49.11551" lon="2.01713">
        <ele>146.9</ele>
        <time>2022-09-11T08:35:05Z</time>
      </trkpt>
      <trkpt lat="49.11553" lon="2.0172">
        <ele>147</ele>
        <time>2022-09-11T08:35:10Z</time>
      </trkpt>
      <trkpt lat="49.11552" lon="2.01726">
        <ele>147.1</ele>
        <time>2022-09-11T08:35:16Z</time>
      </trkpt>
      <trkpt lat="49.11545" lon="2.01731">
        <ele>147.2</ele>
        <time>2022-09-11T08:35:21Z</time>
      </trkpt>
      <trkpt lat="49.11541" lon="2.01738">
        <ele>147.3</ele>
        <time>2022-09-11T08:35:26Z</time>
      </trkpt>
      <trkpt lat="49.1154" lon="2.01745">
        <ele>147.4</ele>
        <time>2022-09-11T08:35:32Z</time>
      </trkpt>
      <trkpt lat="49.11545" lon="2.01749">
        <ele>147.6</ele>
        <time>2022-09-11T08:35:37Z</time>
      </trkpt>
      <trkpt lat="49.11552" lon="2.01753">
        <ele>147.8</ele>
        <time>2022-09-11T08:35:43Z</time>
      </trkpt>
      <trkpt lat="49.11557" lon="2.01765">
        <ele>147.5</ele>
        <time>2022-09-11T08:35:49Z</time>
      </trkpt>
      <trkpt lat="49.11559" lon="2.01776">
        <ele>147.1</ele>
        <time>2022-09-11T08:35:55Z</time>
      </trkpt>
      <trkpt lat="49.11563" lon="2.01784">
        <ele>147</ele>
        <time>2022-09-11T08:36:00Z</time>
      </trkpt>
      <trkpt lat="49.11563" lon="2.01793">
        <ele>147</ele>
        <time>2022-09-11T08:36:05Z</time>
      </trkpt>
      <trkpt lat="49.11565" lon="2.01805">
        <ele>147</ele>
        <time>2022-09-11T08:36:11Z</time>
      </trkpt>
      <trkpt lat="49.11566" lon="2.01812">
        <ele>146.8</ele>
        <time>2022-09-11T08:36:17Z</time>
      </trkpt>
      <trkpt lat="49.11564" lon="2.01817">
        <ele>146.6</ele>
        <time>2022-09-11T08:36:22Z</time>
      </trkpt>
      <trkpt lat="49.11557" lon="2.01824">
        <ele>146.3</ele>
        <time>2022-09-11T08:36:28Z</time>
      </trkpt>
      <trkpt lat="49.11559" lon="2.01827">
        <ele>146.2</ele>
        <time>2022-09-11T08:36:33Z</time>
      </trkpt>
      <trkpt lat="49.1156" lon="2.01836">
        <ele>146</ele>
        <time>2022-09-11T08:36:38Z</time>
      </trkpt>
      <trkpt lat="49.11564" lon="2.01844">
        <ele>146</ele>
        <time>2022-09-11T08:36:44Z</time>
      </trkpt>
      <trkpt lat="49.11572" lon="2.01844">
        <ele>146</ele>
        <time>2022-09-11T08:36:49Z</time>
      </trkpt>
      <trkpt lat="49.1158" lon="2.01837">
        <ele>146</ele>
        <time>2022-09-11T08:36:55Z</time>
      </trkpt>
      <trkpt lat="49.11584" lon="2.01831">
        <ele>146.1</ele>
        <time>2022-09-11T08:37:00Z</time>
      </trkpt>
      <trkpt lat="49.1159" lon="2.01825">
        <ele>146.4</ele>
        <time>2022-09-11T08:37:06Z</time>
      </trkpt>
      <trkpt lat="49.11595" lon="2.01833">
        <ele>146.4</ele>
        <time>2022-09-11T08:37:12Z</time>
      </trkpt>
      <trkpt lat="49.11599" lon="2.01845">
        <ele>146.6</ele>
        <time>2022-09-11T08:37:18Z</time>
      </trkpt>
      <trkpt lat="49.11602" lon="2.01858">
        <ele>146.7</ele>
        <time>2022-09-11T08:37:24Z</time>
      </trkpt>
      <trkpt lat="49.11607" lon="2.01865">
        <ele>146.8</ele>
        <time>2022-09-11T08:37:29Z</time>
      </trkpt>
      <trkpt lat="49.11613" lon="2.01874">
        <ele>147</ele>
        <time>2022-09-11T08:37:34Z</time>
      </trkpt>
      <trkpt lat="49.11621" lon="2.01883">
        <ele>147</ele>
        <time>2022-09-11T08:37:40Z</time>
      </trkpt>
      <trkpt lat="49.11627" lon="2.01889">
        <ele>147</ele>
        <time>2022-09-11T08:37:46Z</time>
      </trkpt>
      <trkpt lat="49.11634" lon="2.01896">
        <ele>147</ele>
        <time>2022-09-11T08:37:51Z</time>
      </trkpt>
      <trkpt lat="49.1164" lon="2.01901">
        <ele>147</ele>
        <time>2022-09-11T08:37:56Z</time>
      </trkpt>
      <trkpt lat="49.11648" lon="2.01912">
        <ele>147.3</ele>
        <time>2022-09-11T08:38:02Z</time>
      </trkpt>
      <trkpt lat="49.11651" lon="2.01925">
        <ele>147.3</ele>
        <time>2022-09-11T08:38:07Z</time>
      </trkpt>
      <trkpt lat="49.11655" lon="2.01936">
        <ele>147.2</ele>
        <time>2022-09-11T08:38:13Z</time>
      </trkpt>
      <trkpt lat="49.11656" lon="2.01949">
        <ele>147</ele>
        <time>2022-09-11T08:38:19Z</time>
      </trkpt>
      <trkpt lat="49.11659" lon="2.01962">
        <ele>147</ele>
        <time>2022-09-11T08:38:25Z</time>
      </trkpt>
      <trkpt lat="49.11661" lon="2.01972">
        <ele>147</ele>
        <time>2022-09-11T08:38:30Z</time>
      </trkpt>
      <trkpt lat="49.11663" lon="2.01986">
        <ele>147</ele>
        <time>2022-09-11T08:38:36Z</time>
      </trkpt>
      <trkpt lat="49.11667" lon="2.01994">
        <ele>147</ele>
        <time>2022-09-11T08:38:42Z</time>
      </trkpt>
      <trkpt lat="49.1167" lon="2.02004">
        <ele>147.1</ele>
        <time>2022-09-11T08:38:48Z</time>
      </trkpt>
      <trkpt lat="49.11672" lon="2.02015">
        <ele>147.1</ele>
        <time>2022-09-11T08:38:53Z</time>
      </trkpt>
      <trkpt lat="49.11675" lon="2.02029">
        <ele>147</ele>
        <time>2022-09-11T08:38:59Z</time>
      </trkpt>
      <trkpt lat="49.11677" lon="2.02039">
        <ele>146.6</ele>
        <time>2022-09-11T08:39:04Z</time>
      </trkpt>
      <trkpt lat="49.11682" lon="2.02056">
        <ele>146</ele>
        <time>2022-09-11T08:39:10Z</time>
      </trkpt>
      <trkpt lat="49.11685" lon="2.02066">
        <ele>145.9</ele>
        <time>2022-09-11T08:39:15Z</time>
      </trkpt>
      <trkpt lat="49.11687" lon="2.02076">
        <ele>145.8</ele>
        <time>2022-09-11T08:39:20Z</time>
      </trkpt>
      <trkpt lat="49.11687" lon="2.02089">
        <ele>145.6</ele>
        <time>2022-09-11T08:39:26Z</time>
      </trkpt>
      <trkpt lat="49.11691" lon="2.02098">
        <ele>145.4</ele>
        <time>2022-09-11T08:39:32Z</time>
      </trkpt>
      <trkpt lat="49.11696" lon="2.02109">
        <ele>145.1</ele>
        <time>2022-09-11T08:39:37Z</time>
      </trkpt>
      <trkpt lat="49.117" lon="2.02122">
        <ele>144.7</ele>
        <time>2022-09-11T08:39:42Z</time>
      </trkpt>
      <trkpt lat="49.11705" lon="2.02131">
        <ele>144.6</ele>
        <time>2022-09-11T08:39:48Z</time>
      </trkpt>
      <trkpt lat="49.11708" lon="2.02144">
        <ele>144.3</ele>
        <time>2022-09-11T08:39:54Z</time>
      </trkpt>
      <trkpt lat="49.11714" lon="2.02151">
        <ele>144.3</ele>
        <time>2022-09-11T08:40:00Z</time>
      </trkpt>
      <trkpt lat="49.11722" lon="2.02145">
        <ele>144.7</ele>
        <time>2022-09-11T08:40:06Z</time>
      </trkpt>
      <trkpt lat="49.11728" lon="2.02141">
        <ele>144.7</ele>
        <time>2022-09-11T08:40:11Z</time>
      </trkpt>
      <trkpt lat="49.11735" lon="2.02127">
        <ele>144.7</ele>
        <time>2022-09-11T08:40:18Z</time>
      </trkpt>
      <trkpt lat="49.11741" lon="2.02118">
        <ele>144.8</ele>
        <time>2022-09-11T08:40:24Z</time>
      </trkpt>
      <trkpt lat="49.11745" lon="2.02111">
        <ele>145</ele>
        <time>2022-09-11T08:40:29Z</time>
      </trkpt>
      <trkpt lat="49.11751" lon="2.02101">
        <ele>145</ele>
        <time>2022-09-11T08:40:35Z</time>
      </trkpt>
      <trkpt lat="49.11757" lon="2.0209">
        <ele>144.5</ele>
        <time>2022-09-11T08:40:41Z</time>
      </trkpt>
      <trkpt lat="49.11763" lon="2.02081">
        <ele>144</ele>
        <time>2022-09-11T08:40:47Z</time>
      </trkpt>
      <trkpt lat="49.11767" lon="2.02074">
        <ele>143.5</ele>
        <time>2022-09-11T08:40:52Z</time>
      </trkpt>
      <trkpt lat="49.11773" lon="2.02066">
        <ele>142.8</ele>
        <time>2022-09-11T08:40:58Z</time>
      </trkpt>
      <trkpt lat="49.11779" lon="2.02057">
        <ele>142</ele>
        <time>2022-09-11T08:41:04Z</time>
      </trkpt>
      <trkpt lat="49.11788" lon="2.02048">
        <ele>141.7</ele>
        <time>2022-09-11T08:41:10Z</time>
      </trkpt>
      <trkpt lat="49.11794" lon="2.0204">
        <ele>141.3</ele>
        <time>2022-09-11T08:41:15Z</time>
      </trkpt>
      <trkpt lat="49.11799" lon="2.02029">
        <ele>140.7</ele>
        <time>2022-09-11T08:41:21Z</time>
      </trkpt>
      <trkpt lat="49.11805" lon="2.02021">
        <ele>140</ele>
        <time>2022-09-11T08:41:27Z</time>
      </trkpt>
      <trkpt lat="49.11811" lon="2.02014">
        <ele>139.6</ele>
        <time>2022-09-11T08:41:32Z</time>
      </trkpt>
      <trkpt lat="49.11815" lon="2.02005">
        <ele>139.3</ele>
        <time>2022-09-11T08:41:37Z</time>
      </trkpt>
      <trkpt lat="49.11823" lon="2.01997">
        <ele>138.7</ele>
        <time>2022-09-11T08:41:43Z</time>
      </trkpt>
      <trkpt lat="49.11828" lon="2.01989">
        <ele>138</ele>
        <time>2022-09-11T08:41:48Z</time>
      </trkpt>
      <trkpt lat="49.11836" lon="2.01978">
        <ele>137</ele>
        <time>2022-09-11T08:41:55Z</time>
      </trkpt>
      <trkpt lat="49.11841" lon="2.0197">
        <ele>136.5</ele>
        <time>2022-09-11T08:42:00Z</time>
      </trkpt>
      <trkpt lat="49.11848" lon="2.01962">
        <ele>136</ele>
        <time>2022-09-11T08:42:06Z</time>
      </trkpt>
      <trkpt lat="49.11855" lon="2.01954">
        <ele>135.5</ele>
        <time>2022-09-11T08:42:12Z</time>
      </trkpt>
      <trkpt lat="49.11861" lon="2.01947">
        <ele>135</ele>
        <time>2022-09-11T08:42:17Z</time>
      </trkpt>
      <trkpt lat="49.11868" lon="2.01939">
        <ele>134.3</ele>
        <time>2022-09-11T08:42:23Z</time>
      </trkpt>
      <trkpt lat="49.11876" lon="2.01935">
        <ele>133.6</ele>
        <time>2022-09-11T08:42:28Z</time>
      </trkpt>
      <trkpt lat="49.11883" lon="2.01932">
        <ele>133</ele>
        <time>2022-09-11T08:42:33Z</time>
      </trkpt>
      <trkpt lat="49.11889" lon="2.01926">
        <ele>132.7</ele>
        <time>2022-09-11T08:42:38Z</time>
      </trkpt>
      <trkpt lat="49.11897" lon="2.01922">
        <ele>132</ele>
        <time>2022-09-11T08:42:44Z</time>
      </trkpt>
      <trkpt lat="49.11904" lon="2.01923">
        <ele>131.2</ele>
        <time>2022-09-11T08:42:49Z</time>
      </trkpt>
      <trkpt lat="49.11912" lon="2.01923">
        <ele>130.3</ele>
        <time>2022-09-11T08:42:55Z</time>
      </trkpt>
      <trkpt lat="49.11918" lon="2.01923">
        <ele>129.7</ele>
        <time>2022-09-11T08:43:00Z</time>
      </trkpt>
      <trkpt lat="49.11925" lon="2.01924">
        <ele>129</ele>
        <time>2022-09-11T08:43:06Z</time>
      </trkpt>
      <trkpt lat="49.1193" lon="2.01921">
        <ele>128.4</ele>
        <time>2022-09-11T08:43:11Z</time>
      </trkpt>
      <trkpt lat="49.11942" lon="2.01915">
        <ele>127.3</ele>
        <time>2022-09-11T08:43:18Z</time>
      </trkpt>
      <trkpt lat="49.11952" lon="2.01913">
        <ele>126.3</ele>
        <time>2022-09-11T08:43:24Z</time>
      </trkpt>
      <trkpt lat="49.1196" lon="2.0191">
        <ele>125.4</ele>
        <time>2022-09-11T08:43:29Z</time>
      </trkpt>
      <trkpt lat="49.11969" lon="2.01905">
        <ele>124.4</ele>
        <time>2022-09-11T08:43:35Z</time>
      </trkpt>
      <trkpt lat="49.1198" lon="2.01897">
        <ele>123.4</ele>
        <time>2022-09-11T08:43:41Z</time>
      </trkpt>
      <trkpt lat="49.11989" lon="2.01892">
        <ele>122.8</ele>
        <time>2022-09-11T08:43:46Z</time>
      </trkpt>
      <trkpt lat="49.11997" lon="2.0189">
        <ele>122.2</ele>
        <time>2022-09-11T08:43:51Z</time>
      </trkpt>
      <trkpt lat="49.12005" lon="2.01895">
        <ele>121.6</ele>
        <time>2022-09-11T08:43:57Z</time>
      </trkpt>
      <trkpt lat="49.12014" lon="2.01902">
        <ele>120.7</ele>
        <time>2022-09-11T08:44:03Z</time>
      </trkpt>
      <trkpt lat="49.12022" lon="2.01907">
        <ele>119.9</ele>
        <time>2022-09-11T08:44:08Z</time>
      </trkpt>
      <trkpt lat="49.12029" lon="2.01912">
        <ele>119</ele>
        <time>2022-09-11T08:44:14Z</time>
      </trkpt>
      <trkpt lat="49.12035" lon="2.01917">
        <ele>118.5</ele>
        <time>2022-09-11T08:44:20Z</time>
      </trkpt>
      <trkpt lat="49.12042" lon="2.01922">
        <ele>118.1</ele>
        <time>2022-09-11T08:44:26Z</time>
      </trkpt>
      <trkpt lat="49.12048" lon="2.01929">
        <ele>117.7</ele>
        <time>2022-09-11T08:44:31Z</time>
      </trkpt>
      <trkpt lat="49.12054" lon="2.01933">
        <ele>117.2</ele>
        <time>2022-09-11T08:44:37Z</time>
      </trkpt>
      <trkpt lat="49.12063" lon="2.01941">
        <ele>116.7</ele>
        <time>2022-09-11T08:44:43Z</time>
      </trkpt>
      <trkpt lat="49.12072" lon="2.01947">
        <ele>116.4</ele>
        <time>2022-09-11T08:44:48Z</time>
      </trkpt>
      <trkpt lat="49.12081" lon="2.01954">
        <ele>116.1</ele>
        <time>2022-09-11T08:44:54Z</time>
      </trkpt>
      <trkpt lat="49.12086" lon="2.0196">
        <ele>115.9</ele>
        <time>2022-09-11T08:44:59Z</time>
      </trkpt>
      <trkpt lat="49.12091" lon="2.01967">
        <ele>115.7</ele>
        <time>2022-09-11T08:45:04Z</time>
      </trkpt>
      <trkpt lat="49.12095" lon="2.01974">
        <ele>115.5</ele>
        <time>2022-09-11T08:45:09Z</time>
      </trkpt>
      <trkpt lat="49.12101" lon="2.01982">
        <ele>115.2</ele>
        <time>2022-09-11T08:45:14Z</time>
      </trkpt>
      <trkpt lat="49.12109" lon="2.0199">
        <ele>114.5</ele>
        <time>2022-09-11T08:45:19Z</time>
      </trkpt>
      <trkpt lat="49.12118" lon="2.01999">
        <ele>114</ele>
        <time>2022-09-11T08:45:25Z</time>
      </trkpt>
      <trkpt lat="49.12126" lon="2.02004">
        <ele>114</ele>
        <time>2022-09-11T08:45:30Z</time>
      </trkpt>
      <trkpt lat="49.12135" lon="2.02009">
        <ele>114</ele>
        <time>2022-09-11T08:45:36Z</time>
      </trkpt>
      <trkpt lat="49.12145" lon="2.02014">
        <ele>113.9</ele>
        <time>2022-09-11T08:45:42Z</time>
      </trkpt>
      <trkpt lat="49.12155" lon="2.0202">
        <ele>113.8</ele>
        <time>2022-09-11T08:45:48Z</time>
      </trkpt>
      <trkpt lat="49.12161" lon="2.02026">
        <ele>113.9</ele>
        <time>2022-09-11T08:45:53Z</time>
      </trkpt>
      <trkpt lat="49.12168" lon="2.02029">
        <ele>113.9</ele>
        <time>2022-09-11T08:45:58Z</time>
      </trkpt>
      <trkpt lat="49.12175" lon="2.02031">
        <ele>113.6</ele>
        <time>2022-09-11T08:46:04Z</time>
      </trkpt>
      <trkpt lat="49.12182" lon="2.0203">
        <ele>113.4</ele>
        <time>2022-09-11T08:46:09Z</time>
      </trkpt>
      <trkpt lat="49.12192" lon="2.0203">
        <ele>113.1</ele>
        <time>2022-09-11T08:46:15Z</time>
      </trkpt>
      <trkpt lat="49.12202" lon="2.02029">
        <ele>112.2</ele>
        <time>2022-09-11T08:46:21Z</time>
      </trkpt>
      <trkpt lat="49.1221" lon="2.02028">
        <ele>111.3</ele>
        <time>2022-09-11T08:46:26Z</time>
      </trkpt>
      <trkpt lat="49.12216" lon="2.02025">
        <ele>110.9</ele>
        <time>2022-09-11T08:46:31Z</time>
      </trkpt>
      <trkpt lat="49.12223" lon="2.02021">
        <ele>110.8</ele>
        <time>2022-09-11T08:46:36Z</time>
      </trkpt>
      <trkpt lat="49.12233" lon="2.02019">
        <ele>111.5</ele>
        <time>2022-09-11T08:46:42Z</time>
      </trkpt>
      <trkpt lat="49.12241" lon="2.02018">
        <ele>112</ele>
        <time>2022-09-11T08:46:47Z</time>
      </trkpt>
      <trkpt lat="49.12249" lon="2.02016">
        <ele>112.4</ele>
        <time>2022-09-11T08:46:53Z</time>
      </trkpt>
      <trkpt lat="49.12247" lon="2.02004">
        <ele>112.8</ele>
        <time>2022-09-11T08:47:09Z</time>
      </trkpt>
      <trkpt lat="49.12274" lon="2.02005">
        <ele>112.1</ele>
        <time>2022-09-11T08:47:15Z</time>
      </trkpt>
      <trkpt lat="49.12284" lon="2.02001">
        <ele>112</ele>
        <time>2022-09-11T08:47:21Z</time>
      </trkpt>
      <trkpt lat="49.12292" lon="2.02">
        <ele>112</ele>
        <time>2022-09-11T08:47:26Z</time>
      </trkpt>
      <trkpt lat="49.12301" lon="2.01997">
        <ele>112.2</ele>
        <time>2022-09-11T08:47:32Z</time>
      </trkpt>
      <trkpt lat="49.12307" lon="2.01994">
        <ele>112.4</ele>
        <time>2022-09-11T08:47:37Z</time>
      </trkpt>
      <trkpt lat="49.12316" lon="2.01993">
        <ele>112.4</ele>
        <time>2022-09-11T08:47:43Z</time>
      </trkpt>
      <trkpt lat="49.12328" lon="2.01992">
        <ele>112.3</ele>
        <time>2022-09-11T08:47:49Z</time>
      </trkpt>
      <trkpt lat="49.12334" lon="2.0199">
        <ele>112.3</ele>
        <time>2022-09-11T08:47:54Z</time>
      </trkpt>
      <trkpt lat="49.12343" lon="2.01991">
        <ele>112.3</ele>
        <time>2022-09-11T08:47:59Z</time>
      </trkpt>
      <trkpt lat="49.1235" lon="2.01986">
        <ele>112.5</ele>
        <time>2022-09-11T08:48:05Z</time>
      </trkpt>
      <trkpt lat="49.12354" lon="2.01978">
        <ele>112.8</ele>
        <time>2022-09-11T08:48:11Z</time>
      </trkpt>
      <trkpt lat="49.12355" lon="2.01975">
        <ele>112.9</ele>
        <time>2022-09-11T08:48:17Z</time>
      </trkpt>
      <trkpt lat="49.12355" lon="2.01974">
        <ele>113</ele>
        <time>2022-09-11T08:48:22Z</time>
      </trkpt>
      <trkpt lat="49.12355" lon="2.01973">
        <ele>113</ele>
        <time>2022-09-11T08:48:28Z</time>
      </trkpt>
      <trkpt lat="49.12355" lon="2.01972">
        <ele>113</ele>
        <time>2022-09-11T08:48:34Z</time>
      </trkpt>
      <trkpt lat="49.12356" lon="2.01972">
        <ele>113</ele>
        <time>2022-09-11T08:48:39Z</time>
      </trkpt>
      <trkpt lat="49.12359" lon="2.01967">
        <ele>113</ele>
        <time>2022-09-11T08:48:51Z</time>
      </trkpt>
      <trkpt lat="49.12362" lon="2.01959">
        <ele>113</ele>
        <time>2022-09-11T08:48:56Z</time>
      </trkpt>
      <trkpt lat="49.12365" lon="2.0195">
        <ele>113</ele>
        <time>2022-09-11T08:49:02Z</time>
      </trkpt>
      <trkpt lat="49.12367" lon="2.0194">
        <ele>113</ele>
        <time>2022-09-11T08:49:07Z</time>
      </trkpt>
      <trkpt lat="49.12371" lon="2.0193">
        <ele>113.2</ele>
        <time>2022-09-11T08:49:13Z</time>
      </trkpt>
      <trkpt lat="49.12374" lon="2.0192">
        <ele>113.4</ele>
        <time>2022-09-11T08:49:18Z</time>
      </trkpt>
      <trkpt lat="49.12378" lon="2.01909">
        <ele>113.7</ele>
        <time>2022-09-11T08:49:24Z</time>
      </trkpt>
      <trkpt lat="49.12381" lon="2.01896">
        <ele>113.9</ele>
        <time>2022-09-11T08:49:29Z</time>
      </trkpt>
      <trkpt lat="49.12386" lon="2.01886">
        <ele>114.1</ele>
        <time>2022-09-11T08:49:35Z</time>
      </trkpt>
      <trkpt lat="49.12391" lon="2.01877">
        <ele>114.5</ele>
        <time>2022-09-11T08:49:40Z</time>
      </trkpt>
      <trkpt lat="49.12394" lon="2.01866">
        <ele>115</ele>
        <time>2022-09-11T08:49:46Z</time>
      </trkpt>
      <trkpt lat="49.12397" lon="2.01854">
        <ele>115.5</ele>
        <time>2022-09-11T08:49:52Z</time>
      </trkpt>
      <trkpt lat="49.12401" lon="2.01843">
        <ele>116.1</ele>
        <time>2022-09-11T08:49:58Z</time>
      </trkpt>
      <trkpt lat="49.12405" lon="2.01834">
        <ele>116.6</ele>
        <time>2022-09-11T08:50:03Z</time>
      </trkpt>
      <trkpt lat="49.12408" lon="2.01824">
        <ele>116.8</ele>
        <time>2022-09-11T08:50:08Z</time>
      </trkpt>
      <trkpt lat="49.12411" lon="2.01814">
        <ele>116.9</ele>
        <time>2022-09-11T08:50:13Z</time>
      </trkpt>
      <trkpt lat="49.12414" lon="2.01803">
        <ele>117.1</ele>
        <time>2022-09-11T08:50:19Z</time>
      </trkpt>
      <trkpt lat="49.12416" lon="2.01792">
        <ele>117.5</ele>
        <time>2022-09-11T08:50:25Z</time>
      </trkpt>
      <trkpt lat="49.12422" lon="2.0178">
        <ele>118.1</ele>
        <time>2022-09-11T08:50:31Z</time>
      </trkpt>
      <trkpt lat="49.12425" lon="2.01771">
        <ele>118.3</ele>
        <time>2022-09-11T08:50:36Z</time>
      </trkpt>
      <trkpt lat="49.1243" lon="2.01758">
        <ele>118.5</ele>
        <time>2022-09-11T08:50:42Z</time>
      </trkpt>
      <trkpt lat="49.12432" lon="2.01749">
        <ele>118.6</ele>
        <time>2022-09-11T08:50:47Z</time>
      </trkpt>
      <trkpt lat="49.12435" lon="2.01738">
        <ele>119.1</ele>
        <time>2022-09-11T08:50:53Z</time>
      </trkpt>
      <trkpt lat="49.12438" lon="2.01728">
        <ele>119.6</ele>
        <time>2022-09-11T08:50:58Z</time>
      </trkpt>
      <trkpt lat="49.12443" lon="2.01716">
        <ele>119.9</ele>
        <time>2022-09-11T08:51:04Z</time>
      </trkpt>
      <trkpt lat="49.12446" lon="2.01703">
        <ele>120</ele>
        <time>2022-09-11T08:51:10Z</time>
      </trkpt>
      <trkpt lat="49.1245" lon="2.01694">
        <ele>120.2</ele>
        <time>2022-09-11T08:51:15Z</time>
      </trkpt>
      <trkpt lat="49.12455" lon="2.01685">
        <ele>120.2</ele>
        <time>2022-09-11T08:51:20Z</time>
      </trkpt>
      <trkpt lat="49.12459" lon="2.01676">
        <ele>120.2</ele>
        <time>2022-09-11T08:51:26Z</time>
      </trkpt>
      <trkpt lat="49.12462" lon="2.01666">
        <ele>120</ele>
        <time>2022-09-11T08:51:31Z</time>
      </trkpt>
      <trkpt lat="49.12466" lon="2.01653">
        <ele>120.4</ele>
        <time>2022-09-11T08:51:37Z</time>
      </trkpt>
      <trkpt lat="49.12471" lon="2.01638">
        <ele>120.9</ele>
        <time>2022-09-11T08:51:43Z</time>
      </trkpt>
      <trkpt lat="49.12477" lon="2.01623">
        <ele>120.4</ele>
        <time>2022-09-11T08:51:49Z</time>
      </trkpt>
      <trkpt lat="49.1248" lon="2.01613">
        <ele>120.1</ele>
        <time>2022-09-11T08:51:54Z</time>
      </trkpt>
      <trkpt lat="49.12484" lon="2.01603">
        <ele>120</ele>
        <time>2022-09-11T08:52:00Z</time>
      </trkpt>
      <trkpt lat="49.12487" lon="2.01596">
        <ele>120</ele>
        <time>2022-09-11T08:52:05Z</time>
      </trkpt>
      <trkpt lat="49.1249" lon="2.01587">
        <ele>120</ele>
        <time>2022-09-11T08:52:10Z</time>
      </trkpt>
      <trkpt lat="49.12495" lon="2.01575">
        <ele>119.7</ele>
        <time>2022-09-11T08:52:16Z</time>
      </trkpt>
      <trkpt lat="49.12498" lon="2.01563">
        <ele>119.3</ele>
        <time>2022-09-11T08:52:21Z</time>
      </trkpt>
      <trkpt lat="49.12503" lon="2.01547">
        <ele>119</ele>
        <time>2022-09-11T08:52:27Z</time>
      </trkpt>
      <trkpt lat="49.12506" lon="2.01536">
        <ele>119</ele>
        <time>2022-09-11T08:52:33Z</time>
      </trkpt>
      <trkpt lat="49.12512" lon="2.01525">
        <ele>119</ele>
        <time>2022-09-11T08:52:40Z</time>
      </trkpt>
      <trkpt lat="49.12514" lon="2.01516">
        <ele>119</ele>
        <time>2022-09-11T08:52:45Z</time>
      </trkpt>
      <trkpt lat="49.12515" lon="2.01508">
        <ele>119</ele>
        <time>2022-09-11T08:52:50Z</time>
      </trkpt>
      <trkpt lat="49.12521" lon="2.01497">
        <ele>118.9</ele>
        <time>2022-09-11T08:52:56Z</time>
      </trkpt>
      <trkpt lat="49.12529" lon="2.01496">
        <ele>118.8</ele>
        <time>2022-09-11T08:53:02Z</time>
      </trkpt>
      <trkpt lat="49.12536" lon="2.01502">
        <ele>118.7</ele>
        <time>2022-09-11T08:53:07Z</time>
      </trkpt>
      <trkpt lat="49.12542" lon="2.01514">
        <ele>118.5</ele>
        <time>2022-09-11T08:53:13Z</time>
      </trkpt>
      <trkpt lat="49.12549" lon="2.01524">
        <ele>118.2</ele>
        <time>2022-09-11T08:53:19Z</time>
      </trkpt>
      <trkpt lat="49.12553" lon="2.01532">
        <ele>118.2</ele>
        <time>2022-09-11T08:53:24Z</time>
      </trkpt>
      <trkpt lat="49.12557" lon="2.01541">
        <ele>118.4</ele>
        <time>2022-09-11T08:53:29Z</time>
      </trkpt>
      <trkpt lat="49.12563" lon="2.01552">
        <ele>118.6</ele>
        <time>2022-09-11T08:53:35Z</time>
      </trkpt>
      <trkpt lat="49.1257" lon="2.01563">
        <ele>118.5</ele>
        <time>2022-09-11T08:53:41Z</time>
      </trkpt>
      <trkpt lat="49.12575" lon="2.01572">
        <ele>118.3</ele>
        <time>2022-09-11T08:53:47Z</time>
      </trkpt>
      <trkpt lat="49.12579" lon="2.0158">
        <ele>118.1</ele>
        <time>2022-09-11T08:53:52Z</time>
      </trkpt>
      <trkpt lat="49.12585" lon="2.01591">
        <ele>118.2</ele>
        <time>2022-09-11T08:53:58Z</time>
      </trkpt>
      <trkpt lat="49.12589" lon="2.01602">
        <ele>118.3</ele>
        <time>2022-09-11T08:54:03Z</time>
      </trkpt>
      <trkpt lat="49.12593" lon="2.01613">
        <ele>118.4</ele>
        <time>2022-09-11T08:54:09Z</time>
      </trkpt>
      <trkpt lat="49.12598" lon="2.01622">
        <ele>118.4</ele>
        <time>2022-09-11T08:54:15Z</time>
      </trkpt>
      <trkpt lat="49.12603" lon="2.01632">
        <ele>118.3</ele>
        <time>2022-09-11T08:54:21Z</time>
      </trkpt>
      <trkpt lat="49.12606" lon="2.01639">
        <ele>118.4</ele>
        <time>2022-09-11T08:54:26Z</time>
      </trkpt>
      <trkpt lat="49.12609" lon="2.0165">
        <ele>118.1</ele>
        <time>2022-09-11T08:54:32Z</time>
      </trkpt>
      <trkpt lat="49.12614" lon="2.01661">
        <ele>117.9</ele>
        <time>2022-09-11T08:54:37Z</time>
      </trkpt>
      <trkpt lat="49.12619" lon="2.01671">
        <ele>117.9</ele>
        <time>2022-09-11T08:54:42Z</time>
      </trkpt>
      <trkpt lat="49.12623" lon="2.01682">
        <ele>117.9</ele>
        <time>2022-09-11T08:54:48Z</time>
      </trkpt>
      <trkpt lat="49.12626" lon="2.01691">
        <ele>117.9</ele>
        <time>2022-09-11T08:54:54Z</time>
      </trkpt>
      <trkpt lat="49.1263" lon="2.01704">
        <ele>117.6</ele>
        <time>2022-09-11T08:55:00Z</time>
      </trkpt>
      <trkpt lat="49.12637" lon="2.01716">
        <ele>117.1</ele>
        <time>2022-09-11T08:55:06Z</time>
      </trkpt>
      <trkpt lat="49.12643" lon="2.01727">
        <ele>117.1</ele>
        <time>2022-09-11T08:55:12Z</time>
      </trkpt>
      <trkpt lat="49.12647" lon="2.01735">
        <ele>117.4</ele>
        <time>2022-09-11T08:55:17Z</time>
      </trkpt>
      <trkpt lat="49.1265" lon="2.01745">
        <ele>117.6</ele>
        <time>2022-09-11T08:55:22Z</time>
      </trkpt>
      <trkpt lat="49.12655" lon="2.01753">
        <ele>117.3</ele>
        <time>2022-09-11T08:55:27Z</time>
      </trkpt>
      <trkpt lat="49.12659" lon="2.01764">
        <ele>117.2</ele>
        <time>2022-09-11T08:55:33Z</time>
      </trkpt>
      <trkpt lat="49.12664" lon="2.01774">
        <ele>117</ele>
        <time>2022-09-11T08:55:39Z</time>
      </trkpt>
      <trkpt lat="49.1267" lon="2.01783">
        <ele>117.1</ele>
        <time>2022-09-11T08:55:44Z</time>
      </trkpt>
      <trkpt lat="49.12676" lon="2.01793">
        <ele>117.2</ele>
        <time>2022-09-11T08:55:50Z</time>
      </trkpt>
      <trkpt lat="49.12683" lon="2.01802">
        <ele>117.1</ele>
        <time>2022-09-11T08:55:56Z</time>
      </trkpt>
      <trkpt lat="49.12686" lon="2.01811">
        <ele>117.2</ele>
        <time>2022-09-11T08:56:02Z</time>
      </trkpt>
      <trkpt lat="49.1269" lon="2.01819">
        <ele>117.3</ele>
        <time>2022-09-11T08:56:08Z</time>
      </trkpt>
      <trkpt lat="49.12696" lon="2.01828">
        <ele>117.5</ele>
        <time>2022-09-11T08:56:14Z</time>
      </trkpt>
      <trkpt lat="49.12702" lon="2.01837">
        <ele>117.3</ele>
        <time>2022-09-11T08:56:20Z</time>
      </trkpt>
      <trkpt lat="49.1271" lon="2.01845">
        <ele>116.7</ele>
        <time>2022-09-11T08:56:25Z</time>
      </trkpt>
      <trkpt lat="49.12716" lon="2.01853">
        <ele>116.4</ele>
        <time>2022-09-11T08:56:31Z</time>
      </trkpt>
      <trkpt lat="49.12723" lon="2.01861">
        <ele>116</ele>
        <time>2022-09-11T08:56:37Z</time>
      </trkpt>
      <trkpt lat="49.12729" lon="2.01868">
        <ele>116.2</ele>
        <time>2022-09-11T08:56:42Z</time>
      </trkpt>
      <trkpt lat="49.12734" lon="2.01875">
        <ele>116.3</ele>
        <time>2022-09-11T08:56:47Z</time>
      </trkpt>
      <trkpt lat="49.12742" lon="2.01881">
        <ele>116.2</ele>
        <time>2022-09-11T08:56:53Z</time>
      </trkpt>
      <trkpt lat="49.12746" lon="2.01886">
        <ele>116.1</ele>
        <time>2022-09-11T08:56:58Z</time>
      </trkpt>
      <trkpt lat="49.12752" lon="2.01893">
        <ele>116.1</ele>
        <time>2022-09-11T08:57:03Z</time>
      </trkpt>
      <trkpt lat="49.1276" lon="2.01902">
        <ele>116.1</ele>
        <time>2022-09-11T08:57:09Z</time>
      </trkpt>
      <trkpt lat="49.12767" lon="2.01909">
        <ele>116.1</ele>
        <time>2022-09-11T08:57:15Z</time>
      </trkpt>
      <trkpt lat="49.12771" lon="2.01916">
        <ele>116.2</ele>
        <time>2022-09-11T08:57:20Z</time>
      </trkpt>
      <trkpt lat="49.12778" lon="2.01926">
        <ele>116.3</ele>
        <time>2022-09-11T08:57:26Z</time>
      </trkpt>
      <trkpt lat="49.12783" lon="2.01935">
        <ele>116.3</ele>
        <time>2022-09-11T08:57:31Z</time>
      </trkpt>
      <trkpt lat="49.12788" lon="2.01942">
        <ele>116.2</ele>
        <time>2022-09-11T08:57:36Z</time>
      </trkpt>
      <trkpt lat="49.12794" lon="2.01948">
        <ele>116</ele>
        <time>2022-09-11T08:57:41Z</time>
      </trkpt>
      <trkpt lat="49.12802" lon="2.01957">
        <ele>115.8</ele>
        <time>2022-09-11T08:57:47Z</time>
      </trkpt>
      <trkpt lat="49.12808" lon="2.01966">
        <ele>115.6</ele>
        <time>2022-09-11T08:57:52Z</time>
      </trkpt>
      <trkpt lat="49.12815" lon="2.01975">
        <ele>115.4</ele>
        <time>2022-09-11T08:57:58Z</time>
      </trkpt>
      <trkpt lat="49.12821" lon="2.01982">
        <ele>115.2</ele>
        <time>2022-09-11T08:58:03Z</time>
      </trkpt>
      <trkpt lat="49.12827" lon="2.01988">
        <ele>115</ele>
        <time>2022-09-11T08:58:09Z</time>
      </trkpt>
      <trkpt lat="49.12834" lon="2.01998">
        <ele>114.9</ele>
        <time>2022-09-11T08:58:15Z</time>
      </trkpt>
      <trkpt lat="49.12839" lon="2.02008">
        <ele>114.8</ele>
        <time>2022-09-11T08:58:20Z</time>
      </trkpt>
      <trkpt lat="49.12846" lon="2.02018">
        <ele>114.7</ele>
        <time>2022-09-11T08:58:26Z</time>
      </trkpt>
      <trkpt lat="49.1285" lon="2.02024">
        <ele>114.6</ele>
        <time>2022-09-11T08:58:31Z</time>
      </trkpt>
      <trkpt lat="49.12855" lon="2.02032">
        <ele>114.6</ele>
        <time>2022-09-11T08:58:36Z</time>
      </trkpt>
      <trkpt lat="49.12863" lon="2.02041">
        <ele>114.4</ele>
        <time>2022-09-11T08:58:42Z</time>
      </trkpt>
      <trkpt lat="49.1287" lon="2.02051">
        <ele>114.2</ele>
        <time>2022-09-11T08:58:48Z</time>
      </trkpt>
      <trkpt lat="49.12876" lon="2.0206">
        <ele>114.1</ele>
        <time>2022-09-11T08:58:54Z</time>
      </trkpt>
      <trkpt lat="49.1288" lon="2.02065">
        <ele>114</ele>
        <time>2022-09-11T08:58:59Z</time>
      </trkpt>
      <trkpt lat="49.12885" lon="2.02074">
        <ele>114</ele>
        <time>2022-09-11T08:59:05Z</time>
      </trkpt>
      <trkpt lat="49.1289" lon="2.02084">
        <ele>113.9</ele>
        <time>2022-09-11T08:59:10Z</time>
      </trkpt>
      <trkpt lat="49.12896" lon="2.02095">
        <ele>113.8</ele>
        <time>2022-09-11T08:59:16Z</time>
      </trkpt>
      <trkpt lat="49.129" lon="2.02101">
        <ele>113.6</ele>
        <time>2022-09-11T08:59:21Z</time>
      </trkpt>
      <trkpt lat="49.12905" lon="2.02112">
        <ele>113.3</ele>
        <time>2022-09-11T08:59:27Z</time>
      </trkpt>
      <trkpt lat="49.12911" lon="2.02125">
        <ele>113</ele>
        <time>2022-09-11T08:59:32Z</time>
      </trkpt>
      <trkpt lat="49.12916" lon="2.02134">
        <ele>112.9</ele>
        <time>2022-09-11T08:59:38Z</time>
      </trkpt>
      <trkpt lat="49.1292" lon="2.02139">
        <ele>112.9</ele>
        <time>2022-09-11T08:59:43Z</time>
      </trkpt>
      <trkpt lat="49.12925" lon="2.0213">
        <ele>112.5</ele>
        <time>2022-09-11T08:59:49Z</time>
      </trkpt>
      <trkpt lat="49.12926" lon="2.02123">
        <ele>112.3</ele>
        <time>2022-09-11T08:59:54Z</time>
      </trkpt>
      <trkpt lat="49.12929" lon="2.02116">
        <ele>112.1</ele>
        <time>2022-09-11T09:00:00Z</time>
      </trkpt>
      <trkpt lat="49.1293" lon="2.02109">
        <ele>112</ele>
        <time>2022-09-11T09:00:06Z</time>
      </trkpt>
      <trkpt lat="49.12932" lon="2.02101">
        <ele>112</ele>
        <time>2022-09-11T09:00:11Z</time>
      </trkpt>
      <trkpt lat="49.12933" lon="2.02091">
        <ele>112</ele>
        <time>2022-09-11T09:00:17Z</time>
      </trkpt>
      <trkpt lat="49.12937" lon="2.02083">
        <ele>112</ele>
        <time>2022-09-11T09:00:22Z</time>
      </trkpt>
      <trkpt lat="49.12939" lon="2.02075">
        <ele>112.3</ele>
        <time>2022-09-11T09:00:28Z</time>
      </trkpt>
      <trkpt lat="49.12941" lon="2.02067">
        <ele>112.5</ele>
        <time>2022-09-11T09:00:34Z</time>
      </trkpt>
      <trkpt lat="49.12942" lon="2.02062">
        <ele>112.7</ele>
        <time>2022-09-11T09:00:39Z</time>
      </trkpt>
      <trkpt lat="49.12943" lon="2.02056">
        <ele>112.9</ele>
        <time>2022-09-11T09:00:44Z</time>
      </trkpt>
      <trkpt lat="49.12944" lon="2.02046">
        <ele>113.3</ele>
        <time>2022-09-11T09:00:50Z</time>
      </trkpt>
      <trkpt lat="49.12946" lon="2.02035">
        <ele>113.8</ele>
        <time>2022-09-11T09:00:56Z</time>
      </trkpt>
      <trkpt lat="49.12947" lon="2.02029">
        <ele>114.1</ele>
        <time>2022-09-11T09:01:01Z</time>
      </trkpt>
      <trkpt lat="49.12951" lon="2.02019">
        <ele>114.5</ele>
        <time>2022-09-11T09:01:07Z</time>
      </trkpt>
      <trkpt lat="49.12954" lon="2.0201">
        <ele>115</ele>
        <time>2022-09-11T09:01:12Z</time>
      </trkpt>
      <trkpt lat="49.12956" lon="2.02001">
        <ele>115.4</ele>
        <time>2022-09-11T09:01:18Z</time>
      </trkpt>
      <trkpt lat="49.12958" lon="2.01993">
        <ele>115.7</ele>
        <time>2022-09-11T09:01:23Z</time>
      </trkpt>
      <trkpt lat="49.12961" lon="2.01983">
        <ele>116.2</ele>
        <time>2022-09-11T09:01:29Z</time>
      </trkpt>
      <trkpt lat="49.12964" lon="2.01974">
        <ele>116.6</ele>
        <time>2022-09-11T09:01:34Z</time>
      </trkpt>
      <trkpt lat="49.12965" lon="2.01963">
        <ele>116.8</ele>
        <time>2022-09-11T09:01:40Z</time>
      </trkpt>
      <trkpt lat="49.12967" lon="2.01954">
        <ele>116.8</ele>
        <time>2022-09-11T09:01:45Z</time>
      </trkpt>
      <trkpt lat="49.12971" lon="2.01942">
        <ele>117.1</ele>
        <time>2022-09-11T09:01:51Z</time>
      </trkpt>
      <trkpt lat="49.12974" lon="2.01932">
        <ele>117.5</ele>
        <time>2022-09-11T09:01:57Z</time>
      </trkpt>
      <trkpt lat="49.12975" lon="2.01923">
        <ele>117.8</ele>
        <time>2022-09-11T09:02:02Z</time>
      </trkpt>
      <trkpt lat="49.12978" lon="2.0191">
        <ele>118</ele>
        <time>2022-09-11T09:02:07Z</time>
      </trkpt>
      <trkpt lat="49.12981" lon="2.01901">
        <ele>118</ele>
        <time>2022-09-11T09:02:13Z</time>
      </trkpt>
      <trkpt lat="49.12983" lon="2.01891">
        <ele>118</ele>
        <time>2022-09-11T09:02:19Z</time>
      </trkpt>
      <trkpt lat="49.12986" lon="2.01879">
        <ele>118.2</ele>
        <time>2022-09-11T09:02:25Z</time>
      </trkpt>
      <trkpt lat="49.12988" lon="2.0187">
        <ele>118.4</ele>
        <time>2022-09-11T09:02:30Z</time>
      </trkpt>
      <trkpt lat="49.12991" lon="2.0186">
        <ele>118.7</ele>
        <time>2022-09-11T09:02:36Z</time>
      </trkpt>
      <trkpt lat="49.12992" lon="2.01849">
        <ele>118.7</ele>
        <time>2022-09-11T09:02:42Z</time>
      </trkpt>
      <trkpt lat="49.12995" lon="2.01839">
        <ele>118.8</ele>
        <time>2022-09-11T09:02:47Z</time>
      </trkpt>
      <trkpt lat="49.12998" lon="2.01829">
        <ele>118.9</ele>
        <time>2022-09-11T09:02:53Z</time>
      </trkpt>
      <trkpt lat="49.13003" lon="2.01815">
        <ele>119.1</ele>
        <time>2022-09-11T09:02:59Z</time>
      </trkpt>
      <trkpt lat="49.13005" lon="2.01807">
        <ele>119.2</ele>
        <time>2022-09-11T09:03:04Z</time>
      </trkpt>
      <trkpt lat="49.13008" lon="2.01794">
        <ele>119.3</ele>
        <time>2022-09-11T09:03:10Z</time>
      </trkpt>
      <trkpt lat="49.13009" lon="2.01782">
        <ele>119.3</ele>
        <time>2022-09-11T09:03:16Z</time>
      </trkpt>
      <trkpt lat="49.13012" lon="2.01768">
        <ele>119.4</ele>
        <time>2022-09-11T09:03:22Z</time>
      </trkpt>
      <trkpt lat="49.13015" lon="2.01758">
        <ele>119.5</ele>
        <time>2022-09-11T09:03:28Z</time>
      </trkpt>
      <trkpt lat="49.13018" lon="2.01746">
        <ele>119.6</ele>
        <time>2022-09-11T09:03:34Z</time>
      </trkpt>
      <trkpt lat="49.13019" lon="2.01735">
        <ele>119.7</ele>
        <time>2022-09-11T09:03:39Z</time>
      </trkpt>
      <trkpt lat="49.13022" lon="2.01724">
        <ele>119.8</ele>
        <time>2022-09-11T09:03:45Z</time>
      </trkpt>
      <trkpt lat="49.13025" lon="2.01716">
        <ele>119.9</ele>
        <time>2022-09-11T09:03:50Z</time>
      </trkpt>
      <trkpt lat="49.13028" lon="2.01702">
        <ele>120</ele>
        <time>2022-09-11T09:03:56Z</time>
      </trkpt>
      <trkpt lat="49.13029" lon="2.01693">
        <ele>120</ele>
        <time>2022-09-11T09:04:01Z</time>
      </trkpt>
      <trkpt lat="49.13032" lon="2.0168">
        <ele>120</ele>
        <time>2022-09-11T09:04:07Z</time>
      </trkpt>
      <trkpt lat="49.13035" lon="2.01669">
        <ele>120</ele>
        <time>2022-09-11T09:04:12Z</time>
      </trkpt>
      <trkpt lat="49.13039" lon="2.01657">
        <ele>119.8</ele>
        <time>2022-09-11T09:04:17Z</time>
      </trkpt>
      <trkpt lat="49.13041" lon="2.01648">
        <ele>119.7</ele>
        <time>2022-09-11T09:04:23Z</time>
      </trkpt>
      <trkpt lat="49.13045" lon="2.01637">
        <ele>119.6</ele>
        <time>2022-09-11T09:04:28Z</time>
      </trkpt>
      <trkpt lat="49.13048" lon="2.01623">
        <ele>119.7</ele>
        <time>2022-09-11T09:04:34Z</time>
      </trkpt>
      <trkpt lat="49.13051" lon="2.01612">
        <ele>119.9</ele>
        <time>2022-09-11T09:04:40Z</time>
      </trkpt>
      <trkpt lat="49.13052" lon="2.01603">
        <ele>119.9</ele>
        <time>2022-09-11T09:04:45Z</time>
      </trkpt>
      <trkpt lat="49.13056" lon="2.0159">
        <ele>120</ele>
        <time>2022-09-11T09:04:51Z</time>
      </trkpt>
      <trkpt lat="49.13059" lon="2.01577">
        <ele>120.1</ele>
        <time>2022-09-11T09:04:57Z</time>
      </trkpt>
      <trkpt lat="49.13062" lon="2.01565">
        <ele>120.2</ele>
        <time>2022-09-11T09:05:03Z</time>
      </trkpt>
      <trkpt lat="49.13064" lon="2.01554">
        <ele>120.3</ele>
        <time>2022-09-11T09:05:08Z</time>
      </trkpt>
      <trkpt lat="49.13067" lon="2.01542">
        <ele>120.4</ele>
        <time>2022-09-11T09:05:14Z</time>
      </trkpt>
      <trkpt lat="49.13069" lon="2.01533">
        <ele>120.5</ele>
        <time>2022-09-11T09:05:19Z</time>
      </trkpt>
      <trkpt lat="49.13073" lon="2.01518">
        <ele>120.8</ele>
        <time>2022-09-11T09:05:25Z</time>
      </trkpt>
      <trkpt lat="49.13075" lon="2.01508">
        <ele>120.9</ele>
        <time>2022-09-11T09:05:31Z</time>
      </trkpt>
      <trkpt lat="49.13077" lon="2.01497">
        <ele>121.1</ele>
        <time>2022-09-11T09:05:36Z</time>
      </trkpt>
      <trkpt lat="49.1308" lon="2.01488">
        <ele>121.4</ele>
        <time>2022-09-11T09:05:42Z</time>
      </trkpt>
      <trkpt lat="49.13083" lon="2.01477">
        <ele>121.8</ele>
        <time>2022-09-11T09:05:47Z</time>
      </trkpt>
      <trkpt lat="49.13085" lon="2.01468">
        <ele>122</ele>
        <time>2022-09-11T09:05:52Z</time>
      </trkpt>
      <trkpt lat="49.13088" lon="2.01454">
        <ele>122.1</ele>
        <time>2022-09-11T09:05:58Z</time>
      </trkpt>
      <trkpt lat="49.1309" lon="2.01445">
        <ele>122.2</ele>
        <time>2022-09-11T09:06:03Z</time>
      </trkpt>
      <trkpt lat="49.13094" lon="2.01433">
        <ele>122.4</ele>
        <time>2022-09-11T09:06:09Z</time>
      </trkpt>
      <trkpt lat="49.13097" lon="2.01421">
        <ele>122.5</ele>
        <time>2022-09-11T09:06:15Z</time>
      </trkpt>
      <trkpt lat="49.13099" lon="2.01409">
        <ele>122.8</ele>
        <time>2022-09-11T09:06:21Z</time>
      </trkpt>
      <trkpt lat="49.13101" lon="2.01398">
        <ele>123.3</ele>
        <time>2022-09-11T09:06:27Z</time>
      </trkpt>
      <trkpt lat="49.13103" lon="2.01388">
        <ele>123.7</ele>
        <time>2022-09-11T09:06:32Z</time>
      </trkpt>
      <trkpt lat="49.13106" lon="2.01376">
        <ele>123.8</ele>
        <time>2022-09-11T09:06:38Z</time>
      </trkpt>
      <trkpt lat="49.13108" lon="2.01366">
        <ele>123.9</ele>
        <time>2022-09-11T09:06:43Z</time>
      </trkpt>
      <trkpt lat="49.13111" lon="2.01354">
        <ele>124</ele>
        <time>2022-09-11T09:06:49Z</time>
      </trkpt>
      <trkpt lat="49.13114" lon="2.01343">
        <ele>124.1</ele>
        <time>2022-09-11T09:06:55Z</time>
      </trkpt>
      <trkpt lat="49.13117" lon="2.01332">
        <ele>124.2</ele>
        <time>2022-09-11T09:07:00Z</time>
      </trkpt>
      <trkpt lat="49.13119" lon="2.01322">
        <ele>124.6</ele>
        <time>2022-09-11T09:07:05Z</time>
      </trkpt>
      <trkpt lat="49.13122" lon="2.01311">
        <ele>124.9</ele>
        <time>2022-09-11T09:07:10Z</time>
      </trkpt>
      <trkpt lat="49.13125" lon="2.013">
        <ele>125.1</ele>
        <time>2022-09-11T09:07:16Z</time>
      </trkpt>
      <trkpt lat="49.13127" lon="2.01291">
        <ele>125.3</ele>
        <time>2022-09-11T09:07:21Z</time>
      </trkpt>
      <trkpt lat="49.1313" lon="2.01279">
        <ele>125.6</ele>
        <time>2022-09-11T09:07:26Z</time>
      </trkpt>
      <trkpt lat="49.13131" lon="2.01271">
        <ele>125.7</ele>
        <time>2022-09-11T09:07:32Z</time>
      </trkpt>
      <trkpt lat="49.13133" lon="2.01259">
        <ele>125.8</ele>
        <time>2022-09-11T09:07:37Z</time>
      </trkpt>
      <trkpt lat="49.13136" lon="2.01248">
        <ele>126</ele>
        <time>2022-09-11T09:07:43Z</time>
      </trkpt>
      <trkpt lat="49.13139" lon="2.01237">
        <ele>126.5</ele>
        <time>2022-09-11T09:07:48Z</time>
      </trkpt>
      <trkpt lat="49.13141" lon="2.01227">
        <ele>126.8</ele>
        <time>2022-09-11T09:07:53Z</time>
      </trkpt>
      <trkpt lat="49.13143" lon="2.01215">
        <ele>127</ele>
        <time>2022-09-11T09:07:59Z</time>
      </trkpt>
      <trkpt lat="49.13145" lon="2.01203">
        <ele>127</ele>
        <time>2022-09-11T09:08:05Z</time>
      </trkpt>
      <trkpt lat="49.13149" lon="2.01191">
        <ele>127</ele>
        <time>2022-09-11T09:08:11Z</time>
      </trkpt>
      <trkpt lat="49.13151" lon="2.01181">
        <ele>127.2</ele>
        <time>2022-09-11T09:08:16Z</time>
      </trkpt>
      <trkpt lat="49.13154" lon="2.01171">
        <ele>127.5</ele>
        <time>2022-09-11T09:08:22Z</time>
      </trkpt>
      <trkpt lat="49.13156" lon="2.01157">
        <ele>127.6</ele>
        <time>2022-09-11T09:08:29Z</time>
      </trkpt>
      <trkpt lat="49.13158" lon="2.01147">
        <ele>127.7</ele>
        <time>2022-09-11T09:08:35Z</time>
      </trkpt>
      <trkpt lat="49.13163" lon="2.0115">
        <ele>127.9</ele>
        <time>2022-09-11T09:08:40Z</time>
      </trkpt>
      <trkpt lat="49.13168" lon="2.01158">
        <ele>127.9</ele>
        <time>2022-09-11T09:08:45Z</time>
      </trkpt>
      <trkpt lat="49.13174" lon="2.01166">
        <ele>127.7</ele>
        <time>2022-09-11T09:08:50Z</time>
      </trkpt>
      <trkpt lat="49.13179" lon="2.01173">
        <ele>127.5</ele>
        <time>2022-09-11T09:08:55Z</time>
      </trkpt>
      <trkpt lat="49.13184" lon="2.01181">
        <ele>127.5</ele>
        <time>2022-09-11T09:09:01Z</time>
      </trkpt>
      <trkpt lat="49.13192" lon="2.01191">
        <ele>127.8</ele>
        <time>2022-09-11T09:09:07Z</time>
      </trkpt>
      <trkpt lat="49.13196" lon="2.01198">
        <ele>127.8</ele>
        <time>2022-09-11T09:09:12Z</time>
      </trkpt>
      <trkpt lat="49.13203" lon="2.01205">
        <ele>127.4</ele>
        <time>2022-09-11T09:09:18Z</time>
      </trkpt>
      <trkpt lat="49.13211" lon="2.01211">
        <ele>127.2</ele>
        <time>2022-09-11T09:09:23Z</time>
      </trkpt>
      <trkpt lat="49.13218" lon="2.01214">
        <ele>127</ele>
        <time>2022-09-11T09:09:29Z</time>
      </trkpt>
      <trkpt lat="49.13227" lon="2.01218">
        <ele>127</ele>
        <time>2022-09-11T09:09:35Z</time>
      </trkpt>
      <trkpt lat="49.13234" lon="2.01223">
        <ele>127</ele>
        <time>2022-09-11T09:09:40Z</time>
      </trkpt>
      <trkpt lat="49.1324" lon="2.01227">
        <ele>127.1</ele>
        <time>2022-09-11T09:09:46Z</time>
      </trkpt>
      <trkpt lat="49.13249" lon="2.01232">
        <ele>127.3</ele>
        <time>2022-09-11T09:09:52Z</time>
      </trkpt>
      <trkpt lat="49.13257" lon="2.01236">
        <ele>127.4</ele>
        <time>2022-09-11T09:09:58Z</time>
      </trkpt>
      <trkpt lat="49.13266" lon="2.01241">
        <ele>127.3</ele>
        <time>2022-09-11T09:10:04Z</time>
      </trkpt>
      <trkpt lat="49.13273" lon="2.01245">
        <ele>127.1</ele>
        <time>2022-09-11T09:10:10Z</time>
      </trkpt>
      <trkpt lat="49.1328" lon="2.01249">
        <ele>127</ele>
        <time>2022-09-11T09:10:16Z</time>
      </trkpt>
      <trkpt lat="49.13286" lon="2.01252">
        <ele>127</ele>
        <time>2022-09-11T09:10:21Z</time>
      </trkpt>
      <trkpt lat="49.13293" lon="2.01257">
        <ele>127</ele>
        <time>2022-09-11T09:10:27Z</time>
      </trkpt>
      <trkpt lat="49.13302" lon="2.01263">
        <ele>127</ele>
        <time>2022-09-11T09:10:32Z</time>
      </trkpt>
      <trkpt lat="49.13306" lon="2.01266">
        <ele>127</ele>
        <time>2022-09-11T09:10:38Z</time>
      </trkpt>
      <trkpt lat="49.13313" lon="2.0127">
        <ele>127</ele>
        <time>2022-09-11T09:10:44Z</time>
      </trkpt>
      <trkpt lat="49.1332" lon="2.01275">
        <ele>127</ele>
        <time>2022-09-11T09:10:50Z</time>
      </trkpt>
      <trkpt lat="49.13326" lon="2.01278">
        <ele>127</ele>
        <time>2022-09-11T09:10:56Z</time>
      </trkpt>
      <trkpt lat="49.13335" lon="2.01285">
        <ele>127.3</ele>
        <time>2022-09-11T09:11:02Z</time>
      </trkpt>
      <trkpt lat="49.13343" lon="2.01286">
        <ele>127.5</ele>
        <time>2022-09-11T09:11:08Z</time>
      </trkpt>
      <trkpt lat="49.1335" lon="2.01284">
        <ele>127.7</ele>
        <time>2022-09-11T09:11:14Z</time>
      </trkpt>
      <trkpt lat="49.13355" lon="2.01275">
        <ele>127.8</ele>
        <time>2022-09-11T09:11:19Z</time>
      </trkpt>
      <trkpt lat="49.13361" lon="2.01262">
        <ele>128</ele>
        <time>2022-09-11T09:11:24Z</time>
      </trkpt>
      <trkpt lat="49.13363" lon="2.01254">
        <ele>127.9</ele>
        <time>2022-09-11T09:11:30Z</time>
      </trkpt>
      <trkpt lat="49.13367" lon="2.01243">
        <ele>127.6</ele>
        <time>2022-09-11T09:11:35Z</time>
      </trkpt>
      <trkpt lat="49.1337" lon="2.01231">
        <ele>127</ele>
        <time>2022-09-11T09:11:41Z</time>
      </trkpt>
      <trkpt lat="49.13372" lon="2.01222">
        <ele>126.6</ele>
        <time>2022-09-11T09:11:46Z</time>
      </trkpt>
      <trkpt lat="49.13378" lon="2.01211">
        <ele>126</ele>
        <time>2022-09-11T09:11:52Z</time>
      </trkpt>
      <trkpt lat="49.13379" lon="2.01198">
        <ele>125.5</ele>
        <time>2022-09-11T09:11:58Z</time>
      </trkpt>
      <trkpt lat="49.13382" lon="2.01188">
        <ele>125</ele>
        <time>2022-09-11T09:12:03Z</time>
      </trkpt>
      <trkpt lat="49.13385" lon="2.0118">
        <ele>124.6</ele>
        <time>2022-09-11T09:12:08Z</time>
      </trkpt>
      <trkpt lat="49.13389" lon="2.01167">
        <ele>124</ele>
        <time>2022-09-11T09:12:14Z</time>
      </trkpt>
      <trkpt lat="49.13394" lon="2.01156">
        <ele>123.5</ele>
        <time>2022-09-11T09:12:20Z</time>
      </trkpt>
      <trkpt lat="49.13399" lon="2.01145">
        <ele>123.1</ele>
        <time>2022-09-11T09:12:26Z</time>
      </trkpt>
      <trkpt lat="49.13402" lon="2.01133">
        <ele>122.9</ele>
        <time>2022-09-11T09:12:32Z</time>
      </trkpt>
      <trkpt lat="49.13405" lon="2.01123">
        <ele>122.7</ele>
        <time>2022-09-11T09:12:37Z</time>
      </trkpt>
      <trkpt lat="49.13408" lon="2.01115">
        <ele>122.4</ele>
        <time>2022-09-11T09:12:42Z</time>
      </trkpt>
      <trkpt lat="49.13412" lon="2.01102">
        <ele>121.8</ele>
        <time>2022-09-11T09:12:48Z</time>
      </trkpt>
      <trkpt lat="49.13415" lon="2.01092">
        <ele>121.3</ele>
        <time>2022-09-11T09:12:53Z</time>
      </trkpt>
      <trkpt lat="49.13417" lon="2.01082">
        <ele>121</ele>
        <time>2022-09-11T09:12:58Z</time>
      </trkpt>
      <trkpt lat="49.13419" lon="2.01074">
        <ele>121.1</ele>
        <time>2022-09-11T09:13:04Z</time>
      </trkpt>
      <trkpt lat="49.13424" lon="2.01062">
        <ele>121.1</ele>
        <time>2022-09-11T09:13:09Z</time>
      </trkpt>
      <trkpt lat="49.13429" lon="2.0105">
        <ele>120.8</ele>
        <time>2022-09-11T09:13:14Z</time>
      </trkpt>
      <trkpt lat="49.13432" lon="2.01042">
        <ele>120.5</ele>
        <time>2022-09-11T09:13:19Z</time>
      </trkpt>
      <trkpt lat="49.13434" lon="2.01031">
        <ele>120.1</ele>
        <time>2022-09-11T09:13:25Z</time>
      </trkpt>
      <trkpt lat="49.13438" lon="2.01016">
        <ele>119.3</ele>
        <time>2022-09-11T09:13:31Z</time>
      </trkpt>
      <trkpt lat="49.13441" lon="2.01007">
        <ele>118.6</ele>
        <time>2022-09-11T09:13:36Z</time>
      </trkpt>
      <trkpt lat="49.13444" lon="2.00998">
        <ele>118</ele>
        <time>2022-09-11T09:13:41Z</time>
      </trkpt>
      <trkpt lat="49.13448" lon="2.00987">
        <ele>117.9</ele>
        <time>2022-09-11T09:13:47Z</time>
      </trkpt>
      <trkpt lat="49.13453" lon="2.00973">
        <ele>117.7</ele>
        <time>2022-09-11T09:13:53Z</time>
      </trkpt>
      <trkpt lat="49.13456" lon="2.00961">
        <ele>117.4</ele>
        <time>2022-09-11T09:13:59Z</time>
      </trkpt>
      <trkpt lat="49.13459" lon="2.00953">
        <ele>117.2</ele>
        <time>2022-09-11T09:14:04Z</time>
      </trkpt>
      <trkpt lat="49.13463" lon="2.00941">
        <ele>116.9</ele>
        <time>2022-09-11T09:14:10Z</time>
      </trkpt>
      <trkpt lat="49.13466" lon="2.00931">
        <ele>116.5</ele>
        <time>2022-09-11T09:14:15Z</time>
      </trkpt>
      <trkpt lat="49.13467" lon="2.00924">
        <ele>116.3</ele>
        <time>2022-09-11T09:14:20Z</time>
      </trkpt>
      <trkpt lat="49.1347" lon="2.00913">
        <ele>116</ele>
        <time>2022-09-11T09:14:26Z</time>
      </trkpt>
      <trkpt lat="49.13474" lon="2.00903">
        <ele>116</ele>
        <time>2022-09-11T09:14:31Z</time>
      </trkpt>
      <trkpt lat="49.13477" lon="2.00893">
        <ele>116</ele>
        <time>2022-09-11T09:14:36Z</time>
      </trkpt>
      <trkpt lat="49.13482" lon="2.00882">
        <ele>116</ele>
        <time>2022-09-11T09:14:42Z</time>
      </trkpt>
      <trkpt lat="49.13487" lon="2.00871">
        <ele>116</ele>
        <time>2022-09-11T09:14:47Z</time>
      </trkpt>
      <trkpt lat="49.1349" lon="2.00858">
        <ele>116</ele>
        <time>2022-09-11T09:14:53Z</time>
      </trkpt>
      <trkpt lat="49.13491" lon="2.00851">
        <ele>116</ele>
        <time>2022-09-11T09:14:58Z</time>
      </trkpt>
      <trkpt lat="49.13497" lon="2.00837">
        <ele>116</ele>
        <time>2022-09-11T09:15:04Z</time>
      </trkpt>
      <trkpt lat="49.135" lon="2.00824">
        <ele>116</ele>
        <time>2022-09-11T09:15:10Z</time>
      </trkpt>
      <trkpt lat="49.13504" lon="2.00816">
        <ele>115.9</ele>
        <time>2022-09-11T09:15:15Z</time>
      </trkpt>
      <trkpt lat="49.13508" lon="2.00804">
        <ele>116</ele>
        <time>2022-09-11T09:15:20Z</time>
      </trkpt>
      <trkpt lat="49.13511" lon="2.00792">
        <ele>116</ele>
        <time>2022-09-11T09:15:26Z</time>
      </trkpt>
      <trkpt lat="49.13514" lon="2.00783">
        <ele>116</ele>
        <time>2022-09-11T09:15:31Z</time>
      </trkpt>
      <trkpt lat="49.13517" lon="2.00771">
        <ele>116</ele>
        <time>2022-09-11T09:15:36Z</time>
      </trkpt>
      <trkpt lat="49.13521" lon="2.00759">
        <ele>116</ele>
        <time>2022-09-11T09:15:41Z</time>
      </trkpt>
      <trkpt lat="49.13524" lon="2.00751">
        <ele>116</ele>
        <time>2022-09-11T09:15:47Z</time>
      </trkpt>
      <trkpt lat="49.13527" lon="2.00741">
        <ele>116</ele>
        <time>2022-09-11T09:15:52Z</time>
      </trkpt>
      <trkpt lat="49.1353" lon="2.00729">
        <ele>116</ele>
        <time>2022-09-11T09:15:58Z</time>
      </trkpt>
      <trkpt lat="49.13534" lon="2.00718">
        <ele>116.1</ele>
        <time>2022-09-11T09:16:03Z</time>
      </trkpt>
      <trkpt lat="49.13536" lon="2.00708">
        <ele>116.3</ele>
        <time>2022-09-11T09:16:09Z</time>
      </trkpt>
      <trkpt lat="49.13539" lon="2.007">
        <ele>116.5</ele>
        <time>2022-09-11T09:16:14Z</time>
      </trkpt>
      <trkpt lat="49.13543" lon="2.00688">
        <ele>116.6</ele>
        <time>2022-09-11T09:16:20Z</time>
      </trkpt>
      <trkpt lat="49.13547" lon="2.00677">
        <ele>116.8</ele>
        <time>2022-09-11T09:16:25Z</time>
      </trkpt>
      <trkpt lat="49.1355" lon="2.00665">
        <ele>117</ele>
        <time>2022-09-11T09:16:31Z</time>
      </trkpt>
      <trkpt lat="49.13554" lon="2.00656">
        <ele>117</ele>
        <time>2022-09-11T09:16:36Z</time>
      </trkpt>
      <trkpt lat="49.13557" lon="2.00647">
        <ele>117</ele>
        <time>2022-09-11T09:16:41Z</time>
      </trkpt>
      <trkpt lat="49.13564" lon="2.00643">
        <ele>117</ele>
        <time>2022-09-11T09:16:47Z</time>
      </trkpt>
      <trkpt lat="49.13574" lon="2.00647">
        <ele>117</ele>
        <time>2022-09-11T09:16:53Z</time>
      </trkpt>
      <trkpt lat="49.13583" lon="2.00654">
        <ele>117</ele>
        <time>2022-09-11T09:16:59Z</time>
      </trkpt>
      <trkpt lat="49.1359" lon="2.00662">
        <ele>117</ele>
        <time>2022-09-11T09:17:05Z</time>
      </trkpt>
      <trkpt lat="49.13595" lon="2.00667">
        <ele>117</ele>
        <time>2022-09-11T09:17:10Z</time>
      </trkpt>
      <trkpt lat="49.13601" lon="2.00674">
        <ele>116.7</ele>
        <time>2022-09-11T09:17:16Z</time>
      </trkpt>
      <trkpt lat="49.13608" lon="2.00681">
        <ele>116.5</ele>
        <time>2022-09-11T09:17:21Z</time>
      </trkpt>
      <trkpt lat="49.13614" lon="2.00685">
        <ele>116.3</ele>
        <time>2022-09-11T09:17:27Z</time>
      </trkpt>
      <trkpt lat="49.13621" lon="2.0069">
        <ele>116.2</ele>
        <time>2022-09-11T09:17:32Z</time>
      </trkpt>
      <trkpt lat="49.13629" lon="2.00696">
        <ele>116</ele>
        <time>2022-09-11T09:17:37Z</time>
      </trkpt>
      <trkpt lat="49.13635" lon="2.007">
        <ele>115.8</ele>
        <time>2022-09-11T09:17:43Z</time>
      </trkpt>
      <trkpt lat="49.13643" lon="2.00707">
        <ele>115.5</ele>
        <time>2022-09-11T09:17:49Z</time>
      </trkpt>
      <trkpt lat="49.1365" lon="2.00713">
        <ele>115.2</ele>
        <time>2022-09-11T09:17:55Z</time>
      </trkpt>
      <trkpt lat="49.13656" lon="2.00718">
        <ele>115.1</ele>
        <time>2022-09-11T09:18:00Z</time>
      </trkpt>
      <trkpt lat="49.13663" lon="2.00723">
        <ele>115</ele>
        <time>2022-09-11T09:18:06Z</time>
      </trkpt>
      <trkpt lat="49.13673" lon="2.00729">
        <ele>114.6</ele>
        <time>2022-09-11T09:18:11Z</time>
      </trkpt>
      <trkpt lat="49.13678" lon="2.00735">
        <ele>114.5</ele>
        <time>2022-09-11T09:18:17Z</time>
      </trkpt>
      <trkpt lat="49.13684" lon="2.0074">
        <ele>114.5</ele>
        <time>2022-09-11T09:18:22Z</time>
      </trkpt>
      <trkpt lat="49.13691" lon="2.00745">
        <ele>114.7</ele>
        <time>2022-09-11T09:18:27Z</time>
      </trkpt>
      <trkpt lat="49.137" lon="2.0075">
        <ele>114.8</ele>
        <time>2022-09-11T09:18:33Z</time>
      </trkpt>
      <trkpt lat="49.13705" lon="2.00755">
        <ele>114.7</ele>
        <time>2022-09-11T09:18:38Z</time>
      </trkpt>
      <trkpt lat="49.13712" lon="2.0076">
        <ele>114.6</ele>
        <time>2022-09-11T09:18:44Z</time>
      </trkpt>
      <trkpt lat="49.1372" lon="2.00767">
        <ele>114.6</ele>
        <time>2022-09-11T09:18:49Z</time>
      </trkpt>
      <trkpt lat="49.13727" lon="2.00773">
        <ele>115</ele>
        <time>2022-09-11T09:18:55Z</time>
      </trkpt>
      <trkpt lat="49.13735" lon="2.00778">
        <ele>115.5</ele>
        <time>2022-09-11T09:19:00Z</time>
      </trkpt>
      <trkpt lat="49.1374" lon="2.00782">
        <ele>116</ele>
        <time>2022-09-11T09:19:06Z</time>
      </trkpt>
      <trkpt lat="49.13747" lon="2.00789">
        <ele>116.7</ele>
        <time>2022-09-11T09:19:12Z</time>
      </trkpt>
      <trkpt lat="49.13757" lon="2.00795">
        <ele>117.4</ele>
        <time>2022-09-11T09:19:18Z</time>
      </trkpt>
      <trkpt lat="49.13762" lon="2.008">
        <ele>117.7</ele>
        <time>2022-09-11T09:19:23Z</time>
      </trkpt>
      <trkpt lat="49.13769" lon="2.00805">
        <ele>118</ele>
        <time>2022-09-11T09:19:28Z</time>
      </trkpt>
      <trkpt lat="49.13776" lon="2.00811">
        <ele>118</ele>
        <time>2022-09-11T09:19:33Z</time>
      </trkpt>
      <trkpt lat="49.13782" lon="2.00815">
        <ele>117.9</ele>
        <time>2022-09-11T09:19:38Z</time>
      </trkpt>
      <trkpt lat="49.13791" lon="2.00811">
        <ele>117.6</ele>
        <time>2022-09-11T09:19:44Z</time>
      </trkpt>
      <trkpt lat="49.13796" lon="2.00803">
        <ele>117.3</ele>
        <time>2022-09-11T09:19:50Z</time>
      </trkpt>
      <trkpt lat="49.13799" lon="2.00792">
        <ele>116.8</ele>
        <time>2022-09-11T09:19:55Z</time>
      </trkpt>
      <trkpt lat="49.13803" lon="2.0078">
        <ele>116.2</ele>
        <time>2022-09-11T09:20:01Z</time>
      </trkpt>
      <trkpt lat="49.13806" lon="2.0077">
        <ele>115.7</ele>
        <time>2022-09-11T09:20:06Z</time>
      </trkpt>
      <trkpt lat="49.13808" lon="2.00762">
        <ele>115.4</ele>
        <time>2022-09-11T09:20:11Z</time>
      </trkpt>
      <trkpt lat="49.13813" lon="2.00749">
        <ele>115</ele>
        <time>2022-09-11T09:20:16Z</time>
      </trkpt>
      <trkpt lat="49.13816" lon="2.00739">
        <ele>114.8</ele>
        <time>2022-09-11T09:20:22Z</time>
      </trkpt>
      <trkpt lat="49.13818" lon="2.00726">
        <ele>114.6</ele>
        <time>2022-09-11T09:20:28Z</time>
      </trkpt>
      <trkpt lat="49.13822" lon="2.00713">
        <ele>114.3</ele>
        <time>2022-09-11T09:20:34Z</time>
      </trkpt>
      <trkpt lat="49.13826" lon="2.00702">
        <ele>114.1</ele>
        <time>2022-09-11T09:20:39Z</time>
      </trkpt>
      <trkpt lat="49.1383" lon="2.00692">
        <ele>114</ele>
        <time>2022-09-11T09:20:45Z</time>
      </trkpt>
      <trkpt lat="49.13833" lon="2.00681">
        <ele>114</ele>
        <time>2022-09-11T09:20:50Z</time>
      </trkpt>
      <trkpt lat="49.13837" lon="2.00669">
        <ele>114</ele>
        <time>2022-09-11T09:20:56Z</time>
      </trkpt>
      <trkpt lat="49.13842" lon="2.00659">
        <ele>113.9</ele>
        <time>2022-09-11T09:21:02Z</time>
      </trkpt>
      <trkpt lat="49.13847" lon="2.00651">
        <ele>113.7</ele>
        <time>2022-09-11T09:21:07Z</time>
      </trkpt>
      <trkpt lat="49.13849" lon="2.00655">
        <ele>113.8</ele>
        <time>2022-09-11T09:21:13Z</time>
      </trkpt>
      <trkpt lat="49.13849" lon="2.00657">
        <ele>113.8</ele>
        <time>2022-09-11T09:21:19Z</time>
      </trkpt>
      <trkpt lat="49.13849" lon="2.00658">
        <ele>113.8</ele>
        <time>2022-09-11T09:21:25Z</time>
      </trkpt>
      <trkpt lat="49.1385" lon="2.00657">
        <ele>113.8</ele>
        <time>2022-09-11T09:21:31Z</time>
      </trkpt>
      <trkpt lat="49.1385" lon="2.00658">
        <ele>113.8</ele>
        <time>2022-09-11T09:21:36Z</time>
      </trkpt>
      <trkpt lat="49.1385" lon="2.00661">
        <ele>113.9</ele>
        <time>2022-09-11T09:21:42Z</time>
      </trkpt>
      <trkpt lat="49.1385" lon="2.00668">
        <ele>114</ele>
        <time>2022-09-11T09:21:47Z</time>
      </trkpt>
      <trkpt lat="49.13851" lon="2.00682">
        <ele>114</ele>
        <time>2022-09-11T09:21:53Z</time>
      </trkpt>
      <trkpt lat="49.13853" lon="2.00694">
        <ele>114</ele>
        <time>2022-09-11T09:21:59Z</time>
      </trkpt>
      <trkpt lat="49.13853" lon="2.0071">
        <ele>114</ele>
        <time>2022-09-11T09:22:04Z</time>
      </trkpt>
      <trkpt lat="49.13854" lon="2.00724">
        <ele>114</ele>
        <time>2022-09-11T09:22:09Z</time>
      </trkpt>
      <trkpt lat="49.13856" lon="2.00738">
        <ele>114.1</ele>
        <time>2022-09-11T09:22:15Z</time>
      </trkpt>
      <trkpt lat="49.13856" lon="2.00751">
        <ele>114.2</ele>
        <time>2022-09-11T09:22:21Z</time>
      </trkpt>
      <trkpt lat="49.13858" lon="2.00758">
        <ele>114.4</ele>
        <time>2022-09-11T09:22:26Z</time>
      </trkpt>
      <trkpt lat="49.13864" lon="2.00769">
        <ele>114.7</ele>
        <time>2022-09-11T09:22:32Z</time>
      </trkpt>
      <trkpt lat="49.13869" lon="2.00782">
        <ele>115.2</ele>
        <time>2022-09-11T09:22:38Z</time>
      </trkpt>
      <trkpt lat="49.13873" lon="2.00795">
        <ele>115.6</ele>
        <time>2022-09-11T09:22:44Z</time>
      </trkpt>
      <trkpt lat="49.13876" lon="2.00803">
        <ele>115.9</ele>
        <time>2022-09-11T09:22:49Z</time>
      </trkpt>
      <trkpt lat="49.1388" lon="2.00809">
        <ele>116</ele>
        <time>2022-09-11T09:22:54Z</time>
      </trkpt>
      <trkpt lat="49.13885" lon="2.00822">
        <ele>116</ele>
        <time>2022-09-11T09:23:00Z</time>
      </trkpt>
      <trkpt lat="49.13891" lon="2.00832">
        <ele>116</ele>
        <time>2022-09-11T09:23:05Z</time>
      </trkpt>
      <trkpt lat="49.13894" lon="2.00842">
        <ele>116</ele>
        <time>2022-09-11T09:23:11Z</time>
      </trkpt>
      <trkpt lat="49.13898" lon="2.00852">
        <ele>116</ele>
        <time>2022-09-11T09:23:16Z</time>
      </trkpt>
      <trkpt lat="49.13904" lon="2.00864">
        <ele>116.1</ele>
        <time>2022-09-11T09:23:23Z</time>
      </trkpt>
      <trkpt lat="49.13909" lon="2.00874">
        <ele>116.5</ele>
        <time>2022-09-11T09:23:29Z</time>
      </trkpt>
      <trkpt lat="49.13914" lon="2.00882">
        <ele>116.7</ele>
        <time>2022-09-11T09:23:34Z</time>
      </trkpt>
      <trkpt lat="49.1392" lon="2.00892">
        <ele>117.1</ele>
        <time>2022-09-11T09:23:40Z</time>
      </trkpt>
      <trkpt lat="49.13926" lon="2.009">
        <ele>117.3</ele>
        <time>2022-09-11T09:23:45Z</time>
      </trkpt>
      <trkpt lat="49.13931" lon="2.0091">
        <ele>117.5</ele>
        <time>2022-09-11T09:23:51Z</time>
      </trkpt>
      <trkpt lat="49.13936" lon="2.00916">
        <ele>117.7</ele>
        <time>2022-09-11T09:23:56Z</time>
      </trkpt>
      <trkpt lat="49.13943" lon="2.00927">
        <ele>118</ele>
        <time>2022-09-11T09:24:02Z</time>
      </trkpt>
      <trkpt lat="49.13949" lon="2.00936">
        <ele>118.2</ele>
        <time>2022-09-11T09:24:07Z</time>
      </trkpt>
      <trkpt lat="49.13955" lon="2.00943">
        <ele>118.4</ele>
        <time>2022-09-11T09:24:12Z</time>
      </trkpt>
      <trkpt lat="49.13961" lon="2.00948">
        <ele>118.6</ele>
        <time>2022-09-11T09:24:18Z</time>
      </trkpt>
      <trkpt lat="49.13967" lon="2.00958">
        <ele>118.8</ele>
        <time>2022-09-11T09:24:24Z</time>
      </trkpt>
      <trkpt lat="49.13972" lon="2.00966">
        <ele>119</ele>
        <time>2022-09-11T09:24:29Z</time>
      </trkpt>
      <trkpt lat="49.13978" lon="2.00975">
        <ele>119.2</ele>
        <time>2022-09-11T09:24:35Z</time>
      </trkpt>
      <trkpt lat="49.13984" lon="2.00985">
        <ele>119.4</ele>
        <time>2022-09-11T09:24:40Z</time>
      </trkpt>
      <trkpt lat="49.13988" lon="2.00992">
        <ele>119.6</ele>
        <time>2022-09-11T09:24:46Z</time>
      </trkpt>
      <trkpt lat="49.13987" lon="2.00998">
        <ele>119.5</ele>
        <time>2022-09-11T09:24:53Z</time>
      </trkpt>
      <trkpt lat="49.13984" lon="2.01008">
        <ele>119.6</ele>
        <time>2022-09-11T09:24:59Z</time>
      </trkpt>
      <trkpt lat="49.1398" lon="2.01022">
        <ele>119.8</ele>
        <time>2022-09-11T09:25:05Z</time>
      </trkpt>
      <trkpt lat="49.13977" lon="2.01033">
        <ele>120</ele>
        <time>2022-09-11T09:25:11Z</time>
      </trkpt>
      <trkpt lat="49.13975" lon="2.01043">
        <ele>120</ele>
        <time>2022-09-11T09:25:17Z</time>
      </trkpt>
      <trkpt lat="49.13972" lon="2.01055">
        <ele>120</ele>
        <time>2022-09-11T09:25:22Z</time>
      </trkpt>
      <trkpt lat="49.13971" lon="2.01065">
        <ele>120.3</ele>
        <time>2022-09-11T09:25:27Z</time>
      </trkpt>
      <trkpt lat="49.13967" lon="2.01079">
        <ele>120.9</ele>
        <time>2022-09-11T09:25:33Z</time>
      </trkpt>
      <trkpt lat="49.13964" lon="2.01091">
        <ele>121.1</ele>
        <time>2022-09-11T09:25:38Z</time>
      </trkpt>
      <trkpt lat="49.13964" lon="2.01105">
        <ele>121.2</ele>
        <time>2022-09-11T09:25:44Z</time>
      </trkpt>
      <trkpt lat="49.13964" lon="2.01114">
        <ele>121.4</ele>
        <time>2022-09-11T09:25:50Z</time>
      </trkpt>
      <trkpt lat="49.13965" lon="2.01124">
        <ele>121.7</ele>
        <time>2022-09-11T09:25:56Z</time>
      </trkpt>
      <trkpt lat="49.13962" lon="2.01132">
        <ele>122.1</ele>
        <time>2022-09-11T09:26:02Z</time>
      </trkpt>
      <trkpt lat="49.13961" lon="2.01142">
        <ele>122.5</ele>
        <time>2022-09-11T09:26:07Z</time>
      </trkpt>
      <trkpt lat="49.13958" lon="2.01153">
        <ele>122.7</ele>
        <time>2022-09-11T09:26:13Z</time>
      </trkpt>
      <trkpt lat="49.13956" lon="2.01165">
        <ele>123</ele>
        <time>2022-09-11T09:26:19Z</time>
      </trkpt>
      <trkpt lat="49.13955" lon="2.01172">
        <ele>123.2</ele>
        <time>2022-09-11T09:26:24Z</time>
      </trkpt>
      <trkpt lat="49.13953" lon="2.01185">
        <ele>123.6</ele>
        <time>2022-09-11T09:26:29Z</time>
      </trkpt>
      <trkpt lat="49.13953" lon="2.01193">
        <ele>124</ele>
        <time>2022-09-11T09:26:35Z</time>
      </trkpt>
      <trkpt lat="49.13953" lon="2.01204">
        <ele>124.2</ele>
        <time>2022-09-11T09:26:40Z</time>
      </trkpt>
      <trkpt lat="49.13953" lon="2.01207">
        <ele>124.3</ele>
        <time>2022-09-11T09:26:46Z</time>
      </trkpt>
      <trkpt lat="49.13951" lon="2.0121">
        <ele>124.4</ele>
        <time>2022-09-11T09:26:57Z</time>
      </trkpt>
      <trkpt lat="49.13948" lon="2.01226">
        <ele>124.9</ele>
        <time>2022-09-11T09:27:03Z</time>
      </trkpt>
      <trkpt lat="49.13946" lon="2.01239">
        <ele>125</ele>
        <time>2022-09-11T09:27:09Z</time>
      </trkpt>
      <trkpt lat="49.13943" lon="2.01253">
        <ele>125</ele>
        <time>2022-09-11T09:27:15Z</time>
      </trkpt>
      <trkpt lat="49.13941" lon="2.01263">
        <ele>125</ele>
        <time>2022-09-11T09:27:21Z</time>
      </trkpt>
      <trkpt lat="49.1394" lon="2.01279">
        <ele>125</ele>
        <time>2022-09-11T09:27:27Z</time>
      </trkpt>
      <trkpt lat="49.13938" lon="2.0129">
        <ele>125</ele>
        <time>2022-09-11T09:27:33Z</time>
      </trkpt>
      <trkpt lat="49.13938" lon="2.01302">
        <ele>125</ele>
        <time>2022-09-11T09:27:39Z</time>
      </trkpt>
      <trkpt lat="49.13937" lon="2.01313">
        <ele>125</ele>
        <time>2022-09-11T09:27:45Z</time>
      </trkpt>
      <trkpt lat="49.13933" lon="2.01323">
        <ele>125</ele>
        <time>2022-09-11T09:27:50Z</time>
      </trkpt>
      <trkpt lat="49.13929" lon="2.0133">
        <ele>125</ele>
        <time>2022-09-11T09:27:56Z</time>
      </trkpt>
      <trkpt lat="49.13929" lon="2.01342">
        <ele>125.1</ele>
        <time>2022-09-11T09:28:01Z</time>
      </trkpt>
      <trkpt lat="49.13926" lon="2.01354">
        <ele>125.3</ele>
        <time>2022-09-11T09:28:07Z</time>
      </trkpt>
      <trkpt lat="49.13925" lon="2.01368">
        <ele>125.5</ele>
        <time>2022-09-11T09:28:13Z</time>
      </trkpt>
      <trkpt lat="49.13924" lon="2.01372">
        <ele>125.6</ele>
        <time>2022-09-11T09:28:18Z</time>
      </trkpt>
      <trkpt lat="49.13921" lon="2.01381">
        <ele>125.8</ele>
        <time>2022-09-11T09:28:23Z</time>
      </trkpt>
      <trkpt lat="49.13918" lon="2.01391">
        <ele>126</ele>
        <time>2022-09-11T09:28:29Z</time>
      </trkpt>
      <trkpt lat="49.13917" lon="2.01398">
        <ele>126</ele>
        <time>2022-09-11T09:28:35Z</time>
      </trkpt>
      <trkpt lat="49.13915" lon="2.0141">
        <ele>126</ele>
        <time>2022-09-11T09:28:40Z</time>
      </trkpt>
      <trkpt lat="49.13915" lon="2.01422">
        <ele>126</ele>
        <time>2022-09-11T09:28:46Z</time>
      </trkpt>
      <trkpt lat="49.13914" lon="2.0143">
        <ele>126</ele>
        <time>2022-09-11T09:28:52Z</time>
      </trkpt>
      <trkpt lat="49.13914" lon="2.01432">
        <ele>126</ele>
        <time>2022-09-11T09:28:58Z</time>
      </trkpt>
      <trkpt lat="49.13913" lon="2.01432">
        <ele>126</ele>
        <time>2022-09-11T09:29:04Z</time>
      </trkpt>
      <trkpt lat="49.13913" lon="2.01431">
        <ele>126</ele>
        <time>2022-09-11T09:29:09Z</time>
      </trkpt>
      <trkpt lat="49.13914" lon="2.01431">
        <ele>126</ele>
        <time>2022-09-11T09:29:33Z</time>
      </trkpt>
      <trkpt lat="49.13914" lon="2.01432">
        <ele>126</ele>
        <time>2022-09-11T09:29:51Z</time>
      </trkpt>
      <trkpt lat="49.13913" lon="2.01432">
        <ele>126</ele>
        <time>2022-09-11T09:30:29Z</time>
      </trkpt>
      <trkpt lat="49.13914" lon="2.01434">
        <ele>126</ele>
        <time>2022-09-11T09:30:36Z</time>
      </trkpt>
      <trkpt lat="49.13914" lon="2.01435">
        <ele>126</ele>
        <time>2022-09-11T09:30:41Z</time>
      </trkpt>
      <trkpt lat="49.13913" lon="2.01435">
        <ele>126</ele>
        <time>2022-09-11T09:30:58Z</time>
      </trkpt>
      <trkpt lat="49.13912" lon="2.01435">
        <ele>126</ele>
        <time>2022-09-11T09:31:09Z</time>
      </trkpt>
      <trkpt lat="49.13913" lon="2.01434">
        <ele>126</ele>
        <time>2022-09-11T09:31:15Z</time>
      </trkpt>
      <trkpt lat="49.13913" lon="2.01435">
        <ele>126</ele>
        <time>2022-09-11T09:31:20Z</time>
      </trkpt>
      <trkpt lat="49.13912" lon="2.01435">
        <ele>126</ele>
        <time>2022-09-11T09:31:32Z</time>
      </trkpt>
      <trkpt lat="49.13913" lon="2.01436">
        <ele>126</ele>
        <time>2022-09-11T09:31:37Z</time>
      </trkpt>
      <trkpt lat="49.13912" lon="2.01436">
        <ele>126</ele>
        <time>2022-09-11T09:31:43Z</time>
      </trkpt>
      <trkpt lat="49.13911" lon="2.01436">
        <ele>126</ele>
        <time>2022-09-11T09:32:00Z</time>
      </trkpt>
      <trkpt lat="49.13911" lon="2.01435">
        <ele>126</ele>
        <time>2022-09-11T09:32:05Z</time>
      </trkpt>
      <trkpt lat="49.13913" lon="2.01446">
        <ele>126</ele>
        <time>2022-09-11T09:32:10Z</time>
      </trkpt>
      <trkpt lat="49.13912" lon="2.01458">
        <ele>126.4</ele>
        <time>2022-09-11T09:32:16Z</time>
      </trkpt>
      <trkpt lat="49.13912" lon="2.01468">
        <ele>126.7</ele>
        <time>2022-09-11T09:32:22Z</time>
      </trkpt>
      <trkpt lat="49.13909" lon="2.01479">
        <ele>126.8</ele>
        <time>2022-09-11T09:32:29Z</time>
      </trkpt>
      <trkpt lat="49.13905" lon="2.01491">
        <ele>126.9</ele>
        <time>2022-09-11T09:32:34Z</time>
      </trkpt>
      <trkpt lat="49.13903" lon="2.01502">
        <ele>127</ele>
        <time>2022-09-11T09:32:40Z</time>
      </trkpt>
      <trkpt lat="49.13902" lon="2.01511">
        <ele>127</ele>
        <time>2022-09-11T09:32:45Z</time>
      </trkpt>
      <trkpt lat="49.13901" lon="2.01525">
        <ele>127</ele>
        <time>2022-09-11T09:32:51Z</time>
      </trkpt>
      <trkpt lat="49.13898" lon="2.01536">
        <ele>127.1</ele>
        <time>2022-09-11T09:32:57Z</time>
      </trkpt>
      <trkpt lat="49.13899" lon="2.01548">
        <ele>127.3</ele>
        <time>2022-09-11T09:33:03Z</time>
      </trkpt>
      <trkpt lat="49.13896" lon="2.01562">
        <ele>127.3</ele>
        <time>2022-09-11T09:33:09Z</time>
      </trkpt>
      <trkpt lat="49.13894" lon="2.0157">
        <ele>127.2</ele>
        <time>2022-09-11T09:33:15Z</time>
      </trkpt>
      <trkpt lat="49.13891" lon="2.01584">
        <ele>127.1</ele>
        <time>2022-09-11T09:33:20Z</time>
      </trkpt>
      <trkpt lat="49.13888" lon="2.01593">
        <ele>127.3</ele>
        <time>2022-09-11T09:33:26Z</time>
      </trkpt>
      <trkpt lat="49.13887" lon="2.01608">
        <ele>127.8</ele>
        <time>2022-09-11T09:33:32Z</time>
      </trkpt>
      <trkpt lat="49.13883" lon="2.01619">
        <ele>127.8</ele>
        <time>2022-09-11T09:33:37Z</time>
      </trkpt>
      <trkpt lat="49.1388" lon="2.01633">
        <ele>127.7</ele>
        <time>2022-09-11T09:33:43Z</time>
      </trkpt>
      <trkpt lat="49.1388" lon="2.01645">
        <ele>127.7</ele>
        <time>2022-09-11T09:33:48Z</time>
      </trkpt>
      <trkpt lat="49.1388" lon="2.01654">
        <ele>127.7</ele>
        <time>2022-09-11T09:33:54Z</time>
      </trkpt>
      <trkpt lat="49.13879" lon="2.01663">
        <ele>127.6</ele>
        <time>2022-09-11T09:34:00Z</time>
      </trkpt>
      <trkpt lat="49.13875" lon="2.01674">
        <ele>127.6</ele>
        <time>2022-09-11T09:34:05Z</time>
      </trkpt>
      <trkpt lat="49.13876" lon="2.01683">
        <ele>127.8</ele>
        <time>2022-09-11T09:34:10Z</time>
      </trkpt>
      <trkpt lat="49.13875" lon="2.01698">
        <ele>128.1</ele>
        <time>2022-09-11T09:34:16Z</time>
      </trkpt>
      <trkpt lat="49.13871" lon="2.01709">
        <ele>128.3</ele>
        <time>2022-09-11T09:34:22Z</time>
      </trkpt>
      <trkpt lat="49.13868" lon="2.0172">
        <ele>128.5</ele>
        <time>2022-09-11T09:34:27Z</time>
      </trkpt>
      <trkpt lat="49.13865" lon="2.01733">
        <ele>128.4</ele>
        <time>2022-09-11T09:34:32Z</time>
      </trkpt>
      <trkpt lat="49.13864" lon="2.01742">
        <ele>128.3</ele>
        <time>2022-09-11T09:34:38Z</time>
      </trkpt>
      <trkpt lat="49.13863" lon="2.01753">
        <ele>128.3</ele>
        <time>2022-09-11T09:34:43Z</time>
      </trkpt>
      <trkpt lat="49.13862" lon="2.01764">
        <ele>128.5</ele>
        <time>2022-09-11T09:34:50Z</time>
      </trkpt>
      <trkpt lat="49.1386" lon="2.01774">
        <ele>128.8</ele>
        <time>2022-09-11T09:34:56Z</time>
      </trkpt>
      <trkpt lat="49.13858" lon="2.01788">
        <ele>129.1</ele>
        <time>2022-09-11T09:35:01Z</time>
      </trkpt>
      <trkpt lat="49.13856" lon="2.01799">
        <ele>129.4</ele>
        <time>2022-09-11T09:35:08Z</time>
      </trkpt>
      <trkpt lat="49.13854" lon="2.0181">
        <ele>129.5</ele>
        <time>2022-09-11T09:35:13Z</time>
      </trkpt>
      <trkpt lat="49.13852" lon="2.01825">
        <ele>129.3</ele>
        <time>2022-09-11T09:35:19Z</time>
      </trkpt>
      <trkpt lat="49.13852" lon="2.01834">
        <ele>129.3</ele>
        <time>2022-09-11T09:35:24Z</time>
      </trkpt>
      <trkpt lat="49.1385" lon="2.01845">
        <ele>129.2</ele>
        <time>2022-09-11T09:35:29Z</time>
      </trkpt>
      <trkpt lat="49.13847" lon="2.01858">
        <ele>129</ele>
        <time>2022-09-11T09:35:35Z</time>
      </trkpt>
      <trkpt lat="49.13846" lon="2.01869">
        <ele>128.9</ele>
        <time>2022-09-11T09:35:41Z</time>
      </trkpt>
      <trkpt lat="49.13843" lon="2.01883">
        <ele>128.7</ele>
        <time>2022-09-11T09:35:46Z</time>
      </trkpt>
      <trkpt lat="49.13842" lon="2.01892">
        <ele>128.7</ele>
        <time>2022-09-11T09:35:52Z</time>
      </trkpt>
      <trkpt lat="49.13841" lon="2.01904">
        <ele>128.9</ele>
        <time>2022-09-11T09:35:57Z</time>
      </trkpt>
      <trkpt lat="49.1384" lon="2.01914">
        <ele>129.1</ele>
        <time>2022-09-11T09:36:03Z</time>
      </trkpt>
      <trkpt lat="49.13838" lon="2.01931">
        <ele>129.2</ele>
        <time>2022-09-11T09:36:09Z</time>
      </trkpt>
      <trkpt lat="49.13835" lon="2.01943">
        <ele>129</ele>
        <time>2022-09-11T09:36:14Z</time>
      </trkpt>
      <trkpt lat="49.13832" lon="2.01952">
        <ele>128.9</ele>
        <time>2022-09-11T09:36:20Z</time>
      </trkpt>
      <trkpt lat="49.1383" lon="2.01963">
        <ele>128.7</ele>
        <time>2022-09-11T09:36:25Z</time>
      </trkpt>
      <trkpt lat="49.13828" lon="2.01978">
        <ele>128.7</ele>
        <time>2022-09-11T09:36:30Z</time>
      </trkpt>
      <trkpt lat="49.13826" lon="2.01987">
        <ele>128.8</ele>
        <time>2022-09-11T09:36:36Z</time>
      </trkpt>
      <trkpt lat="49.13824" lon="2.02001">
        <ele>129</ele>
        <time>2022-09-11T09:36:42Z</time>
      </trkpt>
      <trkpt lat="49.13823" lon="2.02013">
        <ele>129.1</ele>
        <time>2022-09-11T09:36:48Z</time>
      </trkpt>
      <trkpt lat="49.13823" lon="2.02022">
        <ele>129.2</ele>
        <time>2022-09-11T09:36:53Z</time>
      </trkpt>
      <trkpt lat="49.13822" lon="2.02021">
        <ele>129.1</ele>
        <time>2022-09-11T09:37:00Z</time>
      </trkpt>
      <trkpt lat="49.13821" lon="2.02024">
        <ele>129</ele>
        <time>2022-09-11T09:37:05Z</time>
      </trkpt>
      <trkpt lat="49.13819" lon="2.02035">
        <ele>129.1</ele>
        <time>2022-09-11T09:37:11Z</time>
      </trkpt>
      <trkpt lat="49.13817" lon="2.02043">
        <ele>129.2</ele>
        <time>2022-09-11T09:37:16Z</time>
      </trkpt>
      <trkpt lat="49.13815" lon="2.02051">
        <ele>129.2</ele>
        <time>2022-09-11T09:37:22Z</time>
      </trkpt>
      <trkpt lat="49.13812" lon="2.02063">
        <ele>129</ele>
        <time>2022-09-11T09:37:28Z</time>
      </trkpt>
      <trkpt lat="49.1381" lon="2.02075">
        <ele>128.6</ele>
        <time>2022-09-11T09:37:33Z</time>
      </trkpt>
      <trkpt lat="49.13809" lon="2.02088">
        <ele>128.4</ele>
        <time>2022-09-11T09:37:40Z</time>
      </trkpt>
      <trkpt lat="49.13808" lon="2.02102">
        <ele>128.8</ele>
        <time>2022-09-11T09:37:45Z</time>
      </trkpt>
      <trkpt lat="49.13807" lon="2.0211">
        <ele>129</ele>
        <time>2022-09-11T09:37:51Z</time>
      </trkpt>
      <trkpt lat="49.13805" lon="2.02122">
        <ele>129</ele>
        <time>2022-09-11T09:37:56Z</time>
      </trkpt>
      <trkpt lat="49.13803" lon="2.02134">
        <ele>128.9</ele>
        <time>2022-09-11T09:38:01Z</time>
      </trkpt>
      <trkpt lat="49.13802" lon="2.02145">
        <ele>128.8</ele>
        <time>2022-09-11T09:38:06Z</time>
      </trkpt>
      <trkpt lat="49.13802" lon="2.02156">
        <ele>128.8</ele>
        <time>2022-09-11T09:38:12Z</time>
      </trkpt>
      <trkpt lat="49.13802" lon="2.02166">
        <ele>128.7</ele>
        <time>2022-09-11T09:38:17Z</time>
      </trkpt>
      <trkpt lat="49.13799" lon="2.02181">
        <ele>128.5</ele>
        <time>2022-09-11T09:38:22Z</time>
      </trkpt>
      <trkpt lat="49.13798" lon="2.02192">
        <ele>128.5</ele>
        <time>2022-09-11T09:38:27Z</time>
      </trkpt>
      <trkpt lat="49.13797" lon="2.02202">
        <ele>128.4</ele>
        <time>2022-09-11T09:38:32Z</time>
      </trkpt>
      <trkpt lat="49.13798" lon="2.02212">
        <ele>128.4</ele>
        <time>2022-09-11T09:38:38Z</time>
      </trkpt>
      <trkpt lat="49.13796" lon="2.02226">
        <ele>128.4</ele>
        <time>2022-09-11T09:38:44Z</time>
      </trkpt>
      <trkpt lat="49.13795" lon="2.02235">
        <ele>128.4</ele>
        <time>2022-09-11T09:38:49Z</time>
      </trkpt>
      <trkpt lat="49.13795" lon="2.02249">
        <ele>128.6</ele>
        <time>2022-09-11T09:38:55Z</time>
      </trkpt>
      <trkpt lat="49.13795" lon="2.02264">
        <ele>128.9</ele>
        <time>2022-09-11T09:39:00Z</time>
      </trkpt>
      <trkpt lat="49.13795" lon="2.02273">
        <ele>129.1</ele>
        <time>2022-09-11T09:39:06Z</time>
      </trkpt>
      <trkpt lat="49.13795" lon="2.02285">
        <ele>129.2</ele>
        <time>2022-09-11T09:39:11Z</time>
      </trkpt>
      <trkpt lat="49.13794" lon="2.02296">
        <ele>129.2</ele>
        <time>2022-09-11T09:39:16Z</time>
      </trkpt>
      <trkpt lat="49.13793" lon="2.02309">
        <ele>129.1</ele>
        <time>2022-09-11T09:39:21Z</time>
      </trkpt>
      <trkpt lat="49.13794" lon="2.02322">
        <ele>129.1</ele>
        <time>2022-09-11T09:39:27Z</time>
      </trkpt>
      <trkpt lat="49.13794" lon="2.02333">
        <ele>129.2</ele>
        <time>2022-09-11T09:39:32Z</time>
      </trkpt>
      <trkpt lat="49.13795" lon="2.02342">
        <ele>129.3</ele>
        <time>2022-09-11T09:39:38Z</time>
      </trkpt>
      <trkpt lat="49.13796" lon="2.02356">
        <ele>129.6</ele>
        <time>2022-09-11T09:39:43Z</time>
      </trkpt>
      <trkpt lat="49.13797" lon="2.02365">
        <ele>129.7</ele>
        <time>2022-09-11T09:39:49Z</time>
      </trkpt>
      <trkpt lat="49.13798" lon="2.02378">
        <ele>129.7</ele>
        <time>2022-09-11T09:39:54Z</time>
      </trkpt>
      <trkpt lat="49.13799" lon="2.02387">
        <ele>129.8</ele>
        <time>2022-09-11T09:39:59Z</time>
      </trkpt>
      <trkpt lat="49.138" lon="2.02396">
        <ele>129.8</ele>
        <time>2022-09-11T09:40:04Z</time>
      </trkpt>
      <trkpt lat="49.13803" lon="2.02409">
        <ele>129.9</ele>
        <time>2022-09-11T09:40:09Z</time>
      </trkpt>
      <trkpt lat="49.13805" lon="2.02419">
        <ele>130</ele>
        <time>2022-09-11T09:40:15Z</time>
      </trkpt>
      <trkpt lat="49.13807" lon="2.02431">
        <ele>130</ele>
        <time>2022-09-11T09:40:20Z</time>
      </trkpt>
      <trkpt lat="49.13807" lon="2.0244">
        <ele>130.1</ele>
        <time>2022-09-11T09:40:25Z</time>
      </trkpt>
      <trkpt lat="49.13809" lon="2.02452">
        <ele>130.1</ele>
        <time>2022-09-11T09:40:31Z</time>
      </trkpt>
      <trkpt lat="49.13811" lon="2.02462">
        <ele>130.2</ele>
        <time>2022-09-11T09:40:36Z</time>
      </trkpt>
      <trkpt lat="49.13814" lon="2.02473">
        <ele>130.3</ele>
        <time>2022-09-11T09:40:42Z</time>
      </trkpt>
      <trkpt lat="49.13816" lon="2.02482">
        <ele>130.4</ele>
        <time>2022-09-11T09:40:47Z</time>
      </trkpt>
      <trkpt lat="49.13819" lon="2.0249">
        <ele>130.5</ele>
        <time>2022-09-11T09:40:53Z</time>
      </trkpt>
      <trkpt lat="49.13823" lon="2.025">
        <ele>130.6</ele>
        <time>2022-09-11T09:40:58Z</time>
      </trkpt>
      <trkpt lat="49.13826" lon="2.0251">
        <ele>131.1</ele>
        <time>2022-09-11T09:41:04Z</time>
      </trkpt>
      <trkpt lat="49.13828" lon="2.02522">
        <ele>131.6</ele>
        <time>2022-09-11T09:41:10Z</time>
      </trkpt>
      <trkpt lat="49.13831" lon="2.02534">
        <ele>131.9</ele>
        <time>2022-09-11T09:41:15Z</time>
      </trkpt>
      <trkpt lat="49.13835" lon="2.02548">
        <ele>132</ele>
        <time>2022-09-11T09:41:21Z</time>
      </trkpt>
      <trkpt lat="49.13838" lon="2.02556">
        <ele>132</ele>
        <time>2022-09-11T09:41:27Z</time>
      </trkpt>
      <trkpt lat="49.13839" lon="2.02564">
        <ele>131.8</ele>
        <time>2022-09-11T09:41:32Z</time>
      </trkpt>
      <trkpt lat="49.13842" lon="2.02578">
        <ele>131.7</ele>
        <time>2022-09-11T09:41:38Z</time>
      </trkpt>
      <trkpt lat="49.13845" lon="2.02587">
        <ele>131.8</ele>
        <time>2022-09-11T09:41:43Z</time>
      </trkpt>
      <trkpt lat="49.13849" lon="2.02598">
        <ele>132.1</ele>
        <time>2022-09-11T09:41:49Z</time>
      </trkpt>
      <trkpt lat="49.13856" lon="2.02609">
        <ele>132.6</ele>
        <time>2022-09-11T09:41:55Z</time>
      </trkpt>
      <trkpt lat="49.1386" lon="2.02619">
        <ele>132.9</ele>
        <time>2022-09-11T09:42:01Z</time>
      </trkpt>
      <trkpt lat="49.13861" lon="2.0263">
        <ele>133</ele>
        <time>2022-09-11T09:42:07Z</time>
      </trkpt>
      <trkpt lat="49.13863" lon="2.02639">
        <ele>133.1</ele>
        <time>2022-09-11T09:42:12Z</time>
      </trkpt>
      <trkpt lat="49.13867" lon="2.02648">
        <ele>133</ele>
        <time>2022-09-11T09:42:18Z</time>
      </trkpt>
      <trkpt lat="49.1387" lon="2.02657">
        <ele>132.9</ele>
        <time>2022-09-11T09:42:23Z</time>
      </trkpt>
      <trkpt lat="49.13877" lon="2.02668">
        <ele>133.2</ele>
        <time>2022-09-11T09:42:30Z</time>
      </trkpt>
      <trkpt lat="49.13881" lon="2.02676">
        <ele>133.5</ele>
        <time>2022-09-11T09:42:35Z</time>
      </trkpt>
      <trkpt lat="49.13885" lon="2.02684">
        <ele>133.8</ele>
        <time>2022-09-11T09:42:41Z</time>
      </trkpt>
      <trkpt lat="49.13892" lon="2.02696">
        <ele>134</ele>
        <time>2022-09-11T09:42:46Z</time>
      </trkpt>
      <trkpt lat="49.13896" lon="2.02705">
        <ele>133.7</ele>
        <time>2022-09-11T09:42:52Z</time>
      </trkpt>
      <trkpt lat="49.139" lon="2.02714">
        <ele>133.6</ele>
        <time>2022-09-11T09:42:58Z</time>
      </trkpt>
      <trkpt lat="49.13904" lon="2.02722">
        <ele>133.6</ele>
        <time>2022-09-11T09:43:03Z</time>
      </trkpt>
      <trkpt lat="49.13909" lon="2.02732">
        <ele>133.7</ele>
        <time>2022-09-11T09:43:09Z</time>
      </trkpt>
      <trkpt lat="49.13914" lon="2.0274">
        <ele>133.9</ele>
        <time>2022-09-11T09:43:14Z</time>
      </trkpt>
      <trkpt lat="49.1392" lon="2.02751">
        <ele>134</ele>
        <time>2022-09-11T09:43:20Z</time>
      </trkpt>
      <trkpt lat="49.13926" lon="2.02762">
        <ele>133.7</ele>
        <time>2022-09-11T09:43:25Z</time>
      </trkpt>
      <trkpt lat="49.13932" lon="2.02773">
        <ele>133.6</ele>
        <time>2022-09-11T09:43:31Z</time>
      </trkpt>
      <trkpt lat="49.13936" lon="2.0278">
        <ele>133.6</ele>
        <time>2022-09-11T09:43:36Z</time>
      </trkpt>
      <trkpt lat="49.13941" lon="2.02792">
        <ele>133.4</ele>
        <time>2022-09-11T09:43:42Z</time>
      </trkpt>
      <trkpt lat="49.13946" lon="2.028">
        <ele>133.2</ele>
        <time>2022-09-11T09:43:47Z</time>
      </trkpt>
      <trkpt lat="49.13949" lon="2.02809">
        <ele>133</ele>
        <time>2022-09-11T09:43:54Z</time>
      </trkpt>
      <trkpt lat="49.13956" lon="2.02817">
        <ele>133</ele>
        <time>2022-09-11T09:43:59Z</time>
      </trkpt>
      <trkpt lat="49.13959" lon="2.02824">
        <ele>133</ele>
        <time>2022-09-11T09:44:05Z</time>
      </trkpt>
      <trkpt lat="49.1396" lon="2.02837">
        <ele>132.9</ele>
        <time>2022-09-11T09:44:10Z</time>
      </trkpt>
      <trkpt lat="49.13966" lon="2.02849">
        <ele>132.9</ele>
        <time>2022-09-11T09:44:17Z</time>
      </trkpt>
      <trkpt lat="49.13971" lon="2.02858">
        <ele>133</ele>
        <time>2022-09-11T09:44:22Z</time>
      </trkpt>
      <trkpt lat="49.13976" lon="2.02866">
        <ele>132.8</ele>
        <time>2022-09-11T09:44:28Z</time>
      </trkpt>
      <trkpt lat="49.13981" lon="2.02877">
        <ele>132.6</ele>
        <time>2022-09-11T09:44:34Z</time>
      </trkpt>
      <trkpt lat="49.13986" lon="2.02884">
        <ele>132.6</ele>
        <time>2022-09-11T09:44:39Z</time>
      </trkpt>
      <trkpt lat="49.1399" lon="2.0289">
        <ele>132.6</ele>
        <time>2022-09-11T09:44:44Z</time>
      </trkpt>
      <trkpt lat="49.13995" lon="2.029">
        <ele>132.4</ele>
        <time>2022-09-11T09:44:50Z</time>
      </trkpt>
      <trkpt lat="49.13998" lon="2.02907">
        <ele>132.3</ele>
        <time>2022-09-11T09:44:56Z</time>
      </trkpt>
      <trkpt lat="49.14003" lon="2.02918">
        <ele>132</ele>
        <time>2022-09-11T09:45:01Z</time>
      </trkpt>
      <trkpt lat="49.14007" lon="2.02927">
        <ele>131.9</ele>
        <time>2022-09-11T09:45:06Z</time>
      </trkpt>
      <trkpt lat="49.14012" lon="2.02935">
        <ele>131.8</ele>
        <time>2022-09-11T09:45:11Z</time>
      </trkpt>
      <trkpt lat="49.14017" lon="2.02941">
        <ele>131.7</ele>
        <time>2022-09-11T09:45:17Z</time>
      </trkpt>
      <trkpt lat="49.14018" lon="2.02944">
        <ele>131.7</ele>
        <time>2022-09-11T09:45:23Z</time>
      </trkpt>
      <trkpt lat="49.14018" lon="2.02943">
        <ele>131.7</ele>
        <time>2022-09-11T09:45:33Z</time>
      </trkpt>
      <trkpt lat="49.14017" lon="2.02943">
        <ele>131.7</ele>
        <time>2022-09-11T09:45:39Z</time>
      </trkpt>
      <trkpt lat="49.1402" lon="2.02949">
        <ele>131.7</ele>
        <time>2022-09-11T09:45:45Z</time>
      </trkpt>
      <trkpt lat="49.14024" lon="2.02957">
        <ele>131.9</ele>
        <time>2022-09-11T09:45:50Z</time>
      </trkpt>
      <trkpt lat="49.14029" lon="2.02966">
        <ele>132</ele>
        <time>2022-09-11T09:45:55Z</time>
      </trkpt>
      <trkpt lat="49.14032" lon="2.02976">
        <ele>131.9</ele>
        <time>2022-09-11T09:46:01Z</time>
      </trkpt>
      <trkpt lat="49.14037" lon="2.02984">
        <ele>131.9</ele>
        <time>2022-09-11T09:46:06Z</time>
      </trkpt>
      <trkpt lat="49.14041" lon="2.02992">
        <ele>132</ele>
        <time>2022-09-11T09:46:11Z</time>
      </trkpt>
      <trkpt lat="49.14045" lon="2.03001">
        <ele>132.2</ele>
        <time>2022-09-11T09:46:17Z</time>
      </trkpt>
      <trkpt lat="49.14051" lon="2.03011">
        <ele>132.3</ele>
        <time>2022-09-11T09:46:22Z</time>
      </trkpt>
      <trkpt lat="49.14055" lon="2.03015">
        <ele>132.4</ele>
        <time>2022-09-11T09:46:28Z</time>
      </trkpt>
      <trkpt lat="49.14055" lon="2.03014">
        <ele>132.5</ele>
        <time>2022-09-11T09:46:33Z</time>
      </trkpt>
      <trkpt lat="49.14055" lon="2.03013">
        <ele>132.5</ele>
        <time>2022-09-11T09:46:41Z</time>
      </trkpt>
      <trkpt lat="49.14056" lon="2.03013">
        <ele>132.5</ele>
        <time>2022-09-11T09:46:53Z</time>
      </trkpt>
      <trkpt lat="49.14055" lon="2.03012">
        <ele>132.5</ele>
        <time>2022-09-11T09:46:58Z</time>
      </trkpt>
      <trkpt lat="49.14055" lon="2.03013">
        <ele>132.5</ele>
        <time>2022-09-11T09:47:04Z</time>
      </trkpt>
      <trkpt lat="49.14055" lon="2.03014">
        <ele>132.5</ele>
        <time>2022-09-11T09:47:09Z</time>
      </trkpt>
      <trkpt lat="49.14055" lon="2.03012">
        <ele>132.5</ele>
        <time>2022-09-11T09:47:14Z</time>
      </trkpt>
      <trkpt lat="49.14057" lon="2.03001">
        <ele>132.9</ele>
        <time>2022-09-11T09:47:19Z</time>
      </trkpt>
      <trkpt lat="49.1406" lon="2.02991">
        <ele>132.6</ele>
        <time>2022-09-11T09:47:25Z</time>
      </trkpt>
      <trkpt lat="49.14063" lon="2.0298">
        <ele>132.2</ele>
        <time>2022-09-11T09:47:30Z</time>
      </trkpt>
      <trkpt lat="49.14065" lon="2.02971">
        <ele>132.1</ele>
        <time>2022-09-11T09:47:35Z</time>
      </trkpt>
      <trkpt lat="49.14067" lon="2.0296">
        <ele>132.4</ele>
        <time>2022-09-11T09:47:41Z</time>
      </trkpt>
      <trkpt lat="49.14071" lon="2.02947">
        <ele>132.9</ele>
        <time>2022-09-11T09:47:46Z</time>
      </trkpt>
      <trkpt lat="49.14074" lon="2.02934">
        <ele>133.3</ele>
        <time>2022-09-11T09:47:51Z</time>
      </trkpt>
      <trkpt lat="49.14077" lon="2.02923">
        <ele>133.6</ele>
        <time>2022-09-11T09:47:57Z</time>
      </trkpt>
      <trkpt lat="49.1408" lon="2.02911">
        <ele>133.9</ele>
        <time>2022-09-11T09:48:02Z</time>
      </trkpt>
      <trkpt lat="49.14082" lon="2.029">
        <ele>134</ele>
        <time>2022-09-11T09:48:08Z</time>
      </trkpt>
      <trkpt lat="49.14085" lon="2.0289">
        <ele>134</ele>
        <time>2022-09-11T09:48:13Z</time>
      </trkpt>
      <trkpt lat="49.1409" lon="2.02876">
        <ele>134.1</ele>
        <time>2022-09-11T09:48:19Z</time>
      </trkpt>
      <trkpt lat="49.14093" lon="2.02866">
        <ele>134.3</ele>
        <time>2022-09-11T09:48:24Z</time>
      </trkpt>
      <trkpt lat="49.14095" lon="2.02856">
        <ele>134.4</ele>
        <time>2022-09-11T09:48:30Z</time>
      </trkpt>
      <trkpt lat="49.14098" lon="2.02844">
        <ele>134.5</ele>
        <time>2022-09-11T09:48:36Z</time>
      </trkpt>
      <trkpt lat="49.141" lon="2.02829">
        <ele>134.8</ele>
        <time>2022-09-11T09:48:43Z</time>
      </trkpt>
      <trkpt lat="49.14104" lon="2.02816">
        <ele>135.4</ele>
        <time>2022-09-11T09:48:48Z</time>
      </trkpt>
      <trkpt lat="49.14107" lon="2.02807">
        <ele>135.8</ele>
        <time>2022-09-11T09:48:54Z</time>
      </trkpt>
      <trkpt lat="49.14112" lon="2.02796">
        <ele>136.1</ele>
        <time>2022-09-11T09:48:59Z</time>
      </trkpt>
      <trkpt lat="49.14117" lon="2.02784">
        <ele>136.3</ele>
        <time>2022-09-11T09:49:05Z</time>
      </trkpt>
      <trkpt lat="49.1412" lon="2.02774">
        <ele>136.7</ele>
        <time>2022-09-11T09:49:10Z</time>
      </trkpt>
      <trkpt lat="49.14122" lon="2.02764">
        <ele>137.3</ele>
        <time>2022-09-11T09:49:16Z</time>
      </trkpt>
      <trkpt lat="49.14125" lon="2.0275">
        <ele>138</ele>
        <time>2022-09-11T09:49:21Z</time>
      </trkpt>
      <trkpt lat="49.14129" lon="2.02739">
        <ele>138.2</ele>
        <time>2022-09-11T09:49:27Z</time>
      </trkpt>
      <trkpt lat="49.14132" lon="2.02729">
        <ele>138.1</ele>
        <time>2022-09-11T09:49:33Z</time>
      </trkpt>
      <trkpt lat="49.14135" lon="2.02718">
        <ele>138.3</ele>
        <time>2022-09-11T09:49:38Z</time>
      </trkpt>
      <trkpt lat="49.14138" lon="2.02706">
        <ele>139.2</ele>
        <time>2022-09-11T09:49:44Z</time>
      </trkpt>
      <trkpt lat="49.14142" lon="2.02695">
        <ele>140.2</ele>
        <time>2022-09-11T09:49:49Z</time>
      </trkpt>
      <trkpt lat="49.14145" lon="2.02685">
        <ele>141</ele>
        <time>2022-09-11T09:49:55Z</time>
      </trkpt>
      <trkpt lat="49.14148" lon="2.02671">
        <ele>142.1</ele>
        <time>2022-09-11T09:50:01Z</time>
      </trkpt>
      <trkpt lat="49.1415" lon="2.02661">
        <ele>142.6</ele>
        <time>2022-09-11T09:50:06Z</time>
      </trkpt>
      <trkpt lat="49.14153" lon="2.02649">
        <ele>143.2</ele>
        <time>2022-09-11T09:50:12Z</time>
      </trkpt>
      <trkpt lat="49.14155" lon="2.02635">
        <ele>143.6</ele>
        <time>2022-09-11T09:50:18Z</time>
      </trkpt>
      <trkpt lat="49.14157" lon="2.02626">
        <ele>143.8</ele>
        <time>2022-09-11T09:50:23Z</time>
      </trkpt>
      <trkpt lat="49.14161" lon="2.02616">
        <ele>144</ele>
        <time>2022-09-11T09:50:29Z</time>
      </trkpt>
      <trkpt lat="49.14163" lon="2.02597">
        <ele>144.5</ele>
        <time>2022-09-11T09:50:35Z</time>
      </trkpt>
      <trkpt lat="49.14165" lon="2.02589">
        <ele>144.8</ele>
        <time>2022-09-11T09:50:40Z</time>
      </trkpt>
      <trkpt lat="49.14168" lon="2.02575">
        <ele>145.8</ele>
        <time>2022-09-11T09:50:46Z</time>
      </trkpt>
      <trkpt lat="49.14172" lon="2.02567">
        <ele>146.6</ele>
        <time>2022-09-11T09:50:51Z</time>
      </trkpt>
      <trkpt lat="49.14175" lon="2.02553">
        <ele>147.7</ele>
        <time>2022-09-11T09:50:57Z</time>
      </trkpt>
      <trkpt lat="49.14179" lon="2.02541">
        <ele>148.2</ele>
        <time>2022-09-11T09:51:02Z</time>
      </trkpt>
      <trkpt lat="49.14181" lon="2.02534">
        <ele>148.4</ele>
        <time>2022-09-11T09:51:07Z</time>
      </trkpt>
      <trkpt lat="49.14186" lon="2.02521">
        <ele>148.8</ele>
        <time>2022-09-11T09:51:13Z</time>
      </trkpt>
      <trkpt lat="49.14189" lon="2.02512">
        <ele>148.9</ele>
        <time>2022-09-11T09:51:18Z</time>
      </trkpt>
      <trkpt lat="49.14192" lon="2.02501">
        <ele>149</ele>
        <time>2022-09-11T09:51:24Z</time>
      </trkpt>
      <trkpt lat="49.14196" lon="2.02488">
        <ele>149.5</ele>
        <time>2022-09-11T09:51:30Z</time>
      </trkpt>
      <trkpt lat="49.14198" lon="2.02481">
        <ele>149.9</ele>
        <time>2022-09-11T09:51:35Z</time>
      </trkpt>
      <trkpt lat="49.14203" lon="2.02468">
        <ele>150.4</ele>
        <time>2022-09-11T09:51:41Z</time>
      </trkpt>
      <trkpt lat="49.14203" lon="2.02455">
        <ele>150.7</ele>
        <time>2022-09-11T09:51:47Z</time>
      </trkpt>
      <trkpt lat="49.14202" lon="2.02443">
        <ele>151</ele>
        <time>2022-09-11T09:51:53Z</time>
      </trkpt>
      <trkpt lat="49.14203" lon="2.02431">
        <ele>151.3</ele>
        <time>2022-09-11T09:51:58Z</time>
      </trkpt>
      <trkpt lat="49.14203" lon="2.02419">
        <ele>151.6</ele>
        <time>2022-09-11T09:52:03Z</time>
      </trkpt>
      <trkpt lat="49.14203" lon="2.02406">
        <ele>151.8</ele>
        <time>2022-09-11T09:52:09Z</time>
      </trkpt>
      <trkpt lat="49.14205" lon="2.02394">
        <ele>151.9</ele>
        <time>2022-09-11T09:52:15Z</time>
      </trkpt>
      <trkpt lat="49.14206" lon="2.02384">
        <ele>152.1</ele>
        <time>2022-09-11T09:52:21Z</time>
      </trkpt>
      <trkpt lat="49.14209" lon="2.02371">
        <ele>152.3</ele>
        <time>2022-09-11T09:52:27Z</time>
      </trkpt>
      <trkpt lat="49.1421" lon="2.02359">
        <ele>152.6</ele>
        <time>2022-09-11T09:52:32Z</time>
      </trkpt>
      <trkpt lat="49.14214" lon="2.02349">
        <ele>152.8</ele>
        <time>2022-09-11T09:52:38Z</time>
      </trkpt>
      <trkpt lat="49.14219" lon="2.02341">
        <ele>153</ele>
        <time>2022-09-11T09:52:44Z</time>
      </trkpt>
      <trkpt lat="49.14225" lon="2.02335">
        <ele>153</ele>
        <time>2022-09-11T09:52:50Z</time>
      </trkpt>
      <trkpt lat="49.14233" lon="2.02327">
        <ele>153.2</ele>
        <time>2022-09-11T09:52:55Z</time>
      </trkpt>
      <trkpt lat="49.14238" lon="2.02316">
        <ele>153.6</ele>
        <time>2022-09-11T09:53:02Z</time>
      </trkpt>
      <trkpt lat="49.14243" lon="2.02306">
        <ele>154</ele>
        <time>2022-09-11T09:53:07Z</time>
      </trkpt>
      <trkpt lat="49.14245" lon="2.02296">
        <ele>154.1</ele>
        <time>2022-09-11T09:53:13Z</time>
      </trkpt>
      <trkpt lat="49.14248" lon="2.02281">
        <ele>154.1</ele>
        <time>2022-09-11T09:53:19Z</time>
      </trkpt>
      <trkpt lat="49.14247" lon="2.02272">
        <ele>154.3</ele>
        <time>2022-09-11T09:53:24Z</time>
      </trkpt>
      <trkpt lat="49.1425" lon="2.02257">
        <ele>154.7</ele>
        <time>2022-09-11T09:53:30Z</time>
      </trkpt>
      <trkpt lat="49.14252" lon="2.0225">
        <ele>154.9</ele>
        <time>2022-09-11T09:53:35Z</time>
      </trkpt>
      <trkpt lat="49.14256" lon="2.02239">
        <ele>154.6</ele>
        <time>2022-09-11T09:53:41Z</time>
      </trkpt>
      <trkpt lat="49.14258" lon="2.02228">
        <ele>154.4</ele>
        <time>2022-09-11T09:53:46Z</time>
      </trkpt>
      <trkpt lat="49.14254" lon="2.02215">
        <ele>154.7</ele>
        <time>2022-09-11T09:53:52Z</time>
      </trkpt>
      <trkpt lat="49.14253" lon="2.02203">
        <ele>154.9</ele>
        <time>2022-09-11T09:53:58Z</time>
      </trkpt>
      <trkpt lat="49.14252" lon="2.02196">
        <ele>154.9</ele>
        <time>2022-09-11T09:54:03Z</time>
      </trkpt>
      <trkpt lat="49.14256" lon="2.02185">
        <ele>155.1</ele>
        <time>2022-09-11T09:54:08Z</time>
      </trkpt>
      <trkpt lat="49.14259" lon="2.02177">
        <ele>155.1</ele>
        <time>2022-09-11T09:54:13Z</time>
      </trkpt>
      <trkpt lat="49.14265" lon="2.02172">
        <ele>154.8</ele>
        <time>2022-09-11T09:54:19Z</time>
      </trkpt>
      <trkpt lat="49.1427" lon="2.02169">
        <ele>154.5</ele>
        <time>2022-09-11T09:54:25Z</time>
      </trkpt>
      <trkpt lat="49.14272" lon="2.02166">
        <ele>154.5</ele>
        <time>2022-09-11T09:54:30Z</time>
      </trkpt>
      <trkpt lat="49.14275" lon="2.02167">
        <ele>154.2</ele>
        <time>2022-09-11T09:54:52Z</time>
      </trkpt>
      <trkpt lat="49.14279" lon="2.0216">
        <ele>154.2</ele>
        <time>2022-09-11T09:57:44Z</time>
      </trkpt>
      <trkpt lat="49.14283" lon="2.02152">
        <ele>154.3</ele>
        <time>2022-09-11T09:57:50Z</time>
      </trkpt>
      <trkpt lat="49.14286" lon="2.02145">
        <ele>154.5</ele>
        <time>2022-09-11T09:57:56Z</time>
      </trkpt>
      <trkpt lat="49.14295" lon="2.02136">
        <ele>154.4</ele>
        <time>2022-09-11T09:58:01Z</time>
      </trkpt>
      <trkpt lat="49.14299" lon="2.02126">
        <ele>154.2</ele>
        <time>2022-09-11T09:58:07Z</time>
      </trkpt>
      <trkpt lat="49.14307" lon="2.02114">
        <ele>153.8</ele>
        <time>2022-09-11T09:58:13Z</time>
      </trkpt>
      <trkpt lat="49.14314" lon="2.02106">
        <ele>152.9</ele>
        <time>2022-09-11T09:58:18Z</time>
      </trkpt>
      <trkpt lat="49.14315" lon="2.02101">
        <ele>152.8</ele>
        <time>2022-09-11T09:58:24Z</time>
      </trkpt>
      <trkpt lat="49.14321" lon="2.02094">
        <ele>152.1</ele>
        <time>2022-09-11T09:58:29Z</time>
      </trkpt>
      <trkpt lat="49.14327" lon="2.02088">
        <ele>151.5</ele>
        <time>2022-09-11T09:58:34Z</time>
      </trkpt>
      <trkpt lat="49.14332" lon="2.02083">
        <ele>151.1</ele>
        <time>2022-09-11T09:58:40Z</time>
      </trkpt>
      <trkpt lat="49.14336" lon="2.02079">
        <ele>150.6</ele>
        <time>2022-09-11T09:58:45Z</time>
      </trkpt>
      <trkpt lat="49.1434" lon="2.02077">
        <ele>150.1</ele>
        <time>2022-09-11T09:58:51Z</time>
      </trkpt>
      <trkpt lat="49.14353" lon="2.0207">
        <ele>148.1</ele>
        <time>2022-09-11T09:58:57Z</time>
      </trkpt>
      <trkpt lat="49.14364" lon="2.02066">
        <ele>146.7</ele>
        <time>2022-09-11T09:59:03Z</time>
      </trkpt>
      <trkpt lat="49.14369" lon="2.02063">
        <ele>146.1</ele>
        <time>2022-09-11T09:59:10Z</time>
      </trkpt>
      <trkpt lat="49.14372" lon="2.02053">
        <ele>145.9</ele>
        <time>2022-09-11T09:59:16Z</time>
      </trkpt>
      <trkpt lat="49.14375" lon="2.02041">
        <ele>146</ele>
        <time>2022-09-11T09:59:22Z</time>
      </trkpt>
      <trkpt lat="49.14381" lon="2.02032">
        <ele>145.8</ele>
        <time>2022-09-11T09:59:28Z</time>
      </trkpt>
      <trkpt lat="49.14383" lon="2.0203">
        <ele>145.6</ele>
        <time>2022-09-11T09:59:34Z</time>
      </trkpt>
      <trkpt lat="49.14378" lon="2.02028">
        <ele>146.1</ele>
        <time>2022-09-11T09:59:39Z</time>
      </trkpt>
      <trkpt lat="49.14371" lon="2.02024">
        <ele>147.2</ele>
        <time>2022-09-11T09:59:45Z</time>
      </trkpt>
      <trkpt lat="49.14365" lon="2.02019">
        <ele>148.2</ele>
        <time>2022-09-11T09:59:50Z</time>
      </trkpt>
      <trkpt lat="49.14362" lon="2.02012">
        <ele>149.1</ele>
        <time>2022-09-11T09:59:56Z</time>
      </trkpt>
      <trkpt lat="49.14357" lon="2.02008">
        <ele>149.8</ele>
        <time>2022-09-11T10:00:01Z</time>
      </trkpt>
      <trkpt lat="49.14348" lon="2.02004">
        <ele>150.8</ele>
        <time>2022-09-11T10:00:07Z</time>
      </trkpt>
      <trkpt lat="49.14343" lon="2.02">
        <ele>151.3</ele>
        <time>2022-09-11T10:00:12Z</time>
      </trkpt>
      <trkpt lat="49.14339" lon="2.01997">
        <ele>151.7</ele>
        <time>2022-09-11T10:00:17Z</time>
      </trkpt>
      <trkpt lat="49.14333" lon="2.01991">
        <ele>152.3</ele>
        <time>2022-09-11T10:00:23Z</time>
      </trkpt>
      <trkpt lat="49.14325" lon="2.01983">
        <ele>153</ele>
        <time>2022-09-11T10:00:28Z</time>
      </trkpt>
      <trkpt lat="49.14316" lon="2.0198">
        <ele>153.5</ele>
        <time>2022-09-11T10:00:34Z</time>
      </trkpt>
      <trkpt lat="49.1431" lon="2.01975">
        <ele>153.8</ele>
        <time>2022-09-11T10:00:40Z</time>
      </trkpt>
      <trkpt lat="49.14305" lon="2.01969">
        <ele>154</ele>
        <time>2022-09-11T10:00:46Z</time>
      </trkpt>
      <trkpt lat="49.14306" lon="2.01957">
        <ele>154</ele>
        <time>2022-09-11T10:00:51Z</time>
      </trkpt>
      <trkpt lat="49.14309" lon="2.01948">
        <ele>153.9</ele>
        <time>2022-09-11T10:00:57Z</time>
      </trkpt>
      <trkpt lat="49.14312" lon="2.01938">
        <ele>153.8</ele>
        <time>2022-09-11T10:01:02Z</time>
      </trkpt>
      <trkpt lat="49.14314" lon="2.01927">
        <ele>153.7</ele>
        <time>2022-09-11T10:01:08Z</time>
      </trkpt>
      <trkpt lat="49.14316" lon="2.01917">
        <ele>153.6</ele>
        <time>2022-09-11T10:01:13Z</time>
      </trkpt>
      <trkpt lat="49.14318" lon="2.01905">
        <ele>153.5</ele>
        <time>2022-09-11T10:01:18Z</time>
      </trkpt>
      <trkpt lat="49.14315" lon="2.01894">
        <ele>153.7</ele>
        <time>2022-09-11T10:01:24Z</time>
      </trkpt>
      <trkpt lat="49.14312" lon="2.01882">
        <ele>153.8</ele>
        <time>2022-09-11T10:01:30Z</time>
      </trkpt>
      <trkpt lat="49.1431" lon="2.01869">
        <ele>153.8</ele>
        <time>2022-09-11T10:01:37Z</time>
      </trkpt>
      <trkpt lat="49.14309" lon="2.01854">
        <ele>153.7</ele>
        <time>2022-09-11T10:01:42Z</time>
      </trkpt>
      <trkpt lat="49.14306" lon="2.01847">
        <ele>153.5</ele>
        <time>2022-09-11T10:01:48Z</time>
      </trkpt>
      <trkpt lat="49.14304" lon="2.01835">
        <ele>153.3</ele>
        <time>2022-09-11T10:01:53Z</time>
      </trkpt>
      <trkpt lat="49.143" lon="2.01822">
        <ele>153.5</ele>
        <time>2022-09-11T10:01:59Z</time>
      </trkpt>
      <trkpt lat="49.143" lon="2.01807">
        <ele>153.4</ele>
        <time>2022-09-11T10:02:04Z</time>
      </trkpt>
      <trkpt lat="49.14299" lon="2.01794">
        <ele>153</ele>
        <time>2022-09-11T10:02:10Z</time>
      </trkpt>
      <trkpt lat="49.14301" lon="2.01783">
        <ele>152.6</ele>
        <time>2022-09-11T10:02:15Z</time>
      </trkpt>
      <trkpt lat="49.14304" lon="2.0177">
        <ele>152.1</ele>
        <time>2022-09-11T10:02:21Z</time>
      </trkpt>
      <trkpt lat="49.14309" lon="2.01759">
        <ele>152</ele>
        <time>2022-09-11T10:02:26Z</time>
      </trkpt>
      <trkpt lat="49.14313" lon="2.01749">
        <ele>152</ele>
        <time>2022-09-11T10:02:32Z</time>
      </trkpt>
      <trkpt lat="49.14317" lon="2.0174">
        <ele>151.6</ele>
        <time>2022-09-11T10:02:37Z</time>
      </trkpt>
      <trkpt lat="49.14321" lon="2.0173">
        <ele>151.3</ele>
        <time>2022-09-11T10:02:43Z</time>
      </trkpt>
      <trkpt lat="49.14325" lon="2.01718">
        <ele>150.9</ele>
        <time>2022-09-11T10:02:48Z</time>
      </trkpt>
      <trkpt lat="49.14327" lon="2.01711">
        <ele>150.6</ele>
        <time>2022-09-11T10:02:54Z</time>
      </trkpt>
      <trkpt lat="49.14332" lon="2.01699">
        <ele>150.1</ele>
        <time>2022-09-11T10:02:59Z</time>
      </trkpt>
      <trkpt lat="49.14335" lon="2.01689">
        <ele>149.7</ele>
        <time>2022-09-11T10:03:05Z</time>
      </trkpt>
      <trkpt lat="49.14343" lon="2.01682">
        <ele>149.6</ele>
        <time>2022-09-11T10:03:10Z</time>
      </trkpt>
      <trkpt lat="49.14347" lon="2.01677">
        <ele>149.5</ele>
        <time>2022-09-11T10:03:16Z</time>
      </trkpt>
      <trkpt lat="49.14354" lon="2.01666">
        <ele>149.5</ele>
        <time>2022-09-11T10:03:21Z</time>
      </trkpt>
      <trkpt lat="49.14361" lon="2.01658">
        <ele>149.7</ele>
        <time>2022-09-11T10:03:27Z</time>
      </trkpt>
      <trkpt lat="49.14367" lon="2.0165">
        <ele>150</ele>
        <time>2022-09-11T10:03:33Z</time>
      </trkpt>
      <trkpt lat="49.14372" lon="2.01642">
        <ele>150.2</ele>
        <time>2022-09-11T10:03:39Z</time>
      </trkpt>
      <trkpt lat="49.14377" lon="2.01632">
        <ele>150.3</ele>
        <time>2022-09-11T10:03:44Z</time>
      </trkpt>
      <trkpt lat="49.14378" lon="2.01624">
        <ele>150</ele>
        <time>2022-09-11T10:03:50Z</time>
      </trkpt>
      <trkpt lat="49.14384" lon="2.0161">
        <ele>150.2</ele>
        <time>2022-09-11T10:03:55Z</time>
      </trkpt>
      <trkpt lat="49.14389" lon="2.01602">
        <ele>150.3</ele>
        <time>2022-09-11T10:04:00Z</time>
      </trkpt>
      <trkpt lat="49.14392" lon="2.01597">
        <ele>150.2</ele>
        <time>2022-09-11T10:04:06Z</time>
      </trkpt>
      <trkpt lat="49.14398" lon="2.01594">
        <ele>150.3</ele>
        <time>2022-09-11T10:04:11Z</time>
      </trkpt>
      <trkpt lat="49.14403" lon="2.01585">
        <ele>150.1</ele>
        <time>2022-09-11T10:04:16Z</time>
      </trkpt>
      <trkpt lat="49.14407" lon="2.01576">
        <ele>150.1</ele>
        <time>2022-09-11T10:04:21Z</time>
      </trkpt>
      <trkpt lat="49.14415" lon="2.01566">
        <ele>150.2</ele>
        <time>2022-09-11T10:04:27Z</time>
      </trkpt>
      <trkpt lat="49.14419" lon="2.01556">
        <ele>150.2</ele>
        <time>2022-09-11T10:04:32Z</time>
      </trkpt>
      <trkpt lat="49.14424" lon="2.01544">
        <ele>150.1</ele>
        <time>2022-09-11T10:04:39Z</time>
      </trkpt>
      <trkpt lat="49.14432" lon="2.0154">
        <ele>150.5</ele>
        <time>2022-09-11T10:04:44Z</time>
      </trkpt>
      <trkpt lat="49.14439" lon="2.0153">
        <ele>150.7</ele>
        <time>2022-09-11T10:04:49Z</time>
      </trkpt>
      <trkpt lat="49.14444" lon="2.01523">
        <ele>150.8</ele>
        <time>2022-09-11T10:04:55Z</time>
      </trkpt>
      <trkpt lat="49.14447" lon="2.01515">
        <ele>150.8</ele>
        <time>2022-09-11T10:05:00Z</time>
      </trkpt>
      <trkpt lat="49.14452" lon="2.01506">
        <ele>151</ele>
        <time>2022-09-11T10:05:06Z</time>
      </trkpt>
      <trkpt lat="49.14459" lon="2.01499">
        <ele>151.6</ele>
        <time>2022-09-11T10:05:11Z</time>
      </trkpt>
      <trkpt lat="49.14464" lon="2.0149">
        <ele>151.9</ele>
        <time>2022-09-11T10:05:18Z</time>
      </trkpt>
      <trkpt lat="49.14469" lon="2.01479">
        <ele>152</ele>
        <time>2022-09-11T10:05:23Z</time>
      </trkpt>
      <trkpt lat="49.14474" lon="2.01472">
        <ele>152.2</ele>
        <time>2022-09-11T10:05:28Z</time>
      </trkpt>
      <trkpt lat="49.14481" lon="2.01463">
        <ele>152.9</ele>
        <time>2022-09-11T10:05:35Z</time>
      </trkpt>
      <trkpt lat="49.14489" lon="2.01456">
        <ele>153.4</ele>
        <time>2022-09-11T10:05:40Z</time>
      </trkpt>
      <trkpt lat="49.14495" lon="2.01448">
        <ele>153.8</ele>
        <time>2022-09-11T10:05:46Z</time>
      </trkpt>
      <trkpt lat="49.14506" lon="2.0144">
        <ele>154.4</ele>
        <time>2022-09-11T10:05:51Z</time>
      </trkpt>
      <trkpt lat="49.14512" lon="2.01433">
        <ele>154.9</ele>
        <time>2022-09-11T10:05:56Z</time>
      </trkpt>
      <trkpt lat="49.14516" lon="2.01422">
        <ele>155.1</ele>
        <time>2022-09-11T10:06:01Z</time>
      </trkpt>
      <trkpt lat="49.14521" lon="2.01413">
        <ele>155.5</ele>
        <time>2022-09-11T10:06:07Z</time>
      </trkpt>
      <trkpt lat="49.14522" lon="2.01404">
        <ele>155.6</ele>
        <time>2022-09-11T10:06:12Z</time>
      </trkpt>
      <trkpt lat="49.14524" lon="2.01394">
        <ele>155.7</ele>
        <time>2022-09-11T10:06:17Z</time>
      </trkpt>
      <trkpt lat="49.14528" lon="2.01383">
        <ele>156.2</ele>
        <time>2022-09-11T10:06:23Z</time>
      </trkpt>
      <trkpt lat="49.1453" lon="2.01372">
        <ele>156.7</ele>
        <time>2022-09-11T10:06:29Z</time>
      </trkpt>
      <trkpt lat="49.14533" lon="2.01363">
        <ele>157.1</ele>
        <time>2022-09-11T10:06:34Z</time>
      </trkpt>
      <trkpt lat="49.14536" lon="2.01353">
        <ele>157.3</ele>
        <time>2022-09-11T10:06:40Z</time>
      </trkpt>
      <trkpt lat="49.14541" lon="2.01342">
        <ele>157.5</ele>
        <time>2022-09-11T10:06:45Z</time>
      </trkpt>
      <trkpt lat="49.14546" lon="2.01332">
        <ele>157.7</ele>
        <time>2022-09-11T10:06:50Z</time>
      </trkpt>
      <trkpt lat="49.14551" lon="2.01322">
        <ele>158.2</ele>
        <time>2022-09-11T10:06:57Z</time>
      </trkpt>
      <trkpt lat="49.14556" lon="2.0131">
        <ele>158.8</ele>
        <time>2022-09-11T10:07:02Z</time>
      </trkpt>
      <trkpt lat="49.1456" lon="2.01299">
        <ele>159.1</ele>
        <time>2022-09-11T10:07:09Z</time>
      </trkpt>
      <trkpt lat="49.14567" lon="2.01288">
        <ele>159.2</ele>
        <time>2022-09-11T10:07:14Z</time>
      </trkpt>
      <trkpt lat="49.14571" lon="2.01276">
        <ele>159.5</ele>
        <time>2022-09-11T10:07:20Z</time>
      </trkpt>
      <trkpt lat="49.14576" lon="2.01266">
        <ele>159.6</ele>
        <time>2022-09-11T10:07:26Z</time>
      </trkpt>
      <trkpt lat="49.14578" lon="2.01257">
        <ele>159.8</ele>
        <time>2022-09-11T10:07:31Z</time>
      </trkpt>
      <trkpt lat="49.14581" lon="2.01249">
        <ele>160</ele>
        <time>2022-09-11T10:07:36Z</time>
      </trkpt>
      <trkpt lat="49.14586" lon="2.01242">
        <ele>160.2</ele>
        <time>2022-09-11T10:07:42Z</time>
      </trkpt>
      <trkpt lat="49.14591" lon="2.01233">
        <ele>160.5</ele>
        <time>2022-09-11T10:07:47Z</time>
      </trkpt>
      <trkpt lat="49.14588" lon="2.01219">
        <ele>161.1</ele>
        <time>2022-09-11T10:07:56Z</time>
      </trkpt>
      <trkpt lat="49.14592" lon="2.01208">
        <ele>161.5</ele>
        <time>2022-09-11T10:08:01Z</time>
      </trkpt>
      <trkpt lat="49.14598" lon="2.01195">
        <ele>162</ele>
        <time>2022-09-11T10:08:07Z</time>
      </trkpt>
      <trkpt lat="49.14596" lon="2.01192">
        <ele>162.1</ele>
        <time>2022-09-11T10:08:12Z</time>
      </trkpt>
      <trkpt lat="49.14593" lon="2.01193">
        <ele>162</ele>
        <time>2022-09-11T10:08:18Z</time>
      </trkpt>
      <trkpt lat="49.14593" lon="2.01194">
        <ele>162</ele>
        <time>2022-09-11T10:08:23Z</time>
      </trkpt>
      <trkpt lat="49.14593" lon="2.01195">
        <ele>162</ele>
        <time>2022-09-11T10:08:34Z</time>
      </trkpt>
      <trkpt lat="49.14597" lon="2.01193">
        <ele>162.1</ele>
        <time>2022-09-11T10:08:57Z</time>
      </trkpt>
      <trkpt lat="49.14601" lon="2.01191">
        <ele>162.1</ele>
        <time>2022-09-11T10:09:03Z</time>
      </trkpt>
      <trkpt lat="49.14605" lon="2.01184">
        <ele>162.4</ele>
        <time>2022-09-11T10:09:08Z</time>
      </trkpt>
      <trkpt lat="49.14606" lon="2.01177">
        <ele>162.6</ele>
        <time>2022-09-11T10:09:13Z</time>
      </trkpt>
      <trkpt lat="49.14607" lon="2.01167">
        <ele>163</ele>
        <time>2022-09-11T10:09:19Z</time>
      </trkpt>
      <trkpt lat="49.14607" lon="2.01157">
        <ele>163.6</ele>
        <time>2022-09-11T10:09:24Z</time>
      </trkpt>
      <trkpt lat="49.14608" lon="2.01145">
        <ele>164.4</ele>
        <time>2022-09-11T10:09:30Z</time>
      </trkpt>
      <trkpt lat="49.1461" lon="2.01133">
        <ele>165.2</ele>
        <time>2022-09-11T10:09:36Z</time>
      </trkpt>
      <trkpt lat="49.14613" lon="2.01122">
        <ele>165.6</ele>
        <time>2022-09-11T10:09:42Z</time>
      </trkpt>
      <trkpt lat="49.14618" lon="2.01112">
        <ele>166</ele>
        <time>2022-09-11T10:09:48Z</time>
      </trkpt>
      <trkpt lat="49.14619" lon="2.01101">
        <ele>166.4</ele>
        <time>2022-09-11T10:09:54Z</time>
      </trkpt>
      <trkpt lat="49.14621" lon="2.01093">
        <ele>166.7</ele>
        <time>2022-09-11T10:09:59Z</time>
      </trkpt>
      <trkpt lat="49.14624" lon="2.01081">
        <ele>167</ele>
        <time>2022-09-11T10:10:05Z</time>
      </trkpt>
      <trkpt lat="49.14624" lon="2.01074">
        <ele>167.2</ele>
        <time>2022-09-11T10:10:10Z</time>
      </trkpt>
      <trkpt lat="49.14627" lon="2.01066">
        <ele>167.4</ele>
        <time>2022-09-11T10:10:15Z</time>
      </trkpt>
      <trkpt lat="49.14629" lon="2.01055">
        <ele>167.6</ele>
        <time>2022-09-11T10:10:21Z</time>
      </trkpt>
      <trkpt lat="49.14629" lon="2.01044">
        <ele>167.6</ele>
        <time>2022-09-11T10:10:27Z</time>
      </trkpt>
      <trkpt lat="49.14633" lon="2.01036">
        <ele>167.8</ele>
        <time>2022-09-11T10:10:32Z</time>
      </trkpt>
      <trkpt lat="49.14635" lon="2.01025">
        <ele>167.8</ele>
        <time>2022-09-11T10:10:37Z</time>
      </trkpt>
      <trkpt lat="49.14638" lon="2.01013">
        <ele>168</ele>
        <time>2022-09-11T10:10:43Z</time>
      </trkpt>
      <trkpt lat="49.14642" lon="2.01001">
        <ele>168.1</ele>
        <time>2022-09-11T10:10:49Z</time>
      </trkpt>
      <trkpt lat="49.14644" lon="2.00993">
        <ele>168.2</ele>
        <time>2022-09-11T10:10:54Z</time>
      </trkpt>
      <trkpt lat="49.14646" lon="2.00986">
        <ele>168.3</ele>
        <time>2022-09-11T10:11:00Z</time>
      </trkpt>
      <trkpt lat="49.14647" lon="2.00976">
        <ele>168.3</ele>
        <time>2022-09-11T10:11:05Z</time>
      </trkpt>
      <trkpt lat="49.14652" lon="2.00967">
        <ele>168.3</ele>
        <time>2022-09-11T10:11:11Z</time>
      </trkpt>
      <trkpt lat="49.14657" lon="2.00953">
        <ele>167.9</ele>
        <time>2022-09-11T10:11:17Z</time>
      </trkpt>
      <trkpt lat="49.14662" lon="2.00941">
        <ele>167.7</ele>
        <time>2022-09-11T10:11:23Z</time>
      </trkpt>
      <trkpt lat="49.14667" lon="2.00937">
        <ele>167.7</ele>
        <time>2022-09-11T10:11:28Z</time>
      </trkpt>
      <trkpt lat="49.14669" lon="2.00933">
        <ele>167.8</ele>
        <time>2022-09-11T10:11:33Z</time>
      </trkpt>
      <trkpt lat="49.14672" lon="2.00925">
        <ele>167.8</ele>
        <time>2022-09-11T10:11:38Z</time>
      </trkpt>
      <trkpt lat="49.14674" lon="2.00918">
        <ele>167.8</ele>
        <time>2022-09-11T10:11:44Z</time>
      </trkpt>
      <trkpt lat="49.14678" lon="2.00906">
        <ele>167.9</ele>
        <time>2022-09-11T10:11:49Z</time>
      </trkpt>
      <trkpt lat="49.14681" lon="2.00897">
        <ele>167.8</ele>
        <time>2022-09-11T10:11:55Z</time>
      </trkpt>
      <trkpt lat="49.1468" lon="2.00898">
        <ele>167.8</ele>
        <time>2022-09-11T10:12:01Z</time>
      </trkpt>
      <trkpt lat="49.14681" lon="2.00899">
        <ele>168</ele>
        <time>2022-09-11T10:12:07Z</time>
      </trkpt>
      <trkpt lat="49.14682" lon="2.009">
        <ele>168.1</ele>
        <time>2022-09-11T10:12:13Z</time>
      </trkpt>
      <trkpt lat="49.14683" lon="2.009">
        <ele>168.1</ele>
        <time>2022-09-11T10:12:18Z</time>
      </trkpt>
      <trkpt lat="49.14683" lon="2.00901">
        <ele>168.2</ele>
        <time>2022-09-11T10:12:25Z</time>
      </trkpt>
      <trkpt lat="49.14684" lon="2.00902">
        <ele>168.4</ele>
        <time>2022-09-11T10:12:30Z</time>
      </trkpt>
      <trkpt lat="49.14687" lon="2.00905">
        <ele>168.8</ele>
        <time>2022-09-11T10:12:36Z</time>
      </trkpt>
      <trkpt lat="49.1469" lon="2.00911">
        <ele>169.3</ele>
        <time>2022-09-11T10:12:41Z</time>
      </trkpt>
      <trkpt lat="49.14693" lon="2.0092">
        <ele>169.8</ele>
        <time>2022-09-11T10:12:46Z</time>
      </trkpt>
      <trkpt lat="49.14696" lon="2.00927">
        <ele>170.2</ele>
        <time>2022-09-11T10:12:52Z</time>
      </trkpt>
      <trkpt lat="49.1471" lon="2.00926">
        <ele>171.7</ele>
        <time>2022-09-11T10:26:31Z</time>
      </trkpt>
      <trkpt lat="49.14693" lon="2.00908">
        <ele>169.6</ele>
        <time>2022-09-11T10:58:36Z</time>
      </trkpt>
      <trkpt lat="49.1469" lon="2.00901">
        <ele>169</ele>
        <time>2022-09-11T10:58:42Z</time>
      </trkpt>
      <trkpt lat="49.1469" lon="2.00899">
        <ele>168.9</ele>
        <time>2022-09-11T10:58:48Z</time>
      </trkpt>
      <trkpt lat="49.14689" lon="2.00893">
        <ele>168.5</ele>
        <time>2022-09-11T10:58:53Z</time>
      </trkpt>
      <trkpt lat="49.14689" lon="2.00883">
        <ele>168</ele>
        <time>2022-09-11T10:58:59Z</time>
      </trkpt>
      <trkpt lat="49.1469" lon="2.00877">
        <ele>167.7</ele>
        <time>2022-09-11T10:59:05Z</time>
      </trkpt>
      <trkpt lat="49.14692" lon="2.00875">
        <ele>167.7</ele>
        <time>2022-09-11T10:59:10Z</time>
      </trkpt>
      <trkpt lat="49.14693" lon="2.0087">
        <ele>167.5</ele>
        <time>2022-09-11T10:59:15Z</time>
      </trkpt>
      <trkpt lat="49.14695" lon="2.00862">
        <ele>167.2</ele>
        <time>2022-09-11T10:59:21Z</time>
      </trkpt>
      <trkpt lat="49.147" lon="2.00852">
        <ele>167.2</ele>
        <time>2022-09-11T10:59:27Z</time>
      </trkpt>
      <trkpt lat="49.14704" lon="2.00842">
        <ele>167.1</ele>
        <time>2022-09-11T10:59:32Z</time>
      </trkpt>
      <trkpt lat="49.14706" lon="2.00837">
        <ele>167</ele>
        <time>2022-09-11T10:59:37Z</time>
      </trkpt>
      <trkpt lat="49.1471" lon="2.0083">
        <ele>166.9</ele>
        <time>2022-09-11T10:59:43Z</time>
      </trkpt>
      <trkpt lat="49.14712" lon="2.00824">
        <ele>166.6</ele>
        <time>2022-09-11T10:59:49Z</time>
      </trkpt>
      <trkpt lat="49.14714" lon="2.00818">
        <ele>166.3</ele>
        <time>2022-09-11T10:59:54Z</time>
      </trkpt>
      <trkpt lat="49.14718" lon="2.0081">
        <ele>166</ele>
        <time>2022-09-11T11:00:00Z</time>
      </trkpt>
      <trkpt lat="49.14722" lon="2.00803">
        <ele>165.9</ele>
        <time>2022-09-11T11:00:06Z</time>
      </trkpt>
      <trkpt lat="49.14727" lon="2.00795">
        <ele>166.1</ele>
        <time>2022-09-11T11:00:12Z</time>
      </trkpt>
      <trkpt lat="49.14732" lon="2.00788">
        <ele>166.4</ele>
        <time>2022-09-11T11:00:18Z</time>
      </trkpt>
      <trkpt lat="49.14736" lon="2.00781">
        <ele>166.6</ele>
        <time>2022-09-11T11:00:23Z</time>
      </trkpt>
      <trkpt lat="49.1474" lon="2.0077">
        <ele>166.7</ele>
        <time>2022-09-11T11:00:29Z</time>
      </trkpt>
      <trkpt lat="49.14745" lon="2.00758">
        <ele>166.7</ele>
        <time>2022-09-11T11:00:34Z</time>
      </trkpt>
      <trkpt lat="49.14748" lon="2.00747">
        <ele>166.7</ele>
        <time>2022-09-11T11:00:40Z</time>
      </trkpt>
      <trkpt lat="49.14751" lon="2.00738">
        <ele>166.7</ele>
        <time>2022-09-11T11:00:46Z</time>
      </trkpt>
      <trkpt lat="49.14753" lon="2.00731">
        <ele>166.6</ele>
        <time>2022-09-11T11:00:51Z</time>
      </trkpt>
      <trkpt lat="49.14754" lon="2.00723">
        <ele>166.5</ele>
        <time>2022-09-11T11:00:56Z</time>
      </trkpt>
      <trkpt lat="49.14756" lon="2.00715">
        <ele>166.3</ele>
        <time>2022-09-11T11:01:02Z</time>
      </trkpt>
      <trkpt lat="49.14758" lon="2.00709">
        <ele>166.2</ele>
        <time>2022-09-11T11:01:07Z</time>
      </trkpt>
      <trkpt lat="49.14761" lon="2.00699">
        <ele>166</ele>
        <time>2022-09-11T11:01:12Z</time>
      </trkpt>
      <trkpt lat="49.14765" lon="2.00688">
        <ele>165.7</ele>
        <time>2022-09-11T11:01:18Z</time>
      </trkpt>
      <trkpt lat="49.14771" lon="2.00678">
        <ele>165.4</ele>
        <time>2022-09-11T11:01:24Z</time>
      </trkpt>
      <trkpt lat="49.14776" lon="2.00667">
        <ele>165</ele>
        <time>2022-09-11T11:01:30Z</time>
      </trkpt>
      <trkpt lat="49.14781" lon="2.00657">
        <ele>164.8</ele>
        <time>2022-09-11T11:01:36Z</time>
      </trkpt>
      <trkpt lat="49.14785" lon="2.00647">
        <ele>164.8</ele>
        <time>2022-09-11T11:01:42Z</time>
      </trkpt>
      <trkpt lat="49.14788" lon="2.00639">
        <ele>164.7</ele>
        <time>2022-09-11T11:01:47Z</time>
      </trkpt>
      <trkpt lat="49.1479" lon="2.00631">
        <ele>164.4</ele>
        <time>2022-09-11T11:01:53Z</time>
      </trkpt>
      <trkpt lat="49.14791" lon="2.00621">
        <ele>163.7</ele>
        <time>2022-09-11T11:01:59Z</time>
      </trkpt>
      <trkpt lat="49.14792" lon="2.00613">
        <ele>163.2</ele>
        <time>2022-09-11T11:02:05Z</time>
      </trkpt>
      <trkpt lat="49.14795" lon="2.00603">
        <ele>162.9</ele>
        <time>2022-09-11T11:02:10Z</time>
      </trkpt>
      <trkpt lat="49.14799" lon="2.00594">
        <ele>162.7</ele>
        <time>2022-09-11T11:02:16Z</time>
      </trkpt>
      <trkpt lat="49.14802" lon="2.00584">
        <ele>162.6</ele>
        <time>2022-09-11T11:02:22Z</time>
      </trkpt>
      <trkpt lat="49.14805" lon="2.00574">
        <ele>162.3</ele>
        <time>2022-09-11T11:02:28Z</time>
      </trkpt>
      <trkpt lat="49.14806" lon="2.00568">
        <ele>162</ele>
        <time>2022-09-11T11:02:33Z</time>
      </trkpt>
      <trkpt lat="49.14809" lon="2.00558">
        <ele>161.5</ele>
        <time>2022-09-11T11:02:39Z</time>
      </trkpt>
      <trkpt lat="49.14811" lon="2.00546">
        <ele>161.3</ele>
        <time>2022-09-11T11:02:44Z</time>
      </trkpt>
      <trkpt lat="49.14812" lon="2.00535">
        <ele>161</ele>
        <time>2022-09-11T11:02:50Z</time>
      </trkpt>
      <trkpt lat="49.14813" lon="2.00528">
        <ele>160.8</ele>
        <time>2022-09-11T11:02:55Z</time>
      </trkpt>
      <trkpt lat="49.14814" lon="2.00519">
        <ele>160.6</ele>
        <time>2022-09-11T11:03:01Z</time>
      </trkpt>
      <trkpt lat="49.14815" lon="2.00509">
        <ele>160.4</ele>
        <time>2022-09-11T11:03:06Z</time>
      </trkpt>
      <trkpt lat="49.14817" lon="2.00497">
        <ele>160</ele>
        <time>2022-09-11T11:03:12Z</time>
      </trkpt>
      <trkpt lat="49.14817" lon="2.00488">
        <ele>159.7</ele>
        <time>2022-09-11T11:03:17Z</time>
      </trkpt>
      <trkpt lat="49.14818" lon="2.0048">
        <ele>159.3</ele>
        <time>2022-09-11T11:03:23Z</time>
      </trkpt>
      <trkpt lat="49.14819" lon="2.00468">
        <ele>158.6</ele>
        <time>2022-09-11T11:03:29Z</time>
      </trkpt>
      <trkpt lat="49.14821" lon="2.00451">
        <ele>157.5</ele>
        <time>2022-09-11T11:03:35Z</time>
      </trkpt>
      <trkpt lat="49.14823" lon="2.00439">
        <ele>157.1</ele>
        <time>2022-09-11T11:03:41Z</time>
      </trkpt>
      <trkpt lat="49.14826" lon="2.00427">
        <ele>156.8</ele>
        <time>2022-09-11T11:03:47Z</time>
      </trkpt>
      <trkpt lat="49.14828" lon="2.00415">
        <ele>156.5</ele>
        <time>2022-09-11T11:03:53Z</time>
      </trkpt>
      <trkpt lat="49.14829" lon="2.00402">
        <ele>156.3</ele>
        <time>2022-09-11T11:03:59Z</time>
      </trkpt>
      <trkpt lat="49.1483" lon="2.00392">
        <ele>156</ele>
        <time>2022-09-11T11:04:04Z</time>
      </trkpt>
      <trkpt lat="49.14831" lon="2.00379">
        <ele>156.2</ele>
        <time>2022-09-11T11:04:10Z</time>
      </trkpt>
      <trkpt lat="49.14831" lon="2.00364">
        <ele>156.7</ele>
        <time>2022-09-11T11:04:16Z</time>
      </trkpt>
      <trkpt lat="49.1483" lon="2.00354">
        <ele>157.1</ele>
        <time>2022-09-11T11:04:22Z</time>
      </trkpt>
      <trkpt lat="49.1483" lon="2.00342">
        <ele>157.5</ele>
        <time>2022-09-11T11:04:27Z</time>
      </trkpt>
      <trkpt lat="49.1483" lon="2.00329">
        <ele>157.9</ele>
        <time>2022-09-11T11:04:33Z</time>
      </trkpt>
      <trkpt lat="49.1483" lon="2.0032">
        <ele>158.2</ele>
        <time>2022-09-11T11:04:38Z</time>
      </trkpt>
      <trkpt lat="49.1483" lon="2.00312">
        <ele>158.4</ele>
        <time>2022-09-11T11:04:43Z</time>
      </trkpt>
      <trkpt lat="49.14831" lon="2.00303">
        <ele>158.7</ele>
        <time>2022-09-11T11:04:49Z</time>
      </trkpt>
      <trkpt lat="49.14831" lon="2.0029">
        <ele>158.8</ele>
        <time>2022-09-11T11:04:55Z</time>
      </trkpt>
      <trkpt lat="49.1483" lon="2.00278">
        <ele>158.8</ele>
        <time>2022-09-11T11:05:00Z</time>
      </trkpt>
      <trkpt lat="49.1483" lon="2.00265">
        <ele>158.7</ele>
        <time>2022-09-11T11:05:06Z</time>
      </trkpt>
      <trkpt lat="49.14828" lon="2.00252">
        <ele>158.6</ele>
        <time>2022-09-11T11:05:12Z</time>
      </trkpt>
      <trkpt lat="49.14826" lon="2.00242">
        <ele>158.8</ele>
        <time>2022-09-11T11:05:18Z</time>
      </trkpt>
      <trkpt lat="49.14825" lon="2.00234">
        <ele>158.9</ele>
        <time>2022-09-11T11:05:23Z</time>
      </trkpt>
      <trkpt lat="49.14823" lon="2.00224">
        <ele>159.2</ele>
        <time>2022-09-11T11:05:29Z</time>
      </trkpt>
      <trkpt lat="49.14822" lon="2.00215">
        <ele>159.3</ele>
        <time>2022-09-11T11:05:34Z</time>
      </trkpt>
      <trkpt lat="49.1482" lon="2.00203">
        <ele>159.4</ele>
        <time>2022-09-11T11:05:40Z</time>
      </trkpt>
      <trkpt lat="49.14819" lon="2.00194">
        <ele>159.5</ele>
        <time>2022-09-11T11:05:45Z</time>
      </trkpt>
      <trkpt lat="49.14819" lon="2.00184">
        <ele>159.6</ele>
        <time>2022-09-11T11:05:51Z</time>
      </trkpt>
      <trkpt lat="49.14818" lon="2.00177">
        <ele>159.8</ele>
        <time>2022-09-11T11:05:56Z</time>
      </trkpt>
      <trkpt lat="49.14818" lon="2.00166">
        <ele>159.9</ele>
        <time>2022-09-11T11:06:02Z</time>
      </trkpt>
      <trkpt lat="49.14817" lon="2.00155">
        <ele>160.2</ele>
        <time>2022-09-11T11:06:08Z</time>
      </trkpt>
      <trkpt lat="49.14816" lon="2.00145">
        <ele>160.5</ele>
        <time>2022-09-11T11:06:13Z</time>
      </trkpt>
      <trkpt lat="49.14814" lon="2.00131">
        <ele>160.6</ele>
        <time>2022-09-11T11:06:19Z</time>
      </trkpt>
      <trkpt lat="49.14814" lon="2.00118">
        <ele>160.6</ele>
        <time>2022-09-11T11:06:25Z</time>
      </trkpt>
      <trkpt lat="49.14814" lon="2.00103">
        <ele>160.6</ele>
        <time>2022-09-11T11:06:31Z</time>
      </trkpt>
      <trkpt lat="49.14814" lon="2.00091">
        <ele>160.6</ele>
        <time>2022-09-11T11:06:37Z</time>
      </trkpt>
      <trkpt lat="49.14815" lon="2.00081">
        <ele>160.7</ele>
        <time>2022-09-11T11:06:42Z</time>
      </trkpt>
      <trkpt lat="49.14817" lon="2.0007">
        <ele>160.8</ele>
        <time>2022-09-11T11:06:48Z</time>
      </trkpt>
      <trkpt lat="49.14819" lon="2.00062">
        <ele>161</ele>
        <time>2022-09-11T11:06:53Z</time>
      </trkpt>
      <trkpt lat="49.14823" lon="2.00052">
        <ele>161.2</ele>
        <time>2022-09-11T11:06:59Z</time>
      </trkpt>
      <trkpt lat="49.14827" lon="2.00042">
        <ele>161.5</ele>
        <time>2022-09-11T11:07:05Z</time>
      </trkpt>
      <trkpt lat="49.14831" lon="2.00035">
        <ele>161.8</ele>
        <time>2022-09-11T11:07:10Z</time>
      </trkpt>
      <trkpt lat="49.14835" lon="2.00029">
        <ele>162.1</ele>
        <time>2022-09-11T11:07:15Z</time>
      </trkpt>
      <trkpt lat="49.1484" lon="2.00019">
        <ele>162.5</ele>
        <time>2022-09-11T11:07:21Z</time>
      </trkpt>
      <trkpt lat="49.14845" lon="2.00009">
        <ele>162.8</ele>
        <time>2022-09-11T11:07:27Z</time>
      </trkpt>
      <trkpt lat="49.14849" lon="2.00002">
        <ele>163.2</ele>
        <time>2022-09-11T11:07:32Z</time>
      </trkpt>
      <trkpt lat="49.14853" lon="1.99992">
        <ele>163.5</ele>
        <time>2022-09-11T11:07:38Z</time>
      </trkpt>
      <trkpt lat="49.14856" lon="1.99983">
        <ele>163.6</ele>
        <time>2022-09-11T11:07:44Z</time>
      </trkpt>
      <trkpt lat="49.14859" lon="1.99973">
        <ele>163.7</ele>
        <time>2022-09-11T11:07:50Z</time>
      </trkpt>
      <trkpt lat="49.14863" lon="1.99963">
        <ele>163.9</ele>
        <time>2022-09-11T11:07:57Z</time>
      </trkpt>
      <trkpt lat="49.14866" lon="1.99952">
        <ele>164</ele>
        <time>2022-09-11T11:08:02Z</time>
      </trkpt>
      <trkpt lat="49.14869" lon="1.99943">
        <ele>164.1</ele>
        <time>2022-09-11T11:08:07Z</time>
      </trkpt>
      <trkpt lat="49.14872" lon="1.99934">
        <ele>164.1</ele>
        <time>2022-09-11T11:08:13Z</time>
      </trkpt>
      <trkpt lat="49.14874" lon="1.99922">
        <ele>164.1</ele>
        <time>2022-09-11T11:08:19Z</time>
      </trkpt>
      <trkpt lat="49.14876" lon="1.99914">
        <ele>164</ele>
        <time>2022-09-11T11:08:24Z</time>
      </trkpt>
      <trkpt lat="49.14878" lon="1.99904">
        <ele>163.8</ele>
        <time>2022-09-11T11:08:30Z</time>
      </trkpt>
      <trkpt lat="49.14881" lon="1.99894">
        <ele>163.4</ele>
        <time>2022-09-11T11:08:36Z</time>
      </trkpt>
      <trkpt lat="49.14883" lon="1.99884">
        <ele>163</ele>
        <time>2022-09-11T11:08:42Z</time>
      </trkpt>
      <trkpt lat="49.14886" lon="1.99876">
        <ele>162.8</ele>
        <time>2022-09-11T11:08:47Z</time>
      </trkpt>
      <trkpt lat="49.14888" lon="1.99866">
        <ele>162.2</ele>
        <time>2022-09-11T11:08:53Z</time>
      </trkpt>
      <trkpt lat="49.1489" lon="1.99854">
        <ele>161.6</ele>
        <time>2022-09-11T11:08:59Z</time>
      </trkpt>
      <trkpt lat="49.14892" lon="1.99844">
        <ele>161</ele>
        <time>2022-09-11T11:09:04Z</time>
      </trkpt>
      <trkpt lat="49.14893" lon="1.99833">
        <ele>160.4</ele>
        <time>2022-09-11T11:09:10Z</time>
      </trkpt>
      <trkpt lat="49.14895" lon="1.99822">
        <ele>159.8</ele>
        <time>2022-09-11T11:09:16Z</time>
      </trkpt>
      <trkpt lat="49.14895" lon="1.99811">
        <ele>159.1</ele>
        <time>2022-09-11T11:09:22Z</time>
      </trkpt>
      <trkpt lat="49.14896" lon="1.99804">
        <ele>158.7</ele>
        <time>2022-09-11T11:09:27Z</time>
      </trkpt>
      <trkpt lat="49.14897" lon="1.99797">
        <ele>158.2</ele>
        <time>2022-09-11T11:09:32Z</time>
      </trkpt>
      <trkpt lat="49.14896" lon="1.99783">
        <ele>157.1</ele>
        <time>2022-09-11T11:09:38Z</time>
      </trkpt>
      <trkpt lat="49.14895" lon="1.99769">
        <ele>156.7</ele>
        <time>2022-09-11T11:09:44Z</time>
      </trkpt>
      <trkpt lat="49.14894" lon="1.99756">
        <ele>156.6</ele>
        <time>2022-09-11T11:09:50Z</time>
      </trkpt>
      <trkpt lat="49.14892" lon="1.99742">
        <ele>156.3</ele>
        <time>2022-09-11T11:09:56Z</time>
      </trkpt>
      <trkpt lat="49.14889" lon="1.99732">
        <ele>156</ele>
        <time>2022-09-11T11:10:02Z</time>
      </trkpt>
      <trkpt lat="49.14886" lon="1.9972">
        <ele>155.7</ele>
        <time>2022-09-11T11:10:07Z</time>
      </trkpt>
      <trkpt lat="49.14883" lon="1.9971">
        <ele>155.4</ele>
        <time>2022-09-11T11:10:13Z</time>
      </trkpt>
      <trkpt lat="49.1488" lon="1.99701">
        <ele>155.3</ele>
        <time>2022-09-11T11:10:18Z</time>
      </trkpt>
      <trkpt lat="49.14878" lon="1.9969">
        <ele>155.3</ele>
        <time>2022-09-11T11:10:24Z</time>
      </trkpt>
      <trkpt lat="49.14875" lon="1.99682">
        <ele>155.5</ele>
        <time>2022-09-11T11:10:29Z</time>
      </trkpt>
      <trkpt lat="49.14873" lon="1.99675">
        <ele>155.6</ele>
        <time>2022-09-11T11:10:34Z</time>
      </trkpt>
      <trkpt lat="49.14872" lon="1.99665">
        <ele>155.9</ele>
        <time>2022-09-11T11:10:40Z</time>
      </trkpt>
      <trkpt lat="49.14871" lon="1.99655">
        <ele>156.1</ele>
        <time>2022-09-11T11:10:46Z</time>
      </trkpt>
      <trkpt lat="49.14868" lon="1.99644">
        <ele>156.3</ele>
        <time>2022-09-11T11:10:51Z</time>
      </trkpt>
      <trkpt lat="49.14864" lon="1.99633">
        <ele>156.6</ele>
        <time>2022-09-11T11:10:56Z</time>
      </trkpt>
      <trkpt lat="49.1486" lon="1.99623">
        <ele>157.1</ele>
        <time>2022-09-11T11:11:01Z</time>
      </trkpt>
      <trkpt lat="49.14855" lon="1.99611">
        <ele>157.6</ele>
        <time>2022-09-11T11:11:07Z</time>
      </trkpt>
      <trkpt lat="49.14853" lon="1.99604">
        <ele>157.9</ele>
        <time>2022-09-11T11:11:12Z</time>
      </trkpt>
      <trkpt lat="49.1485" lon="1.99595">
        <ele>158.3</ele>
        <time>2022-09-11T11:11:18Z</time>
      </trkpt>
      <trkpt lat="49.14847" lon="1.99587">
        <ele>158.7</ele>
        <time>2022-09-11T11:11:24Z</time>
      </trkpt>
      <trkpt lat="49.14843" lon="1.99579">
        <ele>158.9</ele>
        <time>2022-09-11T11:11:29Z</time>
      </trkpt>
      <trkpt lat="49.14838" lon="1.99569">
        <ele>158.9</ele>
        <time>2022-09-11T11:11:35Z</time>
      </trkpt>
      <trkpt lat="49.14833" lon="1.99558">
        <ele>158.9</ele>
        <time>2022-09-11T11:11:41Z</time>
      </trkpt>
      <trkpt lat="49.14829" lon="1.99549">
        <ele>158.7</ele>
        <time>2022-09-11T11:11:46Z</time>
      </trkpt>
      <trkpt lat="49.14847" lon="1.99586">
        <ele>158.8</ele>
      </trkpt>
      <trkpt lat="49.14823" lon="1.99537">
        <ele>158.6</ele>
        <time>2022-09-11T11:11:52Z</time>
      </trkpt>
      <trkpt lat="49.14818" lon="1.99525">
        <ele>158.5</ele>
        <time>2022-09-11T11:11:58Z</time>
      </trkpt>
      <trkpt lat="49.14813" lon="1.99515">
        <ele>158.3</ele>
        <time>2022-09-11T11:12:04Z</time>
      </trkpt>
      <trkpt lat="49.1481" lon="1.99507">
        <ele>158.2</ele>
        <time>2022-09-11T11:12:09Z</time>
      </trkpt>
      <trkpt lat="49.14806" lon="1.99498">
        <ele>158.2</ele>
        <time>2022-09-11T11:12:15Z</time>
      </trkpt>
      <trkpt lat="49.14802" lon="1.99489">
        <ele>158.2</ele>
        <time>2022-09-11T11:12:21Z</time>
      </trkpt>
      <trkpt lat="49.14799" lon="1.99483">
        <ele>158.2</ele>
        <time>2022-09-11T11:12:26Z</time>
      </trkpt>
      <trkpt lat="49.14796" lon="1.99475">
        <ele>158.2</ele>
        <time>2022-09-11T11:12:32Z</time>
      </trkpt>
      <trkpt lat="49.14791" lon="1.99464">
        <ele>158.3</ele>
        <time>2022-09-11T11:12:37Z</time>
      </trkpt>
      <trkpt lat="49.14787" lon="1.99453">
        <ele>158.3</ele>
        <time>2022-09-11T11:12:43Z</time>
      </trkpt>
      <trkpt lat="49.14783" lon="1.99442">
        <ele>158.5</ele>
        <time>2022-09-11T11:12:49Z</time>
      </trkpt>
      <trkpt lat="49.14779" lon="1.99429">
        <ele>158.6</ele>
        <time>2022-09-11T11:12:54Z</time>
      </trkpt>
      <trkpt lat="49.14776" lon="1.99419">
        <ele>158.7</ele>
        <time>2022-09-11T11:12:59Z</time>
      </trkpt>
      <trkpt lat="49.14773" lon="1.99407">
        <ele>158.4</ele>
        <time>2022-09-11T11:13:05Z</time>
      </trkpt>
      <trkpt lat="49.14772" lon="1.99398">
        <ele>158.4</ele>
        <time>2022-09-11T11:13:10Z</time>
      </trkpt>
      <trkpt lat="49.14772" lon="1.9939">
        <ele>158.4</ele>
        <time>2022-09-11T11:13:16Z</time>
      </trkpt>
      <trkpt lat="49.14772" lon="1.99382">
        <ele>158.3</ele>
        <time>2022-09-11T11:13:21Z</time>
      </trkpt>
      <trkpt lat="49.14771" lon="1.99367">
        <ele>158.3</ele>
        <time>2022-09-11T11:13:26Z</time>
      </trkpt>
      <trkpt lat="49.14771" lon="1.99352">
        <ele>158.2</ele>
        <time>2022-09-11T11:13:32Z</time>
      </trkpt>
      <trkpt lat="49.14771" lon="1.99337">
        <ele>158.2</ele>
        <time>2022-09-11T11:13:40Z</time>
      </trkpt>
      <trkpt lat="49.14771" lon="1.99322">
        <ele>157.8</ele>
        <time>2022-09-11T11:13:45Z</time>
      </trkpt>
      <trkpt lat="49.14772" lon="1.99317">
        <ele>157.7</ele>
        <time>2022-09-11T11:13:51Z</time>
      </trkpt>
      <trkpt lat="49.14772" lon="1.99315">
        <ele>157.7</ele>
        <time>2022-09-11T11:13:56Z</time>
      </trkpt>
      <trkpt lat="49.14774" lon="1.99307">
        <ele>157.6</ele>
        <time>2022-09-11T11:14:02Z</time>
      </trkpt>
      <trkpt lat="49.14777" lon="1.99299">
        <ele>157.9</ele>
        <time>2022-09-11T11:14:08Z</time>
      </trkpt>
      <trkpt lat="49.14781" lon="1.99288">
        <ele>158.4</ele>
        <time>2022-09-11T11:14:13Z</time>
      </trkpt>
      <trkpt lat="49.14785" lon="1.9928">
        <ele>158.8</ele>
        <time>2022-09-11T11:14:18Z</time>
      </trkpt>
      <trkpt lat="49.14789" lon="1.9927">
        <ele>158.9</ele>
        <time>2022-09-11T11:14:24Z</time>
      </trkpt>
      <trkpt lat="49.14793" lon="1.99264">
        <ele>159.1</ele>
        <time>2022-09-11T11:14:29Z</time>
      </trkpt>
      <trkpt lat="49.14796" lon="1.99256">
        <ele>159.2</ele>
        <time>2022-09-11T11:14:35Z</time>
      </trkpt>
      <trkpt lat="49.14799" lon="1.99245">
        <ele>159</ele>
        <time>2022-09-11T11:14:40Z</time>
      </trkpt>
      <trkpt lat="49.14801" lon="1.99237">
        <ele>158.7</ele>
        <time>2022-09-11T11:14:45Z</time>
      </trkpt>
      <trkpt lat="49.14802" lon="1.99224">
        <ele>158</ele>
        <time>2022-09-11T11:14:51Z</time>
      </trkpt>
      <trkpt lat="49.14804" lon="1.99212">
        <ele>157.6</ele>
        <time>2022-09-11T11:14:56Z</time>
      </trkpt>
      <trkpt lat="49.14804" lon="1.99203">
        <ele>157.2</ele>
        <time>2022-09-11T11:15:02Z</time>
      </trkpt>
      <trkpt lat="49.14808" lon="1.99193">
        <ele>157.1</ele>
        <time>2022-09-11T11:15:08Z</time>
      </trkpt>
      <trkpt lat="49.1481" lon="1.99185">
        <ele>156.7</ele>
        <time>2022-09-11T11:15:13Z</time>
      </trkpt>
      <trkpt lat="49.14808" lon="1.99176">
        <ele>155.9</ele>
        <time>2022-09-11T11:15:18Z</time>
      </trkpt>
      <trkpt lat="49.14804" lon="1.99169">
        <ele>155.1</ele>
        <time>2022-09-11T11:15:24Z</time>
      </trkpt>
      <trkpt lat="49.14799" lon="1.99161">
        <ele>154.5</ele>
        <time>2022-09-11T11:15:29Z</time>
      </trkpt>
      <trkpt lat="49.14794" lon="1.99156">
        <ele>154.1</ele>
        <time>2022-09-11T11:15:35Z</time>
      </trkpt>
      <trkpt lat="49.1479" lon="1.9915">
        <ele>153.5</ele>
        <time>2022-09-11T11:15:40Z</time>
      </trkpt>
      <trkpt lat="49.14782" lon="1.99146">
        <ele>152.8</ele>
        <time>2022-09-11T11:15:46Z</time>
      </trkpt>
      <trkpt lat="49.14776" lon="1.99144">
        <ele>152.2</ele>
        <time>2022-09-11T11:15:51Z</time>
      </trkpt>
      <trkpt lat="49.14771" lon="1.99139">
        <ele>151.5</ele>
        <time>2022-09-11T11:15:57Z</time>
      </trkpt>
      <trkpt lat="49.14764" lon="1.99132">
        <ele>150.9</ele>
        <time>2022-09-11T11:16:03Z</time>
      </trkpt>
      <trkpt lat="49.14759" lon="1.99125">
        <ele>150.3</ele>
        <time>2022-09-11T11:16:08Z</time>
      </trkpt>
      <trkpt lat="49.14755" lon="1.99118">
        <ele>149.8</ele>
        <time>2022-09-11T11:16:15Z</time>
      </trkpt>
      <trkpt lat="49.14752" lon="1.99109">
        <ele>149.2</ele>
        <time>2022-09-11T11:16:20Z</time>
      </trkpt>
      <trkpt lat="49.1475" lon="1.99102">
        <ele>148.6</ele>
        <time>2022-09-11T11:16:25Z</time>
      </trkpt>
      <trkpt lat="49.14746" lon="1.99095">
        <ele>148</ele>
        <time>2022-09-11T11:16:31Z</time>
      </trkpt>
      <trkpt lat="49.14742" lon="1.99087">
        <ele>147.2</ele>
        <time>2022-09-11T11:16:36Z</time>
      </trkpt>
      <trkpt lat="49.14734" lon="1.99075">
        <ele>146.2</ele>
        <time>2022-09-11T11:16:42Z</time>
      </trkpt>
      <trkpt lat="49.14727" lon="1.99066">
        <ele>145.5</ele>
        <time>2022-09-11T11:16:47Z</time>
      </trkpt>
      <trkpt lat="49.14721" lon="1.99056">
        <ele>144.9</ele>
        <time>2022-09-11T11:16:53Z</time>
      </trkpt>
      <trkpt lat="49.14716" lon="1.99047">
        <ele>144</ele>
        <time>2022-09-11T11:16:58Z</time>
      </trkpt>
      <trkpt lat="49.14711" lon="1.99038">
        <ele>143.4</ele>
        <time>2022-09-11T11:17:03Z</time>
      </trkpt>
      <trkpt lat="49.14706" lon="1.99027">
        <ele>142.8</ele>
        <time>2022-09-11T11:17:09Z</time>
      </trkpt>
      <trkpt lat="49.14703" lon="1.99019">
        <ele>142.4</ele>
        <time>2022-09-11T11:17:14Z</time>
      </trkpt>
      <trkpt lat="49.14698" lon="1.99007">
        <ele>141.6</ele>
        <time>2022-09-11T11:17:20Z</time>
      </trkpt>
      <trkpt lat="49.14693" lon="1.98998">
        <ele>140.7</ele>
        <time>2022-09-11T11:17:25Z</time>
      </trkpt>
      <trkpt lat="49.14687" lon="1.9899">
        <ele>139.9</ele>
        <time>2022-09-11T11:17:30Z</time>
      </trkpt>
      <trkpt lat="49.14681" lon="1.98981">
        <ele>139.2</ele>
        <time>2022-09-11T11:17:36Z</time>
      </trkpt>
      <trkpt lat="49.14674" lon="1.9897">
        <ele>138.4</ele>
        <time>2022-09-11T11:17:42Z</time>
      </trkpt>
      <trkpt lat="49.14669" lon="1.98962">
        <ele>137.8</ele>
        <time>2022-09-11T11:17:47Z</time>
      </trkpt>
      <trkpt lat="49.14664" lon="1.98955">
        <ele>137.2</ele>
        <time>2022-09-11T11:17:53Z</time>
      </trkpt>
      <trkpt lat="49.14659" lon="1.98947">
        <ele>136.5</ele>
        <time>2022-09-11T11:17:59Z</time>
      </trkpt>
      <trkpt lat="49.14655" lon="1.98939">
        <ele>136</ele>
        <time>2022-09-11T11:18:05Z</time>
      </trkpt>
      <trkpt lat="49.14651" lon="1.98932">
        <ele>135.6</ele>
        <time>2022-09-11T11:18:10Z</time>
      </trkpt>
      <trkpt lat="49.14645" lon="1.98924">
        <ele>134.8</ele>
        <time>2022-09-11T11:18:16Z</time>
      </trkpt>
      <trkpt lat="49.14639" lon="1.98917">
        <ele>134</ele>
        <time>2022-09-11T11:18:21Z</time>
      </trkpt>
      <trkpt lat="49.14634" lon="1.98911">
        <ele>133.4</ele>
        <time>2022-09-11T11:18:26Z</time>
      </trkpt>
      <trkpt lat="49.14629" lon="1.989">
        <ele>132.7</ele>
        <time>2022-09-11T11:18:32Z</time>
      </trkpt>
      <trkpt lat="49.14626" lon="1.9889">
        <ele>132.1</ele>
        <time>2022-09-11T11:18:37Z</time>
      </trkpt>
      <trkpt lat="49.14622" lon="1.98877">
        <ele>131.4</ele>
        <time>2022-09-11T11:18:43Z</time>
      </trkpt>
      <trkpt lat="49.14619" lon="1.98867">
        <ele>130.7</ele>
        <time>2022-09-11T11:18:48Z</time>
      </trkpt>
      <trkpt lat="49.14614" lon="1.98851">
        <ele>129.9</ele>
        <time>2022-09-11T11:18:55Z</time>
      </trkpt>
      <trkpt lat="49.14611" lon="1.98841">
        <ele>129.3</ele>
        <time>2022-09-11T11:19:00Z</time>
      </trkpt>
      <trkpt lat="49.14607" lon="1.98832">
        <ele>128.9</ele>
        <time>2022-09-11T11:19:05Z</time>
      </trkpt>
      <trkpt lat="49.14603" lon="1.98822">
        <ele>128.7</ele>
        <time>2022-09-11T11:19:11Z</time>
      </trkpt>
      <trkpt lat="49.14599" lon="1.98815">
        <ele>128.6</ele>
        <time>2022-09-11T11:19:16Z</time>
      </trkpt>
      <trkpt lat="49.14595" lon="1.98806">
        <ele>128.4</ele>
        <time>2022-09-11T11:19:22Z</time>
      </trkpt>
      <trkpt lat="49.14591" lon="1.98799">
        <ele>128.1</ele>
        <time>2022-09-11T11:19:27Z</time>
      </trkpt>
      <trkpt lat="49.14587" lon="1.98794">
        <ele>127.8</ele>
        <time>2022-09-11T11:19:32Z</time>
      </trkpt>
      <trkpt lat="49.14582" lon="1.98786">
        <ele>127.2</ele>
        <time>2022-09-11T11:19:38Z</time>
      </trkpt>
      <trkpt lat="49.14578" lon="1.98779">
        <ele>126.9</ele>
        <time>2022-09-11T11:19:43Z</time>
      </trkpt>
      <trkpt lat="49.14572" lon="1.9877">
        <ele>126.6</ele>
        <time>2022-09-11T11:19:49Z</time>
      </trkpt>
      <trkpt lat="49.14564" lon="1.98762">
        <ele>126.3</ele>
        <time>2022-09-11T11:19:55Z</time>
      </trkpt>
      <trkpt lat="49.14557" lon="1.98752">
        <ele>126</ele>
        <time>2022-09-11T11:20:01Z</time>
      </trkpt>
      <trkpt lat="49.14551" lon="1.98744">
        <ele>125.8</ele>
        <time>2022-09-11T11:20:07Z</time>
      </trkpt>
      <trkpt lat="49.14545" lon="1.98733">
        <ele>125.4</ele>
        <time>2022-09-11T11:20:13Z</time>
      </trkpt>
      <trkpt lat="49.14538" lon="1.98719">
        <ele>124.7</ele>
        <time>2022-09-11T11:20:19Z</time>
      </trkpt>
      <trkpt lat="49.14533" lon="1.98707">
        <ele>124.3</ele>
        <time>2022-09-11T11:20:24Z</time>
      </trkpt>
      <trkpt lat="49.14529" lon="1.98693">
        <ele>124</ele>
        <time>2022-09-11T11:20:30Z</time>
      </trkpt>
      <trkpt lat="49.14524" lon="1.9868">
        <ele>124</ele>
        <time>2022-09-11T11:20:36Z</time>
      </trkpt>
      <trkpt lat="49.1452" lon="1.9867">
        <ele>124</ele>
        <time>2022-09-11T11:20:41Z</time>
      </trkpt>
      <trkpt lat="49.14516" lon="1.98659">
        <ele>123.9</ele>
        <time>2022-09-11T11:20:47Z</time>
      </trkpt>
      <trkpt lat="49.14513" lon="1.98649">
        <ele>123.7</ele>
        <time>2022-09-11T11:20:52Z</time>
      </trkpt>
      <trkpt lat="49.14509" lon="1.98636">
        <ele>123.3</ele>
        <time>2022-09-11T11:20:58Z</time>
      </trkpt>
      <trkpt lat="49.14506" lon="1.98624">
        <ele>123.1</ele>
        <time>2022-09-11T11:21:04Z</time>
      </trkpt>
      <trkpt lat="49.14504" lon="1.98616">
        <ele>123</ele>
        <time>2022-09-11T11:21:09Z</time>
      </trkpt>
      <trkpt lat="49.145" lon="1.98603">
        <ele>123</ele>
        <time>2022-09-11T11:21:15Z</time>
      </trkpt>
      <trkpt lat="49.14496" lon="1.9859">
        <ele>122.8</ele>
        <time>2022-09-11T11:21:21Z</time>
      </trkpt>
      <trkpt lat="49.14493" lon="1.98577">
        <ele>122.6</ele>
        <time>2022-09-11T11:21:27Z</time>
      </trkpt>
      <trkpt lat="49.14492" lon="1.98567">
        <ele>122.3</ele>
        <time>2022-09-11T11:21:33Z</time>
      </trkpt>
      <trkpt lat="49.1449" lon="1.98558">
        <ele>122.1</ele>
        <time>2022-09-11T11:21:38Z</time>
      </trkpt>
      <trkpt lat="49.14491" lon="1.98554">
        <ele>122</ele>
        <time>2022-09-11T11:21:44Z</time>
      </trkpt>
      <trkpt lat="49.14496" lon="1.98551">
        <ele>122</ele>
        <time>2022-09-11T11:21:50Z</time>
      </trkpt>
      <trkpt lat="49.14494" lon="1.98552">
        <ele>122</ele>
        <time>2022-09-11T11:22:17Z</time>
      </trkpt>
      <trkpt lat="49.14489" lon="1.98542">
        <ele>122</ele>
        <time>2022-09-11T11:22:23Z</time>
      </trkpt>
      <trkpt lat="49.14485" lon="1.98531">
        <ele>122</ele>
        <time>2022-09-11T11:22:28Z</time>
      </trkpt>
      <trkpt lat="49.14485" lon="1.9852">
        <ele>121.7</ele>
        <time>2022-09-11T11:22:34Z</time>
      </trkpt>
      <trkpt lat="49.1449" lon="1.98512">
        <ele>121.4</ele>
        <time>2022-09-11T11:22:40Z</time>
      </trkpt>
      <trkpt lat="49.14498" lon="1.98507">
        <ele>121.3</ele>
        <time>2022-09-11T11:22:46Z</time>
      </trkpt>
      <trkpt lat="49.14505" lon="1.98504">
        <ele>121.1</ele>
        <time>2022-09-11T11:22:51Z</time>
      </trkpt>
      <trkpt lat="49.14513" lon="1.985">
        <ele>121</ele>
        <time>2022-09-11T11:22:56Z</time>
      </trkpt>
      <trkpt lat="49.1452" lon="1.98495">
        <ele>121</ele>
        <time>2022-09-11T11:23:02Z</time>
      </trkpt>
      <trkpt lat="49.14526" lon="1.9849">
        <ele>121</ele>
        <time>2022-09-11T11:23:07Z</time>
      </trkpt>
      <trkpt lat="49.14534" lon="1.98486">
        <ele>121</ele>
        <time>2022-09-11T11:23:13Z</time>
      </trkpt>
      <trkpt lat="49.14539" lon="1.98482">
        <ele>121</ele>
        <time>2022-09-11T11:23:18Z</time>
      </trkpt>
      <trkpt lat="49.14543" lon="1.98478">
        <ele>121</ele>
        <time>2022-09-11T11:23:23Z</time>
      </trkpt>
      <trkpt lat="49.14549" lon="1.98476">
        <ele>121</ele>
        <time>2022-09-11T11:23:29Z</time>
      </trkpt>
      <trkpt lat="49.14556" lon="1.98474">
        <ele>121</ele>
        <time>2022-09-11T11:23:35Z</time>
      </trkpt>
      <trkpt lat="49.14561" lon="1.98472">
        <ele>120.8</ele>
        <time>2022-09-11T11:23:40Z</time>
      </trkpt>
      <trkpt lat="49.14567" lon="1.98473">
        <ele>120.6</ele>
        <time>2022-09-11T11:23:45Z</time>
      </trkpt>
      <trkpt lat="49.14574" lon="1.98472">
        <ele>120.3</ele>
        <time>2022-09-11T11:23:51Z</time>
      </trkpt>
      <trkpt lat="49.14581" lon="1.9847">
        <ele>120.1</ele>
        <time>2022-09-11T11:23:56Z</time>
      </trkpt>
      <trkpt lat="49.14588" lon="1.98464">
        <ele>119.9</ele>
        <time>2022-09-11T11:24:02Z</time>
      </trkpt>
      <trkpt lat="49.14594" lon="1.9846">
        <ele>119.8</ele>
        <time>2022-09-11T11:24:07Z</time>
      </trkpt>
      <trkpt lat="49.14599" lon="1.98451">
        <ele>119.6</ele>
        <time>2022-09-11T11:24:13Z</time>
      </trkpt>
      <trkpt lat="49.14603" lon="1.98441">
        <ele>119.3</ele>
        <time>2022-09-11T11:24:18Z</time>
      </trkpt>
      <trkpt lat="49.14604" lon="1.98428">
        <ele>119.2</ele>
        <time>2022-09-11T11:24:24Z</time>
      </trkpt>
      <trkpt lat="49.14606" lon="1.98415">
        <ele>119.1</ele>
        <time>2022-09-11T11:24:29Z</time>
      </trkpt>
      <trkpt lat="49.14609" lon="1.984">
        <ele>118.5</ele>
        <time>2022-09-11T11:24:35Z</time>
      </trkpt>
      <trkpt lat="49.14613" lon="1.98389">
        <ele>118</ele>
        <time>2022-09-11T11:24:40Z</time>
      </trkpt>
      <trkpt lat="49.14618" lon="1.98377">
        <ele>118</ele>
        <time>2022-09-11T11:24:46Z</time>
      </trkpt>
      <trkpt lat="49.14621" lon="1.98368">
        <ele>118</ele>
        <time>2022-09-11T11:24:52Z</time>
      </trkpt>
      <trkpt lat="49.14625" lon="1.9836">
        <ele>118</ele>
        <time>2022-09-11T11:24:57Z</time>
      </trkpt>
      <trkpt lat="49.1463" lon="1.98347">
        <ele>117.8</ele>
        <time>2022-09-11T11:25:03Z</time>
      </trkpt>
      <trkpt lat="49.14633" lon="1.98336">
        <ele>117.8</ele>
        <time>2022-09-11T11:25:08Z</time>
      </trkpt>
      <trkpt lat="49.14638" lon="1.98326">
        <ele>118</ele>
        <time>2022-09-11T11:25:14Z</time>
      </trkpt>
      <trkpt lat="49.14644" lon="1.98313">
        <ele>118</ele>
        <time>2022-09-11T11:25:19Z</time>
      </trkpt>
      <trkpt lat="49.14648" lon="1.98303">
        <ele>117.9</ele>
        <time>2022-09-11T11:25:24Z</time>
      </trkpt>
      <trkpt lat="49.14653" lon="1.98293">
        <ele>117.8</ele>
        <time>2022-09-11T11:25:30Z</time>
      </trkpt>
      <trkpt lat="49.14659" lon="1.98281">
        <ele>117.8</ele>
        <time>2022-09-11T11:25:36Z</time>
      </trkpt>
      <trkpt lat="49.14664" lon="1.98271">
        <ele>117.9</ele>
        <time>2022-09-11T11:25:42Z</time>
      </trkpt>
      <trkpt lat="49.14668" lon="1.98263">
        <ele>118</ele>
        <time>2022-09-11T11:25:47Z</time>
      </trkpt>
      <trkpt lat="49.14673" lon="1.98253">
        <ele>118</ele>
        <time>2022-09-11T11:25:53Z</time>
      </trkpt>
      <trkpt lat="49.14678" lon="1.98246">
        <ele>118</ele>
        <time>2022-09-11T11:25:59Z</time>
      </trkpt>
      <trkpt lat="49.14683" lon="1.98238">
        <ele>118</ele>
        <time>2022-09-11T11:26:04Z</time>
      </trkpt>
      <trkpt lat="49.14687" lon="1.98226">
        <ele>118</ele>
        <time>2022-09-11T11:26:10Z</time>
      </trkpt>
      <trkpt lat="49.1469" lon="1.98214">
        <ele>118</ele>
        <time>2022-09-11T11:26:16Z</time>
      </trkpt>
      <trkpt lat="49.14693" lon="1.982">
        <ele>118</ele>
        <time>2022-09-11T11:26:22Z</time>
      </trkpt>
      <trkpt lat="49.14694" lon="1.98191">
        <ele>118.1</ele>
        <time>2022-09-11T11:26:28Z</time>
      </trkpt>
      <trkpt lat="49.14695" lon="1.98186">
        <ele>118.3</ele>
        <time>2022-09-11T11:26:33Z</time>
      </trkpt>
      <trkpt lat="49.14698" lon="1.98178">
        <ele>118.8</ele>
        <time>2022-09-11T11:26:39Z</time>
      </trkpt>
      <trkpt lat="49.14702" lon="1.98168">
        <ele>119.2</ele>
        <time>2022-09-11T11:26:44Z</time>
      </trkpt>
      <trkpt lat="49.14706" lon="1.98159">
        <ele>119.1</ele>
        <time>2022-09-11T11:26:49Z</time>
      </trkpt>
      <trkpt lat="49.14709" lon="1.9815">
        <ele>118.9</ele>
        <time>2022-09-11T11:26:54Z</time>
      </trkpt>
      <trkpt lat="49.14713" lon="1.98142">
        <ele>118.8</ele>
        <time>2022-09-11T11:27:00Z</time>
      </trkpt>
      <trkpt lat="49.14718" lon="1.98137">
        <ele>118.6</ele>
        <time>2022-09-11T11:27:05Z</time>
      </trkpt>
      <trkpt lat="49.14724" lon="1.9813">
        <ele>118.2</ele>
        <time>2022-09-11T11:27:10Z</time>
      </trkpt>
      <trkpt lat="49.14727" lon="1.98126">
        <ele>118.4</ele>
        <time>2022-09-11T11:27:16Z</time>
      </trkpt>
      <trkpt lat="49.14728" lon="1.98124">
        <ele>118.4</ele>
        <time>2022-09-11T11:27:21Z</time>
      </trkpt>
      <trkpt lat="49.14724" lon="1.98127">
        <ele>118</ele>
        <time>2022-09-11T11:27:27Z</time>
      </trkpt>
      <trkpt lat="49.1472" lon="1.98129">
        <ele>118</ele>
        <time>2022-09-11T11:27:33Z</time>
      </trkpt>
      <trkpt lat="49.14717" lon="1.98131">
        <ele>118.1</ele>
        <time>2022-09-11T11:27:39Z</time>
      </trkpt>
      <trkpt lat="49.14716" lon="1.9813">
        <ele>118</ele>
        <time>2022-09-11T11:27:45Z</time>
      </trkpt>
      <trkpt lat="49.14716" lon="1.98125">
        <ele>117.6</ele>
        <time>2022-09-11T11:27:51Z</time>
      </trkpt>
      <trkpt lat="49.14717" lon="1.98124">
        <ele>117.5</ele>
        <time>2022-09-11T11:27:56Z</time>
      </trkpt>
      <trkpt lat="49.14719" lon="1.98121">
        <ele>117.2</ele>
        <time>2022-09-11T11:28:07Z</time>
      </trkpt>
      <trkpt lat="49.14722" lon="1.98112">
        <ele>116.1</ele>
        <time>2022-09-11T11:28:13Z</time>
      </trkpt>
      <trkpt lat="49.14718" lon="1.98099">
        <ele>116.6</ele>
        <time>2022-09-11T11:28:19Z</time>
      </trkpt>
      <trkpt lat="49.14714" lon="1.98086">
        <ele>117</ele>
        <time>2022-09-11T11:28:24Z</time>
      </trkpt>
      <trkpt lat="49.14711" lon="1.98074">
        <ele>116.9</ele>
        <time>2022-09-11T11:28:30Z</time>
      </trkpt>
      <trkpt lat="49.14707" lon="1.98061">
        <ele>116.6</ele>
        <time>2022-09-11T11:28:36Z</time>
      </trkpt>
      <trkpt lat="49.14702" lon="1.9805">
        <ele>116.3</ele>
        <time>2022-09-11T11:28:42Z</time>
      </trkpt>
      <trkpt lat="49.14698" lon="1.9804">
        <ele>116.2</ele>
        <time>2022-09-11T11:28:47Z</time>
      </trkpt>
      <trkpt lat="49.14694" lon="1.98029">
        <ele>116</ele>
        <time>2022-09-11T11:28:53Z</time>
      </trkpt>
      <trkpt lat="49.1469" lon="1.98016">
        <ele>115.8</ele>
        <time>2022-09-11T11:28:59Z</time>
      </trkpt>
      <trkpt lat="49.14686" lon="1.98005">
        <ele>115.7</ele>
        <time>2022-09-11T11:29:04Z</time>
      </trkpt>
      <trkpt lat="49.14682" lon="1.97992">
        <ele>115.7</ele>
        <time>2022-09-11T11:29:11Z</time>
      </trkpt>
      <trkpt lat="49.14677" lon="1.9798">
        <ele>115.7</ele>
        <time>2022-09-11T11:29:16Z</time>
      </trkpt>
      <trkpt lat="49.14674" lon="1.97969">
        <ele>115.4</ele>
        <time>2022-09-11T11:29:22Z</time>
      </trkpt>
      <trkpt lat="49.1467" lon="1.97956">
        <ele>114.6</ele>
        <time>2022-09-11T11:29:28Z</time>
      </trkpt>
      <trkpt lat="49.14666" lon="1.97944">
        <ele>114</ele>
        <time>2022-09-11T11:29:33Z</time>
      </trkpt>
      <trkpt lat="49.14663" lon="1.97929">
        <ele>113.9</ele>
        <time>2022-09-11T11:29:39Z</time>
      </trkpt>
      <trkpt lat="49.14659" lon="1.97918">
        <ele>113.7</ele>
        <time>2022-09-11T11:29:45Z</time>
      </trkpt>
      <trkpt lat="49.14656" lon="1.9791">
        <ele>113.6</ele>
        <time>2022-09-11T11:29:50Z</time>
      </trkpt>
      <trkpt lat="49.14653" lon="1.97899">
        <ele>113.5</ele>
        <time>2022-09-11T11:29:56Z</time>
      </trkpt>
      <trkpt lat="49.14651" lon="1.97888">
        <ele>113.4</ele>
        <time>2022-09-11T11:30:01Z</time>
      </trkpt>
      <trkpt lat="49.14649" lon="1.97877">
        <ele>113.3</ele>
        <time>2022-09-11T11:30:06Z</time>
      </trkpt>
      <trkpt lat="49.14646" lon="1.97866">
        <ele>113.2</ele>
        <time>2022-09-11T11:30:12Z</time>
      </trkpt>
      <trkpt lat="49.14643" lon="1.97858">
        <ele>113</ele>
        <time>2022-09-11T11:30:17Z</time>
      </trkpt>
      <trkpt lat="49.14638" lon="1.97846">
        <ele>112.4</ele>
        <time>2022-09-11T11:30:23Z</time>
      </trkpt>
      <trkpt lat="49.14635" lon="1.97833">
        <ele>111.9</ele>
        <time>2022-09-11T11:30:29Z</time>
      </trkpt>
      <trkpt lat="49.14633" lon="1.97822">
        <ele>111.8</ele>
        <time>2022-09-11T11:30:35Z</time>
      </trkpt>
      <trkpt lat="49.1463" lon="1.9781">
        <ele>111.7</ele>
        <time>2022-09-11T11:30:40Z</time>
      </trkpt>
      <trkpt lat="49.14629" lon="1.97802">
        <ele>111.5</ele>
        <time>2022-09-11T11:30:46Z</time>
      </trkpt>
      <trkpt lat="49.14627" lon="1.97788">
        <ele>110.9</ele>
        <time>2022-09-11T11:30:51Z</time>
      </trkpt>
      <trkpt lat="49.14625" lon="1.97774">
        <ele>110.5</ele>
        <time>2022-09-11T11:30:57Z</time>
      </trkpt>
      <trkpt lat="49.14622" lon="1.97759">
        <ele>110.4</ele>
        <time>2022-09-11T11:31:03Z</time>
      </trkpt>
      <trkpt lat="49.14618" lon="1.97748">
        <ele>110.2</ele>
        <time>2022-09-11T11:31:08Z</time>
      </trkpt>
      <trkpt lat="49.14616" lon="1.97735">
        <ele>110.2</ele>
        <time>2022-09-11T11:31:14Z</time>
      </trkpt>
      <trkpt lat="49.14615" lon="1.97722">
        <ele>110.1</ele>
        <time>2022-09-11T11:31:20Z</time>
      </trkpt>
      <trkpt lat="49.14614" lon="1.97711">
        <ele>109.7</ele>
        <time>2022-09-11T11:31:25Z</time>
      </trkpt>
      <trkpt lat="49.14612" lon="1.97695">
        <ele>109.1</ele>
        <time>2022-09-11T11:31:33Z</time>
      </trkpt>
      <trkpt lat="49.1461" lon="1.97687">
        <ele>109</ele>
        <time>2022-09-11T11:31:39Z</time>
      </trkpt>
      <trkpt lat="49.1461" lon="1.97691">
        <ele>109</ele>
        <time>2022-09-11T11:31:45Z</time>
      </trkpt>
      <trkpt lat="49.14613" lon="1.977">
        <ele>109.2</ele>
        <time>2022-09-11T11:31:50Z</time>
      </trkpt>
      <trkpt lat="49.14611" lon="1.977">
        <ele>109.2</ele>
        <time>2022-09-11T11:32:02Z</time>
      </trkpt>
      <trkpt lat="49.14608" lon="1.97694">
        <ele>109</ele>
        <time>2022-09-11T11:32:07Z</time>
      </trkpt>
      <trkpt lat="49.14601" lon="1.97701">
        <ele>109.1</ele>
        <time>2022-09-11T11:32:13Z</time>
      </trkpt>
      <trkpt lat="49.14597" lon="1.97713">
        <ele>109.3</ele>
        <time>2022-09-11T11:32:19Z</time>
      </trkpt>
      <trkpt lat="49.14593" lon="1.97724">
        <ele>109.4</ele>
        <time>2022-09-11T11:32:25Z</time>
      </trkpt>
      <trkpt lat="49.14589" lon="1.97733">
        <ele>109.5</ele>
        <time>2022-09-11T11:32:31Z</time>
      </trkpt>
      <trkpt lat="49.14583" lon="1.97743">
        <ele>109.7</ele>
        <time>2022-09-11T11:32:37Z</time>
      </trkpt>
      <trkpt lat="49.14577" lon="1.97752">
        <ele>109.8</ele>
        <time>2022-09-11T11:32:42Z</time>
      </trkpt>
      <trkpt lat="49.1457" lon="1.97754">
        <ele>109.5</ele>
        <time>2022-09-11T11:32:48Z</time>
      </trkpt>
      <trkpt lat="49.14566" lon="1.97762">
        <ele>109.4</ele>
        <time>2022-09-11T11:32:53Z</time>
      </trkpt>
      <trkpt lat="49.14564" lon="1.97773">
        <ele>109.3</ele>
        <time>2022-09-11T11:32:58Z</time>
      </trkpt>
      <trkpt lat="49.14563" lon="1.97781">
        <ele>109.2</ele>
        <time>2022-09-11T11:33:03Z</time>
      </trkpt>
      <trkpt lat="49.14557" lon="1.97792">
        <ele>108.6</ele>
        <time>2022-09-11T11:33:08Z</time>
      </trkpt>
      <trkpt lat="49.14554" lon="1.9779">
        <ele>108.5</ele>
        <time>2022-09-11T11:33:14Z</time>
      </trkpt>
      <trkpt lat="49.14554" lon="1.97781">
        <ele>108.8</ele>
        <time>2022-09-11T11:33:20Z</time>
      </trkpt>
      <trkpt lat="49.14554" lon="1.97766">
        <ele>108.9</ele>
        <time>2022-09-11T11:33:25Z</time>
      </trkpt>
      <trkpt lat="49.14553" lon="1.97751">
        <ele>108.9</ele>
        <time>2022-09-11T11:33:31Z</time>
      </trkpt>
      <trkpt lat="49.14551" lon="1.97742">
        <ele>108.8</ele>
        <time>2022-09-11T11:33:36Z</time>
      </trkpt>
      <trkpt lat="49.14552" lon="1.97729">
        <ele>108.9</ele>
        <time>2022-09-11T11:33:42Z</time>
      </trkpt>
      <trkpt lat="49.1455" lon="1.97713">
        <ele>108.5</ele>
        <time>2022-09-11T11:33:48Z</time>
      </trkpt>
      <trkpt lat="49.14551" lon="1.97702">
        <ele>108.1</ele>
        <time>2022-09-11T11:33:53Z</time>
      </trkpt>
      <trkpt lat="49.14548" lon="1.9769">
        <ele>107.7</ele>
        <time>2022-09-11T11:33:58Z</time>
      </trkpt>
      <trkpt lat="49.14547" lon="1.9768">
        <ele>107.7</ele>
        <time>2022-09-11T11:34:03Z</time>
      </trkpt>
      <trkpt lat="49.14547" lon="1.97665">
        <ele>107.7</ele>
        <time>2022-09-11T11:34:09Z</time>
      </trkpt>
      <trkpt lat="49.14545" lon="1.97653">
        <ele>107.6</ele>
        <time>2022-09-11T11:34:14Z</time>
      </trkpt>
      <trkpt lat="49.14544" lon="1.97641">
        <ele>107.6</ele>
        <time>2022-09-11T11:34:20Z</time>
      </trkpt>
      <trkpt lat="49.14543" lon="1.9763">
        <ele>107.4</ele>
        <time>2022-09-11T11:34:25Z</time>
      </trkpt>
      <trkpt lat="49.14543" lon="1.97617">
        <ele>107.1</ele>
        <time>2022-09-11T11:34:31Z</time>
      </trkpt>
      <trkpt lat="49.14544" lon="1.97605">
        <ele>107</ele>
        <time>2022-09-11T11:34:36Z</time>
      </trkpt>
      <trkpt lat="49.14544" lon="1.97594">
        <ele>107</ele>
        <time>2022-09-11T11:34:41Z</time>
      </trkpt>
      <trkpt lat="49.14543" lon="1.9758">
        <ele>106.9</ele>
        <time>2022-09-11T11:34:47Z</time>
      </trkpt>
      <trkpt lat="49.1454" lon="1.97568">
        <ele>106.4</ele>
        <time>2022-09-11T11:34:52Z</time>
      </trkpt>
      <trkpt lat="49.1454" lon="1.97551">
        <ele>105.9</ele>
        <time>2022-09-11T11:34:58Z</time>
      </trkpt>
      <trkpt lat="49.14542" lon="1.97537">
        <ele>105.7</ele>
        <time>2022-09-11T11:35:04Z</time>
      </trkpt>
      <trkpt lat="49.14543" lon="1.97527">
        <ele>105.5</ele>
        <time>2022-09-11T11:35:09Z</time>
      </trkpt>
      <trkpt lat="49.14543" lon="1.97518">
        <ele>105.3</ele>
        <time>2022-09-11T11:35:14Z</time>
      </trkpt>
      <trkpt lat="49.14543" lon="1.97504">
        <ele>105.1</ele>
        <time>2022-09-11T11:35:20Z</time>
      </trkpt>
      <trkpt lat="49.14542" lon="1.97491">
        <ele>104.7</ele>
        <time>2022-09-11T11:35:26Z</time>
      </trkpt>
      <trkpt lat="49.14543" lon="1.9748">
        <ele>104.3</ele>
        <time>2022-09-11T11:35:32Z</time>
      </trkpt>
      <trkpt lat="49.14544" lon="1.97464">
        <ele>104</ele>
        <time>2022-09-11T11:35:39Z</time>
      </trkpt>
      <trkpt lat="49.14544" lon="1.97452">
        <ele>104</ele>
        <time>2022-09-11T11:35:44Z</time>
      </trkpt>
      <trkpt lat="49.14544" lon="1.9744">
        <ele>104</ele>
        <time>2022-09-11T11:35:50Z</time>
      </trkpt>
      <trkpt lat="49.14548" lon="1.97424">
        <ele>104</ele>
        <time>2022-09-11T11:35:56Z</time>
      </trkpt>
      <trkpt lat="49.14549" lon="1.97411">
        <ele>103.8</ele>
        <time>2022-09-11T11:36:01Z</time>
      </trkpt>
      <trkpt lat="49.1455" lon="1.97404">
        <ele>103.6</ele>
        <time>2022-09-11T11:36:06Z</time>
      </trkpt>
      <trkpt lat="49.14551" lon="1.97395">
        <ele>103.3</ele>
        <time>2022-09-11T11:36:12Z</time>
      </trkpt>
      <trkpt lat="49.14554" lon="1.97386">
        <ele>103.1</ele>
        <time>2022-09-11T11:36:17Z</time>
      </trkpt>
      <trkpt lat="49.14557" lon="1.97376">
        <ele>103</ele>
        <time>2022-09-11T11:36:23Z</time>
      </trkpt>
      <trkpt lat="49.1456" lon="1.97364">
        <ele>103</ele>
        <time>2022-09-11T11:36:29Z</time>
      </trkpt>
      <trkpt lat="49.14564" lon="1.9735">
        <ele>102.9</ele>
        <time>2022-09-11T11:36:34Z</time>
      </trkpt>
      <trkpt lat="49.14567" lon="1.97334">
        <ele>102.6</ele>
        <time>2022-09-11T11:36:40Z</time>
      </trkpt>
      <trkpt lat="49.14569" lon="1.9732">
        <ele>102</ele>
        <time>2022-09-11T11:36:46Z</time>
      </trkpt>
      <trkpt lat="49.14572" lon="1.97308">
        <ele>101.5</ele>
        <time>2022-09-11T11:36:52Z</time>
      </trkpt>
      <trkpt lat="49.14574" lon="1.97296">
        <ele>101.1</ele>
        <time>2022-09-11T11:36:57Z</time>
      </trkpt>
      <trkpt lat="49.14577" lon="1.97283">
        <ele>100.6</ele>
        <time>2022-09-11T11:37:03Z</time>
      </trkpt>
      <trkpt lat="49.1458" lon="1.97272">
        <ele>100.2</ele>
        <time>2022-09-11T11:37:08Z</time>
      </trkpt>
      <trkpt lat="49.14583" lon="1.97258">
        <ele>100</ele>
        <time>2022-09-11T11:37:14Z</time>
      </trkpt>
      <trkpt lat="49.14585" lon="1.97246">
        <ele>99.8</ele>
        <time>2022-09-11T11:37:19Z</time>
      </trkpt>
      <trkpt lat="49.14586" lon="1.97235">
        <ele>99.4</ele>
        <time>2022-09-11T11:37:24Z</time>
      </trkpt>
      <trkpt lat="49.14587" lon="1.97222">
        <ele>99</ele>
        <time>2022-09-11T11:37:30Z</time>
      </trkpt>
      <trkpt lat="49.14587" lon="1.9721">
        <ele>98.9</ele>
        <time>2022-09-11T11:37:36Z</time>
      </trkpt>
      <trkpt lat="49.14586" lon="1.972">
        <ele>98.9</ele>
        <time>2022-09-11T11:37:41Z</time>
      </trkpt>
      <trkpt lat="49.14586" lon="1.97186">
        <ele>98.9</ele>
        <time>2022-09-11T11:37:47Z</time>
      </trkpt>
      <trkpt lat="49.14586" lon="1.97174">
        <ele>98.9</ele>
        <time>2022-09-11T11:37:52Z</time>
      </trkpt>
      <trkpt lat="49.14585" lon="1.97161">
        <ele>98.8</ele>
        <time>2022-09-11T11:37:57Z</time>
      </trkpt>
      <trkpt lat="49.14583" lon="1.97147">
        <ele>98.3</ele>
        <time>2022-09-11T11:38:03Z</time>
      </trkpt>
      <trkpt lat="49.14583" lon="1.97138">
        <ele>98</ele>
        <time>2022-09-11T11:38:08Z</time>
      </trkpt>
      <trkpt lat="49.14584" lon="1.97126">
        <ele>98</ele>
        <time>2022-09-11T11:38:14Z</time>
      </trkpt>
      <trkpt lat="49.14584" lon="1.97115">
        <ele>98</ele>
        <time>2022-09-11T11:38:19Z</time>
      </trkpt>
      <trkpt lat="49.14584" lon="1.97102">
        <ele>98</ele>
        <time>2022-09-11T11:38:25Z</time>
      </trkpt>
      <trkpt lat="49.14583" lon="1.9709">
        <ele>98</ele>
        <time>2022-09-11T11:38:31Z</time>
      </trkpt>
      <trkpt lat="49.14583" lon="1.97076">
        <ele>98</ele>
        <time>2022-09-11T11:38:37Z</time>
      </trkpt>
      <trkpt lat="49.14583" lon="1.97064">
        <ele>98</ele>
        <time>2022-09-11T11:38:42Z</time>
      </trkpt>
      <trkpt lat="49.14583" lon="1.9705">
        <ele>98</ele>
        <time>2022-09-11T11:38:48Z</time>
      </trkpt>
      <trkpt lat="49.14581" lon="1.97037">
        <ele>98</ele>
        <time>2022-09-11T11:38:54Z</time>
      </trkpt>
      <trkpt lat="49.1458" lon="1.97026">
        <ele>98</ele>
        <time>2022-09-11T11:38:59Z</time>
      </trkpt>
      <trkpt lat="49.14579" lon="1.97011">
        <ele>98</ele>
        <time>2022-09-11T11:39:05Z</time>
      </trkpt>
      <trkpt lat="49.14577" lon="1.96997">
        <ele>98</ele>
        <time>2022-09-11T11:39:11Z</time>
      </trkpt>
      <trkpt lat="49.14575" lon="1.96983">
        <ele>98</ele>
        <time>2022-09-11T11:39:17Z</time>
      </trkpt>
      <trkpt lat="49.14573" lon="1.96968">
        <ele>98</ele>
        <time>2022-09-11T11:39:23Z</time>
      </trkpt>
      <trkpt lat="49.14571" lon="1.96957">
        <ele>98</ele>
        <time>2022-09-11T11:39:28Z</time>
      </trkpt>
      <trkpt lat="49.1457" lon="1.96943">
        <ele>98</ele>
        <time>2022-09-11T11:39:34Z</time>
      </trkpt>
      <trkpt lat="49.14571" lon="1.9693">
        <ele>98</ele>
        <time>2022-09-11T11:39:40Z</time>
      </trkpt>
      <trkpt lat="49.14569" lon="1.96916">
        <ele>98</ele>
        <time>2022-09-11T11:39:46Z</time>
      </trkpt>
      <trkpt lat="49.14568" lon="1.96906">
        <ele>98</ele>
        <time>2022-09-11T11:39:51Z</time>
      </trkpt>
      <trkpt lat="49.14566" lon="1.96893">
        <ele>98</ele>
        <time>2022-09-11T11:39:57Z</time>
      </trkpt>
      <trkpt lat="49.14565" lon="1.96884">
        <ele>97.9</ele>
        <time>2022-09-11T11:40:02Z</time>
      </trkpt>
      <trkpt lat="49.14568" lon="1.96883">
        <ele>97.9</ele>
        <time>2022-09-11T11:40:08Z</time>
      </trkpt>
      <trkpt lat="49.14575" lon="1.96885">
        <ele>97.9</ele>
        <time>2022-09-11T11:40:13Z</time>
      </trkpt>
      <trkpt lat="49.14581" lon="1.96884">
        <ele>97.8</ele>
        <time>2022-09-11T11:40:18Z</time>
      </trkpt>
      <trkpt lat="49.14576" lon="1.96873">
        <ele>97.6</ele>
        <time>2022-09-11T11:40:24Z</time>
      </trkpt>
      <trkpt lat="49.14574" lon="1.9686">
        <ele>97.3</ele>
        <time>2022-09-11T11:40:30Z</time>
      </trkpt>
      <trkpt lat="49.14576" lon="1.96849">
        <ele>97.3</ele>
        <time>2022-09-11T11:40:36Z</time>
      </trkpt>
      <trkpt lat="49.14579" lon="1.96836">
        <ele>97.2</ele>
        <time>2022-09-11T11:40:41Z</time>
      </trkpt>
      <trkpt lat="49.1458" lon="1.96823">
        <ele>97.1</ele>
        <time>2022-09-11T11:40:47Z</time>
      </trkpt>
      <trkpt lat="49.14579" lon="1.96812">
        <ele>97.2</ele>
        <time>2022-09-11T11:40:52Z</time>
      </trkpt>
      <trkpt lat="49.1458" lon="1.96803">
        <ele>97.1</ele>
        <time>2022-09-11T11:40:57Z</time>
      </trkpt>
      <trkpt lat="49.14585" lon="1.96792">
        <ele>97</ele>
        <time>2022-09-11T11:41:03Z</time>
      </trkpt>
      <trkpt lat="49.1459" lon="1.96781">
        <ele>97</ele>
        <time>2022-09-11T11:41:09Z</time>
      </trkpt>
      <trkpt lat="49.14593" lon="1.96772">
        <ele>97.1</ele>
        <time>2022-09-11T11:41:15Z</time>
      </trkpt>
      <trkpt lat="49.14596" lon="1.96761">
        <ele>97.3</ele>
        <time>2022-09-11T11:41:21Z</time>
      </trkpt>
      <trkpt lat="49.146" lon="1.96749">
        <ele>97.4</ele>
        <time>2022-09-11T11:41:26Z</time>
      </trkpt>
      <trkpt lat="49.14602" lon="1.9674">
        <ele>97.3</ele>
        <time>2022-09-11T11:41:31Z</time>
      </trkpt>
      <trkpt lat="49.14608" lon="1.96725">
        <ele>97.1</ele>
        <time>2022-09-11T11:41:37Z</time>
      </trkpt>
      <trkpt lat="49.14611" lon="1.96716">
        <ele>97</ele>
        <time>2022-09-11T11:41:43Z</time>
      </trkpt>
      <trkpt lat="49.14612" lon="1.96709">
        <ele>97</ele>
        <time>2022-09-11T11:41:48Z</time>
      </trkpt>
      <trkpt lat="49.14617" lon="1.96695">
        <ele>97</ele>
        <time>2022-09-11T11:41:54Z</time>
      </trkpt>
      <trkpt lat="49.14621" lon="1.96683">
        <ele>97</ele>
        <time>2022-09-11T11:42:02Z</time>
      </trkpt>
      <trkpt lat="49.14618" lon="1.96674">
        <ele>97</ele>
        <time>2022-09-11T11:42:07Z</time>
      </trkpt>
      <trkpt lat="49.14616" lon="1.96667">
        <ele>97</ele>
        <time>2022-09-11T11:42:13Z</time>
      </trkpt>
      <trkpt lat="49.14611" lon="1.96665">
        <ele>96.9</ele>
        <time>2022-09-11T11:42:19Z</time>
      </trkpt>
      <trkpt lat="49.14607" lon="1.96659">
        <ele>96.9</ele>
        <time>2022-09-11T11:42:24Z</time>
      </trkpt>
      <trkpt lat="49.14605" lon="1.96648">
        <ele>96.5</ele>
        <time>2022-09-11T11:42:30Z</time>
      </trkpt>
      <trkpt lat="49.14608" lon="1.96639">
        <ele>96.1</ele>
        <time>2022-09-11T11:42:35Z</time>
      </trkpt>
      <trkpt lat="49.1461" lon="1.96627">
        <ele>96</ele>
        <time>2022-09-11T11:42:41Z</time>
      </trkpt>
      <trkpt lat="49.1461" lon="1.96615">
        <ele>96</ele>
        <time>2022-09-11T11:42:47Z</time>
      </trkpt>
      <trkpt lat="49.14611" lon="1.96603">
        <ele>96</ele>
        <time>2022-09-11T11:42:52Z</time>
      </trkpt>
      <trkpt lat="49.14612" lon="1.9659">
        <ele>96</ele>
        <time>2022-09-11T11:42:58Z</time>
      </trkpt>
      <trkpt lat="49.14612" lon="1.96582">
        <ele>96</ele>
        <time>2022-09-11T11:43:03Z</time>
      </trkpt>
      <trkpt lat="49.14613" lon="1.96568">
        <ele>96</ele>
        <time>2022-09-11T11:43:09Z</time>
      </trkpt>
      <trkpt lat="49.14616" lon="1.96549">
        <ele>95.8</ele>
        <time>2022-09-11T11:43:15Z</time>
      </trkpt>
      <trkpt lat="49.14615" lon="1.96537">
        <ele>95.9</ele>
        <time>2022-09-11T11:43:21Z</time>
      </trkpt>
      <trkpt lat="49.14615" lon="1.96526">
        <ele>95.9</ele>
        <time>2022-09-11T11:43:27Z</time>
      </trkpt>
      <trkpt lat="49.14616" lon="1.96515">
        <ele>95.8</ele>
        <time>2022-09-11T11:43:32Z</time>
      </trkpt>
      <trkpt lat="49.14616" lon="1.96503">
        <ele>95.8</ele>
        <time>2022-09-11T11:43:38Z</time>
      </trkpt>
      <trkpt lat="49.14617" lon="1.9649">
        <ele>95.8</ele>
        <time>2022-09-11T11:43:44Z</time>
      </trkpt>
      <trkpt lat="49.14618" lon="1.96477">
        <ele>95.8</ele>
        <time>2022-09-11T11:43:49Z</time>
      </trkpt>
      <trkpt lat="49.14621" lon="1.96463">
        <ele>96.3</ele>
        <time>2022-09-11T11:43:55Z</time>
      </trkpt>
      <trkpt lat="49.14622" lon="1.96449">
        <ele>97.3</ele>
        <time>2022-09-11T11:44:01Z</time>
      </trkpt>
      <trkpt lat="49.14622" lon="1.96437">
        <ele>97.5</ele>
        <time>2022-09-11T11:44:09Z</time>
      </trkpt>
      <trkpt lat="49.14621" lon="1.96428">
        <ele>97.3</ele>
        <time>2022-09-11T11:44:14Z</time>
      </trkpt>
      <trkpt lat="49.14624" lon="1.96411">
        <ele>96.6</ele>
        <time>2022-09-11T11:44:19Z</time>
      </trkpt>
      <trkpt lat="49.14625" lon="1.96408">
        <ele>96.4</ele>
        <time>2022-09-11T11:44:24Z</time>
      </trkpt>
      <trkpt lat="49.14623" lon="1.96402">
        <ele>96</ele>
        <time>2022-09-11T11:44:30Z</time>
      </trkpt>
      <trkpt lat="49.14616" lon="1.96397">
        <ele>96</ele>
        <time>2022-09-11T11:44:36Z</time>
      </trkpt>
      <trkpt lat="49.14608" lon="1.96399">
        <ele>96.6</ele>
        <time>2022-09-11T11:44:41Z</time>
      </trkpt>
      <trkpt lat="49.146" lon="1.96405">
        <ele>97.3</ele>
        <time>2022-09-11T11:44:47Z</time>
      </trkpt>
      <trkpt lat="49.14592" lon="1.9641">
        <ele>97.8</ele>
        <time>2022-09-11T11:44:52Z</time>
      </trkpt>
      <trkpt lat="49.14587" lon="1.96414">
        <ele>98</ele>
        <time>2022-09-11T11:44:58Z</time>
      </trkpt>
      <trkpt lat="49.14581" lon="1.96417">
        <ele>98.3</ele>
        <time>2022-09-11T11:45:03Z</time>
      </trkpt>
      <trkpt lat="49.14573" lon="1.9642">
        <ele>99.1</ele>
        <time>2022-09-11T11:45:09Z</time>
      </trkpt>
      <trkpt lat="49.14567" lon="1.96422">
        <ele>99.6</ele>
        <time>2022-09-11T11:45:14Z</time>
      </trkpt>
      <trkpt lat="49.14558" lon="1.96424">
        <ele>100.2</ele>
        <time>2022-09-11T11:45:19Z</time>
      </trkpt>
      <trkpt lat="49.14551" lon="1.96426">
        <ele>100.5</ele>
        <time>2022-09-11T11:45:25Z</time>
      </trkpt>
      <trkpt lat="49.14543" lon="1.96428">
        <ele>100.7</ele>
        <time>2022-09-11T11:45:30Z</time>
      </trkpt>
      <trkpt lat="49.14533" lon="1.96428">
        <ele>101</ele>
        <time>2022-09-11T11:45:36Z</time>
      </trkpt>
      <trkpt lat="49.14527" lon="1.96426">
        <ele>101.3</ele>
        <time>2022-09-11T11:45:42Z</time>
      </trkpt>
      <trkpt lat="49.14523" lon="1.96414">
        <ele>102</ele>
        <time>2022-09-11T11:45:47Z</time>
      </trkpt>
      <trkpt lat="49.14522" lon="1.96402">
        <ele>102.1</ele>
        <time>2022-09-11T11:45:53Z</time>
      </trkpt>
      <trkpt lat="49.14521" lon="1.96388">
        <ele>102.2</ele>
        <time>2022-09-11T11:45:58Z</time>
      </trkpt>
      <trkpt lat="49.14521" lon="1.96373">
        <ele>102.3</ele>
        <time>2022-09-11T11:46:04Z</time>
      </trkpt>
      <trkpt lat="49.1452" lon="1.96364">
        <ele>102.3</ele>
        <time>2022-09-11T11:46:10Z</time>
      </trkpt>
      <trkpt lat="49.14519" lon="1.9635">
        <ele>102.3</ele>
        <time>2022-09-11T11:46:15Z</time>
      </trkpt>
      <trkpt lat="49.14519" lon="1.96338">
        <ele>102.3</ele>
        <time>2022-09-11T11:46:20Z</time>
      </trkpt>
      <trkpt lat="49.14518" lon="1.96326">
        <ele>102.5</ele>
        <time>2022-09-11T11:46:26Z</time>
      </trkpt>
      <trkpt lat="49.14517" lon="1.96316">
        <ele>102.8</ele>
        <time>2022-09-11T11:46:31Z</time>
      </trkpt>
      <trkpt lat="49.14516" lon="1.96302">
        <ele>103</ele>
        <time>2022-09-11T11:46:37Z</time>
      </trkpt>
      <trkpt lat="49.14515" lon="1.96287">
        <ele>103</ele>
        <time>2022-09-11T11:46:43Z</time>
      </trkpt>
      <trkpt lat="49.14514" lon="1.96272">
        <ele>102.9</ele>
        <time>2022-09-11T11:46:49Z</time>
      </trkpt>
      <trkpt lat="49.14512" lon="1.96259">
        <ele>102.7</ele>
        <time>2022-09-11T11:46:54Z</time>
      </trkpt>
      <trkpt lat="49.14511" lon="1.96247">
        <ele>102.6</ele>
        <time>2022-09-11T11:47:00Z</time>
      </trkpt>
      <trkpt lat="49.1451" lon="1.96238">
        <ele>102.7</ele>
        <time>2022-09-11T11:47:05Z</time>
      </trkpt>
      <trkpt lat="49.14508" lon="1.96225">
        <ele>102.7</ele>
        <time>2022-09-11T11:47:11Z</time>
      </trkpt>
      <trkpt lat="49.14506" lon="1.96209">
        <ele>102.8</ele>
        <time>2022-09-11T11:47:17Z</time>
      </trkpt>
      <trkpt lat="49.14504" lon="1.96195">
        <ele>102.9</ele>
        <time>2022-09-11T11:47:22Z</time>
      </trkpt>
      <trkpt lat="49.14502" lon="1.96181">
        <ele>102.9</ele>
        <time>2022-09-11T11:47:28Z</time>
      </trkpt>
      <trkpt lat="49.145" lon="1.96172">
        <ele>103</ele>
        <time>2022-09-11T11:47:33Z</time>
      </trkpt>
      <trkpt lat="49.14498" lon="1.96163">
        <ele>102.8</ele>
        <time>2022-09-11T11:47:38Z</time>
      </trkpt>
      <trkpt lat="49.14496" lon="1.96152">
        <ele>102.4</ele>
        <time>2022-09-11T11:47:44Z</time>
      </trkpt>
      <trkpt lat="49.14494" lon="1.9614">
        <ele>102</ele>
        <time>2022-09-11T11:47:49Z</time>
      </trkpt>
      <trkpt lat="49.14492" lon="1.96126">
        <ele>102</ele>
        <time>2022-09-11T11:47:55Z</time>
      </trkpt>
      <trkpt lat="49.14488" lon="1.96115">
        <ele>102</ele>
        <time>2022-09-11T11:48:01Z</time>
      </trkpt>
      <trkpt lat="49.14484" lon="1.96108">
        <ele>102</ele>
        <time>2022-09-11T11:48:06Z</time>
      </trkpt>
      <trkpt lat="49.14478" lon="1.961">
        <ele>101.9</ele>
        <time>2022-09-11T11:48:12Z</time>
      </trkpt>
      <trkpt lat="49.14472" lon="1.96093">
        <ele>102</ele>
        <time>2022-09-11T11:48:17Z</time>
      </trkpt>
      <trkpt lat="49.14466" lon="1.96088">
        <ele>102</ele>
        <time>2022-09-11T11:48:22Z</time>
      </trkpt>
      <trkpt lat="49.1446" lon="1.96083">
        <ele>102</ele>
        <time>2022-09-11T11:48:27Z</time>
      </trkpt>
      <trkpt lat="49.14453" lon="1.96076">
        <ele>101.7</ele>
        <time>2022-09-11T11:48:33Z</time>
      </trkpt>
      <trkpt lat="49.14445" lon="1.96069">
        <ele>101.5</ele>
        <time>2022-09-11T11:48:38Z</time>
      </trkpt>
      <trkpt lat="49.14437" lon="1.96062">
        <ele>101.4</ele>
        <time>2022-09-11T11:48:44Z</time>
      </trkpt>
      <trkpt lat="49.14432" lon="1.96057">
        <ele>101.5</ele>
        <time>2022-09-11T11:48:49Z</time>
      </trkpt>
      <trkpt lat="49.14426" lon="1.96053">
        <ele>101.6</ele>
        <time>2022-09-11T11:48:54Z</time>
      </trkpt>
      <trkpt lat="49.14418" lon="1.96047">
        <ele>101.7</ele>
        <time>2022-09-11T11:49:00Z</time>
      </trkpt>
      <trkpt lat="49.14409" lon="1.9604">
        <ele>101.4</ele>
        <time>2022-09-11T11:49:06Z</time>
      </trkpt>
      <trkpt lat="49.14399" lon="1.96031">
        <ele>101.1</ele>
        <time>2022-09-11T11:49:12Z</time>
      </trkpt>
      <trkpt lat="49.14391" lon="1.96025">
        <ele>100.9</ele>
        <time>2022-09-11T11:49:17Z</time>
      </trkpt>
      <trkpt lat="49.14382" lon="1.96017">
        <ele>100.7</ele>
        <time>2022-09-11T11:49:23Z</time>
      </trkpt>
      <trkpt lat="49.14375" lon="1.9601">
        <ele>100.7</ele>
        <time>2022-09-11T11:49:29Z</time>
      </trkpt>
      <trkpt lat="49.14369" lon="1.96005">
        <ele>100.8</ele>
        <time>2022-09-11T11:49:34Z</time>
      </trkpt>
      <trkpt lat="49.14364" lon="1.95999">
        <ele>100.9</ele>
        <time>2022-09-11T11:49:39Z</time>
      </trkpt>
      <trkpt lat="49.14358" lon="1.95995">
        <ele>100.8</ele>
        <time>2022-09-11T11:49:44Z</time>
      </trkpt>
      <trkpt lat="49.1435" lon="1.9599">
        <ele>100.8</ele>
        <time>2022-09-11T11:49:50Z</time>
      </trkpt>
      <trkpt lat="49.1434" lon="1.95984">
        <ele>100.9</ele>
        <time>2022-09-11T11:49:56Z</time>
      </trkpt>
      <trkpt lat="49.1433" lon="1.95977">
        <ele>101.1</ele>
        <time>2022-09-11T11:50:02Z</time>
      </trkpt>
      <trkpt lat="49.14323" lon="1.95972">
        <ele>101.3</ele>
        <time>2022-09-11T11:50:07Z</time>
      </trkpt>
      <trkpt lat="49.14317" lon="1.95967">
        <ele>101.4</ele>
        <time>2022-09-11T11:50:13Z</time>
      </trkpt>
      <trkpt lat="49.14311" lon="1.95961">
        <ele>101.4</ele>
        <time>2022-09-11T11:50:18Z</time>
      </trkpt>
      <trkpt lat="49.14305" lon="1.95957">
        <ele>101.5</ele>
        <time>2022-09-11T11:50:23Z</time>
      </trkpt>
      <trkpt lat="49.14297" lon="1.95952">
        <ele>101.5</ele>
        <time>2022-09-11T11:50:29Z</time>
      </trkpt>
      <trkpt lat="49.1429" lon="1.95946">
        <ele>101.6</ele>
        <time>2022-09-11T11:50:34Z</time>
      </trkpt>
      <trkpt lat="49.1428" lon="1.95938">
        <ele>101.7</ele>
        <time>2022-09-11T11:50:40Z</time>
      </trkpt>
      <trkpt lat="49.14272" lon="1.95931">
        <ele>101.6</ele>
        <time>2022-09-11T11:50:46Z</time>
      </trkpt>
      <trkpt lat="49.14266" lon="1.95926">
        <ele>101.6</ele>
        <time>2022-09-11T11:50:51Z</time>
      </trkpt>
      <trkpt lat="49.14259" lon="1.95921">
        <ele>101.7</ele>
        <time>2022-09-11T11:50:57Z</time>
      </trkpt>
      <trkpt lat="49.14253" lon="1.95917">
        <ele>101.9</ele>
        <time>2022-09-11T11:51:02Z</time>
      </trkpt>
      <trkpt lat="49.14244" lon="1.95913">
        <ele>102.1</ele>
        <time>2022-09-11T11:51:08Z</time>
      </trkpt>
      <trkpt lat="49.14237" lon="1.95907">
        <ele>102.1</ele>
        <time>2022-09-11T11:51:13Z</time>
      </trkpt>
      <trkpt lat="49.14228" lon="1.95901">
        <ele>102.2</ele>
        <time>2022-09-11T11:51:18Z</time>
      </trkpt>
      <trkpt lat="49.1422" lon="1.95895">
        <ele>102.3</ele>
        <time>2022-09-11T11:51:23Z</time>
      </trkpt>
      <trkpt lat="49.14211" lon="1.95886">
        <ele>102.3</ele>
        <time>2022-09-11T11:51:29Z</time>
      </trkpt>
      <trkpt lat="49.14204" lon="1.95879">
        <ele>102.3</ele>
        <time>2022-09-11T11:51:35Z</time>
      </trkpt>
      <trkpt lat="49.14195" lon="1.95872">
        <ele>102.3</ele>
        <time>2022-09-11T11:51:41Z</time>
      </trkpt>
      <trkpt lat="49.14188" lon="1.95865">
        <ele>102.3</ele>
        <time>2022-09-11T11:51:46Z</time>
      </trkpt>
      <trkpt lat="49.1418" lon="1.95857">
        <ele>102.5</ele>
        <time>2022-09-11T11:51:52Z</time>
      </trkpt>
      <trkpt lat="49.14172" lon="1.95851">
        <ele>102.8</ele>
        <time>2022-09-11T11:51:58Z</time>
      </trkpt>
      <trkpt lat="49.14166" lon="1.95846">
        <ele>103</ele>
        <time>2022-09-11T11:52:03Z</time>
      </trkpt>
      <trkpt lat="49.14159" lon="1.95841">
        <ele>103.1</ele>
        <time>2022-09-11T11:52:09Z</time>
      </trkpt>
      <trkpt lat="49.14154" lon="1.95837">
        <ele>103.1</ele>
        <time>2022-09-11T11:52:14Z</time>
      </trkpt>
      <trkpt lat="49.14145" lon="1.95831">
        <ele>103</ele>
        <time>2022-09-11T11:52:20Z</time>
      </trkpt>
      <trkpt lat="49.14137" lon="1.95827">
        <ele>103.1</ele>
        <time>2022-09-11T11:52:25Z</time>
      </trkpt>
      <trkpt lat="49.14128" lon="1.95822">
        <ele>103.2</ele>
        <time>2022-09-11T11:52:31Z</time>
      </trkpt>
      <trkpt lat="49.14122" lon="1.95817">
        <ele>103.3</ele>
        <time>2022-09-11T11:52:37Z</time>
      </trkpt>
      <trkpt lat="49.14116" lon="1.95814">
        <ele>103.2</ele>
        <time>2022-09-11T11:52:42Z</time>
      </trkpt>
      <trkpt lat="49.14108" lon="1.95808">
        <ele>103.2</ele>
        <time>2022-09-11T11:52:48Z</time>
      </trkpt>
      <trkpt lat="49.14101" lon="1.95803">
        <ele>103.4</ele>
        <time>2022-09-11T11:52:53Z</time>
      </trkpt>
      <trkpt lat="49.14093" lon="1.95799">
        <ele>103.7</ele>
        <time>2022-09-11T11:52:58Z</time>
      </trkpt>
      <trkpt lat="49.14084" lon="1.95794">
        <ele>104</ele>
        <time>2022-09-11T11:53:04Z</time>
      </trkpt>
      <trkpt lat="49.14074" lon="1.95789">
        <ele>104.1</ele>
        <time>2022-09-11T11:53:10Z</time>
      </trkpt>
      <trkpt lat="49.14066" lon="1.95784">
        <ele>104.2</ele>
        <time>2022-09-11T11:53:16Z</time>
      </trkpt>
      <trkpt lat="49.14059" lon="1.95781">
        <ele>104.1</ele>
        <time>2022-09-11T11:53:21Z</time>
      </trkpt>
      <trkpt lat="49.14051" lon="1.95776">
        <ele>104.2</ele>
        <time>2022-09-11T11:53:27Z</time>
      </trkpt>
      <trkpt lat="49.14045" lon="1.95772">
        <ele>104.5</ele>
        <time>2022-09-11T11:53:32Z</time>
      </trkpt>
      <trkpt lat="49.14036" lon="1.95769">
        <ele>104.8</ele>
        <time>2022-09-11T11:53:38Z</time>
      </trkpt>
      <trkpt lat="49.14027" lon="1.95766">
        <ele>105</ele>
        <time>2022-09-11T11:53:44Z</time>
      </trkpt>
      <trkpt lat="49.14018" lon="1.95761">
        <ele>105.4</ele>
        <time>2022-09-11T11:53:50Z</time>
      </trkpt>
      <trkpt lat="49.14009" lon="1.95756">
        <ele>105.7</ele>
        <time>2022-09-11T11:53:56Z</time>
      </trkpt>
      <trkpt lat="49.14" lon="1.95752">
        <ele>106</ele>
        <time>2022-09-11T11:54:02Z</time>
      </trkpt>
      <trkpt lat="49.13994" lon="1.9575">
        <ele>106.2</ele>
        <time>2022-09-11T11:54:07Z</time>
      </trkpt>
      <trkpt lat="49.13985" lon="1.95747">
        <ele>106.5</ele>
        <time>2022-09-11T11:54:13Z</time>
      </trkpt>
      <trkpt lat="49.13975" lon="1.95744">
        <ele>106.9</ele>
        <time>2022-09-11T11:54:19Z</time>
      </trkpt>
      <trkpt lat="49.13967" lon="1.95741">
        <ele>107.1</ele>
        <time>2022-09-11T11:54:24Z</time>
      </trkpt>
      <trkpt lat="49.13957" lon="1.95739">
        <ele>107.2</ele>
        <time>2022-09-11T11:54:30Z</time>
      </trkpt>
      <trkpt lat="49.1395" lon="1.95736">
        <ele>107.4</ele>
        <time>2022-09-11T11:54:35Z</time>
      </trkpt>
      <trkpt lat="49.13942" lon="1.95732">
        <ele>107.7</ele>
        <time>2022-09-11T11:54:41Z</time>
      </trkpt>
      <trkpt lat="49.13934" lon="1.95728">
        <ele>107.9</ele>
        <time>2022-09-11T11:54:47Z</time>
      </trkpt>
      <trkpt lat="49.13927" lon="1.95726">
        <ele>107.9</ele>
        <time>2022-09-11T11:54:52Z</time>
      </trkpt>
      <trkpt lat="49.1392" lon="1.95724">
        <ele>108</ele>
        <time>2022-09-11T11:54:58Z</time>
      </trkpt>
      <trkpt lat="49.13911" lon="1.95719">
        <ele>108.2</ele>
        <time>2022-09-11T11:55:04Z</time>
      </trkpt>
      <trkpt lat="49.13903" lon="1.95715">
        <ele>108.5</ele>
        <time>2022-09-11T11:55:09Z</time>
      </trkpt>
      <trkpt lat="49.13895" lon="1.95712">
        <ele>108.8</ele>
        <time>2022-09-11T11:55:14Z</time>
      </trkpt>
      <trkpt lat="49.13887" lon="1.95709">
        <ele>109</ele>
        <time>2022-09-11T11:55:20Z</time>
      </trkpt>
      <trkpt lat="49.13879" lon="1.95704">
        <ele>109</ele>
        <time>2022-09-11T11:55:26Z</time>
      </trkpt>
      <trkpt lat="49.13872" lon="1.95698">
        <ele>109</ele>
        <time>2022-09-11T11:55:31Z</time>
      </trkpt>
      <trkpt lat="49.13865" lon="1.95694">
        <ele>109</ele>
        <time>2022-09-11T11:55:36Z</time>
      </trkpt>
      <trkpt lat="49.13856" lon="1.95689">
        <ele>109.2</ele>
        <time>2022-09-11T11:55:41Z</time>
      </trkpt>
      <trkpt lat="49.13849" lon="1.95685">
        <ele>109.4</ele>
        <time>2022-09-11T11:55:46Z</time>
      </trkpt>
      <trkpt lat="49.1384" lon="1.9568">
        <ele>109.7</ele>
        <time>2022-09-11T11:55:52Z</time>
      </trkpt>
      <trkpt lat="49.13832" lon="1.95674">
        <ele>110</ele>
        <time>2022-09-11T11:55:58Z</time>
      </trkpt>
      <trkpt lat="49.13826" lon="1.95671">
        <ele>110</ele>
        <time>2022-09-11T11:56:03Z</time>
      </trkpt>
      <trkpt lat="49.1382" lon="1.95668">
        <ele>110</ele>
        <time>2022-09-11T11:56:08Z</time>
      </trkpt>
      <trkpt lat="49.13814" lon="1.95665">
        <ele>110</ele>
        <time>2022-09-11T11:56:14Z</time>
      </trkpt>
      <trkpt lat="49.13805" lon="1.95661">
        <ele>110</ele>
        <time>2022-09-11T11:56:19Z</time>
      </trkpt>
      <trkpt lat="49.13797" lon="1.95655">
        <ele>110</ele>
        <time>2022-09-11T11:56:25Z</time>
      </trkpt>
      <trkpt lat="49.13789" lon="1.95648">
        <ele>110</ele>
        <time>2022-09-11T11:56:30Z</time>
      </trkpt>
      <trkpt lat="49.13783" lon="1.95642">
        <ele>110</ele>
        <time>2022-09-11T11:56:35Z</time>
      </trkpt>
      <trkpt lat="49.13776" lon="1.95637">
        <ele>110.1</ele>
        <time>2022-09-11T11:56:40Z</time>
      </trkpt>
      <trkpt lat="49.1377" lon="1.95633">
        <ele>110.2</ele>
        <time>2022-09-11T11:56:47Z</time>
      </trkpt>
      <trkpt lat="49.13769" lon="1.95633">
        <ele>110.3</ele>
        <time>2022-09-11T11:56:52Z</time>
      </trkpt>
      <trkpt lat="49.13765" lon="1.95631">
        <ele>110.3</ele>
        <time>2022-09-11T11:57:03Z</time>
      </trkpt>
      <trkpt lat="49.13758" lon="1.95625">
        <ele>110.4</ele>
        <time>2022-09-11T11:57:09Z</time>
      </trkpt>
      <trkpt lat="49.1375" lon="1.9562">
        <ele>110.3</ele>
        <time>2022-09-11T11:57:15Z</time>
      </trkpt>
      <trkpt lat="49.13742" lon="1.95611">
        <ele>110</ele>
        <time>2022-09-11T11:57:21Z</time>
      </trkpt>
      <trkpt lat="49.13736" lon="1.95606">
        <ele>110</ele>
        <time>2022-09-11T11:57:27Z</time>
      </trkpt>
      <trkpt lat="49.1373" lon="1.95603">
        <ele>110</ele>
        <time>2022-09-11T11:57:32Z</time>
      </trkpt>
      <trkpt lat="49.13724" lon="1.95599">
        <ele>110</ele>
        <time>2022-09-11T11:57:37Z</time>
      </trkpt>
      <trkpt lat="49.13715" lon="1.9559">
        <ele>110</ele>
        <time>2022-09-11T11:57:43Z</time>
      </trkpt>
      <trkpt lat="49.13709" lon="1.95583">
        <ele>110</ele>
        <time>2022-09-11T11:57:48Z</time>
      </trkpt>
      <trkpt lat="49.137" lon="1.95576">
        <ele>109.7</ele>
        <time>2022-09-11T11:57:54Z</time>
      </trkpt>
      <trkpt lat="49.13693" lon="1.9557">
        <ele>109.5</ele>
        <time>2022-09-11T11:57:59Z</time>
      </trkpt>
      <trkpt lat="49.13687" lon="1.95566">
        <ele>109.4</ele>
        <time>2022-09-11T11:58:04Z</time>
      </trkpt>
      <trkpt lat="49.1368" lon="1.95561">
        <ele>109.2</ele>
        <time>2022-09-11T11:58:09Z</time>
      </trkpt>
      <trkpt lat="49.13673" lon="1.95553">
        <ele>109</ele>
        <time>2022-09-11T11:58:15Z</time>
      </trkpt>
      <trkpt lat="49.13666" lon="1.95546">
        <ele>109</ele>
        <time>2022-09-11T11:58:20Z</time>
      </trkpt>
      <trkpt lat="49.13661" lon="1.95542">
        <ele>109</ele>
        <time>2022-09-11T11:58:25Z</time>
      </trkpt>
      <trkpt lat="49.13652" lon="1.95536">
        <ele>109</ele>
        <time>2022-09-11T11:58:31Z</time>
      </trkpt>
      <trkpt lat="49.13644" lon="1.9553">
        <ele>109</ele>
        <time>2022-09-11T11:58:36Z</time>
      </trkpt>
      <trkpt lat="49.13637" lon="1.95526">
        <ele>109</ele>
        <time>2022-09-11T11:58:41Z</time>
      </trkpt>
      <trkpt lat="49.13627" lon="1.95522">
        <ele>108.8</ele>
        <time>2022-09-11T11:58:47Z</time>
      </trkpt>
      <trkpt lat="49.13617" lon="1.95516">
        <ele>108.6</ele>
        <time>2022-09-11T11:58:53Z</time>
      </trkpt>
      <trkpt lat="49.1361" lon="1.95511">
        <ele>108.4</ele>
        <time>2022-09-11T11:58:58Z</time>
      </trkpt>
      <trkpt lat="49.13602" lon="1.95507">
        <ele>108.3</ele>
        <time>2022-09-11T11:59:03Z</time>
      </trkpt>
      <trkpt lat="49.13593" lon="1.95504">
        <ele>108.1</ele>
        <time>2022-09-11T11:59:09Z</time>
      </trkpt>
      <trkpt lat="49.13585" lon="1.95499">
        <ele>108</ele>
        <time>2022-09-11T11:59:15Z</time>
      </trkpt>
      <trkpt lat="49.13577" lon="1.95497">
        <ele>107.9</ele>
        <time>2022-09-11T11:59:20Z</time>
      </trkpt>
      <trkpt lat="49.13569" lon="1.95494">
        <ele>107.8</ele>
        <time>2022-09-11T11:59:26Z</time>
      </trkpt>
      <trkpt lat="49.13563" lon="1.95491">
        <ele>107.7</ele>
        <time>2022-09-11T11:59:31Z</time>
      </trkpt>
      <trkpt lat="49.13557" lon="1.95487">
        <ele>107.5</ele>
        <time>2022-09-11T11:59:36Z</time>
      </trkpt>
      <trkpt lat="49.13548" lon="1.95485">
        <ele>107.5</ele>
        <time>2022-09-11T11:59:42Z</time>
      </trkpt>
      <trkpt lat="49.1354" lon="1.95478">
        <ele>107.2</ele>
        <time>2022-09-11T11:59:48Z</time>
      </trkpt>
      <trkpt lat="49.13533" lon="1.95472">
        <ele>107</ele>
        <time>2022-09-11T11:59:54Z</time>
      </trkpt>
      <trkpt lat="49.13525" lon="1.95465">
        <ele>106.6</ele>
        <time>2022-09-11T11:59:59Z</time>
      </trkpt>
      <trkpt lat="49.13517" lon="1.95458">
        <ele>106.1</ele>
        <time>2022-09-11T12:00:05Z</time>
      </trkpt>
      <trkpt lat="49.13507" lon="1.95451">
        <ele>105.5</ele>
        <time>2022-09-11T12:00:11Z</time>
      </trkpt>
      <trkpt lat="49.135" lon="1.95443">
        <ele>105</ele>
        <time>2022-09-11T12:00:17Z</time>
      </trkpt>
      <trkpt lat="49.13494" lon="1.95436">
        <ele>104.9</ele>
        <time>2022-09-11T12:00:22Z</time>
      </trkpt>
      <trkpt lat="49.13484" lon="1.95427">
        <ele>104.7</ele>
        <time>2022-09-11T12:00:28Z</time>
      </trkpt>
      <trkpt lat="49.13476" lon="1.95421">
        <ele>104.3</ele>
        <time>2022-09-11T12:00:34Z</time>
      </trkpt>
      <trkpt lat="49.13469" lon="1.95415">
        <ele>103.9</ele>
        <time>2022-09-11T12:00:39Z</time>
      </trkpt>
      <trkpt lat="49.13462" lon="1.95408">
        <ele>103.5</ele>
        <time>2022-09-11T12:00:45Z</time>
      </trkpt>
      <trkpt lat="49.13455" lon="1.95401">
        <ele>103.1</ele>
        <time>2022-09-11T12:00:50Z</time>
      </trkpt>
      <trkpt lat="49.13453" lon="1.95395">
        <ele>102.7</ele>
        <time>2022-09-11T12:00:56Z</time>
      </trkpt>
      <trkpt lat="49.1345" lon="1.95393">
        <ele>102.5</ele>
        <time>2022-09-11T12:02:28Z</time>
      </trkpt>
      <trkpt lat="49.1345" lon="1.95392">
        <ele>102.4</ele>
        <time>2022-09-11T12:02:34Z</time>
      </trkpt>
      <trkpt lat="49.13448" lon="1.95388">
        <ele>102.1</ele>
        <time>2022-09-11T12:03:02Z</time>
      </trkpt>
      <trkpt lat="49.13448" lon="1.95389">
        <ele>102.1</ele>
        <time>2022-09-11T12:03:19Z</time>
      </trkpt>
      <trkpt lat="49.13452" lon="1.9539">
        <ele>102.3</ele>
        <time>2022-09-11T12:03:25Z</time>
      </trkpt>
      <trkpt lat="49.13452" lon="1.95391">
        <ele>102.4</ele>
        <time>2022-09-11T12:03:36Z</time>
      </trkpt>
      <trkpt lat="49.1345" lon="1.95392">
        <ele>102.4</ele>
        <time>2022-09-11T12:04:05Z</time>
      </trkpt>
      <trkpt lat="49.1345" lon="1.95391">
        <ele>102.3</ele>
        <time>2022-09-11T12:04:22Z</time>
      </trkpt>
      <trkpt lat="49.1345" lon="1.95393">
        <ele>102.5</ele>
        <time>2022-09-11T12:04:39Z</time>
      </trkpt>
      <trkpt lat="49.13439" lon="1.95388">
        <ele>102</ele>
        <time>2022-09-11T12:05:19Z</time>
      </trkpt>
      <trkpt lat="49.13432" lon="1.95382">
        <ele>101.6</ele>
        <time>2022-09-11T12:05:24Z</time>
      </trkpt>
      <trkpt lat="49.13425" lon="1.95374">
        <ele>101.1</ele>
        <time>2022-09-11T12:05:30Z</time>
      </trkpt>
      <trkpt lat="49.13418" lon="1.95366">
        <ele>100.4</ele>
        <time>2022-09-11T12:05:35Z</time>
      </trkpt>
      <trkpt lat="49.13409" lon="1.95358">
        <ele>100</ele>
        <time>2022-09-11T12:05:41Z</time>
      </trkpt>
      <trkpt lat="49.13403" lon="1.95353">
        <ele>99.9</ele>
        <time>2022-09-11T12:05:46Z</time>
      </trkpt>
      <trkpt lat="49.13395" lon="1.95347">
        <ele>99.6</ele>
        <time>2022-09-11T12:05:52Z</time>
      </trkpt>
      <trkpt lat="49.13388" lon="1.9534">
        <ele>99.2</ele>
        <time>2022-09-11T12:05:58Z</time>
      </trkpt>
      <trkpt lat="49.13381" lon="1.95335">
        <ele>98.8</ele>
        <time>2022-09-11T12:06:03Z</time>
      </trkpt>
      <trkpt lat="49.13373" lon="1.95329">
        <ele>98.3</ele>
        <time>2022-09-11T12:06:09Z</time>
      </trkpt>
      <trkpt lat="49.13365" lon="1.95321">
        <ele>97.7</ele>
        <time>2022-09-11T12:06:15Z</time>
      </trkpt>
      <trkpt lat="49.13358" lon="1.95314">
        <ele>97.3</ele>
        <time>2022-09-11T12:06:21Z</time>
      </trkpt>
      <trkpt lat="49.1335" lon="1.95302">
        <ele>96.8</ele>
        <time>2022-09-11T12:06:27Z</time>
      </trkpt>
      <trkpt lat="49.13344" lon="1.95295">
        <ele>96.4</ele>
        <time>2022-09-11T12:06:32Z</time>
      </trkpt>
      <trkpt lat="49.13337" lon="1.95287">
        <ele>95.8</ele>
        <time>2022-09-11T12:06:38Z</time>
      </trkpt>
      <trkpt lat="49.13333" lon="1.95284">
        <ele>95.4</ele>
        <time>2022-09-11T12:06:43Z</time>
      </trkpt>
      <trkpt lat="49.13327" lon="1.95286">
        <ele>95.6</ele>
        <time>2022-09-11T12:06:48Z</time>
      </trkpt>
      <trkpt lat="49.13322" lon="1.95299">
        <ele>96.2</ele>
        <time>2022-09-11T12:06:54Z</time>
      </trkpt>
      <trkpt lat="49.13317" lon="1.95307">
        <ele>96.5</ele>
        <time>2022-09-11T12:06:59Z</time>
      </trkpt>
      <trkpt lat="49.13314" lon="1.95316">
        <ele>96.7</ele>
        <time>2022-09-11T12:07:05Z</time>
      </trkpt>
      <trkpt lat="49.1331" lon="1.95328">
        <ele>96.9</ele>
        <time>2022-09-11T12:07:10Z</time>
      </trkpt>
      <trkpt lat="49.13306" lon="1.95339">
        <ele>97.2</ele>
        <time>2022-09-11T12:07:16Z</time>
      </trkpt>
      <trkpt lat="49.13302" lon="1.95348">
        <ele>97.4</ele>
        <time>2022-09-11T12:07:21Z</time>
      </trkpt>
      <trkpt lat="49.13299" lon="1.95359">
        <ele>97.7</ele>
        <time>2022-09-11T12:07:27Z</time>
      </trkpt>
      <trkpt lat="49.13295" lon="1.95374">
        <ele>97.8</ele>
        <time>2022-09-11T12:07:33Z</time>
      </trkpt>
      <trkpt lat="49.13294" lon="1.95386">
        <ele>98</ele>
        <time>2022-09-11T12:07:38Z</time>
      </trkpt>
      <trkpt lat="49.13292" lon="1.95398">
        <ele>98.2</ele>
        <time>2022-09-11T12:07:44Z</time>
      </trkpt>
      <trkpt lat="49.1329" lon="1.9541">
        <ele>98.3</ele>
        <time>2022-09-11T12:07:50Z</time>
      </trkpt>
      <trkpt lat="49.13288" lon="1.95422">
        <ele>98.5</ele>
        <time>2022-09-11T12:07:56Z</time>
      </trkpt>
      <trkpt lat="49.13286" lon="1.95432">
        <ele>98.9</ele>
        <time>2022-09-11T12:08:01Z</time>
      </trkpt>
      <trkpt lat="49.13284" lon="1.95443">
        <ele>99.2</ele>
        <time>2022-09-11T12:08:06Z</time>
      </trkpt>
      <trkpt lat="49.13282" lon="1.95454">
        <ele>99.1</ele>
        <time>2022-09-11T12:08:11Z</time>
      </trkpt>
      <trkpt lat="49.13281" lon="1.95469">
        <ele>99.1</ele>
        <time>2022-09-11T12:08:17Z</time>
      </trkpt>
      <trkpt lat="49.13278" lon="1.95482">
        <ele>99.3</ele>
        <time>2022-09-11T12:08:22Z</time>
      </trkpt>
      <trkpt lat="49.13276" lon="1.95497">
        <ele>99.9</ele>
        <time>2022-09-11T12:08:28Z</time>
      </trkpt>
      <trkpt lat="49.13274" lon="1.95511">
        <ele>100</ele>
        <time>2022-09-11T12:08:33Z</time>
      </trkpt>
      <trkpt lat="49.13269" lon="1.95525">
        <ele>100</ele>
        <time>2022-09-11T12:08:39Z</time>
      </trkpt>
      <trkpt lat="49.13266" lon="1.9554">
        <ele>100.3</ele>
        <time>2022-09-11T12:08:45Z</time>
      </trkpt>
      <trkpt lat="49.13264" lon="1.95552">
        <ele>100.5</ele>
        <time>2022-09-11T12:08:51Z</time>
      </trkpt>
      <trkpt lat="49.13263" lon="1.95564">
        <ele>100.6</ele>
        <time>2022-09-11T12:08:57Z</time>
      </trkpt>
      <trkpt lat="49.13261" lon="1.95574">
        <ele>100.8</ele>
        <time>2022-09-11T12:09:02Z</time>
      </trkpt>
      <trkpt lat="49.13259" lon="1.95585">
        <ele>101</ele>
        <time>2022-09-11T12:09:08Z</time>
      </trkpt>
      <trkpt lat="49.13257" lon="1.95594">
        <ele>101.1</ele>
        <time>2022-09-11T12:09:13Z</time>
      </trkpt>
      <trkpt lat="49.13252" lon="1.95607">
        <ele>101.1</ele>
        <time>2022-09-11T12:09:19Z</time>
      </trkpt>
      <trkpt lat="49.13249" lon="1.95619">
        <ele>101.3</ele>
        <time>2022-09-11T12:09:24Z</time>
      </trkpt>
      <trkpt lat="49.13244" lon="1.95634">
        <ele>101.8</ele>
        <time>2022-09-11T12:09:30Z</time>
      </trkpt>
      <trkpt lat="49.1324" lon="1.9565">
        <ele>102.4</ele>
        <time>2022-09-11T12:09:36Z</time>
      </trkpt>
      <trkpt lat="49.13235" lon="1.95665">
        <ele>102.9</ele>
        <time>2022-09-11T12:09:42Z</time>
      </trkpt>
      <trkpt lat="49.13232" lon="1.95678">
        <ele>103</ele>
        <time>2022-09-11T12:09:47Z</time>
      </trkpt>
      <trkpt lat="49.13229" lon="1.95687">
        <ele>103</ele>
        <time>2022-09-11T12:09:52Z</time>
      </trkpt>
      <trkpt lat="49.13226" lon="1.957">
        <ele>103</ele>
        <time>2022-09-11T12:09:58Z</time>
      </trkpt>
      <trkpt lat="49.13223" lon="1.95711">
        <ele>103</ele>
        <time>2022-09-11T12:10:04Z</time>
      </trkpt>
      <trkpt lat="49.13221" lon="1.9572">
        <ele>103</ele>
        <time>2022-09-11T12:10:09Z</time>
      </trkpt>
      <trkpt lat="49.13217" lon="1.95728">
        <ele>103.2</ele>
        <time>2022-09-11T12:10:14Z</time>
      </trkpt>
      <trkpt lat="49.13214" lon="1.95739">
        <ele>103.4</ele>
        <time>2022-09-11T12:10:20Z</time>
      </trkpt>
      <trkpt lat="49.13209" lon="1.95752">
        <ele>103.6</ele>
        <time>2022-09-11T12:10:26Z</time>
      </trkpt>
      <trkpt lat="49.13205" lon="1.95765">
        <ele>103.7</ele>
        <time>2022-09-11T12:10:31Z</time>
      </trkpt>
      <trkpt lat="49.132" lon="1.95779">
        <ele>104</ele>
        <time>2022-09-11T12:10:37Z</time>
      </trkpt>
      <trkpt lat="49.13197" lon="1.95789">
        <ele>104</ele>
        <time>2022-09-11T12:10:43Z</time>
      </trkpt>
      <trkpt lat="49.13195" lon="1.95796">
        <ele>104</ele>
        <time>2022-09-11T12:10:48Z</time>
      </trkpt>
      <trkpt lat="49.13191" lon="1.95806">
        <ele>103.9</ele>
        <time>2022-09-11T12:10:54Z</time>
      </trkpt>
      <trkpt lat="49.13185" lon="1.9582">
        <ele>103.7</ele>
        <time>2022-09-11T12:11:00Z</time>
      </trkpt>
      <trkpt lat="49.13181" lon="1.9583">
        <ele>103.5</ele>
        <time>2022-09-11T12:11:05Z</time>
      </trkpt>
      <trkpt lat="49.13174" lon="1.95842">
        <ele>103.3</ele>
        <time>2022-09-11T12:11:11Z</time>
      </trkpt>
      <trkpt lat="49.1317" lon="1.9585">
        <ele>103.1</ele>
        <time>2022-09-11T12:11:16Z</time>
      </trkpt>
      <trkpt lat="49.13164" lon="1.9586">
        <ele>103</ele>
        <time>2022-09-11T12:11:22Z</time>
      </trkpt>
      <trkpt lat="49.13159" lon="1.95869">
        <ele>102.9</ele>
        <time>2022-09-11T12:11:27Z</time>
      </trkpt>
      <trkpt lat="49.13154" lon="1.95875">
        <ele>102.8</ele>
        <time>2022-09-11T12:11:32Z</time>
      </trkpt>
      <trkpt lat="49.13148" lon="1.95884">
        <ele>102.5</ele>
        <time>2022-09-11T12:11:38Z</time>
      </trkpt>
      <trkpt lat="49.13144" lon="1.95892">
        <ele>102.2</ele>
        <time>2022-09-11T12:11:43Z</time>
      </trkpt>
      <trkpt lat="49.1314" lon="1.95897">
        <ele>102</ele>
        <time>2022-09-11T12:11:48Z</time>
      </trkpt>
      <trkpt lat="49.13133" lon="1.95905">
        <ele>102</ele>
        <time>2022-09-11T12:11:54Z</time>
      </trkpt>
      <trkpt lat="49.13127" lon="1.95914">
        <ele>102</ele>
        <time>2022-09-11T12:11:59Z</time>
      </trkpt>
      <trkpt lat="49.13119" lon="1.95926">
        <ele>101.7</ele>
        <time>2022-09-11T12:12:05Z</time>
      </trkpt>
      <trkpt lat="49.13112" lon="1.95934">
        <ele>101.4</ele>
        <time>2022-09-11T12:12:10Z</time>
      </trkpt>
      <trkpt lat="49.13105" lon="1.95946">
        <ele>100.8</ele>
        <time>2022-09-11T12:12:15Z</time>
      </trkpt>
      <trkpt lat="49.13098" lon="1.95957">
        <ele>100.5</ele>
        <time>2022-09-11T12:12:21Z</time>
      </trkpt>
      <trkpt lat="49.13092" lon="1.95965">
        <ele>100.3</ele>
        <time>2022-09-11T12:12:26Z</time>
      </trkpt>
      <trkpt lat="49.13087" lon="1.95977">
        <ele>100.1</ele>
        <time>2022-09-11T12:12:31Z</time>
      </trkpt>
      <trkpt lat="49.13081" lon="1.95985">
        <ele>100</ele>
        <time>2022-09-11T12:12:37Z</time>
      </trkpt>
      <trkpt lat="49.13073" lon="1.95995">
        <ele>100</ele>
        <time>2022-09-11T12:12:43Z</time>
      </trkpt>
      <trkpt lat="49.13065" lon="1.96004">
        <ele>99.9</ele>
        <time>2022-09-11T12:12:49Z</time>
      </trkpt>
      <trkpt lat="49.13058" lon="1.96011">
        <ele>99.6</ele>
        <time>2022-09-11T12:12:54Z</time>
      </trkpt>
      <trkpt lat="49.13053" lon="1.96021">
        <ele>99.3</ele>
        <time>2022-09-11T12:13:00Z</time>
      </trkpt>
      <trkpt lat="49.13047" lon="1.96029">
        <ele>99</ele>
        <time>2022-09-11T12:13:06Z</time>
      </trkpt>
      <trkpt lat="49.13043" lon="1.96039">
        <ele>98.8</ele>
        <time>2022-09-11T12:13:12Z</time>
      </trkpt>
      <trkpt lat="49.13038" lon="1.96047">
        <ele>98.5</ele>
        <time>2022-09-11T12:13:17Z</time>
      </trkpt>
      <trkpt lat="49.13032" lon="1.96055">
        <ele>98.2</ele>
        <time>2022-09-11T12:13:22Z</time>
      </trkpt>
      <trkpt lat="49.13024" lon="1.96055">
        <ele>98</ele>
        <time>2022-09-11T12:13:28Z</time>
      </trkpt>
      <trkpt lat="49.13019" lon="1.96068">
        <ele>97.9</ele>
        <time>2022-09-11T12:13:34Z</time>
      </trkpt>
      <trkpt lat="49.13015" lon="1.96077">
        <ele>97.7</ele>
        <time>2022-09-11T12:13:39Z</time>
      </trkpt>
      <trkpt lat="49.1301" lon="1.96086">
        <ele>97.3</ele>
        <time>2022-09-11T12:13:45Z</time>
      </trkpt>
      <trkpt lat="49.13006" lon="1.96094">
        <ele>97.1</ele>
        <time>2022-09-11T12:13:50Z</time>
      </trkpt>
      <trkpt lat="49.13" lon="1.96104">
        <ele>97</ele>
        <time>2022-09-11T12:13:56Z</time>
      </trkpt>
      <trkpt lat="49.12996" lon="1.96111">
        <ele>97</ele>
        <time>2022-09-11T12:14:01Z</time>
      </trkpt>
      <trkpt lat="49.12989" lon="1.96119">
        <ele>96.9</ele>
        <time>2022-09-11T12:14:06Z</time>
      </trkpt>
      <trkpt lat="49.12985" lon="1.96126">
        <ele>96.7</ele>
        <time>2022-09-11T12:14:11Z</time>
      </trkpt>
      <trkpt lat="49.12978" lon="1.96137">
        <ele>96.3</ele>
        <time>2022-09-11T12:14:17Z</time>
      </trkpt>
      <trkpt lat="49.12972" lon="1.96145">
        <ele>96</ele>
        <time>2022-09-11T12:14:22Z</time>
      </trkpt>
      <trkpt lat="49.12966" lon="1.96156">
        <ele>95.9</ele>
        <time>2022-09-11T12:14:28Z</time>
      </trkpt>
      <trkpt lat="49.12959" lon="1.96165">
        <ele>95.5</ele>
        <time>2022-09-11T12:14:34Z</time>
      </trkpt>
      <trkpt lat="49.12953" lon="1.96173">
        <ele>95.3</ele>
        <time>2022-09-11T12:14:39Z</time>
      </trkpt>
      <trkpt lat="49.12946" lon="1.96184">
        <ele>95.1</ele>
        <time>2022-09-11T12:14:45Z</time>
      </trkpt>
      <trkpt lat="49.1294" lon="1.96196">
        <ele>94.8</ele>
        <time>2022-09-11T12:14:51Z</time>
      </trkpt>
      <trkpt lat="49.12935" lon="1.96204">
        <ele>94.7</ele>
        <time>2022-09-11T12:14:56Z</time>
      </trkpt>
      <trkpt lat="49.12927" lon="1.96216">
        <ele>94.4</ele>
        <time>2022-09-11T12:15:02Z</time>
      </trkpt>
      <trkpt lat="49.1292" lon="1.96225">
        <ele>94.1</ele>
        <time>2022-09-11T12:15:07Z</time>
      </trkpt>
      <trkpt lat="49.12914" lon="1.96235">
        <ele>94</ele>
        <time>2022-09-11T12:15:12Z</time>
      </trkpt>
      <trkpt lat="49.12907" lon="1.96246">
        <ele>93.7</ele>
        <time>2022-09-11T12:15:18Z</time>
      </trkpt>
      <trkpt lat="49.12901" lon="1.96255">
        <ele>93.4</ele>
        <time>2022-09-11T12:15:23Z</time>
      </trkpt>
      <trkpt lat="49.12896" lon="1.96265">
        <ele>93.1</ele>
        <time>2022-09-11T12:15:29Z</time>
      </trkpt>
      <trkpt lat="49.12889" lon="1.96275">
        <ele>93</ele>
        <time>2022-09-11T12:15:35Z</time>
      </trkpt>
      <trkpt lat="49.12882" lon="1.96284">
        <ele>92.8</ele>
        <time>2022-09-11T12:15:40Z</time>
      </trkpt>
      <trkpt lat="49.12875" lon="1.96292">
        <ele>92.5</ele>
        <time>2022-09-11T12:15:45Z</time>
      </trkpt>
      <trkpt lat="49.12869" lon="1.96301">
        <ele>92.2</ele>
        <time>2022-09-11T12:15:51Z</time>
      </trkpt>
      <trkpt lat="49.12864" lon="1.96311">
        <ele>92</ele>
        <time>2022-09-11T12:15:57Z</time>
      </trkpt>
      <trkpt lat="49.12861" lon="1.96322">
        <ele>92</ele>
        <time>2022-09-11T12:16:02Z</time>
      </trkpt>
      <trkpt lat="49.12859" lon="1.96332">
        <ele>92</ele>
        <time>2022-09-11T12:16:07Z</time>
      </trkpt>
      <trkpt lat="49.12858" lon="1.96348">
        <ele>92</ele>
        <time>2022-09-11T12:16:13Z</time>
      </trkpt>
      <trkpt lat="49.12857" lon="1.96363">
        <ele>92</ele>
        <time>2022-09-11T12:16:19Z</time>
      </trkpt>
      <trkpt lat="49.12856" lon="1.96376">
        <ele>92</ele>
        <time>2022-09-11T12:16:25Z</time>
      </trkpt>
      <trkpt lat="49.12855" lon="1.96387">
        <ele>92</ele>
        <time>2022-09-11T12:16:31Z</time>
      </trkpt>
      <trkpt lat="49.12854" lon="1.96399">
        <ele>92</ele>
        <time>2022-09-11T12:16:36Z</time>
      </trkpt>
      <trkpt lat="49.12854" lon="1.9641">
        <ele>92</ele>
        <time>2022-09-11T12:16:42Z</time>
      </trkpt>
      <trkpt lat="49.12853" lon="1.96423">
        <ele>92.2</ele>
        <time>2022-09-11T12:16:48Z</time>
      </trkpt>
      <trkpt lat="49.12852" lon="1.96433">
        <ele>92.4</ele>
        <time>2022-09-11T12:16:53Z</time>
      </trkpt>
      <trkpt lat="49.12852" lon="1.96443">
        <ele>92.6</ele>
        <time>2022-09-11T12:16:58Z</time>
      </trkpt>
      <trkpt lat="49.12851" lon="1.96457">
        <ele>92.8</ele>
        <time>2022-09-11T12:17:04Z</time>
      </trkpt>
      <trkpt lat="49.1285" lon="1.96473">
        <ele>93</ele>
        <time>2022-09-11T12:17:10Z</time>
      </trkpt>
      <trkpt lat="49.1285" lon="1.96487">
        <ele>93</ele>
        <time>2022-09-11T12:17:15Z</time>
      </trkpt>
      <trkpt lat="49.12851" lon="1.96501">
        <ele>93</ele>
        <time>2022-09-11T12:17:21Z</time>
      </trkpt>
      <trkpt lat="49.12849" lon="1.96514">
        <ele>93.5</ele>
        <time>2022-09-11T12:17:27Z</time>
      </trkpt>
      <trkpt lat="49.1285" lon="1.96522">
        <ele>93.8</ele>
        <time>2022-09-11T12:17:32Z</time>
      </trkpt>
      <trkpt lat="49.1285" lon="1.96536">
        <ele>94.3</ele>
        <time>2022-09-11T12:17:38Z</time>
      </trkpt>
      <trkpt lat="49.12848" lon="1.96549">
        <ele>94.7</ele>
        <time>2022-09-11T12:17:43Z</time>
      </trkpt>
      <trkpt lat="49.12849" lon="1.96562">
        <ele>95.1</ele>
        <time>2022-09-11T12:17:49Z</time>
      </trkpt>
      <trkpt lat="49.12849" lon="1.96574">
        <ele>95.3</ele>
        <time>2022-09-11T12:17:54Z</time>
      </trkpt>
      <trkpt lat="49.12847" lon="1.96585">
        <ele>95.6</ele>
        <time>2022-09-11T12:18:00Z</time>
      </trkpt>
      <trkpt lat="49.12847" lon="1.96599">
        <ele>96.1</ele>
        <time>2022-09-11T12:18:06Z</time>
      </trkpt>
      <trkpt lat="49.12846" lon="1.96611">
        <ele>96.5</ele>
        <time>2022-09-11T12:18:12Z</time>
      </trkpt>
      <trkpt lat="49.12844" lon="1.96621">
        <ele>96.8</ele>
        <time>2022-09-11T12:18:18Z</time>
      </trkpt>
      <trkpt lat="49.1284" lon="1.96633">
        <ele>96.9</ele>
        <time>2022-09-11T12:18:24Z</time>
      </trkpt>
      <trkpt lat="49.12837" lon="1.96646">
        <ele>97.2</ele>
        <time>2022-09-11T12:18:29Z</time>
      </trkpt>
      <trkpt lat="49.12834" lon="1.96657">
        <ele>97.6</ele>
        <time>2022-09-11T12:18:35Z</time>
      </trkpt>
      <trkpt lat="49.1283" lon="1.96665">
        <ele>98</ele>
        <time>2022-09-11T12:18:40Z</time>
      </trkpt>
      <trkpt lat="49.12828" lon="1.96676">
        <ele>98.5</ele>
        <time>2022-09-11T12:18:45Z</time>
      </trkpt>
      <trkpt lat="49.12824" lon="1.96689">
        <ele>98.9</ele>
        <time>2022-09-11T12:18:51Z</time>
      </trkpt>
      <trkpt lat="49.12821" lon="1.96699">
        <ele>99.2</ele>
        <time>2022-09-11T12:18:57Z</time>
      </trkpt>
      <trkpt lat="49.12819" lon="1.96711">
        <ele>99.6</ele>
        <time>2022-09-11T12:19:02Z</time>
      </trkpt>
      <trkpt lat="49.12815" lon="1.96725">
        <ele>100.1</ele>
        <time>2022-09-11T12:19:08Z</time>
      </trkpt>
      <trkpt lat="49.12813" lon="1.96732">
        <ele>100.4</ele>
        <time>2022-09-11T12:19:13Z</time>
      </trkpt>
      <trkpt lat="49.1281" lon="1.96744">
        <ele>100.8</ele>
        <time>2022-09-11T12:19:19Z</time>
      </trkpt>
      <trkpt lat="49.12807" lon="1.96754">
        <ele>101.1</ele>
        <time>2022-09-11T12:19:24Z</time>
      </trkpt>
      <trkpt lat="49.12805" lon="1.96767">
        <ele>101.6</ele>
        <time>2022-09-11T12:19:30Z</time>
      </trkpt>
      <trkpt lat="49.12802" lon="1.96774">
        <ele>102</ele>
        <time>2022-09-11T12:19:35Z</time>
      </trkpt>
      <trkpt lat="49.128" lon="1.96786">
        <ele>102.4</ele>
        <time>2022-09-11T12:19:41Z</time>
      </trkpt>
      <trkpt lat="49.12798" lon="1.96798">
        <ele>102.8</ele>
        <time>2022-09-11T12:19:46Z</time>
      </trkpt>
      <trkpt lat="49.12794" lon="1.96808">
        <ele>103.1</ele>
        <time>2022-09-11T12:19:52Z</time>
      </trkpt>
      <trkpt lat="49.12789" lon="1.9682">
        <ele>103.5</ele>
        <time>2022-09-11T12:19:58Z</time>
      </trkpt>
      <trkpt lat="49.12785" lon="1.96834">
        <ele>104</ele>
        <time>2022-09-11T12:20:04Z</time>
      </trkpt>
      <trkpt lat="49.12783" lon="1.96841">
        <ele>104.5</ele>
        <time>2022-09-11T12:20:09Z</time>
      </trkpt>
      <trkpt lat="49.1278" lon="1.9685">
        <ele>105.2</ele>
        <time>2022-09-11T12:20:15Z</time>
      </trkpt>
      <trkpt lat="49.12774" lon="1.96862">
        <ele>106.2</ele>
        <time>2022-09-11T12:20:21Z</time>
      </trkpt>
      <trkpt lat="49.12767" lon="1.96874">
        <ele>106.9</ele>
        <time>2022-09-11T12:20:27Z</time>
      </trkpt>
      <trkpt lat="49.12763" lon="1.96881">
        <ele>107.3</ele>
        <time>2022-09-11T12:20:32Z</time>
      </trkpt>
      <trkpt lat="49.12759" lon="1.96891">
        <ele>107.8</ele>
        <time>2022-09-11T12:20:38Z</time>
      </trkpt>
      <trkpt lat="49.12757" lon="1.96903">
        <ele>108.3</ele>
        <time>2022-09-11T12:20:43Z</time>
      </trkpt>
      <trkpt lat="49.12755" lon="1.96911">
        <ele>108.6</ele>
        <time>2022-09-11T12:20:48Z</time>
      </trkpt>
      <trkpt lat="49.12752" lon="1.96923">
        <ele>109.3</ele>
        <time>2022-09-11T12:20:54Z</time>
      </trkpt>
      <trkpt lat="49.12749" lon="1.96933">
        <ele>110.2</ele>
        <time>2022-09-11T12:20:59Z</time>
      </trkpt>
      <trkpt lat="49.12745" lon="1.9694">
        <ele>110.9</ele>
        <time>2022-09-11T12:21:04Z</time>
      </trkpt>
      <trkpt lat="49.12743" lon="1.96951">
        <ele>111.6</ele>
        <time>2022-09-11T12:21:09Z</time>
      </trkpt>
      <trkpt lat="49.1274" lon="1.96962">
        <ele>112.2</ele>
        <time>2022-09-11T12:21:15Z</time>
      </trkpt>
      <trkpt lat="49.12737" lon="1.96975">
        <ele>113.1</ele>
        <time>2022-09-11T12:21:21Z</time>
      </trkpt>
      <trkpt lat="49.1273" lon="1.96984">
        <ele>114.3</ele>
        <time>2022-09-11T12:21:27Z</time>
      </trkpt>
      <trkpt lat="49.12726" lon="1.96991">
        <ele>115</ele>
        <time>2022-09-11T12:21:32Z</time>
      </trkpt>
      <trkpt lat="49.12721" lon="1.96999">
        <ele>115.9</ele>
        <time>2022-09-11T12:21:38Z</time>
      </trkpt>
      <trkpt lat="49.12719" lon="1.97006">
        <ele>116.3</ele>
        <time>2022-09-11T12:21:43Z</time>
      </trkpt>
      <trkpt lat="49.12715" lon="1.97017">
        <ele>116.9</ele>
        <time>2022-09-11T12:21:49Z</time>
      </trkpt>
      <trkpt lat="49.12708" lon="1.97024">
        <ele>117.4</ele>
        <time>2022-09-11T12:21:55Z</time>
      </trkpt>
      <trkpt lat="49.12703" lon="1.97031">
        <ele>117.6</ele>
        <time>2022-09-11T12:22:00Z</time>
      </trkpt>
      <trkpt lat="49.12698" lon="1.97034">
        <ele>117.7</ele>
        <time>2022-09-11T12:22:06Z</time>
      </trkpt>
      <trkpt lat="49.12696" lon="1.97035">
        <ele>117.7</ele>
        <time>2022-09-11T12:22:12Z</time>
      </trkpt>
      <trkpt lat="49.12696" lon="1.97036">
        <ele>117.6</ele>
        <time>2022-09-11T12:22:23Z</time>
      </trkpt>
      <trkpt lat="49.12697" lon="1.97038">
        <ele>117.6</ele>
        <time>2022-09-11T12:22:28Z</time>
      </trkpt>
      <trkpt lat="49.12696" lon="1.97038">
        <ele>117.6</ele>
        <time>2022-09-11T12:22:34Z</time>
      </trkpt>
      <trkpt lat="49.12695" lon="1.97038">
        <ele>117.6</ele>
        <time>2022-09-11T12:22:40Z</time>
      </trkpt>
      <trkpt lat="49.12695" lon="1.97034">
        <ele>117.8</ele>
        <time>2022-09-11T12:22:46Z</time>
      </trkpt>
      <trkpt lat="49.12695" lon="1.97035">
        <ele>117.7</ele>
        <time>2022-09-11T12:22:51Z</time>
      </trkpt>
      <trkpt lat="49.12695" lon="1.97036">
        <ele>117.7</ele>
        <time>2022-09-11T12:23:08Z</time>
      </trkpt>
      <trkpt lat="49.12695" lon="1.97037">
        <ele>117.7</ele>
        <time>2022-09-11T12:23:13Z</time>
      </trkpt>
      <trkpt lat="49.12695" lon="1.97035">
        <ele>117.7</ele>
        <time>2022-09-11T12:23:19Z</time>
      </trkpt>
      <trkpt lat="49.12695" lon="1.97034">
        <ele>117.8</ele>
        <time>2022-09-11T12:23:24Z</time>
      </trkpt>
      <trkpt lat="49.12694" lon="1.97034">
        <ele>117.8</ele>
        <time>2022-09-11T12:23:41Z</time>
      </trkpt>
      <trkpt lat="49.12694" lon="1.97033">
        <ele>117.8</ele>
        <time>2022-09-11T12:23:47Z</time>
      </trkpt>
      <trkpt lat="49.12693" lon="1.97032">
        <ele>117.8</ele>
        <time>2022-09-11T12:23:58Z</time>
      </trkpt>
      <trkpt lat="49.12694" lon="1.97033">
        <ele>117.8</ele>
        <time>2022-09-11T12:24:09Z</time>
      </trkpt>
      <trkpt lat="49.12694" lon="1.97034">
        <ele>117.8</ele>
        <time>2022-09-11T12:24:15Z</time>
      </trkpt>
      <trkpt lat="49.12694" lon="1.97033">
        <ele>117.8</ele>
        <time>2022-09-11T12:24:33Z</time>
      </trkpt>
      <trkpt lat="49.12694" lon="1.97032">
        <ele>117.8</ele>
        <time>2022-09-11T12:24:38Z</time>
      </trkpt>
      <trkpt lat="49.12694" lon="1.97031">
        <ele>117.9</ele>
        <time>2022-09-11T12:24:43Z</time>
      </trkpt>
      <trkpt lat="49.12694" lon="1.9703">
        <ele>117.9</ele>
        <time>2022-09-11T12:25:01Z</time>
      </trkpt>
      <trkpt lat="49.12694" lon="1.97031">
        <ele>117.8</ele>
        <time>2022-09-11T12:25:18Z</time>
      </trkpt>
      <trkpt lat="49.12694" lon="1.9703">
        <ele>117.9</ele>
        <time>2022-09-11T12:25:29Z</time>
      </trkpt>
      <trkpt lat="49.12694" lon="1.97029">
        <ele>117.9</ele>
        <time>2022-09-11T12:25:58Z</time>
      </trkpt>
      <trkpt lat="49.12693" lon="1.97029">
        <ele>117.9</ele>
        <time>2022-09-11T12:26:14Z</time>
      </trkpt>
      <trkpt lat="49.12693" lon="1.9703">
        <ele>117.9</ele>
        <time>2022-09-11T12:26:20Z</time>
      </trkpt>
      <trkpt lat="49.12693" lon="1.97031">
        <ele>117.8</ele>
        <time>2022-09-11T12:26:25Z</time>
      </trkpt>
      <trkpt lat="49.12692" lon="1.97032">
        <ele>117.8</ele>
        <time>2022-09-11T12:26:36Z</time>
      </trkpt>
      <trkpt lat="49.12692" lon="1.97031">
        <ele>117.8</ele>
        <time>2022-09-11T12:26:41Z</time>
      </trkpt>
      <trkpt lat="49.12691" lon="1.97031">
        <ele>117.8</ele>
        <time>2022-09-11T12:26:47Z</time>
      </trkpt>
      <trkpt lat="49.12691" lon="1.9703">
        <ele>117.8</ele>
        <time>2022-09-11T12:26:59Z</time>
      </trkpt>
      <trkpt lat="49.12691" lon="1.97029">
        <ele>117.8</ele>
        <time>2022-09-11T12:27:05Z</time>
      </trkpt>
      <trkpt lat="49.12691" lon="1.97027">
        <ele>117.9</ele>
        <time>2022-09-11T12:27:11Z</time>
      </trkpt>
      <trkpt lat="49.12691" lon="1.97028">
        <ele>117.9</ele>
        <time>2022-09-11T12:27:28Z</time>
      </trkpt>
      <trkpt lat="49.1269" lon="1.97028">
        <ele>117.8</ele>
        <time>2022-09-11T12:27:33Z</time>
      </trkpt>
      <trkpt lat="49.1269" lon="1.97027">
        <ele>117.8</ele>
        <time>2022-09-11T12:27:55Z</time>
      </trkpt>
      <trkpt lat="49.12691" lon="1.97029">
        <ele>117.9</ele>
        <time>2022-09-11T12:28:01Z</time>
      </trkpt>
      <trkpt lat="49.12693" lon="1.97023">
        <ele>117.8</ele>
        <time>2022-09-11T12:28:12Z</time>
      </trkpt>
      <trkpt lat="49.12694" lon="1.97007">
        <ele>117.3</ele>
        <time>2022-09-11T12:28:18Z</time>
      </trkpt>
      <trkpt lat="49.12694" lon="1.96998">
        <ele>116.9</ele>
        <time>2022-09-11T12:28:23Z</time>
      </trkpt>
      <trkpt lat="49.12694" lon="1.96987">
        <ele>116.5</ele>
        <time>2022-09-11T12:28:28Z</time>
      </trkpt>
      <trkpt lat="49.12694" lon="1.96975">
        <ele>116.1</ele>
        <time>2022-09-11T12:28:34Z</time>
      </trkpt>
      <trkpt lat="49.12693" lon="1.96961">
        <ele>115.3</ele>
        <time>2022-09-11T12:28:40Z</time>
      </trkpt>
      <trkpt lat="49.12692" lon="1.96949">
        <ele>114.4</ele>
        <time>2022-09-11T12:28:45Z</time>
      </trkpt>
      <trkpt lat="49.12691" lon="1.96936">
        <ele>113.6</ele>
        <time>2022-09-11T12:28:51Z</time>
      </trkpt>
      <trkpt lat="49.12689" lon="1.96924">
        <ele>112.9</ele>
        <time>2022-09-11T12:28:57Z</time>
      </trkpt>
      <trkpt lat="49.12688" lon="1.96915">
        <ele>112.4</ele>
        <time>2022-09-11T12:29:02Z</time>
      </trkpt>
      <trkpt lat="49.12686" lon="1.96903">
        <ele>112.1</ele>
        <time>2022-09-11T12:29:07Z</time>
      </trkpt>
      <trkpt lat="49.12685" lon="1.9689">
        <ele>111.7</ele>
        <time>2022-09-11T12:29:13Z</time>
      </trkpt>
      <trkpt lat="49.12683" lon="1.9688">
        <ele>111.4</ele>
        <time>2022-09-11T12:29:18Z</time>
      </trkpt>
      <trkpt lat="49.12682" lon="1.96869">
        <ele>110.8</ele>
        <time>2022-09-11T12:29:24Z</time>
      </trkpt>
      <trkpt lat="49.1268" lon="1.96859">
        <ele>110.4</ele>
        <time>2022-09-11T12:29:29Z</time>
      </trkpt>
      <trkpt lat="49.12678" lon="1.96848">
        <ele>110.1</ele>
        <time>2022-09-11T12:29:35Z</time>
      </trkpt>
      <trkpt lat="49.12676" lon="1.96838">
        <ele>109.8</ele>
        <time>2022-09-11T12:29:40Z</time>
      </trkpt>
      <trkpt lat="49.12674" lon="1.96825">
        <ele>109.3</ele>
        <time>2022-09-11T12:29:46Z</time>
      </trkpt>
      <trkpt lat="49.12673" lon="1.96812">
        <ele>108.8</ele>
        <time>2022-09-11T12:29:52Z</time>
      </trkpt>
      <trkpt lat="49.1267" lon="1.96801">
        <ele>108.6</ele>
        <time>2022-09-11T12:29:57Z</time>
      </trkpt>
      <trkpt lat="49.12667" lon="1.96789">
        <ele>108.4</ele>
        <time>2022-09-11T12:30:02Z</time>
      </trkpt>
      <trkpt lat="49.12663" lon="1.96779">
        <ele>108.2</ele>
        <time>2022-09-11T12:30:07Z</time>
      </trkpt>
      <trkpt lat="49.12658" lon="1.96766">
        <ele>107.9</ele>
        <time>2022-09-11T12:30:13Z</time>
      </trkpt>
      <trkpt lat="49.12655" lon="1.96754">
        <ele>107.6</ele>
        <time>2022-09-11T12:30:19Z</time>
      </trkpt>
      <trkpt lat="49.12653" lon="1.96744">
        <ele>107.3</ele>
        <time>2022-09-11T12:30:24Z</time>
      </trkpt>
      <trkpt lat="49.1265" lon="1.96728">
        <ele>106.8</ele>
        <time>2022-09-11T12:30:30Z</time>
      </trkpt>
      <trkpt lat="49.12647" lon="1.96713">
        <ele>106.4</ele>
        <time>2022-09-11T12:30:36Z</time>
      </trkpt>
      <trkpt lat="49.12646" lon="1.96699">
        <ele>105.9</ele>
        <time>2022-09-11T12:30:42Z</time>
      </trkpt>
      <trkpt lat="49.12645" lon="1.96688">
        <ele>105.6</ele>
        <time>2022-09-11T12:30:47Z</time>
      </trkpt>
      <trkpt lat="49.12645" lon="1.96674">
        <ele>105.2</ele>
        <time>2022-09-11T12:30:53Z</time>
      </trkpt>
      <trkpt lat="49.12645" lon="1.96662">
        <ele>105</ele>
        <time>2022-09-11T12:30:59Z</time>
      </trkpt>
      <trkpt lat="49.12645" lon="1.96647">
        <ele>104.8</ele>
        <time>2022-09-11T12:31:05Z</time>
      </trkpt>
      <trkpt lat="49.12645" lon="1.96635">
        <ele>104.6</ele>
        <time>2022-09-11T12:31:10Z</time>
      </trkpt>
      <trkpt lat="49.12645" lon="1.96624">
        <ele>104.2</ele>
        <time>2022-09-11T12:31:15Z</time>
      </trkpt>
      <trkpt lat="49.12644" lon="1.96611">
        <ele>103.8</ele>
        <time>2022-09-11T12:31:21Z</time>
      </trkpt>
      <trkpt lat="49.12644" lon="1.96596">
        <ele>103.7</ele>
        <time>2022-09-11T12:31:27Z</time>
      </trkpt>
      <trkpt lat="49.12643" lon="1.96584">
        <ele>103.7</ele>
        <time>2022-09-11T12:31:32Z</time>
      </trkpt>
      <trkpt lat="49.12643" lon="1.9657">
        <ele>103.2</ele>
        <time>2022-09-11T12:31:38Z</time>
      </trkpt>
      <trkpt lat="49.12642" lon="1.9656">
        <ele>103</ele>
        <time>2022-09-11T12:31:43Z</time>
      </trkpt>
      <trkpt lat="49.12641" lon="1.96549">
        <ele>102.9</ele>
        <time>2022-09-11T12:31:49Z</time>
      </trkpt>
      <trkpt lat="49.12641" lon="1.96534">
        <ele>102.8</ele>
        <time>2022-09-11T12:31:55Z</time>
      </trkpt>
      <trkpt lat="49.12639" lon="1.96521">
        <ele>102.7</ele>
        <time>2022-09-11T12:32:01Z</time>
      </trkpt>
      <trkpt lat="49.12638" lon="1.96511">
        <ele>102.5</ele>
        <time>2022-09-11T12:32:06Z</time>
      </trkpt>
      <trkpt lat="49.12637" lon="1.96498">
        <ele>102.1</ele>
        <time>2022-09-11T12:32:12Z</time>
      </trkpt>
      <trkpt lat="49.12636" lon="1.96483">
        <ele>101.7</ele>
        <time>2022-09-11T12:32:18Z</time>
      </trkpt>
      <trkpt lat="49.12635" lon="1.96472">
        <ele>101.4</ele>
        <time>2022-09-11T12:32:23Z</time>
      </trkpt>
      <trkpt lat="49.12636" lon="1.96457">
        <ele>101.3</ele>
        <time>2022-09-11T12:32:29Z</time>
      </trkpt>
      <trkpt lat="49.12636" lon="1.96447">
        <ele>101.3</ele>
        <time>2022-09-11T12:32:34Z</time>
      </trkpt>
      <trkpt lat="49.12637" lon="1.96433">
        <ele>100.8</ele>
        <time>2022-09-11T12:32:40Z</time>
      </trkpt>
      <trkpt lat="49.12636" lon="1.96419">
        <ele>100.4</ele>
        <time>2022-09-11T12:32:46Z</time>
      </trkpt>
      <trkpt lat="49.12635" lon="1.96411">
        <ele>100.2</ele>
        <time>2022-09-11T12:32:51Z</time>
      </trkpt>
      <trkpt lat="49.12633" lon="1.96394">
        <ele>99.9</ele>
        <time>2022-09-11T12:32:57Z</time>
      </trkpt>
      <trkpt lat="49.12634" lon="1.9638">
        <ele>99.4</ele>
        <time>2022-09-11T12:33:03Z</time>
      </trkpt>
      <trkpt lat="49.12634" lon="1.96369">
        <ele>98.9</ele>
        <time>2022-09-11T12:33:08Z</time>
      </trkpt>
      <trkpt lat="49.12636" lon="1.96355">
        <ele>98</ele>
        <time>2022-09-11T12:33:13Z</time>
      </trkpt>
      <trkpt lat="49.12635" lon="1.96337">
        <ele>96.9</ele>
        <time>2022-09-11T12:33:19Z</time>
      </trkpt>
      <trkpt lat="49.12634" lon="1.96326">
        <ele>96.4</ele>
        <time>2022-09-11T12:33:24Z</time>
      </trkpt>
      <trkpt lat="49.12632" lon="1.96313">
        <ele>96</ele>
        <time>2022-09-11T12:33:30Z</time>
      </trkpt>
      <trkpt lat="49.12631" lon="1.96299">
        <ele>95.3</ele>
        <time>2022-09-11T12:33:36Z</time>
      </trkpt>
      <trkpt lat="49.1263" lon="1.96289">
        <ele>94.7</ele>
        <time>2022-09-11T12:33:41Z</time>
      </trkpt>
      <trkpt lat="49.1263" lon="1.96281">
        <ele>94.2</ele>
        <time>2022-09-11T12:33:46Z</time>
      </trkpt>
      <trkpt lat="49.12631" lon="1.96267">
        <ele>93.2</ele>
        <time>2022-09-11T12:33:52Z</time>
      </trkpt>
      <trkpt lat="49.12632" lon="1.96253">
        <ele>92.6</ele>
        <time>2022-09-11T12:33:58Z</time>
      </trkpt>
      <trkpt lat="49.12632" lon="1.96238">
        <ele>91.9</ele>
        <time>2022-09-11T12:34:04Z</time>
      </trkpt>
      <trkpt lat="49.12632" lon="1.96228">
        <ele>91.3</ele>
        <time>2022-09-11T12:34:09Z</time>
      </trkpt>
      <trkpt lat="49.12633" lon="1.96214">
        <ele>90.3</ele>
        <time>2022-09-11T12:34:15Z</time>
      </trkpt>
      <trkpt lat="49.12634" lon="1.96198">
        <ele>89</ele>
        <time>2022-09-11T12:34:21Z</time>
      </trkpt>
      <trkpt lat="49.12636" lon="1.96187">
        <ele>88.1</ele>
        <time>2022-09-11T12:34:27Z</time>
      </trkpt>
      <trkpt lat="49.12635" lon="1.96175">
        <ele>87.7</ele>
        <time>2022-09-11T12:34:33Z</time>
      </trkpt>
      <trkpt lat="49.12634" lon="1.96161">
        <ele>87.3</ele>
        <time>2022-09-11T12:34:39Z</time>
      </trkpt>
      <trkpt lat="49.12635" lon="1.96149">
        <ele>86.8</ele>
        <time>2022-09-11T12:34:44Z</time>
      </trkpt>
      <trkpt lat="49.12635" lon="1.96137">
        <ele>86.3</ele>
        <time>2022-09-11T12:34:49Z</time>
      </trkpt>
      <trkpt lat="49.12635" lon="1.96127">
        <ele>85.9</ele>
        <time>2022-09-11T12:34:54Z</time>
      </trkpt>
      <trkpt lat="49.12635" lon="1.96116">
        <ele>85.5</ele>
        <time>2022-09-11T12:34:59Z</time>
      </trkpt>
      <trkpt lat="49.12635" lon="1.96101">
        <ele>85.2</ele>
        <time>2022-09-11T12:35:05Z</time>
      </trkpt>
      <trkpt lat="49.12626" lon="1.96096">
        <ele>85.4</ele>
        <time>2022-09-11T12:35:11Z</time>
      </trkpt>
      <trkpt lat="49.12619" lon="1.96097">
        <ele>85.7</ele>
        <time>2022-09-11T12:35:16Z</time>
      </trkpt>
      <trkpt lat="49.12611" lon="1.96096">
        <ele>85.9</ele>
        <time>2022-09-11T12:35:22Z</time>
      </trkpt>
      <trkpt lat="49.12606" lon="1.9609">
        <ele>86</ele>
        <time>2022-09-11T12:35:27Z</time>
      </trkpt>
      <trkpt lat="49.12601" lon="1.9608">
        <ele>85.9</ele>
        <time>2022-09-11T12:35:32Z</time>
      </trkpt>
      <trkpt lat="49.12596" lon="1.96071">
        <ele>86</ele>
        <time>2022-09-11T12:35:38Z</time>
      </trkpt>
      <trkpt lat="49.1259" lon="1.96066">
        <ele>86.5</ele>
        <time>2022-09-11T12:35:43Z</time>
      </trkpt>
      <trkpt lat="49.12583" lon="1.96059">
        <ele>87.1</ele>
        <time>2022-09-11T12:35:49Z</time>
      </trkpt>
      <trkpt lat="49.12576" lon="1.96054">
        <ele>87.3</ele>
        <time>2022-09-11T12:35:54Z</time>
      </trkpt>
      <trkpt lat="49.12569" lon="1.96051">
        <ele>87.6</ele>
        <time>2022-09-11T12:35:59Z</time>
      </trkpt>
      <trkpt lat="49.12564" lon="1.96048">
        <ele>87.7</ele>
        <time>2022-09-11T12:36:04Z</time>
      </trkpt>
      <trkpt lat="49.12556" lon="1.96041">
        <ele>87.8</ele>
        <time>2022-09-11T12:36:10Z</time>
      </trkpt>
      <trkpt lat="49.12545" lon="1.96035">
        <ele>89</ele>
        <time>2022-09-11T12:36:16Z</time>
      </trkpt>
      <trkpt lat="49.1254" lon="1.96029">
        <ele>89.3</ele>
        <time>2022-09-11T12:36:21Z</time>
      </trkpt>
      <trkpt lat="49.12533" lon="1.96021">
        <ele>89.4</ele>
        <time>2022-09-11T12:36:27Z</time>
      </trkpt>
      <trkpt lat="49.12527" lon="1.96014">
        <ele>89.6</ele>
        <time>2022-09-11T12:36:32Z</time>
      </trkpt>
      <trkpt lat="49.12522" lon="1.96007">
        <ele>89.8</ele>
        <time>2022-09-11T12:36:37Z</time>
      </trkpt>
      <trkpt lat="49.12514" lon="1.95996">
        <ele>90.1</ele>
        <time>2022-09-11T12:36:43Z</time>
      </trkpt>
      <trkpt lat="49.12509" lon="1.95988">
        <ele>90.4</ele>
        <time>2022-09-11T12:36:48Z</time>
      </trkpt>
      <trkpt lat="49.12506" lon="1.95976">
        <ele>90.1</ele>
        <time>2022-09-11T12:36:54Z</time>
      </trkpt>
      <trkpt lat="49.125" lon="1.95966">
        <ele>90.2</ele>
        <time>2022-09-11T12:36:59Z</time>
      </trkpt>
      <trkpt lat="49.12494" lon="1.95954">
        <ele>90</ele>
        <time>2022-09-11T12:37:05Z</time>
      </trkpt>
      <trkpt lat="49.12489" lon="1.95949">
        <ele>90.3</ele>
        <time>2022-09-11T12:37:10Z</time>
      </trkpt>
      <trkpt lat="49.12484" lon="1.9594">
        <ele>90.7</ele>
        <time>2022-09-11T12:37:16Z</time>
      </trkpt>
      <trkpt lat="49.12478" lon="1.95932">
        <ele>91.4</ele>
        <time>2022-09-11T12:37:22Z</time>
      </trkpt>
      <trkpt lat="49.12473" lon="1.95923">
        <ele>92.1</ele>
        <time>2022-09-11T12:37:27Z</time>
      </trkpt>
      <trkpt lat="49.12466" lon="1.95914">
        <ele>92.2</ele>
        <time>2022-09-11T12:37:33Z</time>
      </trkpt>
      <trkpt lat="49.12459" lon="1.95905">
        <ele>92.3</ele>
        <time>2022-09-11T12:37:38Z</time>
      </trkpt>
      <trkpt lat="49.12451" lon="1.95896">
        <ele>92.6</ele>
        <time>2022-09-11T12:37:44Z</time>
      </trkpt>
      <trkpt lat="49.12443" lon="1.9589">
        <ele>93.1</ele>
        <time>2022-09-11T12:37:49Z</time>
      </trkpt>
      <trkpt lat="49.12435" lon="1.95883">
        <ele>93.5</ele>
        <time>2022-09-11T12:37:55Z</time>
      </trkpt>
      <trkpt lat="49.12428" lon="1.95875">
        <ele>93.7</ele>
        <time>2022-09-11T12:38:01Z</time>
      </trkpt>
      <trkpt lat="49.12422" lon="1.95868">
        <ele>93.9</ele>
        <time>2022-09-11T12:38:07Z</time>
      </trkpt>
      <trkpt lat="49.12415" lon="1.95864">
        <ele>94.2</ele>
        <time>2022-09-11T12:38:13Z</time>
      </trkpt>
      <trkpt lat="49.12406" lon="1.95862">
        <ele>94.8</ele>
        <time>2022-09-11T12:38:19Z</time>
      </trkpt>
      <trkpt lat="49.12398" lon="1.95867">
        <ele>95.5</ele>
        <time>2022-09-11T12:38:24Z</time>
      </trkpt>
      <trkpt lat="49.1239" lon="1.95867">
        <ele>96.1</ele>
        <time>2022-09-11T12:38:30Z</time>
      </trkpt>
      <trkpt lat="49.12384" lon="1.95868">
        <ele>96.4</ele>
        <time>2022-09-11T12:38:35Z</time>
      </trkpt>
      <trkpt lat="49.12375" lon="1.95872">
        <ele>96.9</ele>
        <time>2022-09-11T12:38:41Z</time>
      </trkpt>
      <trkpt lat="49.12367" lon="1.95876">
        <ele>97.3</ele>
        <time>2022-09-11T12:38:46Z</time>
      </trkpt>
      <trkpt lat="49.12359" lon="1.95881">
        <ele>97.7</ele>
        <time>2022-09-11T12:38:51Z</time>
      </trkpt>
      <trkpt lat="49.12351" lon="1.95887">
        <ele>97.6</ele>
        <time>2022-09-11T12:38:57Z</time>
      </trkpt>
      <trkpt lat="49.12343" lon="1.9589">
        <ele>97.4</ele>
        <time>2022-09-11T12:39:03Z</time>
      </trkpt>
      <trkpt lat="49.12336" lon="1.95893">
        <ele>97.1</ele>
        <time>2022-09-11T12:39:09Z</time>
      </trkpt>
      <trkpt lat="49.12328" lon="1.95896">
        <ele>97</ele>
        <time>2022-09-11T12:39:15Z</time>
      </trkpt>
      <trkpt lat="49.12322" lon="1.95903">
        <ele>97</ele>
        <time>2022-09-11T12:39:21Z</time>
      </trkpt>
      <trkpt lat="49.12313" lon="1.95912">
        <ele>97</ele>
        <time>2022-09-11T12:39:27Z</time>
      </trkpt>
      <trkpt lat="49.12304" lon="1.95922">
        <ele>97</ele>
        <time>2022-09-11T12:39:33Z</time>
      </trkpt>
      <trkpt lat="49.12297" lon="1.95927">
        <ele>97</ele>
        <time>2022-09-11T12:39:38Z</time>
      </trkpt>
      <trkpt lat="49.12289" lon="1.95933">
        <ele>97</ele>
        <time>2022-09-11T12:39:44Z</time>
      </trkpt>
      <trkpt lat="49.12281" lon="1.95941">
        <ele>97</ele>
        <time>2022-09-11T12:39:50Z</time>
      </trkpt>
      <trkpt lat="49.12274" lon="1.95948">
        <ele>96.8</ele>
        <time>2022-09-11T12:39:56Z</time>
      </trkpt>
      <trkpt lat="49.12265" lon="1.95954">
        <ele>96.5</ele>
        <time>2022-09-11T12:40:02Z</time>
      </trkpt>
      <trkpt lat="49.12259" lon="1.95958">
        <ele>96.3</ele>
        <time>2022-09-11T12:40:07Z</time>
      </trkpt>
      <trkpt lat="49.12251" lon="1.95962">
        <ele>96</ele>
        <time>2022-09-11T12:40:13Z</time>
      </trkpt>
      <trkpt lat="49.12245" lon="1.95968">
        <ele>95.6</ele>
        <time>2022-09-11T12:40:19Z</time>
      </trkpt>
      <trkpt lat="49.12239" lon="1.95976">
        <ele>95.2</ele>
        <time>2022-09-11T12:40:24Z</time>
      </trkpt>
      <trkpt lat="49.12231" lon="1.95981">
        <ele>94.6</ele>
        <time>2022-09-11T12:40:30Z</time>
      </trkpt>
      <trkpt lat="49.12225" lon="1.95988">
        <ele>94.2</ele>
        <time>2022-09-11T12:40:36Z</time>
      </trkpt>
      <trkpt lat="49.12219" lon="1.95995">
        <ele>93.6</ele>
        <time>2022-09-11T12:40:41Z</time>
      </trkpt>
      <trkpt lat="49.12213" lon="1.96005">
        <ele>92.9</ele>
        <time>2022-09-11T12:40:46Z</time>
      </trkpt>
      <trkpt lat="49.12207" lon="1.96014">
        <ele>92.1</ele>
        <time>2022-09-11T12:40:52Z</time>
      </trkpt>
      <trkpt lat="49.12204" lon="1.96017">
        <ele>91.9</ele>
        <time>2022-09-11T12:40:57Z</time>
      </trkpt>
      <trkpt lat="49.12202" lon="1.96018">
        <ele>91.6</ele>
        <time>2022-09-11T12:41:03Z</time>
      </trkpt>
      <trkpt lat="49.122" lon="1.96027">
        <ele>91.4</ele>
        <time>2022-09-11T12:41:08Z</time>
      </trkpt>
      <trkpt lat="49.12194" lon="1.96041">
        <ele>91</ele>
        <time>2022-09-11T12:41:14Z</time>
      </trkpt>
      <trkpt lat="49.12188" lon="1.96053">
        <ele>90.3</ele>
        <time>2022-09-11T12:41:20Z</time>
      </trkpt>
      <trkpt lat="49.12181" lon="1.96062">
        <ele>89.6</ele>
        <time>2022-09-11T12:41:26Z</time>
      </trkpt>
      <trkpt lat="49.12174" lon="1.96073">
        <ele>88.8</ele>
        <time>2022-09-11T12:41:32Z</time>
      </trkpt>
      <trkpt lat="49.12169" lon="1.96082">
        <ele>88.3</ele>
        <time>2022-09-11T12:41:38Z</time>
      </trkpt>
      <trkpt lat="49.12165" lon="1.96093">
        <ele>87.5</ele>
        <time>2022-09-11T12:41:43Z</time>
      </trkpt>
      <trkpt lat="49.12161" lon="1.96103">
        <ele>86.6</ele>
        <time>2022-09-11T12:41:49Z</time>
      </trkpt>
      <trkpt lat="49.12157" lon="1.96112">
        <ele>85.9</ele>
        <time>2022-09-11T12:41:54Z</time>
      </trkpt>
      <trkpt lat="49.12153" lon="1.96118">
        <ele>85.5</ele>
        <time>2022-09-11T12:41:59Z</time>
      </trkpt>
      <trkpt lat="49.12148" lon="1.96123">
        <ele>85</ele>
        <time>2022-09-11T12:42:04Z</time>
      </trkpt>
      <trkpt lat="49.12141" lon="1.96132">
        <ele>84.2</ele>
        <time>2022-09-11T12:42:10Z</time>
      </trkpt>
      <trkpt lat="49.12137" lon="1.9614">
        <ele>83.7</ele>
        <time>2022-09-11T12:42:16Z</time>
      </trkpt>
      <trkpt lat="49.12132" lon="1.9615">
        <ele>83</ele>
        <time>2022-09-11T12:42:21Z</time>
      </trkpt>
      <trkpt lat="49.12127" lon="1.9616">
        <ele>82.3</ele>
        <time>2022-09-11T12:42:26Z</time>
      </trkpt>
      <trkpt lat="49.12121" lon="1.96171">
        <ele>81.5</ele>
        <time>2022-09-11T12:42:32Z</time>
      </trkpt>
      <trkpt lat="49.12116" lon="1.96182">
        <ele>81.2</ele>
        <time>2022-09-11T12:42:37Z</time>
      </trkpt>
      <trkpt lat="49.12111" lon="1.96194">
        <ele>81</ele>
        <time>2022-09-11T12:42:43Z</time>
      </trkpt>
      <trkpt lat="49.12107" lon="1.96204">
        <ele>79.7</ele>
        <time>2022-09-11T12:42:49Z</time>
      </trkpt>
      <trkpt lat="49.12102" lon="1.96213">
        <ele>78.4</ele>
        <time>2022-09-11T12:42:55Z</time>
      </trkpt>
      <trkpt lat="49.12099" lon="1.96221">
        <ele>77.4</ele>
        <time>2022-09-11T12:43:00Z</time>
      </trkpt>
      <trkpt lat="49.12095" lon="1.9623">
        <ele>76.5</ele>
        <time>2022-09-11T12:43:06Z</time>
      </trkpt>
      <trkpt lat="49.12091" lon="1.96237">
        <ele>75.7</ele>
        <time>2022-09-11T12:43:12Z</time>
      </trkpt>
      <trkpt lat="49.1209" lon="1.96245">
        <ele>75.4</ele>
        <time>2022-09-11T12:43:17Z</time>
      </trkpt>
      <trkpt lat="49.1209" lon="1.96252">
        <ele>75.3</ele>
        <time>2022-09-11T12:43:22Z</time>
      </trkpt>
      <trkpt lat="49.12086" lon="1.96261">
        <ele>74.2</ele>
        <time>2022-09-11T12:43:28Z</time>
      </trkpt>
      <trkpt lat="49.12081" lon="1.96278">
        <ele>72.4</ele>
        <time>2022-09-11T12:43:34Z</time>
      </trkpt>
      <trkpt lat="49.12076" lon="1.96289">
        <ele>70.7</ele>
        <time>2022-09-11T12:43:39Z</time>
      </trkpt>
      <trkpt lat="49.12072" lon="1.96298">
        <ele>69.2</ele>
        <time>2022-09-11T12:43:44Z</time>
      </trkpt>
      <trkpt lat="49.12069" lon="1.9631">
        <ele>68.1</ele>
        <time>2022-09-11T12:43:50Z</time>
      </trkpt>
      <trkpt lat="49.12068" lon="1.96321">
        <ele>67.4</ele>
        <time>2022-09-11T12:43:55Z</time>
      </trkpt>
      <trkpt lat="49.12066" lon="1.96332">
        <ele>66.4</ele>
        <time>2022-09-11T12:44:00Z</time>
      </trkpt>
      <trkpt lat="49.12065" lon="1.96341">
        <ele>65.6</ele>
        <time>2022-09-11T12:44:05Z</time>
      </trkpt>
      <trkpt lat="49.12065" lon="1.9635">
        <ele>64.9</ele>
        <time>2022-09-11T12:44:11Z</time>
      </trkpt>
      <trkpt lat="49.12066" lon="1.96358">
        <ele>64.6</ele>
        <time>2022-09-11T12:44:16Z</time>
      </trkpt>
      <trkpt lat="49.12068" lon="1.96369">
        <ele>64.6</ele>
        <time>2022-09-11T12:44:22Z</time>
      </trkpt>
      <trkpt lat="49.12069" lon="1.96379">
        <ele>64</ele>
        <time>2022-09-11T12:44:27Z</time>
      </trkpt>
      <trkpt lat="49.12067" lon="1.96396">
        <ele>62.5</ele>
        <time>2022-09-11T12:44:33Z</time>
      </trkpt>
      <trkpt lat="49.12069" lon="1.96408">
        <ele>62.6</ele>
        <time>2022-09-11T12:44:38Z</time>
      </trkpt>
      <trkpt lat="49.12071" lon="1.96421">
        <ele>62.6</ele>
        <time>2022-09-11T12:44:44Z</time>
      </trkpt>
      <trkpt lat="49.12072" lon="1.96435">
        <ele>62.3</ele>
        <time>2022-09-11T12:44:50Z</time>
      </trkpt>
      <trkpt lat="49.12075" lon="1.96445">
        <ele>62.4</ele>
        <time>2022-09-11T12:44:55Z</time>
      </trkpt>
      <trkpt lat="49.12078" lon="1.96456">
        <ele>62.6</ele>
        <time>2022-09-11T12:45:01Z</time>
      </trkpt>
      <trkpt lat="49.12079" lon="1.96469">
        <ele>62.5</ele>
        <time>2022-09-11T12:45:06Z</time>
      </trkpt>
      <trkpt lat="49.12078" lon="1.96478">
        <ele>62.1</ele>
        <time>2022-09-11T12:45:12Z</time>
      </trkpt>
      <trkpt lat="49.12079" lon="1.96486">
        <ele>62</ele>
        <time>2022-09-11T12:45:17Z</time>
      </trkpt>
      <trkpt lat="49.1208" lon="1.96496">
        <ele>61.8</ele>
        <time>2022-09-11T12:45:23Z</time>
      </trkpt>
      <trkpt lat="49.12076" lon="1.965">
        <ele>61.2</ele>
        <time>2022-09-11T12:45:29Z</time>
      </trkpt>
      <trkpt lat="49.1207" lon="1.96503">
        <ele>60.5</ele>
        <time>2022-09-11T12:45:34Z</time>
      </trkpt>
      <trkpt lat="49.12059" lon="1.96507">
        <ele>59.4</ele>
        <time>2022-09-11T12:45:40Z</time>
      </trkpt>
      <trkpt lat="49.12051" lon="1.96512">
        <ele>58.8</ele>
        <time>2022-09-11T12:45:45Z</time>
      </trkpt>
      <trkpt lat="49.12047" lon="1.96515">
        <ele>58.7</ele>
        <time>2022-09-11T12:45:51Z</time>
      </trkpt>
      <trkpt lat="49.12042" lon="1.96519">
        <ele>58.5</ele>
        <time>2022-09-11T12:45:56Z</time>
      </trkpt>
      <trkpt lat="49.12033" lon="1.96526">
        <ele>58.2</ele>
        <time>2022-09-11T12:46:02Z</time>
      </trkpt>
      <trkpt lat="49.12028" lon="1.96533">
        <ele>58.2</ele>
        <time>2022-09-11T12:46:08Z</time>
      </trkpt>
      <trkpt lat="49.12022" lon="1.96534">
        <ele>58.9</ele>
        <time>2022-09-11T12:46:13Z</time>
      </trkpt>
      <trkpt lat="49.12014" lon="1.96533">
        <ele>59.8</ele>
        <time>2022-09-11T12:46:19Z</time>
      </trkpt>
      <trkpt lat="49.12006" lon="1.96528">
        <ele>60.4</ele>
        <time>2022-09-11T12:46:25Z</time>
      </trkpt>
      <trkpt lat="49.11999" lon="1.96523">
        <ele>60.9</ele>
        <time>2022-09-11T12:46:31Z</time>
      </trkpt>
      <trkpt lat="49.11994" lon="1.96519">
        <ele>61.9</ele>
        <time>2022-09-11T12:46:36Z</time>
      </trkpt>
      <trkpt lat="49.11988" lon="1.96514">
        <ele>62.7</ele>
        <time>2022-09-11T12:46:41Z</time>
      </trkpt>
      <trkpt lat="49.11983" lon="1.96506">
        <ele>63.2</ele>
        <time>2022-09-11T12:46:47Z</time>
      </trkpt>
      <trkpt lat="49.11979" lon="1.965">
        <ele>63.4</ele>
        <time>2022-09-11T12:46:52Z</time>
      </trkpt>
      <trkpt lat="49.11975" lon="1.96494">
        <ele>64</ele>
        <time>2022-09-11T12:46:58Z</time>
      </trkpt>
      <trkpt lat="49.11971" lon="1.96488">
        <ele>64.6</ele>
        <time>2022-09-11T12:47:03Z</time>
      </trkpt>
      <trkpt lat="49.11965" lon="1.96483">
        <ele>66.4</ele>
        <time>2022-09-11T12:47:08Z</time>
      </trkpt>
      <trkpt lat="49.11957" lon="1.96476">
        <ele>68.3</ele>
        <time>2022-09-11T12:47:14Z</time>
      </trkpt>
      <trkpt lat="49.11952" lon="1.96471">
        <ele>69.5</ele>
        <time>2022-09-11T12:47:20Z</time>
      </trkpt>
      <trkpt lat="49.11948" lon="1.96465">
        <ele>70</ele>
        <time>2022-09-11T12:47:25Z</time>
      </trkpt>
      <trkpt lat="49.11943" lon="1.9646">
        <ele>70.7</ele>
        <time>2022-09-11T12:47:31Z</time>
      </trkpt>
      <trkpt lat="49.11938" lon="1.96454">
        <ele>71.7</ele>
        <time>2022-09-11T12:47:37Z</time>
      </trkpt>
      <trkpt lat="49.11933" lon="1.96449">
        <ele>72.8</ele>
        <time>2022-09-11T12:47:43Z</time>
      </trkpt>
      <trkpt lat="49.11928" lon="1.96444">
        <ele>74</ele>
        <time>2022-09-11T12:47:49Z</time>
      </trkpt>
      <trkpt lat="49.11926" lon="1.9644">
        <ele>74.3</ele>
        <time>2022-09-11T12:47:55Z</time>
      </trkpt>
      <trkpt lat="49.11923" lon="1.96434">
        <ele>75</ele>
        <time>2022-09-11T12:48:01Z</time>
      </trkpt>
      <trkpt lat="49.11917" lon="1.96428">
        <ele>76.8</ele>
        <time>2022-09-11T12:48:07Z</time>
      </trkpt>
      <trkpt lat="49.11911" lon="1.96425">
        <ele>77.9</ele>
        <time>2022-09-11T12:48:12Z</time>
      </trkpt>
      <trkpt lat="49.11905" lon="1.96421">
        <ele>79.1</ele>
        <time>2022-09-11T12:48:17Z</time>
      </trkpt>
      <trkpt lat="49.11899" lon="1.96418">
        <ele>80.6</ele>
        <time>2022-09-11T12:48:23Z</time>
      </trkpt>
      <trkpt lat="49.11892" lon="1.96417">
        <ele>82.2</ele>
        <time>2022-09-11T12:48:29Z</time>
      </trkpt>
      <trkpt lat="49.11887" lon="1.96417">
        <ele>83.2</ele>
        <time>2022-09-11T12:48:35Z</time>
      </trkpt>
      <trkpt lat="49.1188" lon="1.96417">
        <ele>83.9</ele>
        <time>2022-09-11T12:48:41Z</time>
      </trkpt>
      <trkpt lat="49.11872" lon="1.96417">
        <ele>84.8</ele>
        <time>2022-09-11T12:48:47Z</time>
      </trkpt>
      <trkpt lat="49.11866" lon="1.96418">
        <ele>85.4</ele>
        <time>2022-09-11T12:48:52Z</time>
      </trkpt>
      <trkpt lat="49.1186" lon="1.9642">
        <ele>86</ele>
        <time>2022-09-11T12:48:57Z</time>
      </trkpt>
      <trkpt lat="49.11853" lon="1.96424">
        <ele>86.3</ele>
        <time>2022-09-11T12:49:03Z</time>
      </trkpt>
      <trkpt lat="49.11846" lon="1.96427">
        <ele>86.6</ele>
        <time>2022-09-11T12:49:08Z</time>
      </trkpt>
      <trkpt lat="49.11838" lon="1.9643">
        <ele>86.8</ele>
        <time>2022-09-11T12:49:13Z</time>
      </trkpt>
      <trkpt lat="49.1183" lon="1.96432">
        <ele>87</ele>
        <time>2022-09-11T12:49:19Z</time>
      </trkpt>
      <trkpt lat="49.11825" lon="1.96434">
        <ele>87</ele>
        <time>2022-09-11T12:49:25Z</time>
      </trkpt>
      <trkpt lat="49.11823" lon="1.96435">
        <ele>87</ele>
        <time>2022-09-11T12:49:30Z</time>
      </trkpt>
      <trkpt lat="49.11823" lon="1.96437">
        <ele>87</ele>
        <time>2022-09-11T12:53:28Z</time>
      </trkpt>
      <trkpt lat="49.11823" lon="1.96436">
        <ele>87</ele>
        <time>2022-09-11T12:53:33Z</time>
      </trkpt>
      <trkpt lat="49.11823" lon="1.96435">
        <ele>87</ele>
        <time>2022-09-11T12:53:39Z</time>
      </trkpt>
      <trkpt lat="49.11823" lon="1.96434">
        <ele>87</ele>
        <time>2022-09-11T12:53:50Z</time>
      </trkpt>
      <trkpt lat="49.11823" lon="1.96433">
        <ele>87</ele>
        <time>2022-09-11T12:54:07Z</time>
      </trkpt>
      <trkpt lat="49.11821" lon="1.96433">
        <ele>87</ele>
        <time>2022-09-11T12:54:12Z</time>
      </trkpt>
      <trkpt lat="49.11818" lon="1.96435">
        <ele>87</ele>
        <time>2022-09-11T12:54:18Z</time>
      </trkpt>
      <trkpt lat="49.11813" lon="1.96435">
        <ele>87</ele>
        <time>2022-09-11T12:54:24Z</time>
      </trkpt>
      <trkpt lat="49.11805" lon="1.96437">
        <ele>87</ele>
        <time>2022-09-11T12:54:30Z</time>
      </trkpt>
      <trkpt lat="49.11799" lon="1.96438">
        <ele>86.8</ele>
        <time>2022-09-11T12:54:35Z</time>
      </trkpt>
      <trkpt lat="49.11792" lon="1.96438">
        <ele>86.5</ele>
        <time>2022-09-11T12:54:41Z</time>
      </trkpt>
      <trkpt lat="49.11785" lon="1.96437">
        <ele>86.2</ele>
        <time>2022-09-11T12:54:47Z</time>
      </trkpt>
      <trkpt lat="49.11775" lon="1.96438">
        <ele>85.9</ele>
        <time>2022-09-11T12:54:53Z</time>
      </trkpt>
      <trkpt lat="49.11766" lon="1.9644">
        <ele>85.6</ele>
        <time>2022-09-11T12:54:59Z</time>
      </trkpt>
      <trkpt lat="49.11759" lon="1.96439">
        <ele>85.3</ele>
        <time>2022-09-11T12:55:04Z</time>
      </trkpt>
      <trkpt lat="49.11753" lon="1.96437">
        <ele>85.1</ele>
        <time>2022-09-11T12:55:10Z</time>
      </trkpt>
      <trkpt lat="49.11746" lon="1.9644">
        <ele>84.6</ele>
        <time>2022-09-11T12:55:16Z</time>
      </trkpt>
      <trkpt lat="49.11737" lon="1.96441">
        <ele>83.7</ele>
        <time>2022-09-11T12:55:22Z</time>
      </trkpt>
      <trkpt lat="49.11729" lon="1.96442">
        <ele>82.8</ele>
        <time>2022-09-11T12:55:27Z</time>
      </trkpt>
      <trkpt lat="49.11721" lon="1.96443">
        <ele>81.9</ele>
        <time>2022-09-11T12:55:33Z</time>
      </trkpt>
      <trkpt lat="49.11714" lon="1.96444">
        <ele>81.1</ele>
        <time>2022-09-11T12:55:39Z</time>
      </trkpt>
      <trkpt lat="49.11707" lon="1.96446">
        <ele>80.3</ele>
        <time>2022-09-11T12:55:45Z</time>
      </trkpt>
      <trkpt lat="49.117" lon="1.96446">
        <ele>79.6</ele>
        <time>2022-09-11T12:55:50Z</time>
      </trkpt>
      <trkpt lat="49.11693" lon="1.96446">
        <ele>78.7</ele>
        <time>2022-09-11T12:55:56Z</time>
      </trkpt>
      <trkpt lat="49.11685" lon="1.96444">
        <ele>77.6</ele>
        <time>2022-09-11T12:56:02Z</time>
      </trkpt>
      <trkpt lat="49.1168" lon="1.96437">
        <ele>77</ele>
        <time>2022-09-11T12:56:07Z</time>
      </trkpt>
      <trkpt lat="49.11674" lon="1.96428">
        <ele>76.5</ele>
        <time>2022-09-11T12:56:13Z</time>
      </trkpt>
      <trkpt lat="49.1167" lon="1.96422">
        <ele>76.2</ele>
        <time>2022-09-11T12:56:18Z</time>
      </trkpt>
      <trkpt lat="49.11666" lon="1.96415">
        <ele>76.1</ele>
        <time>2022-09-11T12:56:23Z</time>
      </trkpt>
      <trkpt lat="49.11661" lon="1.9641">
        <ele>75.9</ele>
        <time>2022-09-11T12:56:28Z</time>
      </trkpt>
      <trkpt lat="49.11655" lon="1.96406">
        <ele>75.6</ele>
        <time>2022-09-11T12:56:33Z</time>
      </trkpt>
      <trkpt lat="49.11649" lon="1.96399">
        <ele>75.2</ele>
        <time>2022-09-11T12:56:39Z</time>
      </trkpt>
      <trkpt lat="49.11642" lon="1.96393">
        <ele>74.5</ele>
        <time>2022-09-11T12:56:45Z</time>
      </trkpt>
      <trkpt lat="49.11634" lon="1.9639">
        <ele>74</ele>
        <time>2022-09-11T12:56:50Z</time>
      </trkpt>
      <trkpt lat="49.11627" lon="1.96388">
        <ele>73.9</ele>
        <time>2022-09-11T12:56:55Z</time>
      </trkpt>
      <trkpt lat="49.11618" lon="1.96384">
        <ele>73.4</ele>
        <time>2022-09-11T12:57:01Z</time>
      </trkpt>
      <trkpt lat="49.11612" lon="1.9638">
        <ele>72.7</ele>
        <time>2022-09-11T12:57:06Z</time>
      </trkpt>
      <trkpt lat="49.11604" lon="1.96375">
        <ele>72.4</ele>
        <time>2022-09-11T12:57:12Z</time>
      </trkpt>
      <trkpt lat="49.11599" lon="1.96373">
        <ele>72.4</ele>
        <time>2022-09-11T12:57:17Z</time>
      </trkpt>
      <trkpt lat="49.11591" lon="1.96366">
        <ele>71.5</ele>
        <time>2022-09-11T12:57:23Z</time>
      </trkpt>
      <trkpt lat="49.11584" lon="1.96361">
        <ele>71</ele>
        <time>2022-09-11T12:57:28Z</time>
      </trkpt>
      <trkpt lat="49.11576" lon="1.96361">
        <ele>71.8</ele>
        <time>2022-09-11T12:57:34Z</time>
      </trkpt>
      <trkpt lat="49.11568" lon="1.96359">
        <ele>72.2</ele>
        <time>2022-09-11T12:57:40Z</time>
      </trkpt>
      <trkpt lat="49.1156" lon="1.96357">
        <ele>72.7</ele>
        <time>2022-09-11T12:57:46Z</time>
      </trkpt>
      <trkpt lat="49.11551" lon="1.96355">
        <ele>72.7</ele>
        <time>2022-09-11T12:57:52Z</time>
      </trkpt>
      <trkpt lat="49.11543" lon="1.96352">
        <ele>72.3</ele>
        <time>2022-09-11T12:57:57Z</time>
      </trkpt>
      <trkpt lat="49.11534" lon="1.96354">
        <ele>72.9</ele>
        <time>2022-09-11T12:58:03Z</time>
      </trkpt>
      <trkpt lat="49.11528" lon="1.96356">
        <ele>73.3</ele>
        <time>2022-09-11T12:58:08Z</time>
      </trkpt>
      <trkpt lat="49.11521" lon="1.96361">
        <ele>73.5</ele>
        <time>2022-09-11T12:58:14Z</time>
      </trkpt>
      <trkpt lat="49.11515" lon="1.96365">
        <ele>73.6</ele>
        <time>2022-09-11T12:58:19Z</time>
      </trkpt>
      <trkpt lat="49.11509" lon="1.96367">
        <ele>73.4</ele>
        <time>2022-09-11T12:58:25Z</time>
      </trkpt>
      <trkpt lat="49.11503" lon="1.96372">
        <ele>73.4</ele>
        <time>2022-09-11T12:58:31Z</time>
      </trkpt>
      <trkpt lat="49.11498" lon="1.96377">
        <ele>73.4</ele>
        <time>2022-09-11T12:58:36Z</time>
      </trkpt>
      <trkpt lat="49.11492" lon="1.96386">
        <ele>73.2</ele>
        <time>2022-09-11T12:58:42Z</time>
      </trkpt>
      <trkpt lat="49.11485" lon="1.96396">
        <ele>72.9</ele>
        <time>2022-09-11T12:58:48Z</time>
      </trkpt>
      <trkpt lat="49.11478" lon="1.96399">
        <ele>71.9</ele>
        <time>2022-09-11T12:58:53Z</time>
      </trkpt>
      <trkpt lat="49.11474" lon="1.96405">
        <ele>71.5</ele>
        <time>2022-09-11T12:58:58Z</time>
      </trkpt>
      <trkpt lat="49.11468" lon="1.96416">
        <ele>71.3</ele>
        <time>2022-09-11T12:59:04Z</time>
      </trkpt>
      <trkpt lat="49.11464" lon="1.96427">
        <ele>71.4</ele>
        <time>2022-09-11T12:59:09Z</time>
      </trkpt>
      <trkpt lat="49.1146" lon="1.96433">
        <ele>71</ele>
        <time>2022-09-11T12:59:14Z</time>
      </trkpt>
      <trkpt lat="49.11457" lon="1.96443">
        <ele>71</ele>
        <time>2022-09-11T12:59:20Z</time>
      </trkpt>
      <trkpt lat="49.11451" lon="1.96452">
        <ele>70.2</ele>
        <time>2022-09-11T12:59:25Z</time>
      </trkpt>
      <trkpt lat="49.11445" lon="1.96463">
        <ele>69.3</ele>
        <time>2022-09-11T12:59:31Z</time>
      </trkpt>
      <trkpt lat="49.1144" lon="1.96471">
        <ele>69.1</ele>
        <time>2022-09-11T12:59:36Z</time>
      </trkpt>
      <trkpt lat="49.11433" lon="1.96481">
        <ele>68.4</ele>
        <time>2022-09-11T12:59:42Z</time>
      </trkpt>
      <trkpt lat="49.11427" lon="1.96489">
        <ele>67.7</ele>
        <time>2022-09-11T12:59:48Z</time>
      </trkpt>
      <trkpt lat="49.11423" lon="1.96498">
        <ele>67.2</ele>
        <time>2022-09-11T12:59:53Z</time>
      </trkpt>
      <trkpt lat="49.11418" lon="1.96507">
        <ele>67</ele>
        <time>2022-09-11T12:59:58Z</time>
      </trkpt>
      <trkpt lat="49.11413" lon="1.96519">
        <ele>67.2</ele>
        <time>2022-09-11T13:00:03Z</time>
      </trkpt>
      <trkpt lat="49.11406" lon="1.96529">
        <ele>66.4</ele>
        <time>2022-09-11T13:00:09Z</time>
      </trkpt>
      <trkpt lat="49.11402" lon="1.96539">
        <ele>66</ele>
        <time>2022-09-11T13:00:15Z</time>
      </trkpt>
      <trkpt lat="49.114" lon="1.96546">
        <ele>65.8</ele>
        <time>2022-09-11T13:00:20Z</time>
      </trkpt>
      <trkpt lat="49.11396" lon="1.96557">
        <ele>65.5</ele>
        <time>2022-09-11T13:00:26Z</time>
      </trkpt>
      <trkpt lat="49.11391" lon="1.96565">
        <ele>64.5</ele>
        <time>2022-09-11T13:00:31Z</time>
      </trkpt>
      <trkpt lat="49.11386" lon="1.96574">
        <ele>63.6</ele>
        <time>2022-09-11T13:00:37Z</time>
      </trkpt>
      <trkpt lat="49.11381" lon="1.96587">
        <ele>62.9</ele>
        <time>2022-09-11T13:00:43Z</time>
      </trkpt>
      <trkpt lat="49.11376" lon="1.96598">
        <ele>62.2</ele>
        <time>2022-09-11T13:00:49Z</time>
      </trkpt>
      <trkpt lat="49.1137" lon="1.96604">
        <ele>61.3</ele>
        <time>2022-09-11T13:00:55Z</time>
      </trkpt>
      <trkpt lat="49.11365" lon="1.9661">
        <ele>60.6</ele>
        <time>2022-09-11T13:01:00Z</time>
      </trkpt>
      <trkpt lat="49.11356" lon="1.96612">
        <ele>59.5</ele>
        <time>2022-09-11T13:01:06Z</time>
      </trkpt>
      <trkpt lat="49.11351" lon="1.96613">
        <ele>59</ele>
        <time>2022-09-11T13:01:11Z</time>
      </trkpt>
      <trkpt lat="49.11344" lon="1.96609">
        <ele>58.2</ele>
        <time>2022-09-11T13:01:17Z</time>
      </trkpt>
      <trkpt lat="49.1134" lon="1.96598">
        <ele>57.7</ele>
        <time>2022-09-11T13:01:23Z</time>
      </trkpt>
      <trkpt lat="49.11338" lon="1.96587">
        <ele>57.5</ele>
        <time>2022-09-11T13:01:28Z</time>
      </trkpt>
      <trkpt lat="49.11335" lon="1.96575">
        <ele>56.9</ele>
        <time>2022-09-11T13:01:34Z</time>
      </trkpt>
      <trkpt lat="49.11334" lon="1.96564">
        <ele>56.3</ele>
        <time>2022-09-11T13:01:40Z</time>
      </trkpt>
      <trkpt lat="49.11333" lon="1.96553">
        <ele>55.9</ele>
        <time>2022-09-11T13:01:45Z</time>
      </trkpt>
      <trkpt lat="49.11329" lon="1.96542">
        <ele>55.2</ele>
        <time>2022-09-11T13:01:51Z</time>
      </trkpt>
      <trkpt lat="49.11328" lon="1.96532">
        <ele>54.7</ele>
        <time>2022-09-11T13:01:56Z</time>
      </trkpt>
      <trkpt lat="49.11328" lon="1.9652">
        <ele>54.5</ele>
        <time>2022-09-11T13:02:02Z</time>
      </trkpt>
      <trkpt lat="49.11329" lon="1.9651">
        <ele>54.6</ele>
        <time>2022-09-11T13:02:07Z</time>
      </trkpt>
      <trkpt lat="49.11326" lon="1.96496">
        <ele>54.1</ele>
        <time>2022-09-11T13:02:12Z</time>
      </trkpt>
      <trkpt lat="49.11324" lon="1.96484">
        <ele>53.6</ele>
        <time>2022-09-11T13:02:17Z</time>
      </trkpt>
      <trkpt lat="49.11321" lon="1.96472">
        <ele>53.1</ele>
        <time>2022-09-11T13:02:23Z</time>
      </trkpt>
      <trkpt lat="49.11317" lon="1.96459">
        <ele>52.6</ele>
        <time>2022-09-11T13:02:29Z</time>
      </trkpt>
      <trkpt lat="49.11312" lon="1.96448">
        <ele>52.3</ele>
        <time>2022-09-11T13:02:34Z</time>
      </trkpt>
      <trkpt lat="49.11311" lon="1.96439">
        <ele>52</ele>
        <time>2022-09-11T13:02:39Z</time>
      </trkpt>
      <trkpt lat="49.11307" lon="1.96428">
        <ele>51.5</ele>
        <time>2022-09-11T13:02:45Z</time>
      </trkpt>
      <trkpt lat="49.11303" lon="1.96419">
        <ele>51.1</ele>
        <time>2022-09-11T13:02:50Z</time>
      </trkpt>
      <trkpt lat="49.113" lon="1.96405">
        <ele>51</ele>
        <time>2022-09-11T13:02:56Z</time>
      </trkpt>
      <trkpt lat="49.11299" lon="1.96394">
        <ele>51</ele>
        <time>2022-09-11T13:03:01Z</time>
      </trkpt>
      <trkpt lat="49.11297" lon="1.96385">
        <ele>51</ele>
        <time>2022-09-11T13:03:06Z</time>
      </trkpt>
      <trkpt lat="49.11297" lon="1.96371">
        <ele>51</ele>
        <time>2022-09-11T13:03:12Z</time>
      </trkpt>
      <trkpt lat="49.11291" lon="1.96359">
        <ele>51</ele>
        <time>2022-09-11T13:03:18Z</time>
      </trkpt>
      <trkpt lat="49.11285" lon="1.96354">
        <ele>51.2</ele>
        <time>2022-09-11T13:03:23Z</time>
      </trkpt>
      <trkpt lat="49.1128" lon="1.96353">
        <ele>51.3</ele>
        <time>2022-09-11T13:03:28Z</time>
      </trkpt>
      <trkpt lat="49.11273" lon="1.96354">
        <ele>51.4</ele>
        <time>2022-09-11T13:03:33Z</time>
      </trkpt>
      <trkpt lat="49.11266" lon="1.96361">
        <ele>51.4</ele>
        <time>2022-09-11T13:03:39Z</time>
      </trkpt>
      <trkpt lat="49.1126" lon="1.96368">
        <ele>51.6</ele>
        <time>2022-09-11T13:03:45Z</time>
      </trkpt>
      <trkpt lat="49.11251" lon="1.96375">
        <ele>52</ele>
        <time>2022-09-11T13:03:51Z</time>
      </trkpt>
      <trkpt lat="49.11245" lon="1.96379">
        <ele>52.2</ele>
        <time>2022-09-11T13:03:57Z</time>
      </trkpt>
      <trkpt lat="49.11241" lon="1.96384">
        <ele>52.3</ele>
        <time>2022-09-11T13:04:02Z</time>
      </trkpt>
      <trkpt lat="49.1123" lon="1.9639">
        <ele>52.7</ele>
        <time>2022-09-11T13:04:07Z</time>
      </trkpt>
      <trkpt lat="49.11219" lon="1.96393">
        <ele>52.9</ele>
        <time>2022-09-11T13:04:13Z</time>
      </trkpt>
      <trkpt lat="49.11209" lon="1.96395">
        <ele>52.9</ele>
        <time>2022-09-11T13:04:18Z</time>
      </trkpt>
      <trkpt lat="49.11199" lon="1.96394">
        <ele>53</ele>
        <time>2022-09-11T13:04:24Z</time>
      </trkpt>
      <trkpt lat="49.11193" lon="1.96391">
        <ele>53.1</ele>
        <time>2022-09-11T13:04:29Z</time>
      </trkpt>
      <trkpt lat="49.11189" lon="1.96385">
        <ele>53.6</ele>
        <time>2022-09-11T13:04:35Z</time>
      </trkpt>
      <trkpt lat="49.11183" lon="1.96379">
        <ele>54.5</ele>
        <time>2022-09-11T13:04:41Z</time>
      </trkpt>
      <trkpt lat="49.11174" lon="1.96377">
        <ele>55</ele>
        <time>2022-09-11T13:04:46Z</time>
      </trkpt>
      <trkpt lat="49.11162" lon="1.96372">
        <ele>56</ele>
        <time>2022-09-11T13:04:52Z</time>
      </trkpt>
      <trkpt lat="49.11156" lon="1.96369">
        <ele>56.7</ele>
        <time>2022-09-11T13:04:57Z</time>
      </trkpt>
      <trkpt lat="49.11149" lon="1.96365">
        <ele>57.3</ele>
        <time>2022-09-11T13:05:03Z</time>
      </trkpt>
      <trkpt lat="49.1114" lon="1.96362">
        <ele>57.9</ele>
        <time>2022-09-11T13:05:08Z</time>
      </trkpt>
      <trkpt lat="49.11131" lon="1.96359">
        <ele>58.2</ele>
        <time>2022-09-11T13:05:14Z</time>
      </trkpt>
      <trkpt lat="49.11125" lon="1.96357">
        <ele>58.5</ele>
        <time>2022-09-11T13:05:20Z</time>
      </trkpt>
      <trkpt lat="49.11117" lon="1.96354">
        <ele>58.9</ele>
        <time>2022-09-11T13:05:25Z</time>
      </trkpt>
      <trkpt lat="49.11109" lon="1.96354">
        <ele>59.2</ele>
        <time>2022-09-11T13:05:31Z</time>
      </trkpt>
      <trkpt lat="49.11101" lon="1.96354">
        <ele>59.7</ele>
        <time>2022-09-11T13:05:36Z</time>
      </trkpt>
      <trkpt lat="49.11093" lon="1.96355">
        <ele>60.1</ele>
        <time>2022-09-11T13:05:42Z</time>
      </trkpt>
      <trkpt lat="49.11086" lon="1.96357">
        <ele>60.3</ele>
        <time>2022-09-11T13:05:47Z</time>
      </trkpt>
      <trkpt lat="49.11081" lon="1.96359">
        <ele>60.4</ele>
        <time>2022-09-11T13:05:52Z</time>
      </trkpt>
      <trkpt lat="49.11073" lon="1.96362">
        <ele>60.4</ele>
        <time>2022-09-11T13:05:58Z</time>
      </trkpt>
      <trkpt lat="49.11061" lon="1.96367">
        <ele>60.8</ele>
        <time>2022-09-11T13:06:04Z</time>
      </trkpt>
      <trkpt lat="49.11053" lon="1.9637">
        <ele>61.1</ele>
        <time>2022-09-11T13:06:09Z</time>
      </trkpt>
      <trkpt lat="49.11047" lon="1.96372">
        <ele>61.3</ele>
        <time>2022-09-11T13:06:15Z</time>
      </trkpt>
      <trkpt lat="49.11039" lon="1.96374">
        <ele>61.6</ele>
        <time>2022-09-11T13:06:21Z</time>
      </trkpt>
      <trkpt lat="49.11032" lon="1.96376">
        <ele>61.9</ele>
        <time>2022-09-11T13:06:26Z</time>
      </trkpt>
      <trkpt lat="49.11026" lon="1.96377">
        <ele>62</ele>
        <time>2022-09-11T13:06:31Z</time>
      </trkpt>
      <trkpt lat="49.11019" lon="1.96378">
        <ele>62.1</ele>
        <time>2022-09-11T13:06:36Z</time>
      </trkpt>
      <trkpt lat="49.11009" lon="1.96378">
        <ele>62.3</ele>
        <time>2022-09-11T13:06:43Z</time>
      </trkpt>
      <trkpt lat="49.11002" lon="1.96377">
        <ele>62.4</ele>
        <time>2022-09-11T13:06:48Z</time>
      </trkpt>
      <trkpt lat="49.10994" lon="1.96378">
        <ele>62.4</ele>
        <time>2022-09-11T13:06:54Z</time>
      </trkpt>
      <trkpt lat="49.10985" lon="1.9638">
        <ele>62.3</ele>
        <time>2022-09-11T13:07:00Z</time>
      </trkpt>
      <trkpt lat="49.10978" lon="1.96381">
        <ele>62.3</ele>
        <time>2022-09-11T13:07:05Z</time>
      </trkpt>
      <trkpt lat="49.10973" lon="1.96382">
        <ele>62.2</ele>
        <time>2022-09-11T13:07:10Z</time>
      </trkpt>
      <trkpt lat="49.10964" lon="1.96384">
        <ele>62.2</ele>
        <time>2022-09-11T13:07:16Z</time>
      </trkpt>
      <trkpt lat="49.10955" lon="1.96386">
        <ele>62.2</ele>
        <time>2022-09-11T13:07:21Z</time>
      </trkpt>
      <trkpt lat="49.10947" lon="1.96387">
        <ele>62.1</ele>
        <time>2022-09-11T13:07:27Z</time>
      </trkpt>
      <trkpt lat="49.10941" lon="1.96388">
        <ele>62.1</ele>
        <time>2022-09-11T13:07:32Z</time>
      </trkpt>
      <trkpt lat="49.10934" lon="1.96391">
        <ele>61.9</ele>
        <time>2022-09-11T13:07:38Z</time>
      </trkpt>
      <trkpt lat="49.10923" lon="1.96394">
        <ele>61.8</ele>
        <time>2022-09-11T13:07:44Z</time>
      </trkpt>
      <trkpt lat="49.10917" lon="1.96396">
        <ele>61.7</ele>
        <time>2022-09-11T13:07:49Z</time>
      </trkpt>
      <trkpt lat="49.1091" lon="1.96398">
        <ele>61.7</ele>
        <time>2022-09-11T13:07:55Z</time>
      </trkpt>
      <trkpt lat="49.10902" lon="1.964">
        <ele>61.6</ele>
        <time>2022-09-11T13:08:01Z</time>
      </trkpt>
      <trkpt lat="49.10893" lon="1.96401">
        <ele>61.6</ele>
        <time>2022-09-11T13:08:06Z</time>
      </trkpt>
      <trkpt lat="49.10883" lon="1.96403">
        <ele>61.3</ele>
        <time>2022-09-11T13:08:12Z</time>
      </trkpt>
      <trkpt lat="49.10874" lon="1.96404">
        <ele>60.9</ele>
        <time>2022-09-11T13:08:17Z</time>
      </trkpt>
      <trkpt lat="49.10864" lon="1.96401">
        <ele>60.7</ele>
        <time>2022-09-11T13:08:23Z</time>
      </trkpt>
      <trkpt lat="49.10857" lon="1.96401">
        <ele>60.3</ele>
        <time>2022-09-11T13:08:28Z</time>
      </trkpt>
      <trkpt lat="49.1085" lon="1.96403">
        <ele>59.7</ele>
        <time>2022-09-11T13:08:34Z</time>
      </trkpt>
      <trkpt lat="49.10843" lon="1.96402">
        <ele>59.2</ele>
        <time>2022-09-11T13:08:39Z</time>
      </trkpt>
      <trkpt lat="49.10836" lon="1.96404">
        <ele>58.6</ele>
        <time>2022-09-11T13:08:45Z</time>
      </trkpt>
      <trkpt lat="49.10829" lon="1.96402">
        <ele>58.4</ele>
        <time>2022-09-11T13:08:50Z</time>
      </trkpt>
      <trkpt lat="49.10821" lon="1.96402">
        <ele>58.1</ele>
        <time>2022-09-11T13:08:56Z</time>
      </trkpt>
      <trkpt lat="49.10813" lon="1.96403">
        <ele>57.7</ele>
        <time>2022-09-11T13:09:01Z</time>
      </trkpt>
      <trkpt lat="49.10805" lon="1.96402">
        <ele>57.6</ele>
        <time>2022-09-11T13:09:07Z</time>
      </trkpt>
      <trkpt lat="49.10797" lon="1.96402">
        <ele>57.4</ele>
        <time>2022-09-11T13:09:13Z</time>
      </trkpt>
      <trkpt lat="49.1079" lon="1.96402">
        <ele>57.3</ele>
        <time>2022-09-11T13:09:18Z</time>
      </trkpt>
      <trkpt lat="49.1078" lon="1.96404">
        <ele>57</ele>
        <time>2022-09-11T13:09:24Z</time>
      </trkpt>
      <trkpt lat="49.10772" lon="1.96408">
        <ele>56.9</ele>
        <time>2022-09-11T13:09:29Z</time>
      </trkpt>
      <trkpt lat="49.10763" lon="1.9641">
        <ele>57</ele>
        <time>2022-09-11T13:09:34Z</time>
      </trkpt>
      <trkpt lat="49.10753" lon="1.96413">
        <ele>57.1</ele>
        <time>2022-09-11T13:09:40Z</time>
      </trkpt>
      <trkpt lat="49.10744" lon="1.96415">
        <ele>57.5</ele>
        <time>2022-09-11T13:09:45Z</time>
      </trkpt>
      <trkpt lat="49.10734" lon="1.96419">
        <ele>58.1</ele>
        <time>2022-09-11T13:09:51Z</time>
      </trkpt>
      <trkpt lat="49.10725" lon="1.96421">
        <ele>58.7</ele>
        <time>2022-09-11T13:09:57Z</time>
      </trkpt>
      <trkpt lat="49.10717" lon="1.96423">
        <ele>59</ele>
        <time>2022-09-11T13:10:03Z</time>
      </trkpt>
      <trkpt lat="49.1071" lon="1.96424">
        <ele>59.2</ele>
        <time>2022-09-11T13:10:08Z</time>
      </trkpt>
      <trkpt lat="49.10702" lon="1.96428">
        <ele>59.3</ele>
        <time>2022-09-11T13:10:14Z</time>
      </trkpt>
      <trkpt lat="49.10695" lon="1.96432">
        <ele>59.4</ele>
        <time>2022-09-11T13:10:20Z</time>
      </trkpt>
      <trkpt lat="49.10688" lon="1.96438">
        <ele>59.3</ele>
        <time>2022-09-11T13:10:26Z</time>
      </trkpt>
      <trkpt lat="49.10679" lon="1.96441">
        <ele>59.2</ele>
        <time>2022-09-11T13:10:32Z</time>
      </trkpt>
      <trkpt lat="49.1067" lon="1.96445">
        <ele>59</ele>
        <time>2022-09-11T13:10:38Z</time>
      </trkpt>
      <trkpt lat="49.10662" lon="1.96446">
        <ele>59.1</ele>
        <time>2022-09-11T13:10:43Z</time>
      </trkpt>
      <trkpt lat="49.10653" lon="1.96449">
        <ele>59.3</ele>
        <time>2022-09-11T13:10:48Z</time>
      </trkpt>
      <trkpt lat="49.10646" lon="1.96455">
        <ele>59.3</ele>
        <time>2022-09-11T13:10:53Z</time>
      </trkpt>
      <trkpt lat="49.10639" lon="1.96458">
        <ele>59.5</ele>
        <time>2022-09-11T13:10:59Z</time>
      </trkpt>
      <trkpt lat="49.1063" lon="1.96463">
        <ele>59.3</ele>
        <time>2022-09-11T13:11:05Z</time>
      </trkpt>
      <trkpt lat="49.10623" lon="1.96466">
        <ele>59.2</ele>
        <time>2022-09-11T13:11:11Z</time>
      </trkpt>
      <trkpt lat="49.10616" lon="1.9647">
        <ele>59.1</ele>
        <time>2022-09-11T13:11:17Z</time>
      </trkpt>
      <trkpt lat="49.10606" lon="1.96473">
        <ele>59.1</ele>
        <time>2022-09-11T13:11:23Z</time>
      </trkpt>
      <trkpt lat="49.10598" lon="1.96477">
        <ele>59.3</ele>
        <time>2022-09-11T13:11:29Z</time>
      </trkpt>
      <trkpt lat="49.10591" lon="1.96481">
        <ele>59.4</ele>
        <time>2022-09-11T13:11:34Z</time>
      </trkpt>
      <trkpt lat="49.10583" lon="1.96485">
        <ele>59.5</ele>
        <time>2022-09-11T13:11:39Z</time>
      </trkpt>
      <trkpt lat="49.10576" lon="1.96488">
        <ele>59.6</ele>
        <time>2022-09-11T13:11:45Z</time>
      </trkpt>
      <trkpt lat="49.10569" lon="1.96491">
        <ele>59.7</ele>
        <time>2022-09-11T13:11:50Z</time>
      </trkpt>
      <trkpt lat="49.10562" lon="1.96496">
        <ele>59.8</ele>
        <time>2022-09-11T13:11:56Z</time>
      </trkpt>
      <trkpt lat="49.10556" lon="1.96498">
        <ele>60</ele>
        <time>2022-09-11T13:12:01Z</time>
      </trkpt>
      <trkpt lat="49.10548" lon="1.96502">
        <ele>59.9</ele>
        <time>2022-09-11T13:12:07Z</time>
      </trkpt>
      <trkpt lat="49.10541" lon="1.96505">
        <ele>59.8</ele>
        <time>2022-09-11T13:12:12Z</time>
      </trkpt>
      <trkpt lat="49.10533" lon="1.96508">
        <ele>59.7</ele>
        <time>2022-09-11T13:12:18Z</time>
      </trkpt>
      <trkpt lat="49.10525" lon="1.9651">
        <ele>59.8</ele>
        <time>2022-09-11T13:12:24Z</time>
      </trkpt>
      <trkpt lat="49.10517" lon="1.96513">
        <ele>60.1</ele>
        <time>2022-09-11T13:12:30Z</time>
      </trkpt>
      <trkpt lat="49.1051" lon="1.96517">
        <ele>60.3</ele>
        <time>2022-09-11T13:12:35Z</time>
      </trkpt>
      <trkpt lat="49.10505" lon="1.96521">
        <ele>60.3</ele>
        <time>2022-09-11T13:12:40Z</time>
      </trkpt>
      <trkpt lat="49.10498" lon="1.96525">
        <ele>60.3</ele>
        <time>2022-09-11T13:12:46Z</time>
      </trkpt>
      <trkpt lat="49.10489" lon="1.9653">
        <ele>60.3</ele>
        <time>2022-09-11T13:12:52Z</time>
      </trkpt>
      <trkpt lat="49.10482" lon="1.96533">
        <ele>60.5</ele>
        <time>2022-09-11T13:12:57Z</time>
      </trkpt>
      <trkpt lat="49.10476" lon="1.96533">
        <ele>60.7</ele>
        <time>2022-09-11T13:13:03Z</time>
      </trkpt>
      <trkpt lat="49.10468" lon="1.96542">
        <ele>60.5</ele>
        <time>2022-09-11T13:13:09Z</time>
      </trkpt>
      <trkpt lat="49.10459" lon="1.96553">
        <ele>60.1</ele>
        <time>2022-09-11T13:13:15Z</time>
      </trkpt>
      <trkpt lat="49.10452" lon="1.9656">
        <ele>59.7</ele>
        <time>2022-09-11T13:13:21Z</time>
      </trkpt>
      <trkpt lat="49.10445" lon="1.96569">
        <ele>59</ele>
        <time>2022-09-11T13:13:27Z</time>
      </trkpt>
      <trkpt lat="49.10436" lon="1.96577">
        <ele>58.7</ele>
        <time>2022-09-11T13:13:33Z</time>
      </trkpt>
      <trkpt lat="49.10429" lon="1.96583">
        <ele>58.6</ele>
        <time>2022-09-11T13:13:38Z</time>
      </trkpt>
      <trkpt lat="49.10422" lon="1.96588">
        <ele>58.5</ele>
        <time>2022-09-11T13:13:43Z</time>
      </trkpt>
      <trkpt lat="49.10415" lon="1.96594">
        <ele>58.2</ele>
        <time>2022-09-11T13:13:49Z</time>
      </trkpt>
      <trkpt lat="49.10407" lon="1.96599">
        <ele>57.9</ele>
        <time>2022-09-11T13:13:55Z</time>
      </trkpt>
      <trkpt lat="49.10397" lon="1.96603">
        <ele>57.9</ele>
        <time>2022-09-11T13:14:01Z</time>
      </trkpt>
      <trkpt lat="49.10389" lon="1.96604">
        <ele>58</ele>
        <time>2022-09-11T13:14:06Z</time>
      </trkpt>
      <trkpt lat="49.1038" lon="1.96607">
        <ele>58.1</ele>
        <time>2022-09-11T13:14:12Z</time>
      </trkpt>
      <trkpt lat="49.10372" lon="1.96608">
        <ele>58.1</ele>
        <time>2022-09-11T13:14:17Z</time>
      </trkpt>
      <trkpt lat="49.10364" lon="1.96613">
        <ele>57.9</ele>
        <time>2022-09-11T13:14:22Z</time>
      </trkpt>
      <trkpt lat="49.10355" lon="1.96613">
        <ele>57.9</ele>
        <time>2022-09-11T13:14:28Z</time>
      </trkpt>
      <trkpt lat="49.10349" lon="1.96617">
        <ele>57.6</ele>
        <time>2022-09-11T13:14:34Z</time>
      </trkpt>
      <trkpt lat="49.10342" lon="1.96618">
        <ele>57.7</ele>
        <time>2022-09-11T13:14:40Z</time>
      </trkpt>
      <trkpt lat="49.10333" lon="1.96616">
        <ele>57.8</ele>
        <time>2022-09-11T13:14:46Z</time>
      </trkpt>
      <trkpt lat="49.10325" lon="1.96618">
        <ele>57.4</ele>
        <time>2022-09-11T13:14:51Z</time>
      </trkpt>
      <trkpt lat="49.10314" lon="1.96621">
        <ele>56.9</ele>
        <time>2022-09-11T13:14:57Z</time>
      </trkpt>
      <trkpt lat="49.10305" lon="1.96624">
        <ele>56.5</ele>
        <time>2022-09-11T13:15:03Z</time>
      </trkpt>
      <trkpt lat="49.10299" lon="1.96625">
        <ele>56.5</ele>
        <time>2022-09-11T13:15:09Z</time>
      </trkpt>
      <trkpt lat="49.10294" lon="1.96625">
        <ele>56.5</ele>
        <time>2022-09-11T13:15:14Z</time>
      </trkpt>
      <trkpt lat="49.10287" lon="1.96628">
        <ele>56.4</ele>
        <time>2022-09-11T13:15:20Z</time>
      </trkpt>
      <trkpt lat="49.10281" lon="1.96628">
        <ele>56.4</ele>
        <time>2022-09-11T13:15:25Z</time>
      </trkpt>
      <trkpt lat="49.10273" lon="1.96625">
        <ele>56.7</ele>
        <time>2022-09-11T13:15:31Z</time>
      </trkpt>
      <trkpt lat="49.10267" lon="1.96624">
        <ele>56.9</ele>
        <time>2022-09-11T13:15:37Z</time>
      </trkpt>
      <trkpt lat="49.10258" lon="1.96627">
        <ele>57.1</ele>
        <time>2022-09-11T13:15:42Z</time>
      </trkpt>
      <trkpt lat="49.10252" lon="1.96631">
        <ele>57.2</ele>
        <time>2022-09-11T13:15:48Z</time>
      </trkpt>
      <trkpt lat="49.10246" lon="1.96634">
        <ele>57.2</ele>
        <time>2022-09-11T13:15:53Z</time>
      </trkpt>
      <trkpt lat="49.10238" lon="1.9664">
        <ele>57</ele>
        <time>2022-09-11T13:15:59Z</time>
      </trkpt>
      <trkpt lat="49.10229" lon="1.96645">
        <ele>56.8</ele>
        <time>2022-09-11T13:16:05Z</time>
      </trkpt>
      <trkpt lat="49.1022" lon="1.96646">
        <ele>56.8</ele>
        <time>2022-09-11T13:16:11Z</time>
      </trkpt>
      <trkpt lat="49.10212" lon="1.96645">
        <ele>57.1</ele>
        <time>2022-09-11T13:16:17Z</time>
      </trkpt>
      <trkpt lat="49.10205" lon="1.96644">
        <ele>57.3</ele>
        <time>2022-09-11T13:16:22Z</time>
      </trkpt>
      <trkpt lat="49.10197" lon="1.96643">
        <ele>57.6</ele>
        <time>2022-09-11T13:16:27Z</time>
      </trkpt>
      <trkpt lat="49.10187" lon="1.96643">
        <ele>57.9</ele>
        <time>2022-09-11T13:16:33Z</time>
      </trkpt>
      <trkpt lat="49.1018" lon="1.96643">
        <ele>58.2</ele>
        <time>2022-09-11T13:16:38Z</time>
      </trkpt>
      <trkpt lat="49.10172" lon="1.96643">
        <ele>58.5</ele>
        <time>2022-09-11T13:16:44Z</time>
      </trkpt>
      <trkpt lat="49.10164" lon="1.96643">
        <ele>58.8</ele>
        <time>2022-09-11T13:16:49Z</time>
      </trkpt>
      <trkpt lat="49.10157" lon="1.96643">
        <ele>59.1</ele>
        <time>2022-09-11T13:16:54Z</time>
      </trkpt>
      <trkpt lat="49.10151" lon="1.96646">
        <ele>59.2</ele>
        <time>2022-09-11T13:17:00Z</time>
      </trkpt>
      <trkpt lat="49.10147" lon="1.96654">
        <ele>59</ele>
        <time>2022-09-11T13:17:05Z</time>
      </trkpt>
      <trkpt lat="49.10142" lon="1.96664">
        <ele>58.9</ele>
        <time>2022-09-11T13:17:11Z</time>
      </trkpt>
      <trkpt lat="49.1014" lon="1.9667">
        <ele>58.7</ele>
        <time>2022-09-11T13:17:16Z</time>
      </trkpt>
      <trkpt lat="49.10135" lon="1.96679">
        <ele>58.3</ele>
        <time>2022-09-11T13:17:23Z</time>
      </trkpt>
      <trkpt lat="49.10131" lon="1.9669">
        <ele>57.8</ele>
        <time>2022-09-11T13:17:28Z</time>
      </trkpt>
      <trkpt lat="49.10129" lon="1.967">
        <ele>57.3</ele>
        <time>2022-09-11T13:17:33Z</time>
      </trkpt>
      <trkpt lat="49.10127" lon="1.96713">
        <ele>56.5</ele>
        <time>2022-09-11T13:17:38Z</time>
      </trkpt>
      <trkpt lat="49.10125" lon="1.96724">
        <ele>56</ele>
        <time>2022-09-11T13:17:43Z</time>
      </trkpt>
      <trkpt lat="49.10122" lon="1.96735">
        <ele>56</ele>
        <time>2022-09-11T13:17:49Z</time>
      </trkpt>
      <trkpt lat="49.10118" lon="1.96745">
        <ele>56.3</ele>
        <time>2022-09-11T13:17:55Z</time>
      </trkpt>
      <trkpt lat="49.10115" lon="1.96757">
        <ele>56.1</ele>
        <time>2022-09-11T13:18:01Z</time>
      </trkpt>
      <trkpt lat="49.10112" lon="1.96769">
        <ele>55.6</ele>
        <time>2022-09-11T13:18:07Z</time>
      </trkpt>
      <trkpt lat="49.10108" lon="1.96778">
        <ele>55.2</ele>
        <time>2022-09-11T13:18:12Z</time>
      </trkpt>
      <trkpt lat="49.10105" lon="1.96786">
        <ele>54.9</ele>
        <time>2022-09-11T13:18:17Z</time>
      </trkpt>
      <trkpt lat="49.10102" lon="1.96798">
        <ele>54.4</ele>
        <time>2022-09-11T13:18:23Z</time>
      </trkpt>
      <trkpt lat="49.10099" lon="1.96812">
        <ele>54</ele>
        <time>2022-09-11T13:18:29Z</time>
      </trkpt>
      <trkpt lat="49.10096" lon="1.96824">
        <ele>53.6</ele>
        <time>2022-09-11T13:18:35Z</time>
      </trkpt>
      <trkpt lat="49.10092" lon="1.96838">
        <ele>53.2</ele>
        <time>2022-09-11T13:18:41Z</time>
      </trkpt>
      <trkpt lat="49.10089" lon="1.9685">
        <ele>53</ele>
        <time>2022-09-11T13:18:47Z</time>
      </trkpt>
      <trkpt lat="49.10089" lon="1.96853">
        <ele>52.9</ele>
        <time>2022-09-11T13:18:52Z</time>
      </trkpt>
      <trkpt lat="49.1009" lon="1.96852">
        <ele>52.9</ele>
        <time>2022-09-11T13:18:58Z</time>
      </trkpt>
      <trkpt lat="49.1009" lon="1.96851">
        <ele>52.9</ele>
        <time>2022-09-11T13:19:04Z</time>
      </trkpt>
      <trkpt lat="49.1009" lon="1.9685">
        <ele>52.9</ele>
        <time>2022-09-11T13:19:09Z</time>
      </trkpt>
      <trkpt lat="49.10091" lon="1.96849">
        <ele>52.9</ele>
        <time>2022-09-11T13:19:15Z</time>
      </trkpt>
      <trkpt lat="49.10091" lon="1.9685">
        <ele>52.9</ele>
        <time>2022-09-11T13:19:25Z</time>
      </trkpt>
      <trkpt lat="49.1009" lon="1.96851">
        <ele>52.9</ele>
        <time>2022-09-11T13:19:31Z</time>
      </trkpt>
      <trkpt lat="49.10089" lon="1.96851">
        <ele>53</ele>
        <time>2022-09-11T13:19:37Z</time>
      </trkpt>
      <trkpt lat="49.10089" lon="1.9685">
        <ele>53</ele>
        <time>2022-09-11T13:19:43Z</time>
      </trkpt>
      <trkpt lat="49.10089" lon="1.96851">
        <ele>52.9</ele>
        <time>2022-09-11T13:19:54Z</time>
      </trkpt>
      <trkpt lat="49.10089" lon="1.96852">
        <ele>52.9</ele>
        <time>2022-09-11T13:19:59Z</time>
      </trkpt>
      <trkpt lat="49.10089" lon="1.96853">
        <ele>52.9</ele>
        <time>2022-09-11T13:20:05Z</time>
      </trkpt>
      <trkpt lat="49.10089" lon="1.96854">
        <ele>52.9</ele>
        <time>2022-09-11T13:20:11Z</time>
      </trkpt>
      <trkpt lat="49.10088" lon="1.96854">
        <ele>52.9</ele>
        <time>2022-09-11T13:20:21Z</time>
      </trkpt>
      <trkpt lat="49.10088" lon="1.96853">
        <ele>53</ele>
        <time>2022-09-11T13:20:43Z</time>
      </trkpt>
      <trkpt lat="49.10087" lon="1.96852">
        <ele>53.1</ele>
        <time>2022-09-11T13:20:49Z</time>
      </trkpt>
      <trkpt lat="49.10087" lon="1.96849">
        <ele>53.2</ele>
        <time>2022-09-11T13:20:55Z</time>
      </trkpt>
      <trkpt lat="49.10088" lon="1.96848">
        <ele>53.2</ele>
        <time>2022-09-11T13:21:00Z</time>
      </trkpt>
      <trkpt lat="49.10088" lon="1.9685">
        <ele>53.1</ele>
        <time>2022-09-11T13:21:06Z</time>
      </trkpt>
      <trkpt lat="49.10084" lon="1.96854">
        <ele>53.2</ele>
        <time>2022-09-11T13:21:11Z</time>
      </trkpt>
      <trkpt lat="49.1008" lon="1.96862">
        <ele>53.2</ele>
        <time>2022-09-11T13:21:16Z</time>
      </trkpt>
      <trkpt lat="49.10075" lon="1.96871">
        <ele>53.1</ele>
        <time>2022-09-11T13:21:22Z</time>
      </trkpt>
      <trkpt lat="49.10071" lon="1.9688">
        <ele>52.9</ele>
        <time>2022-09-11T13:21:27Z</time>
      </trkpt>
      <trkpt lat="49.1007" lon="1.96889">
        <ele>52.5</ele>
        <time>2022-09-11T13:21:33Z</time>
      </trkpt>
      <trkpt lat="49.10068" lon="1.96898">
        <ele>52.2</ele>
        <time>2022-09-11T13:21:38Z</time>
      </trkpt>
      <trkpt lat="49.10066" lon="1.96906">
        <ele>52</ele>
        <time>2022-09-11T13:21:43Z</time>
      </trkpt>
      <trkpt lat="49.10067" lon="1.96916">
        <ele>51.6</ele>
        <time>2022-09-11T13:21:48Z</time>
      </trkpt>
      <trkpt lat="49.10071" lon="1.96928">
        <ele>51.3</ele>
        <time>2022-09-11T13:21:54Z</time>
      </trkpt>
      <trkpt lat="49.10076" lon="1.96939">
        <ele>51.1</ele>
        <time>2022-09-11T13:22:00Z</time>
      </trkpt>
      <trkpt lat="49.1008" lon="1.96948">
        <ele>50.9</ele>
        <time>2022-09-11T13:22:05Z</time>
      </trkpt>
      <trkpt lat="49.10084" lon="1.96956">
        <ele>50.5</ele>
        <time>2022-09-11T13:22:11Z</time>
      </trkpt>
      <trkpt lat="49.10089" lon="1.96962">
        <ele>50.1</ele>
        <time>2022-09-11T13:22:16Z</time>
      </trkpt>
      <trkpt lat="49.10092" lon="1.96973">
        <ele>49.6</ele>
        <time>2022-09-11T13:22:22Z</time>
      </trkpt>
      <trkpt lat="49.10096" lon="1.96986">
        <ele>49.3</ele>
        <time>2022-09-11T13:22:28Z</time>
      </trkpt>
      <trkpt lat="49.10097" lon="1.96996">
        <ele>49.1</ele>
        <time>2022-09-11T13:22:33Z</time>
      </trkpt>
      <trkpt lat="49.10097" lon="1.97003">
        <ele>49.1</ele>
        <time>2022-09-11T13:22:38Z</time>
      </trkpt>
      <trkpt lat="49.10095" lon="1.97013">
        <ele>49.3</ele>
        <time>2022-09-11T13:22:43Z</time>
      </trkpt>
      <trkpt lat="49.10092" lon="1.97024">
        <ele>49.6</ele>
        <time>2022-09-11T13:22:49Z</time>
      </trkpt>
      <trkpt lat="49.10086" lon="1.97027">
        <ele>49.9</ele>
        <time>2022-09-11T13:22:55Z</time>
      </trkpt>
      <trkpt lat="49.10078" lon="1.9703">
        <ele>49.9</ele>
        <time>2022-09-11T13:23:00Z</time>
      </trkpt>
      <trkpt lat="49.10073" lon="1.97031">
        <ele>49.9</ele>
        <time>2022-09-11T13:23:06Z</time>
      </trkpt>
      <trkpt lat="49.10065" lon="1.97032">
        <ele>49.9</ele>
        <time>2022-09-11T13:23:11Z</time>
      </trkpt>
      <trkpt lat="49.10059" lon="1.97032">
        <ele>50</ele>
        <time>2022-09-11T13:23:16Z</time>
      </trkpt>
      <trkpt lat="49.10052" lon="1.97032">
        <ele>50</ele>
        <time>2022-09-11T13:23:22Z</time>
      </trkpt>
      <trkpt lat="49.10046" lon="1.97039">
        <ele>50</ele>
        <time>2022-09-11T13:23:27Z</time>
      </trkpt>
      <trkpt lat="49.10039" lon="1.97046">
        <ele>50</ele>
        <time>2022-09-11T13:23:33Z</time>
      </trkpt>
      <trkpt lat="49.10032" lon="1.97051">
        <ele>50</ele>
        <time>2022-09-11T13:23:38Z</time>
      </trkpt>
      <trkpt lat="49.10025" lon="1.97055">
        <ele>50</ele>
        <time>2022-09-11T13:23:43Z</time>
      </trkpt>
      <trkpt lat="49.10016" lon="1.97059">
        <ele>50.1</ele>
        <time>2022-09-11T13:23:49Z</time>
      </trkpt>
      <trkpt lat="49.10007" lon="1.97062">
        <ele>50.2</ele>
        <time>2022-09-11T13:23:55Z</time>
      </trkpt>
      <trkpt lat="49.09999" lon="1.97065">
        <ele>50.3</ele>
        <time>2022-09-11T13:24:01Z</time>
      </trkpt>
      <trkpt lat="49.09992" lon="1.97067">
        <ele>50.3</ele>
        <time>2022-09-11T13:24:06Z</time>
      </trkpt>
      <trkpt lat="49.09985" lon="1.9707">
        <ele>50.2</ele>
        <time>2022-09-11T13:24:11Z</time>
      </trkpt>
      <trkpt lat="49.09979" lon="1.97073">
        <ele>50.2</ele>
        <time>2022-09-11T13:24:17Z</time>
      </trkpt>
      <trkpt lat="49.09972" lon="1.97079">
        <ele>50</ele>
        <time>2022-09-11T13:24:23Z</time>
      </trkpt>
      <trkpt lat="49.09968" lon="1.97088">
        <ele>50</ele>
        <time>2022-09-11T13:24:29Z</time>
      </trkpt>
      <trkpt lat="49.09969" lon="1.97097">
        <ele>50</ele>
        <time>2022-09-11T13:24:36Z</time>
      </trkpt>
      <trkpt lat="49.09971" lon="1.97097">
        <ele>50</ele>
        <time>2022-09-11T13:24:41Z</time>
      </trkpt>
      <trkpt lat="49.09971" lon="1.97091">
        <ele>50</ele>
        <time>2022-09-11T13:24:47Z</time>
      </trkpt>
    </trkseg>
  </trk>
</gpx>